<?xml version='1.0' encoding='UTF-8'?><gpx version="1.1" creator="JPX - https://github.com/jenetics/jpx" xmlns="http://www.topografix.com/GPX/1/1"><trk><trkseg><trkpt lat="45.3945934" lon="10.4845641"><ele>103.99999999999999</ele><time>2026-03-29T07:15:51.688Z</time></trkpt><trkpt lat="45.3946863" lon="10.4845703"><ele>104.0</ele><time>2026-03-29T07:15:56.189Z</time></trkpt><trkpt lat="45.3947495" lon="10.4845791"><ele>104.0</ele><time>2026-03-29T07:15:59.189Z</time></trkpt><trkpt lat="45.3946832" lon="10.484569"><ele>104.0</ele><time>2026-03-29T07:16:08.189Z</time></trkpt><trkpt lat="45.3946186" lon="10.4845673"><ele>103.99999999999999</ele><time>2026-03-29T07:16:09.188Z</time></trkpt><trkpt lat="45.3945437" lon="10.484563"><ele>104.0</ele><time>2026-03-29T07:16:12.188Z</time></trkpt><trkpt lat="45.3945007" lon="10.4844178"><ele>104.0</ele><time>2026-03-29T07:16:19.19Z</time></trkpt><trkpt lat="45.3944851" lon="10.4843143"><ele>104.0</ele><time>2026-03-29T07:16:20.189Z</time></trkpt><trkpt lat="45.3944672" lon="10.4842004"><ele>104.0</ele><time>2026-03-29T07:16:21.19Z</time></trkpt><trkpt lat="45.3944466" lon="10.4840691"><ele>104.0</ele><time>2026-03-29T07:16:22.19Z</time></trkpt><trkpt lat="45.3944244" lon="10.4839197"><ele>104.0</ele><time>2026-03-29T07:16:23.189Z</time></trkpt><trkpt lat="45.3944007" lon="10.4837525"><ele>104.0</ele><time>2026-03-29T07:16:24.189Z</time></trkpt><trkpt lat="45.3943756" lon="10.4835761"><ele>104.0</ele><time>2026-03-29T07:16:25.19Z</time></trkpt><trkpt lat="45.3943519" lon="10.4834033"><ele>104.0</ele><time>2026-03-29T07:16:26.19Z</time></trkpt><trkpt lat="45.3943301" lon="10.4832433"><ele>104.0</ele><time>2026-03-29T07:16:27.191Z</time></trkpt><trkpt lat="45.3943029" lon="10.4830967"><ele>103.99999999999999</ele><time>2026-03-29T07:16:28.189Z</time></trkpt><trkpt lat="45.3942837" lon="10.4829563"><ele>104.0</ele><time>2026-03-29T07:16:29.19Z</time></trkpt><trkpt lat="45.394268" lon="10.4828203"><ele>104.0</ele><time>2026-03-29T07:16:30.191Z</time></trkpt><trkpt lat="45.3942456" lon="10.4826918"><ele>104.0</ele><time>2026-03-29T07:16:31.192Z</time></trkpt><trkpt lat="45.394221" lon="10.4825783"><ele>103.99999999999999</ele><time>2026-03-29T07:16:32.19Z</time></trkpt><trkpt lat="45.3941933" lon="10.4824893"><ele>104.0</ele><time>2026-03-29T07:16:33.19Z</time></trkpt><trkpt lat="45.3941558" lon="10.4824083"><ele>103.80000000000001</ele><time>2026-03-29T07:16:35.196Z</time></trkpt><trkpt lat="45.3940917" lon="10.482375"><ele>103.60000000000001</ele><time>2026-03-29T07:17:28.189Z</time></trkpt><trkpt lat="45.3940217" lon="10.4823417"><ele>103.4</ele><time>2026-03-29T07:17:29.191Z</time></trkpt><trkpt lat="45.3939333" lon="10.482305"><ele>103.2</ele><time>2026-03-29T07:17:30.189Z</time></trkpt><trkpt lat="45.3938317" lon="10.4822617"><ele>103.0</ele><time>2026-03-29T07:17:31.19Z</time></trkpt><trkpt lat="45.393725" lon="10.482215"><ele>103.0</ele><time>2026-03-29T07:17:32.19Z</time></trkpt><trkpt lat="45.39361" lon="10.4821633"><ele>103.0</ele><time>2026-03-29T07:17:33.19Z</time></trkpt><trkpt lat="45.393485" lon="10.4821117"><ele>103.0</ele><time>2026-03-29T07:17:34.19Z</time></trkpt><trkpt lat="45.3933567" lon="10.4820533"><ele>103.0</ele><time>2026-03-29T07:17:35.19Z</time></trkpt><trkpt lat="45.393225" lon="10.4819983"><ele>102.75</ele><time>2026-03-29T07:17:36.19Z</time></trkpt><trkpt lat="45.39309" lon="10.4819417"><ele>102.5</ele><time>2026-03-29T07:17:37.191Z</time></trkpt><trkpt lat="45.39296" lon="10.4818817"><ele>102.25</ele><time>2026-03-29T07:17:38.19Z</time></trkpt><trkpt lat="45.3928383" lon="10.4818233"><ele>102.0</ele><time>2026-03-29T07:17:39.189Z</time></trkpt><trkpt lat="45.3927283" lon="10.4817717"><ele>101.75</ele><time>2026-03-29T07:17:40.19Z</time></trkpt><trkpt lat="45.3926133" lon="10.481725"><ele>101.5</ele><time>2026-03-29T07:17:41.19Z</time></trkpt><trkpt lat="45.3924967" lon="10.481685"><ele>101.25</ele><time>2026-03-29T07:17:42.19Z</time></trkpt><trkpt lat="45.39237" lon="10.481655"><ele>101.0</ele><time>2026-03-29T07:17:43.19Z</time></trkpt><trkpt lat="45.3922367" lon="10.4816417"><ele>100.75</ele><time>2026-03-29T07:17:44.191Z</time></trkpt><trkpt lat="45.392095" lon="10.481645"><ele>100.5</ele><time>2026-03-29T07:17:45.189Z</time></trkpt><trkpt lat="45.39195" lon="10.4816683"><ele>100.25</ele><time>2026-03-29T07:17:46.19Z</time></trkpt><trkpt lat="45.3918067" lon="10.481705"><ele>100.0</ele><time>2026-03-29T07:17:47.189Z</time></trkpt><trkpt lat="45.3916633" lon="10.4817533"><ele>100.0</ele><time>2026-03-29T07:17:48.189Z</time></trkpt><trkpt lat="45.3915117" lon="10.481815"><ele>100.0</ele><time>2026-03-29T07:17:49.19Z</time></trkpt><trkpt lat="45.3913517" lon="10.4818833"><ele>100.0</ele><time>2026-03-29T07:17:50.19Z</time></trkpt><trkpt lat="45.3911933" lon="10.48195"><ele>100.0</ele><time>2026-03-29T07:17:51.189Z</time></trkpt><trkpt lat="45.3910367" lon="10.4820183"><ele>100.0</ele><time>2026-03-29T07:17:52.189Z</time></trkpt><trkpt lat="45.39088" lon="10.4820817"><ele>100.0</ele><time>2026-03-29T07:17:53.19Z</time></trkpt><trkpt lat="45.3907283" lon="10.4821383"><ele>100.0</ele><time>2026-03-29T07:17:54.189Z</time></trkpt><trkpt lat="45.3905783" lon="10.482195"><ele>100.0</ele><time>2026-03-29T07:17:55.191Z</time></trkpt><trkpt lat="45.3904283" lon="10.4822467"><ele>100.0</ele><time>2026-03-29T07:17:56.19Z</time></trkpt><trkpt lat="45.390275" lon="10.4822867"><ele>99.66666666666667</ele><time>2026-03-29T07:17:57.189Z</time></trkpt><trkpt lat="45.3901167" lon="10.4823117"><ele>99.33333333333334</ele><time>2026-03-29T07:17:58.189Z</time></trkpt><trkpt lat="45.3899567" lon="10.48232"><ele>99.0</ele><time>2026-03-29T07:17:59.191Z</time></trkpt><trkpt lat="45.3897967" lon="10.482315"><ele>98.33333333333334</ele><time>2026-03-29T07:18:00.189Z</time></trkpt><trkpt lat="45.3896383" lon="10.4822983"><ele>97.66666666666667</ele><time>2026-03-29T07:18:01.191Z</time></trkpt><trkpt lat="45.3894817" lon="10.48227"><ele>97.0</ele><time>2026-03-29T07:18:02.19Z</time></trkpt><trkpt lat="45.3893267" lon="10.4822133"><ele>97.0</ele><time>2026-03-29T07:18:03.189Z</time></trkpt><trkpt lat="45.3891733" lon="10.48214"><ele>97.0</ele><time>2026-03-29T07:18:04.19Z</time></trkpt><trkpt lat="45.3890317" lon="10.4820617"><ele>97.0</ele><time>2026-03-29T07:18:05.191Z</time></trkpt><trkpt lat="45.3889033" lon="10.481985"><ele>96.8</ele><time>2026-03-29T07:18:06.19Z</time></trkpt><trkpt lat="45.38879" lon="10.4819167"><ele>96.6</ele><time>2026-03-29T07:18:07.19Z</time></trkpt><trkpt lat="45.388695" lon="10.481855"><ele>96.39999999999999</ele><time>2026-03-29T07:18:08.19Z</time></trkpt><trkpt lat="45.388615" lon="10.4817933"><ele>96.19999999999999</ele><time>2026-03-29T07:18:09.189Z</time></trkpt><trkpt lat="45.3885483" lon="10.4817283"><ele>96.0</ele><time>2026-03-29T07:18:10.188Z</time></trkpt><trkpt lat="45.3884867" lon="10.48166"><ele>96.0</ele><time>2026-03-29T07:18:11.189Z</time></trkpt><trkpt lat="45.3884283" lon="10.4816033"><ele>96.0</ele><time>2026-03-29T07:18:12.189Z</time></trkpt><trkpt lat="45.388365" lon="10.4815767"><ele>96.0</ele><time>2026-03-29T07:18:13.189Z</time></trkpt><trkpt lat="45.388255" lon="10.48163"><ele>96.0</ele><time>2026-03-29T07:18:15.19Z</time></trkpt><trkpt lat="45.3882183" lon="10.48173"><ele>96.0</ele><time>2026-03-29T07:18:16.189Z</time></trkpt><trkpt lat="45.388175" lon="10.4818517"><ele>96.0</ele><time>2026-03-29T07:18:17.189Z</time></trkpt><trkpt lat="45.3881" lon="10.4820133"><ele>95.0</ele><time>2026-03-29T07:18:18.19Z</time></trkpt><trkpt lat="45.3880033" lon="10.482185"><ele>94.0</ele><time>2026-03-29T07:18:19.188Z</time></trkpt><trkpt lat="45.3878733" lon="10.4823933"><ele>93.0</ele><time>2026-03-29T07:18:20.189Z</time></trkpt><trkpt lat="45.387745" lon="10.4825933"><ele>93.0</ele><time>2026-03-29T07:18:21.189Z</time></trkpt><trkpt lat="45.387615" lon="10.4827933"><ele>93.0</ele><time>2026-03-29T07:18:22.189Z</time></trkpt><trkpt lat="45.38749" lon="10.482985"><ele>93.0</ele><time>2026-03-29T07:18:23.188Z</time></trkpt><trkpt lat="45.387365" lon="10.4831683"><ele>92.66666666666667</ele><time>2026-03-29T07:18:24.189Z</time></trkpt><trkpt lat="45.3872433" lon="10.4833433"><ele>92.33333333333334</ele><time>2026-03-29T07:18:25.189Z</time></trkpt><trkpt lat="45.3871217" lon="10.4835133"><ele>92.0</ele><time>2026-03-29T07:18:26.189Z</time></trkpt><trkpt lat="45.3870033" lon="10.48368"><ele>92.0</ele><time>2026-03-29T07:18:27.188Z</time></trkpt><trkpt lat="45.3868933" lon="10.4838433"><ele>92.0</ele><time>2026-03-29T07:18:28.188Z</time></trkpt><trkpt lat="45.3867883" lon="10.484005"><ele>92.0</ele><time>2026-03-29T07:18:29.187Z</time></trkpt><trkpt lat="45.38669" lon="10.4841717"><ele>92.0</ele><time>2026-03-29T07:18:30.189Z</time></trkpt><trkpt lat="45.386595" lon="10.4843383"><ele>92.0</ele><time>2026-03-29T07:18:31.189Z</time></trkpt><trkpt lat="45.3865" lon="10.4844967"><ele>92.0</ele><time>2026-03-29T07:18:32.189Z</time></trkpt><trkpt lat="45.3864033" lon="10.48465"><ele>92.0</ele><time>2026-03-29T07:18:33.188Z</time></trkpt><trkpt lat="45.3863083" lon="10.4847983"><ele>92.0</ele><time>2026-03-29T07:18:34.189Z</time></trkpt><trkpt lat="45.386215" lon="10.4849417"><ele>92.0</ele><time>2026-03-29T07:18:35.189Z</time></trkpt><trkpt lat="45.3861283" lon="10.485075"><ele>92.0</ele><time>2026-03-29T07:18:36.19Z</time></trkpt><trkpt lat="45.386045" lon="10.485195"><ele>92.0</ele><time>2026-03-29T07:18:37.189Z</time></trkpt><trkpt lat="45.3859667" lon="10.4853"><ele>92.0</ele><time>2026-03-29T07:18:38.19Z</time></trkpt><trkpt lat="45.3858983" lon="10.4853883"><ele>92.0</ele><time>2026-03-29T07:18:39.19Z</time></trkpt><trkpt lat="45.385835" lon="10.4854583"><ele>92.0</ele><time>2026-03-29T07:18:40.189Z</time></trkpt><trkpt lat="45.385775" lon="10.4855117"><ele>92.0</ele><time>2026-03-29T07:18:41.189Z</time></trkpt><trkpt lat="45.3857133" lon="10.485555"><ele>92.0</ele><time>2026-03-29T07:18:42.189Z</time></trkpt><trkpt lat="45.3856383" lon="10.485605"><ele>92.0</ele><time>2026-03-29T07:18:43.191Z</time></trkpt><trkpt lat="45.3855583" lon="10.4856717"><ele>92.0</ele><time>2026-03-29T07:18:44.189Z</time></trkpt><trkpt lat="45.38545" lon="10.48576"><ele>92.0</ele><time>2026-03-29T07:18:45.19Z</time></trkpt><trkpt lat="45.38532" lon="10.4858517"><ele>92.0</ele><time>2026-03-29T07:18:46.193Z</time></trkpt><trkpt lat="45.3851717" lon="10.48594"><ele>92.0</ele><time>2026-03-29T07:18:47.19Z</time></trkpt><trkpt lat="45.3850117" lon="10.4860167"><ele>92.0</ele><time>2026-03-29T07:18:48.189Z</time></trkpt><trkpt lat="45.3848517" lon="10.4860783"><ele>92.0</ele><time>2026-03-29T07:18:49.193Z</time></trkpt><trkpt lat="45.3846933" lon="10.48613"><ele>92.0</ele><time>2026-03-29T07:18:50.189Z</time></trkpt><trkpt lat="45.3845333" lon="10.4861983"><ele>92.33333333333334</ele><time>2026-03-29T07:18:51.189Z</time></trkpt><trkpt lat="45.3843683" lon="10.4862817"><ele>92.66666666666667</ele><time>2026-03-29T07:18:52.189Z</time></trkpt><trkpt lat="45.3841967" lon="10.4863717"><ele>93.0</ele><time>2026-03-29T07:18:53.19Z</time></trkpt><trkpt lat="45.3840217" lon="10.4864667"><ele>92.33333333333333</ele><time>2026-03-29T07:18:54.188Z</time></trkpt><trkpt lat="45.3838383" lon="10.4865717"><ele>91.66666666666666</ele><time>2026-03-29T07:18:55.189Z</time></trkpt><trkpt lat="45.38366" lon="10.4866817"><ele>91.0</ele><time>2026-03-29T07:18:56.189Z</time></trkpt><trkpt lat="45.3834867" lon="10.4867967"><ele>91.0</ele><time>2026-03-29T07:18:57.19Z</time></trkpt><trkpt lat="45.3833233" lon="10.48691"><ele>91.0</ele><time>2026-03-29T07:18:58.19Z</time></trkpt><trkpt lat="45.38317" lon="10.4870283"><ele>91.0</ele><time>2026-03-29T07:18:59.19Z</time></trkpt><trkpt lat="45.3830233" lon="10.4871517"><ele>90.66666666666666</ele><time>2026-03-29T07:19:00.189Z</time></trkpt><trkpt lat="45.38288" lon="10.48728"><ele>90.33333333333333</ele><time>2026-03-29T07:19:01.189Z</time></trkpt><trkpt lat="45.3827417" lon="10.4874117"><ele>90.0</ele><time>2026-03-29T07:19:02.191Z</time></trkpt><trkpt lat="45.3826017" lon="10.4875467"><ele>90.0</ele><time>2026-03-29T07:19:03.19Z</time></trkpt><trkpt lat="45.38246" lon="10.4876833"><ele>90.0</ele><time>2026-03-29T07:19:04.192Z</time></trkpt><trkpt lat="45.3823167" lon="10.4878167"><ele>90.0</ele><time>2026-03-29T07:19:05.189Z</time></trkpt><trkpt lat="45.382165" lon="10.48794"><ele>90.0</ele><time>2026-03-29T07:19:06.189Z</time></trkpt><trkpt lat="45.38201" lon="10.4880483"><ele>90.0</ele><time>2026-03-29T07:19:07.189Z</time></trkpt><trkpt lat="45.3818433" lon="10.4881283"><ele>90.0</ele><time>2026-03-29T07:19:08.19Z</time></trkpt><trkpt lat="45.38167" lon="10.48819"><ele>90.0</ele><time>2026-03-29T07:19:09.188Z</time></trkpt><trkpt lat="45.3814883" lon="10.4882433"><ele>90.0</ele><time>2026-03-29T07:19:10.189Z</time></trkpt><trkpt lat="45.381305" lon="10.488305"><ele>90.0</ele><time>2026-03-29T07:19:11.188Z</time></trkpt><trkpt lat="45.3811183" lon="10.488375"><ele>88.33333333333333</ele><time>2026-03-29T07:19:12.191Z</time></trkpt><trkpt lat="45.3809317" lon="10.4884583"><ele>86.66666666666666</ele><time>2026-03-29T07:19:13.191Z</time></trkpt><trkpt lat="45.3807433" lon="10.4885567"><ele>85.0</ele><time>2026-03-29T07:19:14.191Z</time></trkpt><trkpt lat="45.3805567" lon="10.4886683"><ele>84.66666666666666</ele><time>2026-03-29T07:19:15.189Z</time></trkpt><trkpt lat="45.3803767" lon="10.4887817"><ele>84.33333333333333</ele><time>2026-03-29T07:19:16.189Z</time></trkpt><trkpt lat="45.3802" lon="10.48889"><ele>84.0</ele><time>2026-03-29T07:19:17.19Z</time></trkpt><trkpt lat="45.3800267" lon="10.489"><ele>84.0</ele><time>2026-03-29T07:19:18.189Z</time></trkpt><trkpt lat="45.379855" lon="10.4891067"><ele>84.0</ele><time>2026-03-29T07:19:19.189Z</time></trkpt><trkpt lat="45.3796817" lon="10.4892133"><ele>84.0</ele><time>2026-03-29T07:19:20.19Z</time></trkpt><trkpt lat="45.37951" lon="10.4893217"><ele>83.66666666666667</ele><time>2026-03-29T07:19:21.189Z</time></trkpt><trkpt lat="45.3793317" lon="10.48943"><ele>83.33333333333334</ele><time>2026-03-29T07:19:22.188Z</time></trkpt><trkpt lat="45.37916" lon="10.4895333"><ele>83.0</ele><time>2026-03-29T07:19:23.188Z</time></trkpt><trkpt lat="45.3790017" lon="10.4896283"><ele>83.0</ele><time>2026-03-29T07:19:24.188Z</time></trkpt><trkpt lat="45.3788533" lon="10.4897183"><ele>83.0</ele><time>2026-03-29T07:19:25.19Z</time></trkpt><trkpt lat="45.3787067" lon="10.489805"><ele>83.0</ele><time>2026-03-29T07:19:26.19Z</time></trkpt><trkpt lat="45.3785717" lon="10.489885"><ele>82.5</ele><time>2026-03-29T07:19:27.189Z</time></trkpt><trkpt lat="45.378445" lon="10.4899583"><ele>82.0</ele><time>2026-03-29T07:19:28.19Z</time></trkpt><trkpt lat="45.378325" lon="10.490025"><ele>81.5</ele><time>2026-03-29T07:19:29.189Z</time></trkpt><trkpt lat="45.3781917" lon="10.4900767"><ele>81.0</ele><time>2026-03-29T07:19:30.189Z</time></trkpt><trkpt lat="45.37804" lon="10.4901167"><ele>80.33333333333333</ele><time>2026-03-29T07:19:31.189Z</time></trkpt><trkpt lat="45.3778717" lon="10.49014"><ele>79.66666666666666</ele><time>2026-03-29T07:19:32.189Z</time></trkpt><trkpt lat="45.3776917" lon="10.490125"><ele>79.0</ele><time>2026-03-29T07:19:33.188Z</time></trkpt><trkpt lat="45.3774867" lon="10.4900783"><ele>79.0</ele><time>2026-03-29T07:19:34.19Z</time></trkpt><trkpt lat="45.3772533" lon="10.49003"><ele>79.0</ele><time>2026-03-29T07:19:35.19Z</time></trkpt><trkpt lat="45.3770067" lon="10.4899967"><ele>79.0</ele><time>2026-03-29T07:19:36.189Z</time></trkpt><trkpt lat="45.37677" lon="10.4899667"><ele>79.0</ele><time>2026-03-29T07:19:37.19Z</time></trkpt><trkpt lat="45.3765467" lon="10.489945"><ele>79.0</ele><time>2026-03-29T07:19:38.19Z</time></trkpt><trkpt lat="45.3763283" lon="10.489935"><ele>79.0</ele><time>2026-03-29T07:19:39.188Z</time></trkpt><trkpt lat="45.3761133" lon="10.489935"><ele>79.0</ele><time>2026-03-29T07:19:40.189Z</time></trkpt><trkpt lat="45.3759017" lon="10.489945"><ele>79.0</ele><time>2026-03-29T07:19:41.19Z</time></trkpt><trkpt lat="45.37569" lon="10.489955"><ele>79.0</ele><time>2026-03-29T07:19:42.188Z</time></trkpt><trkpt lat="45.375475" lon="10.4899633"><ele>79.0</ele><time>2026-03-29T07:19:43.19Z</time></trkpt><trkpt lat="45.3752567" lon="10.4899733"><ele>78.33333333333333</ele><time>2026-03-29T07:19:44.19Z</time></trkpt><trkpt lat="45.375035" lon="10.4899833"><ele>77.66666666666667</ele><time>2026-03-29T07:19:45.189Z</time></trkpt><trkpt lat="45.3748083" lon="10.4899917"><ele>77.0</ele><time>2026-03-29T07:19:46.189Z</time></trkpt><trkpt lat="45.374575" lon="10.49"><ele>77.0</ele><time>2026-03-29T07:19:47.189Z</time></trkpt><trkpt lat="45.3743383" lon="10.4900067"><ele>77.0</ele><time>2026-03-29T07:19:48.189Z</time></trkpt><trkpt lat="45.374095" lon="10.4900167"><ele>75.5</ele><time>2026-03-29T07:19:49.189Z</time></trkpt><trkpt lat="45.3738467" lon="10.4900267"><ele>74.0</ele><time>2026-03-29T07:19:50.189Z</time></trkpt><trkpt lat="45.373595" lon="10.4900383"><ele>74.0</ele><time>2026-03-29T07:19:51.19Z</time></trkpt><trkpt lat="45.37334" lon="10.4900517"><ele>74.0</ele><time>2026-03-29T07:19:52.193Z</time></trkpt><trkpt lat="45.3730867" lon="10.4900683"><ele>74.5</ele><time>2026-03-29T07:19:53.188Z</time></trkpt><trkpt lat="45.3728317" lon="10.49009"><ele>75.0</ele><time>2026-03-29T07:19:54.189Z</time></trkpt><trkpt lat="45.3725867" lon="10.4901133"><ele>75.0</ele><time>2026-03-29T07:19:55.19Z</time></trkpt><trkpt lat="45.3723517" lon="10.49014"><ele>75.0</ele><time>2026-03-29T07:19:56.189Z</time></trkpt><trkpt lat="45.3721283" lon="10.490165"><ele>75.66666666666667</ele><time>2026-03-29T07:19:57.189Z</time></trkpt><trkpt lat="45.3719067" lon="10.4901917"><ele>76.33333333333334</ele><time>2026-03-29T07:19:58.189Z</time></trkpt><trkpt lat="45.371685" lon="10.4902233"><ele>77.0</ele><time>2026-03-29T07:19:59.189Z</time></trkpt><trkpt lat="45.37146" lon="10.490265"><ele>76.5</ele><time>2026-03-29T07:20:00.189Z</time></trkpt><trkpt lat="45.3712333" lon="10.4903233"><ele>76.0</ele><time>2026-03-29T07:20:01.189Z</time></trkpt><trkpt lat="45.3710033" lon="10.490395"><ele>76.5</ele><time>2026-03-29T07:20:02.19Z</time></trkpt><trkpt lat="45.3707717" lon="10.4904733"><ele>77.0</ele><time>2026-03-29T07:20:03.191Z</time></trkpt><trkpt lat="45.370535" lon="10.4905517"><ele>76.0</ele><time>2026-03-29T07:20:04.189Z</time></trkpt><trkpt lat="45.3702983" lon="10.4906333"><ele>75.0</ele><time>2026-03-29T07:20:05.189Z</time></trkpt><trkpt lat="45.3700633" lon="10.4907133"><ele>75.0</ele><time>2026-03-29T07:20:06.188Z</time></trkpt><trkpt lat="45.3698283" lon="10.4907967"><ele>75.0</ele><time>2026-03-29T07:20:07.19Z</time></trkpt><trkpt lat="45.3695933" lon="10.4908783"><ele>74.5</ele><time>2026-03-29T07:20:08.19Z</time></trkpt><trkpt lat="45.3693633" lon="10.490955"><ele>74.0</ele><time>2026-03-29T07:20:09.189Z</time></trkpt><trkpt lat="45.3691433" lon="10.491025"><ele>74.0</ele><time>2026-03-29T07:20:10.189Z</time></trkpt><trkpt lat="45.3689267" lon="10.4910917"><ele>74.0</ele><time>2026-03-29T07:20:11.193Z</time></trkpt><trkpt lat="45.3687183" lon="10.4911567"><ele>74.0</ele><time>2026-03-29T07:20:12.189Z</time></trkpt><trkpt lat="45.3685267" lon="10.4912183"><ele>74.0</ele><time>2026-03-29T07:20:13.189Z</time></trkpt><trkpt lat="45.3683383" lon="10.4912867"><ele>74.0</ele><time>2026-03-29T07:20:14.189Z</time></trkpt><trkpt lat="45.36815" lon="10.491375"><ele>74.0</ele><time>2026-03-29T07:20:15.189Z</time></trkpt><trkpt lat="45.367955" lon="10.4915017"><ele>74.0</ele><time>2026-03-29T07:20:16.189Z</time></trkpt><trkpt lat="45.36775" lon="10.4916717"><ele>74.0</ele><time>2026-03-29T07:20:17.189Z</time></trkpt><trkpt lat="45.3675233" lon="10.4918833"><ele>73.5</ele><time>2026-03-29T07:20:18.19Z</time></trkpt><trkpt lat="45.3672933" lon="10.4921133"><ele>73.0</ele><time>2026-03-29T07:20:19.189Z</time></trkpt><trkpt lat="45.367075" lon="10.49234"><ele>73.0</ele><time>2026-03-29T07:20:20.189Z</time></trkpt><trkpt lat="45.3668683" lon="10.492555"><ele>73.0</ele><time>2026-03-29T07:20:21.188Z</time></trkpt><trkpt lat="45.3666633" lon="10.4927633"><ele>74.0</ele><time>2026-03-29T07:20:22.189Z</time></trkpt><trkpt lat="45.36647" lon="10.4929633"><ele>75.0</ele><time>2026-03-29T07:20:23.189Z</time></trkpt><trkpt lat="45.36629" lon="10.4931717"><ele>75.0</ele><time>2026-03-29T07:20:24.188Z</time></trkpt><trkpt lat="45.3661183" lon="10.4933833"><ele>75.0</ele><time>2026-03-29T07:20:25.189Z</time></trkpt><trkpt lat="45.365955" lon="10.4935867"><ele>75.0</ele><time>2026-03-29T07:20:26.19Z</time></trkpt><trkpt lat="45.3658017" lon="10.4937783"><ele>74.66666666666667</ele><time>2026-03-29T07:20:27.188Z</time></trkpt><trkpt lat="45.36566" lon="10.4939467"><ele>74.33333333333334</ele><time>2026-03-29T07:20:28.188Z</time></trkpt><trkpt lat="45.3655283" lon="10.4940933"><ele>74.0</ele><time>2026-03-29T07:20:29.188Z</time></trkpt><trkpt lat="45.365405" lon="10.494205"><ele>73.8</ele><time>2026-03-29T07:20:30.188Z</time></trkpt><trkpt lat="45.3652867" lon="10.4942883"><ele>73.60000000000001</ele><time>2026-03-29T07:20:31.19Z</time></trkpt><trkpt lat="45.3651817" lon="10.494335"><ele>73.4</ele><time>2026-03-29T07:20:32.19Z</time></trkpt><trkpt lat="45.36509" lon="10.4943483"><ele>73.2</ele><time>2026-03-29T07:20:33.19Z</time></trkpt><trkpt lat="45.364995" lon="10.4943333"><ele>73.0</ele><time>2026-03-29T07:20:34.191Z</time></trkpt><trkpt lat="45.3648983" lon="10.4943083"><ele>73.0</ele><time>2026-03-29T07:20:35.191Z</time></trkpt><trkpt lat="45.3648033" lon="10.4943033"><ele>73.0</ele><time>2026-03-29T07:20:36.191Z</time></trkpt><trkpt lat="45.36471" lon="10.4943317"><ele>73.0</ele><time>2026-03-29T07:20:37.191Z</time></trkpt><trkpt lat="45.3646083" lon="10.4944333"><ele>73.0</ele><time>2026-03-29T07:20:38.191Z</time></trkpt><trkpt lat="45.3645117" lon="10.4945433"><ele>73.0</ele><time>2026-03-29T07:20:39.19Z</time></trkpt><trkpt lat="45.3644133" lon="10.4946433"><ele>74.0</ele><time>2026-03-29T07:20:40.189Z</time></trkpt><trkpt lat="45.3643017" lon="10.4947283"><ele>75.0</ele><time>2026-03-29T07:20:41.19Z</time></trkpt><trkpt lat="45.36416" lon="10.4948117"><ele>76.0</ele><time>2026-03-29T07:20:42.19Z</time></trkpt><trkpt lat="45.3639817" lon="10.49489"><ele>76.5</ele><time>2026-03-29T07:20:43.191Z</time></trkpt><trkpt lat="45.3637683" lon="10.4949583"><ele>77.0</ele><time>2026-03-29T07:20:44.197Z</time></trkpt><trkpt lat="45.3635417" lon="10.4950217"><ele>77.0</ele><time>2026-03-29T07:20:45.194Z</time></trkpt><trkpt lat="45.3633217" lon="10.4950733"><ele>77.0</ele><time>2026-03-29T07:20:46.19Z</time></trkpt><trkpt lat="45.3630933" lon="10.4951033"><ele>76.5</ele><time>2026-03-29T07:20:47.19Z</time></trkpt><trkpt lat="45.36286" lon="10.495115"><ele>76.0</ele><time>2026-03-29T07:20:48.19Z</time></trkpt><trkpt lat="45.3626417" lon="10.4951283"><ele>76.0</ele><time>2026-03-29T07:20:49.19Z</time></trkpt><trkpt lat="45.3624417" lon="10.4951483"><ele>76.0</ele><time>2026-03-29T07:20:50.192Z</time></trkpt><trkpt lat="45.3622533" lon="10.495195"><ele>76.0</ele><time>2026-03-29T07:20:51.19Z</time></trkpt><trkpt lat="45.3620683" lon="10.495295"><ele>75.0</ele><time>2026-03-29T07:20:52.189Z</time></trkpt><trkpt lat="45.3618783" lon="10.4954617"><ele>74.0</ele><time>2026-03-29T07:20:53.19Z</time></trkpt><trkpt lat="45.3616867" lon="10.4956733"><ele>74.0</ele><time>2026-03-29T07:20:54.189Z</time></trkpt><trkpt lat="45.3615183" lon="10.4958817"><ele>74.0</ele><time>2026-03-29T07:20:55.192Z</time></trkpt><trkpt lat="45.361385" lon="10.4960533"><ele>74.0</ele><time>2026-03-29T07:20:56.192Z</time></trkpt><trkpt lat="45.3612717" lon="10.49619"><ele>74.25</ele><time>2026-03-29T07:20:57.189Z</time></trkpt><trkpt lat="45.361165" lon="10.4963"><ele>74.5</ele><time>2026-03-29T07:20:58.189Z</time></trkpt><trkpt lat="45.3610567" lon="10.4963633"><ele>74.75</ele><time>2026-03-29T07:20:59.19Z</time></trkpt><trkpt lat="45.3609217" lon="10.4964033"><ele>75.0</ele><time>2026-03-29T07:21:00.189Z</time></trkpt><trkpt lat="45.3607917" lon="10.49644"><ele>75.0</ele><time>2026-03-29T07:21:01.19Z</time></trkpt><trkpt lat="45.3606917" lon="10.4964983"><ele>75.0</ele><time>2026-03-29T07:21:02.191Z</time></trkpt><trkpt lat="45.3606117" lon="10.4966167"><ele>75.0</ele><time>2026-03-29T07:21:03.19Z</time></trkpt><trkpt lat="45.3605433" lon="10.4967983"><ele>75.0</ele><time>2026-03-29T07:21:04.19Z</time></trkpt><trkpt lat="45.3604817" lon="10.4970067"><ele>74.75</ele><time>2026-03-29T07:21:05.19Z</time></trkpt><trkpt lat="45.360425" lon="10.49718"><ele>74.5</ele><time>2026-03-29T07:21:06.191Z</time></trkpt><trkpt lat="45.36037" lon="10.497315"><ele>74.25</ele><time>2026-03-29T07:21:07.19Z</time></trkpt><trkpt lat="45.3603117" lon="10.4974533"><ele>74.0</ele><time>2026-03-29T07:21:08.19Z</time></trkpt><trkpt lat="45.3602433" lon="10.497635"><ele>74.0</ele><time>2026-03-29T07:21:09.19Z</time></trkpt><trkpt lat="45.3601517" lon="10.4978583"><ele>74.0</ele><time>2026-03-29T07:21:10.189Z</time></trkpt><trkpt lat="45.3600383" lon="10.4981133"><ele>74.0</ele><time>2026-03-29T07:21:11.193Z</time></trkpt><trkpt lat="45.359905" lon="10.498395"><ele>73.5</ele><time>2026-03-29T07:21:12.191Z</time></trkpt><trkpt lat="45.35977" lon="10.49868"><ele>73.0</ele><time>2026-03-29T07:21:13.194Z</time></trkpt><trkpt lat="45.3596417" lon="10.49895"><ele>73.66666666666666</ele><time>2026-03-29T07:21:14.19Z</time></trkpt><trkpt lat="45.3595167" lon="10.4992117"><ele>74.33333333333333</ele><time>2026-03-29T07:21:15.19Z</time></trkpt><trkpt lat="45.3593933" lon="10.49947"><ele>75.0</ele><time>2026-03-29T07:21:16.19Z</time></trkpt><trkpt lat="45.3592667" lon="10.4997267"><ele>75.5</ele><time>2026-03-29T07:21:17.19Z</time></trkpt><trkpt lat="45.35914" lon="10.4999833"><ele>76.0</ele><time>2026-03-29T07:21:18.19Z</time></trkpt><trkpt lat="45.359005" lon="10.5002567"><ele>75.5</ele><time>2026-03-29T07:21:19.191Z</time></trkpt><trkpt lat="45.3588633" lon="10.5005383"><ele>75.0</ele><time>2026-03-29T07:21:20.191Z</time></trkpt><trkpt lat="45.358725" lon="10.5008117"><ele>75.0</ele><time>2026-03-29T07:21:21.189Z</time></trkpt><trkpt lat="45.358595" lon="10.5010717"><ele>75.0</ele><time>2026-03-29T07:21:22.189Z</time></trkpt><trkpt lat="45.3584783" lon="10.5013117"><ele>75.0</ele><time>2026-03-29T07:21:23.19Z</time></trkpt><trkpt lat="45.3583633" lon="10.50155"><ele>74.66666666666667</ele><time>2026-03-29T07:21:24.191Z</time></trkpt><trkpt lat="45.3582433" lon="10.5017967"><ele>74.33333333333334</ele><time>2026-03-29T07:21:25.19Z</time></trkpt><trkpt lat="45.358125" lon="10.5020383"><ele>74.0</ele><time>2026-03-29T07:21:26.191Z</time></trkpt><trkpt lat="45.35801" lon="10.502275"><ele>74.0</ele><time>2026-03-29T07:21:27.19Z</time></trkpt><trkpt lat="45.357895" lon="10.50251"><ele>74.0</ele><time>2026-03-29T07:21:28.189Z</time></trkpt><trkpt lat="45.35778" lon="10.5027483"><ele>74.0</ele><time>2026-03-29T07:21:29.19Z</time></trkpt><trkpt lat="45.3576617" lon="10.502985"><ele>73.66666666666667</ele><time>2026-03-29T07:21:30.19Z</time></trkpt><trkpt lat="45.35754" lon="10.5032217"><ele>73.33333333333333</ele><time>2026-03-29T07:21:31.192Z</time></trkpt><trkpt lat="45.35742" lon="10.5034567"><ele>73.0</ele><time>2026-03-29T07:21:32.193Z</time></trkpt><trkpt lat="45.3573017" lon="10.5036917"><ele>73.0</ele><time>2026-03-29T07:21:33.19Z</time></trkpt><trkpt lat="45.3571883" lon="10.50393"><ele>73.0</ele><time>2026-03-29T07:21:34.191Z</time></trkpt><trkpt lat="45.357075" lon="10.5041667"><ele>73.0</ele><time>2026-03-29T07:21:35.19Z</time></trkpt><trkpt lat="45.356955" lon="10.5044067"><ele>73.66666666666666</ele><time>2026-03-29T07:21:36.19Z</time></trkpt><trkpt lat="45.356835" lon="10.5046483"><ele>74.33333333333333</ele><time>2026-03-29T07:21:37.19Z</time></trkpt><trkpt lat="45.356715" lon="10.5048833"><ele>75.0</ele><time>2026-03-29T07:21:38.19Z</time></trkpt><trkpt lat="45.3566033" lon="10.5051067"><ele>75.0</ele><time>2026-03-29T07:21:39.189Z</time></trkpt><trkpt lat="45.3564933" lon="10.505325"><ele>75.0</ele><time>2026-03-29T07:21:40.19Z</time></trkpt><trkpt lat="45.3563867" lon="10.5055367"><ele>75.0</ele><time>2026-03-29T07:21:41.191Z</time></trkpt><trkpt lat="45.356285" lon="10.505745"><ele>75.0</ele><time>2026-03-29T07:21:42.191Z</time></trkpt><trkpt lat="45.356185" lon="10.50595"><ele>75.0</ele><time>2026-03-29T07:21:43.196Z</time></trkpt><trkpt lat="45.3560833" lon="10.5061567"><ele>75.0</ele><time>2026-03-29T07:21:44.196Z</time></trkpt><trkpt lat="45.35598" lon="10.5063633"><ele>75.66666666666667</ele><time>2026-03-29T07:21:45.189Z</time></trkpt><trkpt lat="45.3558767" lon="10.5065717"><ele>76.33333333333334</ele><time>2026-03-29T07:21:46.192Z</time></trkpt><trkpt lat="45.355775" lon="10.5067833"><ele>77.0</ele><time>2026-03-29T07:21:47.191Z</time></trkpt><trkpt lat="45.35567" lon="10.5069983"><ele>77.0</ele><time>2026-03-29T07:21:48.189Z</time></trkpt><trkpt lat="45.3555617" lon="10.507215"><ele>77.0</ele><time>2026-03-29T07:21:49.19Z</time></trkpt><trkpt lat="45.3554517" lon="10.5074333"><ele>77.0</ele><time>2026-03-29T07:21:50.19Z</time></trkpt><trkpt lat="45.355335" lon="10.50765"><ele>77.0</ele><time>2026-03-29T07:21:51.189Z</time></trkpt><trkpt lat="45.3552183" lon="10.50787"><ele>77.0</ele><time>2026-03-29T07:21:52.189Z</time></trkpt><trkpt lat="45.3551033" lon="10.5080917"><ele>77.0</ele><time>2026-03-29T07:21:53.19Z</time></trkpt><trkpt lat="45.354985" lon="10.5083167"><ele>77.0</ele><time>2026-03-29T07:21:54.19Z</time></trkpt><trkpt lat="45.35487" lon="10.5085367"><ele>77.0</ele><time>2026-03-29T07:21:55.191Z</time></trkpt><trkpt lat="45.3547567" lon="10.5087567"><ele>77.0</ele><time>2026-03-29T07:21:56.192Z</time></trkpt><trkpt lat="45.3546433" lon="10.508975"><ele>77.33333333333334</ele><time>2026-03-29T07:21:57.19Z</time></trkpt><trkpt lat="45.3545317" lon="10.509195"><ele>77.66666666666667</ele><time>2026-03-29T07:21:58.19Z</time></trkpt><trkpt lat="45.3544217" lon="10.50942"><ele>78.0</ele><time>2026-03-29T07:21:59.19Z</time></trkpt><trkpt lat="45.3543083" lon="10.5096483"><ele>77.33333333333333</ele><time>2026-03-29T07:22:00.189Z</time></trkpt><trkpt lat="45.3541933" lon="10.50988"><ele>76.66666666666666</ele><time>2026-03-29T07:22:01.19Z</time></trkpt><trkpt lat="45.3540783" lon="10.5101117"><ele>76.0</ele><time>2026-03-29T07:22:02.19Z</time></trkpt><trkpt lat="45.3539667" lon="10.5103433"><ele>75.0</ele><time>2026-03-29T07:22:03.19Z</time></trkpt><trkpt lat="45.353855" lon="10.5105717"><ele>74.0</ele><time>2026-03-29T07:22:04.194Z</time></trkpt><trkpt lat="45.3537417" lon="10.5108017"><ele>73.0</ele><time>2026-03-29T07:22:05.189Z</time></trkpt><trkpt lat="45.3536233" lon="10.5110333"><ele>73.66666666666666</ele><time>2026-03-29T07:22:06.19Z</time></trkpt><trkpt lat="45.353505" lon="10.511265"><ele>74.33333333333333</ele><time>2026-03-29T07:22:07.189Z</time></trkpt><trkpt lat="45.3533917" lon="10.5114967"><ele>75.0</ele><time>2026-03-29T07:22:08.191Z</time></trkpt><trkpt lat="45.35328" lon="10.5117283"><ele>75.0</ele><time>2026-03-29T07:22:09.19Z</time></trkpt><trkpt lat="45.3531667" lon="10.5119583"><ele>75.0</ele><time>2026-03-29T07:22:10.189Z</time></trkpt><trkpt lat="45.3530517" lon="10.51219"><ele>75.0</ele><time>2026-03-29T07:22:11.191Z</time></trkpt><trkpt lat="45.3529367" lon="10.51242"><ele>75.33333333333333</ele><time>2026-03-29T07:22:12.19Z</time></trkpt><trkpt lat="45.3528217" lon="10.51265"><ele>75.66666666666666</ele><time>2026-03-29T07:22:13.189Z</time></trkpt><trkpt lat="45.3527033" lon="10.512885"><ele>76.0</ele><time>2026-03-29T07:22:14.19Z</time></trkpt><trkpt lat="45.3525883" lon="10.5131167"><ele>76.0</ele><time>2026-03-29T07:22:15.189Z</time></trkpt><trkpt lat="45.3524767" lon="10.5133483"><ele>76.0</ele><time>2026-03-29T07:22:16.189Z</time></trkpt><trkpt lat="45.3523633" lon="10.51358"><ele>76.0</ele><time>2026-03-29T07:22:17.19Z</time></trkpt><trkpt lat="45.3522483" lon="10.5138067"><ele>76.0</ele><time>2026-03-29T07:22:18.19Z</time></trkpt><trkpt lat="45.3521317" lon="10.5140333"><ele>76.0</ele><time>2026-03-29T07:22:19.19Z</time></trkpt><trkpt lat="45.3520133" lon="10.5142583"><ele>76.0</ele><time>2026-03-29T07:22:20.192Z</time></trkpt><trkpt lat="45.3518917" lon="10.514485"><ele>76.33333333333333</ele><time>2026-03-29T07:22:21.189Z</time></trkpt><trkpt lat="45.3517667" lon="10.51471"><ele>76.66666666666667</ele><time>2026-03-29T07:22:22.189Z</time></trkpt><trkpt lat="45.3516433" lon="10.5149333"><ele>77.0</ele><time>2026-03-29T07:22:23.19Z</time></trkpt><trkpt lat="45.3515233" lon="10.5151533"><ele>77.0</ele><time>2026-03-29T07:22:24.189Z</time></trkpt><trkpt lat="45.3514033" lon="10.515375"><ele>77.0</ele><time>2026-03-29T07:22:25.189Z</time></trkpt><trkpt lat="45.35128" lon="10.5156017"><ele>77.0</ele><time>2026-03-29T07:22:26.19Z</time></trkpt><trkpt lat="45.351155" lon="10.5158317"><ele>77.0</ele><time>2026-03-29T07:22:27.189Z</time></trkpt><trkpt lat="45.3510283" lon="10.5160717"><ele>77.0</ele><time>2026-03-29T07:22:28.19Z</time></trkpt><trkpt lat="45.3508983" lon="10.5163133"><ele>77.0</ele><time>2026-03-29T07:22:29.19Z</time></trkpt><trkpt lat="45.3507733" lon="10.5165483"><ele>77.0</ele><time>2026-03-29T07:22:30.191Z</time></trkpt><trkpt lat="45.3506533" lon="10.5167767"><ele>77.0</ele><time>2026-03-29T07:22:31.191Z</time></trkpt><trkpt lat="45.35054" lon="10.5169983"><ele>77.0</ele><time>2026-03-29T07:22:32.19Z</time></trkpt><trkpt lat="45.3504317" lon="10.5172233"><ele>76.0</ele><time>2026-03-29T07:22:33.19Z</time></trkpt><trkpt lat="45.3503333" lon="10.5174533"><ele>75.0</ele><time>2026-03-29T07:22:34.189Z</time></trkpt><trkpt lat="45.350245" lon="10.51768"><ele>74.0</ele><time>2026-03-29T07:22:35.194Z</time></trkpt><trkpt lat="45.350155" lon="10.517905"><ele>74.0</ele><time>2026-03-29T07:22:36.189Z</time></trkpt><trkpt lat="45.3500567" lon="10.5181333"><ele>74.0</ele><time>2026-03-29T07:22:37.19Z</time></trkpt><trkpt lat="45.3499483" lon="10.5183733"><ele>74.0</ele><time>2026-03-29T07:22:38.193Z</time></trkpt><trkpt lat="45.3498367" lon="10.5186117"><ele>74.33333333333334</ele><time>2026-03-29T07:22:39.191Z</time></trkpt><trkpt lat="45.3497333" lon="10.5188267"><ele>74.66666666666667</ele><time>2026-03-29T07:22:40.19Z</time></trkpt><trkpt lat="45.3496467" lon="10.5190033"><ele>75.0</ele><time>2026-03-29T07:22:41.19Z</time></trkpt><trkpt lat="45.3495733" lon="10.5191533"><ele>75.0</ele><time>2026-03-29T07:22:42.189Z</time></trkpt><trkpt lat="45.3495133" lon="10.519285"><ele>75.0</ele><time>2026-03-29T07:22:43.192Z</time></trkpt><trkpt lat="45.3494633" lon="10.519385"><ele>75.0</ele><time>2026-03-29T07:22:44.19Z</time></trkpt><trkpt lat="45.34942" lon="10.5194667"><ele>75.0</ele><time>2026-03-29T07:22:45.189Z</time></trkpt><trkpt lat="45.349375" lon="10.5195517"><ele>75.0</ele><time>2026-03-29T07:22:46.19Z</time></trkpt><trkpt lat="45.3493217" lon="10.5196617"><ele>75.0</ele><time>2026-03-29T07:22:47.191Z</time></trkpt><trkpt lat="45.3492467" lon="10.5197983"><ele>75.25</ele><time>2026-03-29T07:22:48.19Z</time></trkpt><trkpt lat="45.3491683" lon="10.5199483"><ele>75.5</ele><time>2026-03-29T07:22:49.19Z</time></trkpt><trkpt lat="45.3490833" lon="10.5201017"><ele>75.75</ele><time>2026-03-29T07:22:50.192Z</time></trkpt><trkpt lat="45.349" lon="10.5202583"><ele>76.0</ele><time>2026-03-29T07:22:51.19Z</time></trkpt><trkpt lat="45.3489217" lon="10.52041"><ele>76.2</ele><time>2026-03-29T07:22:52.19Z</time></trkpt><trkpt lat="45.3488483" lon="10.5205483"><ele>76.39999999999999</ele><time>2026-03-29T07:22:53.191Z</time></trkpt><trkpt lat="45.3487817" lon="10.5206733"><ele>76.6</ele><time>2026-03-29T07:22:54.191Z</time></trkpt><trkpt lat="45.34872" lon="10.5207867"><ele>76.8</ele><time>2026-03-29T07:22:55.189Z</time></trkpt><trkpt lat="45.3486667" lon="10.5208833"><ele>77.0</ele><time>2026-03-29T07:22:56.191Z</time></trkpt><trkpt lat="45.3486217" lon="10.5209767"><ele>77.0</ele><time>2026-03-29T07:22:57.19Z</time></trkpt><trkpt lat="45.3485767" lon="10.5210733"><ele>77.0</ele><time>2026-03-29T07:22:58.189Z</time></trkpt><trkpt lat="45.3485233" lon="10.5211833"><ele>77.0</ele><time>2026-03-29T07:22:59.19Z</time></trkpt><trkpt lat="45.34846" lon="10.521315"><ele>77.0</ele><time>2026-03-29T07:23:00.189Z</time></trkpt><trkpt lat="45.348385" lon="10.5214667"><ele>77.0</ele><time>2026-03-29T07:23:01.191Z</time></trkpt><trkpt lat="45.348305" lon="10.5216233"><ele>76.75</ele><time>2026-03-29T07:23:02.19Z</time></trkpt><trkpt lat="45.3482283" lon="10.5217683"><ele>76.5</ele><time>2026-03-29T07:23:03.191Z</time></trkpt><trkpt lat="45.3481533" lon="10.5219117"><ele>76.25</ele><time>2026-03-29T07:23:04.189Z</time></trkpt><trkpt lat="45.348085" lon="10.5220567"><ele>76.0</ele><time>2026-03-29T07:23:05.19Z</time></trkpt><trkpt lat="45.3480133" lon="10.5222017"><ele>76.39999999999999</ele><time>2026-03-29T07:23:06.189Z</time></trkpt><trkpt lat="45.3479483" lon="10.522335"><ele>76.8</ele><time>2026-03-29T07:23:07.19Z</time></trkpt><trkpt lat="45.3478917" lon="10.5224517"><ele>77.19999999999999</ele><time>2026-03-29T07:23:08.189Z</time></trkpt><trkpt lat="45.347835" lon="10.5225667"><ele>77.6</ele><time>2026-03-29T07:23:09.19Z</time></trkpt><trkpt lat="45.3477733" lon="10.5226833"><ele>78.0</ele><time>2026-03-29T07:23:10.189Z</time></trkpt><trkpt lat="45.3477167" lon="10.5227967"><ele>78.0</ele><time>2026-03-29T07:23:11.189Z</time></trkpt><trkpt lat="45.34767" lon="10.5228967"><ele>78.0</ele><time>2026-03-29T07:23:12.191Z</time></trkpt><trkpt lat="45.3476283" lon="10.5229783"><ele>78.0</ele><time>2026-03-29T07:23:13.189Z</time></trkpt><trkpt lat="45.3475817" lon="10.523065"><ele>78.0</ele><time>2026-03-29T07:23:14.19Z</time></trkpt><trkpt lat="45.3475217" lon="10.5231717"><ele>78.0</ele><time>2026-03-29T07:23:15.191Z</time></trkpt><trkpt lat="45.3474667" lon="10.523285"><ele>78.0</ele><time>2026-03-29T07:23:16.189Z</time></trkpt><trkpt lat="45.3474117" lon="10.5234033"><ele>78.16666666666667</ele><time>2026-03-29T07:23:17.19Z</time></trkpt><trkpt lat="45.34736" lon="10.5235133"><ele>78.33333333333333</ele><time>2026-03-29T07:23:18.19Z</time></trkpt><trkpt lat="45.3473117" lon="10.5236117"><ele>78.5</ele><time>2026-03-29T07:23:19.191Z</time></trkpt><trkpt lat="45.3472617" lon="10.5237067"><ele>78.66666666666666</ele><time>2026-03-29T07:23:20.19Z</time></trkpt><trkpt lat="45.3472133" lon="10.5238"><ele>78.83333333333333</ele><time>2026-03-29T07:23:21.189Z</time></trkpt><trkpt lat="45.3471617" lon="10.523905"><ele>79.0</ele><time>2026-03-29T07:23:22.189Z</time></trkpt><trkpt lat="45.3471117" lon="10.52401"><ele>78.66666666666666</ele><time>2026-03-29T07:23:23.19Z</time></trkpt><trkpt lat="45.3470617" lon="10.5241067"><ele>78.33333333333333</ele><time>2026-03-29T07:23:24.189Z</time></trkpt><trkpt lat="45.3470117" lon="10.5242017"><ele>78.0</ele><time>2026-03-29T07:23:25.189Z</time></trkpt><trkpt lat="45.3469654" lon="10.5242928"><ele>77.66666666666667</ele><time>2026-03-29T07:23:26.189Z</time></trkpt><trkpt lat="45.3469289" lon="10.524372"><ele>77.33333333333334</ele><time>2026-03-29T07:23:27.19Z</time></trkpt><trkpt lat="45.3468949" lon="10.5244536"><ele>77.0</ele><time>2026-03-29T07:23:28.189Z</time></trkpt><trkpt lat="45.3468521" lon="10.5245521"><ele>77.25</ele><time>2026-03-29T07:23:29.189Z</time></trkpt><trkpt lat="45.3467925" lon="10.5246788"><ele>77.5</ele><time>2026-03-29T07:23:30.189Z</time></trkpt><trkpt lat="45.3467256" lon="10.5248213"><ele>77.75</ele><time>2026-03-29T07:23:31.193Z</time></trkpt><trkpt lat="45.3466626" lon="10.5249609"><ele>78.0</ele><time>2026-03-29T07:23:32.189Z</time></trkpt><trkpt lat="45.3466008" lon="10.5250977"><ele>78.0</ele><time>2026-03-29T07:23:33.19Z</time></trkpt><trkpt lat="45.3465347" lon="10.5252337"><ele>78.0</ele><time>2026-03-29T07:23:34.189Z</time></trkpt><trkpt lat="45.3464702" lon="10.5253617"><ele>78.0</ele><time>2026-03-29T07:23:35.189Z</time></trkpt><trkpt lat="45.3464138" lon="10.525476"><ele>78.0</ele><time>2026-03-29T07:23:36.193Z</time></trkpt><trkpt lat="45.3463641" lon="10.5255805"><ele>78.0</ele><time>2026-03-29T07:23:37.189Z</time></trkpt><trkpt lat="45.3463098" lon="10.5256851"><ele>77.8</ele><time>2026-03-29T07:23:38.19Z</time></trkpt><trkpt lat="45.3462416" lon="10.5258012"><ele>77.6</ele><time>2026-03-29T07:23:39.189Z</time></trkpt><trkpt lat="45.3461676" lon="10.5259293"><ele>77.4</ele><time>2026-03-29T07:23:40.189Z</time></trkpt><trkpt lat="45.3460982" lon="10.5260534"><ele>77.2</ele><time>2026-03-29T07:23:41.189Z</time></trkpt><trkpt lat="45.3460425" lon="10.5261667"><ele>77.0</ele><time>2026-03-29T07:23:42.189Z</time></trkpt><trkpt lat="45.3459965" lon="10.5262816"><ele>77.0</ele><time>2026-03-29T07:23:43.189Z</time></trkpt><trkpt lat="45.3459464" lon="10.5264025"><ele>77.0</ele><time>2026-03-29T07:23:44.189Z</time></trkpt><trkpt lat="45.3458843" lon="10.5265339"><ele>77.0</ele><time>2026-03-29T07:23:45.189Z</time></trkpt><trkpt lat="45.3458173" lon="10.526666"><ele>77.0</ele><time>2026-03-29T07:23:46.189Z</time></trkpt><trkpt lat="45.3457534" lon="10.5267867"><ele>77.0</ele><time>2026-03-29T07:23:47.191Z</time></trkpt><trkpt lat="45.3456968" lon="10.5268958"><ele>77.0</ele><time>2026-03-29T07:23:48.19Z</time></trkpt><trkpt lat="45.3456432" lon="10.5270028"><ele>77.0</ele><time>2026-03-29T07:23:49.191Z</time></trkpt><trkpt lat="45.3455849" lon="10.5271163"><ele>77.0</ele><time>2026-03-29T07:23:50.19Z</time></trkpt><trkpt lat="45.3455253" lon="10.5272332"><ele>77.0</ele><time>2026-03-29T07:23:51.189Z</time></trkpt><trkpt lat="45.3454657" lon="10.527349"><ele>77.0</ele><time>2026-03-29T07:23:52.189Z</time></trkpt><trkpt lat="45.3454153" lon="10.5274491"><ele>77.0</ele><time>2026-03-29T07:23:53.19Z</time></trkpt><trkpt lat="45.3453735" lon="10.527539"><ele>77.0</ele><time>2026-03-29T07:23:54.19Z</time></trkpt><trkpt lat="45.3453317" lon="10.5276262"><ele>77.0</ele><time>2026-03-29T07:23:55.191Z</time></trkpt><trkpt lat="45.3452884" lon="10.5277095"><ele>77.0</ele><time>2026-03-29T07:23:56.19Z</time></trkpt><trkpt lat="45.3452468" lon="10.5277956"><ele>77.0</ele><time>2026-03-29T07:23:57.189Z</time></trkpt><trkpt lat="45.3451989" lon="10.5278945"><ele>77.0</ele><time>2026-03-29T07:23:58.19Z</time></trkpt><trkpt lat="45.3451435" lon="10.5280038"><ele>77.0</ele><time>2026-03-29T07:23:59.189Z</time></trkpt><trkpt lat="45.3450874" lon="10.5281106"><ele>77.0</ele><time>2026-03-29T07:24:00.19Z</time></trkpt><trkpt lat="45.3450374" lon="10.5282091"><ele>77.0</ele><time>2026-03-29T07:24:01.189Z</time></trkpt><trkpt lat="45.3449907" lon="10.5283015"><ele>77.0</ele><time>2026-03-29T07:24:02.19Z</time></trkpt><trkpt lat="45.3449471" lon="10.5283904"><ele>77.0</ele><time>2026-03-29T07:24:03.191Z</time></trkpt><trkpt lat="45.3449015" lon="10.5284844"><ele>77.0</ele><time>2026-03-29T07:24:04.19Z</time></trkpt><trkpt lat="45.34485" lon="10.528586"><ele>77.0</ele><time>2026-03-29T07:24:05.19Z</time></trkpt><trkpt lat="45.3447964" lon="10.528688"><ele>77.0</ele><time>2026-03-29T07:24:06.189Z</time></trkpt><trkpt lat="45.3447389" lon="10.5287929"><ele>77.0</ele><time>2026-03-29T07:24:07.19Z</time></trkpt><trkpt lat="45.3446786" lon="10.528905"><ele>77.0</ele><time>2026-03-29T07:24:08.189Z</time></trkpt><trkpt lat="45.3446141" lon="10.5290206"><ele>77.0</ele><time>2026-03-29T07:24:09.189Z</time></trkpt><trkpt lat="45.3445499" lon="10.5291377"><ele>77.0</ele><time>2026-03-29T07:24:10.189Z</time></trkpt><trkpt lat="45.3444861" lon="10.5292563"><ele>77.0</ele><time>2026-03-29T07:24:11.191Z</time></trkpt><trkpt lat="45.3444228" lon="10.5293709"><ele>77.0</ele><time>2026-03-29T07:24:12.189Z</time></trkpt><trkpt lat="45.3443647" lon="10.529484"><ele>77.0</ele><time>2026-03-29T07:24:13.191Z</time></trkpt><trkpt lat="45.3443078" lon="10.5295982"><ele>77.0</ele><time>2026-03-29T07:24:14.192Z</time></trkpt><trkpt lat="45.3442485" lon="10.5297146"><ele>77.0</ele><time>2026-03-29T07:24:15.189Z</time></trkpt><trkpt lat="45.3441887" lon="10.5298262"><ele>77.0</ele><time>2026-03-29T07:24:16.19Z</time></trkpt><trkpt lat="45.3441356" lon="10.5299235"><ele>77.0</ele><time>2026-03-29T07:24:17.19Z</time></trkpt><trkpt lat="45.3440868" lon="10.5300063"><ele>77.0</ele><time>2026-03-29T07:24:18.19Z</time></trkpt><trkpt lat="45.3440447" lon="10.5300765"><ele>77.0</ele><time>2026-03-29T07:24:19.189Z</time></trkpt><trkpt lat="45.3439795" lon="10.530198"><ele>77.0</ele><time>2026-03-29T07:24:21.189Z</time></trkpt><trkpt lat="45.3439327" lon="10.5302895"><ele>76.75</ele><time>2026-03-29T07:24:23.19Z</time></trkpt><trkpt lat="45.3438624" lon="10.5304521"><ele>76.5</ele><time>2026-03-29T07:24:35.189Z</time></trkpt><trkpt lat="45.3438053" lon="10.5305843"><ele>76.25</ele><time>2026-03-29T07:24:36.19Z</time></trkpt><trkpt lat="45.3437322" lon="10.5307394"><ele>76.0</ele><time>2026-03-29T07:24:37.189Z</time></trkpt><trkpt lat="45.3436521" lon="10.5308952"><ele>76.0</ele><time>2026-03-29T07:24:38.191Z</time></trkpt><trkpt lat="45.3435689" lon="10.5310518"><ele>76.0</ele><time>2026-03-29T07:24:39.19Z</time></trkpt><trkpt lat="45.3434887" lon="10.5312156"><ele>76.0</ele><time>2026-03-29T07:24:40.19Z</time></trkpt><trkpt lat="45.3434096" lon="10.5313778"><ele>76.0</ele><time>2026-03-29T07:24:41.19Z</time></trkpt><trkpt lat="45.3433364" lon="10.5315304"><ele>76.0</ele><time>2026-03-29T07:24:42.189Z</time></trkpt><trkpt lat="45.3432652" lon="10.5316749"><ele>76.0</ele><time>2026-03-29T07:24:43.189Z</time></trkpt><trkpt lat="45.3431939" lon="10.531814"><ele>76.0</ele><time>2026-03-29T07:24:44.19Z</time></trkpt><trkpt lat="45.3431291" lon="10.5319441"><ele>76.0</ele><time>2026-03-29T07:24:45.19Z</time></trkpt><trkpt lat="45.3430701" lon="10.5320621"><ele>76.0</ele><time>2026-03-29T07:24:46.189Z</time></trkpt><trkpt lat="45.3430143" lon="10.5321709"><ele>76.0</ele><time>2026-03-29T07:24:47.189Z</time></trkpt><trkpt lat="45.3429521" lon="10.5322871"><ele>76.0</ele><time>2026-03-29T07:24:48.19Z</time></trkpt><trkpt lat="45.3428811" lon="10.53242"><ele>76.0</ele><time>2026-03-29T07:24:49.191Z</time></trkpt><trkpt lat="45.3428108" lon="10.5325669"><ele>76.0</ele><time>2026-03-29T07:24:50.19Z</time></trkpt><trkpt lat="45.3427427" lon="10.5327095"><ele>76.0</ele><time>2026-03-29T07:24:51.189Z</time></trkpt><trkpt lat="45.3426734" lon="10.5328511"><ele>76.0</ele><time>2026-03-29T07:24:52.191Z</time></trkpt><trkpt lat="45.3426012" lon="10.5329925"><ele>76.0</ele><time>2026-03-29T07:24:53.189Z</time></trkpt><trkpt lat="45.3425252" lon="10.5331356"><ele>76.0</ele><time>2026-03-29T07:24:54.19Z</time></trkpt><trkpt lat="45.3424487" lon="10.5332802"><ele>76.5</ele><time>2026-03-29T07:24:55.189Z</time></trkpt><trkpt lat="45.342376" lon="10.5334263"><ele>77.0</ele><time>2026-03-29T07:24:56.19Z</time></trkpt><trkpt lat="45.3423072" lon="10.5335639"><ele>77.5</ele><time>2026-03-29T07:24:57.189Z</time></trkpt><trkpt lat="45.3422427" lon="10.5336962"><ele>78.0</ele><time>2026-03-29T07:24:58.19Z</time></trkpt><trkpt lat="45.3421796" lon="10.5338217"><ele>78.0</ele><time>2026-03-29T07:24:59.189Z</time></trkpt><trkpt lat="45.3421204" lon="10.5339407"><ele>78.0</ele><time>2026-03-29T07:25:00.188Z</time></trkpt><trkpt lat="45.3420607" lon="10.534064"><ele>78.0</ele><time>2026-03-29T07:25:01.191Z</time></trkpt><trkpt lat="45.3419985" lon="10.5341927"><ele>78.0</ele><time>2026-03-29T07:25:02.19Z</time></trkpt><trkpt lat="45.3419369" lon="10.5343242"><ele>78.0</ele><time>2026-03-29T07:25:03.189Z</time></trkpt><trkpt lat="45.341875" lon="10.5344536"><ele>77.75</ele><time>2026-03-29T07:25:04.195Z</time></trkpt><trkpt lat="45.3418132" lon="10.5345846"><ele>77.5</ele><time>2026-03-29T07:25:05.189Z</time></trkpt><trkpt lat="45.34175" lon="10.5347166"><ele>77.25</ele><time>2026-03-29T07:25:06.19Z</time></trkpt><trkpt lat="45.3416879" lon="10.5348457"><ele>77.0</ele><time>2026-03-29T07:25:07.189Z</time></trkpt><trkpt lat="45.3416207" lon="10.5349838"><ele>77.0</ele><time>2026-03-29T07:25:08.192Z</time></trkpt><trkpt lat="45.3415541" lon="10.5351265"><ele>77.0</ele><time>2026-03-29T07:25:09.19Z</time></trkpt><trkpt lat="45.3414888" lon="10.5352666"><ele>77.0</ele><time>2026-03-29T07:25:10.189Z</time></trkpt><trkpt lat="45.3414141" lon="10.5354097"><ele>77.0</ele><time>2026-03-29T07:25:11.189Z</time></trkpt><trkpt lat="45.3413372" lon="10.5355533"><ele>77.2</ele><time>2026-03-29T07:25:12.188Z</time></trkpt><trkpt lat="45.3412681" lon="10.535691"><ele>77.4</ele><time>2026-03-29T07:25:13.189Z</time></trkpt><trkpt lat="45.3412082" lon="10.5358144"><ele>77.6</ele><time>2026-03-29T07:25:14.189Z</time></trkpt><trkpt lat="45.3411537" lon="10.5359235"><ele>77.8</ele><time>2026-03-29T07:25:15.189Z</time></trkpt><trkpt lat="45.3410984" lon="10.5360318"><ele>78.0</ele><time>2026-03-29T07:25:16.189Z</time></trkpt><trkpt lat="45.341046" lon="10.5361368"><ele>78.2</ele><time>2026-03-29T07:25:17.189Z</time></trkpt><trkpt lat="45.340993" lon="10.5362438"><ele>78.4</ele><time>2026-03-29T07:25:18.19Z</time></trkpt><trkpt lat="45.3409356" lon="10.5363577"><ele>78.60000000000001</ele><time>2026-03-29T07:25:19.19Z</time></trkpt><trkpt lat="45.3408745" lon="10.5364786"><ele>78.8</ele><time>2026-03-29T07:25:20.189Z</time></trkpt><trkpt lat="45.3408136" lon="10.536609"><ele>79.0</ele><time>2026-03-29T07:25:21.189Z</time></trkpt><trkpt lat="45.3407505" lon="10.5367401"><ele>79.0</ele><time>2026-03-29T07:25:22.189Z</time></trkpt><trkpt lat="45.3406841" lon="10.5368693"><ele>79.0</ele><time>2026-03-29T07:25:23.189Z</time></trkpt><trkpt lat="45.3406194" lon="10.5369982"><ele>79.0</ele><time>2026-03-29T07:25:24.19Z</time></trkpt><trkpt lat="45.3405494" lon="10.5371283"><ele>79.0</ele><time>2026-03-29T07:25:25.19Z</time></trkpt><trkpt lat="45.340478" lon="10.5372598"><ele>78.2</ele><time>2026-03-29T07:25:26.19Z</time></trkpt><trkpt lat="45.3404102" lon="10.5373902"><ele>77.4</ele><time>2026-03-29T07:25:27.189Z</time></trkpt><trkpt lat="45.3403466" lon="10.5375142"><ele>76.6</ele><time>2026-03-29T07:25:28.188Z</time></trkpt><trkpt lat="45.340292" lon="10.5376168"><ele>75.8</ele><time>2026-03-29T07:25:29.189Z</time></trkpt><trkpt lat="45.3402489" lon="10.5377015"><ele>75.0</ele><time>2026-03-29T07:25:30.189Z</time></trkpt><trkpt lat="45.3401967" lon="10.5378281"><ele>74.6</ele><time>2026-03-29T07:25:32.189Z</time></trkpt><trkpt lat="45.3401281" lon="10.5379999"><ele>74.2</ele><time>2026-03-29T07:25:34.189Z</time></trkpt><trkpt lat="45.3400776" lon="10.5381074"><ele>73.8</ele><time>2026-03-29T07:25:35.188Z</time></trkpt><trkpt lat="45.3400263" lon="10.5382151"><ele>73.4</ele><time>2026-03-29T07:25:36.189Z</time></trkpt><trkpt lat="45.3399798" lon="10.5383061"><ele>73.0</ele><time>2026-03-29T07:25:37.189Z</time></trkpt><trkpt lat="45.3399387" lon="10.5383761"><ele>73.0</ele><time>2026-03-29T07:25:38.191Z</time></trkpt><trkpt lat="45.3399008" lon="10.5384483"><ele>73.0</ele><time>2026-03-29T07:25:40.188Z</time></trkpt><trkpt lat="45.3399157" lon="10.5385562"><ele>73.0</ele><time>2026-03-29T07:25:45.189Z</time></trkpt><trkpt lat="45.3400008" lon="10.5386825"><ele>73.0</ele><time>2026-03-29T07:25:47.19Z</time></trkpt><trkpt lat="45.3400698" lon="10.5387737"><ele>73.0</ele><time>2026-03-29T07:25:48.189Z</time></trkpt><trkpt lat="45.3401477" lon="10.5388817"><ele>73.0</ele><time>2026-03-29T07:25:49.19Z</time></trkpt><trkpt lat="45.3402296" lon="10.538993"><ele>73.0</ele><time>2026-03-29T07:25:50.189Z</time></trkpt><trkpt lat="45.3403127" lon="10.5391026"><ele>73.0</ele><time>2026-03-29T07:25:51.189Z</time></trkpt><trkpt lat="45.3404006" lon="10.5392201"><ele>73.0</ele><time>2026-03-29T07:25:52.19Z</time></trkpt><trkpt lat="45.3404945" lon="10.5393438"><ele>72.5</ele><time>2026-03-29T07:25:53.189Z</time></trkpt><trkpt lat="45.3405916" lon="10.5394697"><ele>72.0</ele><time>2026-03-29T07:25:54.189Z</time></trkpt><trkpt lat="45.3406885" lon="10.5395935"><ele>71.5</ele><time>2026-03-29T07:25:55.188Z</time></trkpt><trkpt lat="45.3407837" lon="10.5397149"><ele>71.0</ele><time>2026-03-29T07:25:56.189Z</time></trkpt><trkpt lat="45.3408764" lon="10.5398393"><ele>72.0</ele><time>2026-03-29T07:25:57.19Z</time></trkpt><trkpt lat="45.3409719" lon="10.5399675"><ele>73.0</ele><time>2026-03-29T07:25:58.189Z</time></trkpt><trkpt lat="45.3410606" lon="10.5400955"><ele>74.0</ele><time>2026-03-29T07:25:59.188Z</time></trkpt><trkpt lat="45.3411442" lon="10.540216"><ele>75.0</ele><time>2026-03-29T07:26:00.189Z</time></trkpt><trkpt lat="45.3412176" lon="10.5403212"><ele>74.8</ele><time>2026-03-29T07:26:01.188Z</time></trkpt><trkpt lat="45.341284" lon="10.5404164"><ele>74.6</ele><time>2026-03-29T07:26:02.189Z</time></trkpt><trkpt lat="45.34135" lon="10.5405115"><ele>74.4</ele><time>2026-03-29T07:26:03.188Z</time></trkpt><trkpt lat="45.3414163" lon="10.5406065"><ele>74.2</ele><time>2026-03-29T07:26:04.188Z</time></trkpt><trkpt lat="45.3414805" lon="10.5406946"><ele>74.0</ele><time>2026-03-29T07:26:05.188Z</time></trkpt><trkpt lat="45.3415461" lon="10.5407741"><ele>74.8</ele><time>2026-03-29T07:26:06.189Z</time></trkpt><trkpt lat="45.3416188" lon="10.5408607"><ele>75.60000000000001</ele><time>2026-03-29T07:26:07.189Z</time></trkpt><trkpt lat="45.3416959" lon="10.5409619"><ele>76.4</ele><time>2026-03-29T07:26:08.19Z</time></trkpt><trkpt lat="45.341775" lon="10.5410638"><ele>77.2</ele><time>2026-03-29T07:26:09.189Z</time></trkpt><trkpt lat="45.341846" lon="10.5411603"><ele>78.0</ele><time>2026-03-29T07:26:10.19Z</time></trkpt><trkpt lat="45.3419094" lon="10.5412429"><ele>78.0</ele><time>2026-03-29T07:26:11.19Z</time></trkpt><trkpt lat="45.3419586" lon="10.5413105"><ele>78.0</ele><time>2026-03-29T07:26:12.189Z</time></trkpt><trkpt lat="45.3420301" lon="10.5413917"><ele>78.0</ele><time>2026-03-29T07:26:14.19Z</time></trkpt><trkpt lat="45.3420563" lon="10.5414825"><ele>78.0</ele><time>2026-03-29T07:26:17.189Z</time></trkpt><trkpt lat="45.3420173" lon="10.5415831"><ele>78.0</ele><time>2026-03-29T07:26:19.189Z</time></trkpt><trkpt lat="45.3419655" lon="10.54167"><ele>78.0</ele><time>2026-03-29T07:26:20.189Z</time></trkpt><trkpt lat="45.3418905" lon="10.5417747"><ele>78.0</ele><time>2026-03-29T07:26:21.19Z</time></trkpt><trkpt lat="45.3417789" lon="10.541918"><ele>78.0</ele><time>2026-03-29T07:26:22.189Z</time></trkpt><trkpt lat="45.3416492" lon="10.5420905"><ele>78.0</ele><time>2026-03-29T07:26:23.188Z</time></trkpt><trkpt lat="45.341511" lon="10.5422848"><ele>77.66666666666667</ele><time>2026-03-29T07:26:24.189Z</time></trkpt><trkpt lat="45.3413678" lon="10.5424921"><ele>77.33333333333334</ele><time>2026-03-29T07:26:25.19Z</time></trkpt><trkpt lat="45.3412257" lon="10.542695"><ele>77.0</ele><time>2026-03-29T07:26:26.189Z</time></trkpt><trkpt lat="45.3410937" lon="10.5428851"><ele>77.0</ele><time>2026-03-29T07:26:27.189Z</time></trkpt><trkpt lat="45.3409706" lon="10.5430668"><ele>77.0</ele><time>2026-03-29T07:26:28.188Z</time></trkpt><trkpt lat="45.3408506" lon="10.5432498"><ele>77.0</ele><time>2026-03-29T07:26:29.198Z</time></trkpt><trkpt lat="45.340736" lon="10.543429"><ele>77.0</ele><time>2026-03-29T07:26:30.188Z</time></trkpt><trkpt lat="45.3406244" lon="10.543603"><ele>77.0</ele><time>2026-03-29T07:26:31.193Z</time></trkpt><trkpt lat="45.3405223" lon="10.5437643"><ele>77.0</ele><time>2026-03-29T07:26:32.189Z</time></trkpt><trkpt lat="45.3404257" lon="10.5439211"><ele>77.33333333333334</ele><time>2026-03-29T07:26:33.188Z</time></trkpt><trkpt lat="45.3403276" lon="10.5440902"><ele>77.66666666666667</ele><time>2026-03-29T07:26:34.188Z</time></trkpt><trkpt lat="45.3402168" lon="10.544283"><ele>78.0</ele><time>2026-03-29T07:26:35.19Z</time></trkpt><trkpt lat="45.3400891" lon="10.5444991"><ele>78.0</ele><time>2026-03-29T07:26:36.19Z</time></trkpt><trkpt lat="45.3399564" lon="10.5447156"><ele>78.0</ele><time>2026-03-29T07:26:37.193Z</time></trkpt><trkpt lat="45.3398281" lon="10.5449194"><ele>78.0</ele><time>2026-03-29T07:26:38.19Z</time></trkpt><trkpt lat="45.3396968" lon="10.5451255"><ele>78.0</ele><time>2026-03-29T07:26:39.189Z</time></trkpt><trkpt lat="45.3395682" lon="10.5453156"><ele>78.0</ele><time>2026-03-29T07:26:40.189Z</time></trkpt><trkpt lat="45.3394447" lon="10.5454992"><ele>78.0</ele><time>2026-03-29T07:26:41.189Z</time></trkpt><trkpt lat="45.3393229" lon="10.5456789"><ele>78.0</ele><time>2026-03-29T07:26:42.19Z</time></trkpt><trkpt lat="45.339206" lon="10.5458526"><ele>78.0</ele><time>2026-03-29T07:26:43.189Z</time></trkpt><trkpt lat="45.3390912" lon="10.546025"><ele>78.0</ele><time>2026-03-29T07:26:44.19Z</time></trkpt><trkpt lat="45.3389753" lon="10.5461978"><ele>78.33333333333333</ele><time>2026-03-29T07:26:45.189Z</time></trkpt><trkpt lat="45.3388589" lon="10.5463685"><ele>78.66666666666666</ele><time>2026-03-29T07:26:46.19Z</time></trkpt><trkpt lat="45.3387478" lon="10.5465351"><ele>79.0</ele><time>2026-03-29T07:26:47.19Z</time></trkpt><trkpt lat="45.33864" lon="10.5466923"><ele>79.0</ele><time>2026-03-29T07:26:48.189Z</time></trkpt><trkpt lat="45.3385362" lon="10.5468425"><ele>79.0</ele><time>2026-03-29T07:26:49.191Z</time></trkpt><trkpt lat="45.3384331" lon="10.5469956"><ele>79.0</ele><time>2026-03-29T07:26:50.189Z</time></trkpt><trkpt lat="45.33833" lon="10.5471517"><ele>79.0</ele><time>2026-03-29T07:26:51.189Z</time></trkpt><trkpt lat="45.3382258" lon="10.5473067"><ele>79.0</ele><time>2026-03-29T07:26:52.188Z</time></trkpt><trkpt lat="45.3381251" lon="10.54746"><ele>79.0</ele><time>2026-03-29T07:26:53.189Z</time></trkpt><trkpt lat="45.3380337" lon="10.5476063"><ele>79.0</ele><time>2026-03-29T07:26:54.188Z</time></trkpt><trkpt lat="45.3379414" lon="10.5477494"><ele>79.0</ele><time>2026-03-29T07:26:55.189Z</time></trkpt><trkpt lat="45.3378476" lon="10.5478897"><ele>79.0</ele><time>2026-03-29T07:26:56.189Z</time></trkpt><trkpt lat="45.3377542" lon="10.5480307"><ele>79.0</ele><time>2026-03-29T07:26:57.194Z</time></trkpt><trkpt lat="45.3376604" lon="10.5481702"><ele>79.0</ele><time>2026-03-29T07:26:58.188Z</time></trkpt><trkpt lat="45.3375741" lon="10.5483007"><ele>79.0</ele><time>2026-03-29T07:26:59.189Z</time></trkpt><trkpt lat="45.3374826" lon="10.5484391"><ele>79.0</ele><time>2026-03-29T07:27:00.188Z</time></trkpt><trkpt lat="45.3373908" lon="10.5485753"><ele>79.0</ele><time>2026-03-29T07:27:01.189Z</time></trkpt><trkpt lat="45.3372974" lon="10.5487149"><ele>79.0</ele><time>2026-03-29T07:27:02.189Z</time></trkpt><trkpt lat="45.3372051" lon="10.5488579"><ele>79.0</ele><time>2026-03-29T07:27:03.188Z</time></trkpt><trkpt lat="45.337112" lon="10.5489987"><ele>78.8</ele><time>2026-03-29T07:27:04.189Z</time></trkpt><trkpt lat="45.3370217" lon="10.5491286"><ele>78.60000000000001</ele><time>2026-03-29T07:27:05.189Z</time></trkpt><trkpt lat="45.3369379" lon="10.5492409"><ele>78.4</ele><time>2026-03-29T07:27:06.188Z</time></trkpt><trkpt lat="45.3368604" lon="10.5493314"><ele>78.2</ele><time>2026-03-29T07:27:07.189Z</time></trkpt><trkpt lat="45.3367787" lon="10.5493987"><ele>78.0</ele><time>2026-03-29T07:27:08.19Z</time></trkpt><trkpt lat="45.3366862" lon="10.54944"><ele>78.0</ele><time>2026-03-29T07:27:09.188Z</time></trkpt><trkpt lat="45.3365798" lon="10.5494528"><ele>78.0</ele><time>2026-03-29T07:27:10.189Z</time></trkpt><trkpt lat="45.3364676" lon="10.5494549"><ele>78.0</ele><time>2026-03-29T07:27:11.189Z</time></trkpt><trkpt lat="45.3363603" lon="10.5494766"><ele>78.0</ele><time>2026-03-29T07:27:12.188Z</time></trkpt><trkpt lat="45.3362611" lon="10.5495227"><ele>78.0</ele><time>2026-03-29T07:27:13.188Z</time></trkpt><trkpt lat="45.3361838" lon="10.549603"><ele>77.8</ele><time>2026-03-29T07:27:14.189Z</time></trkpt><trkpt lat="45.3361287" lon="10.5497122"><ele>77.6</ele><time>2026-03-29T07:27:15.188Z</time></trkpt><trkpt lat="45.3360991" lon="10.5498523"><ele>77.4</ele><time>2026-03-29T07:27:16.188Z</time></trkpt><trkpt lat="45.3360892" lon="10.5500062"><ele>77.2</ele><time>2026-03-29T07:27:17.189Z</time></trkpt><trkpt lat="45.3360892" lon="10.5501638"><ele>77.0</ele><time>2026-03-29T07:27:18.188Z</time></trkpt><trkpt lat="45.3360858" lon="10.5503217"><ele>77.25</ele><time>2026-03-29T07:27:19.188Z</time></trkpt><trkpt lat="45.3360694" lon="10.5504778"><ele>77.5</ele><time>2026-03-29T07:27:20.19Z</time></trkpt><trkpt lat="45.3360284" lon="10.5506289"><ele>77.75</ele><time>2026-03-29T07:27:21.189Z</time></trkpt><trkpt lat="45.3359417" lon="10.550773"><ele>78.0</ele><time>2026-03-29T07:27:22.189Z</time></trkpt><trkpt lat="45.3358446" lon="10.5509074"><ele>78.0</ele><time>2026-03-29T07:27:23.19Z</time></trkpt><trkpt lat="45.3357486" lon="10.5510371"><ele>78.0</ele><time>2026-03-29T07:27:24.189Z</time></trkpt><trkpt lat="45.3356546" lon="10.5511664"><ele>78.0</ele><time>2026-03-29T07:27:25.19Z</time></trkpt><trkpt lat="45.3355616" lon="10.5513001"><ele>78.0</ele><time>2026-03-29T07:27:26.189Z</time></trkpt><trkpt lat="45.3354675" lon="10.5514411"><ele>77.33333333333333</ele><time>2026-03-29T07:27:27.191Z</time></trkpt><trkpt lat="45.3353667" lon="10.5515933"><ele>76.66666666666666</ele><time>2026-03-29T07:27:28.19Z</time></trkpt><trkpt lat="45.335265" lon="10.55175"><ele>76.0</ele><time>2026-03-29T07:27:29.189Z</time></trkpt><trkpt lat="45.3351583" lon="10.5519117"><ele>76.0</ele><time>2026-03-29T07:27:30.188Z</time></trkpt><trkpt lat="45.3350467" lon="10.5520783"><ele>76.0</ele><time>2026-03-29T07:27:31.189Z</time></trkpt><trkpt lat="45.3349317" lon="10.5522483"><ele>76.0</ele><time>2026-03-29T07:27:32.19Z</time></trkpt><trkpt lat="45.3348133" lon="10.55242"><ele>76.33333333333333</ele><time>2026-03-29T07:27:33.188Z</time></trkpt><trkpt lat="45.334695" lon="10.55259"><ele>76.66666666666667</ele><time>2026-03-29T07:27:34.19Z</time></trkpt><trkpt lat="45.3345817" lon="10.5527633"><ele>77.0</ele><time>2026-03-29T07:27:35.189Z</time></trkpt><trkpt lat="45.334465" lon="10.552935"><ele>77.0</ele><time>2026-03-29T07:27:36.189Z</time></trkpt><trkpt lat="45.3343483" lon="10.5531067"><ele>77.0</ele><time>2026-03-29T07:27:37.189Z</time></trkpt><trkpt lat="45.3342317" lon="10.553275"><ele>77.0</ele><time>2026-03-29T07:27:38.189Z</time></trkpt><trkpt lat="45.3341133" lon="10.5534483"><ele>77.0</ele><time>2026-03-29T07:27:39.189Z</time></trkpt><trkpt lat="45.3339967" lon="10.5536217"><ele>77.0</ele><time>2026-03-29T07:27:40.189Z</time></trkpt><trkpt lat="45.33388" lon="10.553795"><ele>77.0</ele><time>2026-03-29T07:27:41.188Z</time></trkpt><trkpt lat="45.33377" lon="10.5539633"><ele>76.33333333333334</ele><time>2026-03-29T07:27:42.188Z</time></trkpt><trkpt lat="45.3336633" lon="10.5541317"><ele>75.66666666666667</ele><time>2026-03-29T07:27:43.189Z</time></trkpt><trkpt lat="45.3335533" lon="10.5543"><ele>75.0</ele><time>2026-03-29T07:27:44.189Z</time></trkpt><trkpt lat="45.3334417" lon="10.5544717"><ele>74.66666666666667</ele><time>2026-03-29T07:27:45.189Z</time></trkpt><trkpt lat="45.3333317" lon="10.5546483"><ele>74.33333333333334</ele><time>2026-03-29T07:27:46.189Z</time></trkpt><trkpt lat="45.3332233" lon="10.5548267"><ele>74.0</ele><time>2026-03-29T07:27:47.19Z</time></trkpt><trkpt lat="45.3331167" lon="10.5550133"><ele>74.33333333333334</ele><time>2026-03-29T07:27:48.189Z</time></trkpt><trkpt lat="45.3330117" lon="10.555205"><ele>74.66666666666667</ele><time>2026-03-29T07:27:49.189Z</time></trkpt><trkpt lat="45.3329083" lon="10.5554"><ele>75.0</ele><time>2026-03-29T07:27:50.189Z</time></trkpt><trkpt lat="45.332805" lon="10.5556"><ele>75.33333333333333</ele><time>2026-03-29T07:27:51.189Z</time></trkpt><trkpt lat="45.332705" lon="10.555805"><ele>75.66666666666666</ele><time>2026-03-29T07:27:52.189Z</time></trkpt><trkpt lat="45.33261" lon="10.5560133"><ele>76.0</ele><time>2026-03-29T07:27:53.189Z</time></trkpt><trkpt lat="45.33252" lon="10.5562267"><ele>75.0</ele><time>2026-03-29T07:27:54.193Z</time></trkpt><trkpt lat="45.332435" lon="10.5564417"><ele>74.0</ele><time>2026-03-29T07:27:55.193Z</time></trkpt><trkpt lat="45.33235" lon="10.5566617"><ele>73.0</ele><time>2026-03-29T07:27:56.189Z</time></trkpt><trkpt lat="45.3322683" lon="10.556885"><ele>72.33333333333333</ele><time>2026-03-29T07:27:57.189Z</time></trkpt><trkpt lat="45.3321933" lon="10.5571133"><ele>71.66666666666667</ele><time>2026-03-29T07:27:58.189Z</time></trkpt><trkpt lat="45.33212" lon="10.5573417"><ele>71.0</ele><time>2026-03-29T07:27:59.189Z</time></trkpt><trkpt lat="45.3320517" lon="10.55757"><ele>71.0</ele><time>2026-03-29T07:28:00.189Z</time></trkpt><trkpt lat="45.3319867" lon="10.557805"><ele>71.0</ele><time>2026-03-29T07:28:01.19Z</time></trkpt><trkpt lat="45.3319233" lon="10.5580433"><ele>71.0</ele><time>2026-03-29T07:28:02.19Z</time></trkpt><trkpt lat="45.331865" lon="10.55829"><ele>71.0</ele><time>2026-03-29T07:28:03.188Z</time></trkpt><trkpt lat="45.3318117" lon="10.5585467"><ele>71.0</ele><time>2026-03-29T07:28:04.189Z</time></trkpt><trkpt lat="45.3317633" lon="10.5588083"><ele>71.0</ele><time>2026-03-29T07:28:05.189Z</time></trkpt><trkpt lat="45.33172" lon="10.5590767"><ele>71.0</ele><time>2026-03-29T07:28:06.188Z</time></trkpt><trkpt lat="45.3316817" lon="10.55935"><ele>71.0</ele><time>2026-03-29T07:28:07.189Z</time></trkpt><trkpt lat="45.3316433" lon="10.559625"><ele>71.0</ele><time>2026-03-29T07:28:08.189Z</time></trkpt><trkpt lat="45.3316083" lon="10.55991"><ele>71.0</ele><time>2026-03-29T07:28:09.189Z</time></trkpt><trkpt lat="45.33158" lon="10.5602"><ele>71.0</ele><time>2026-03-29T07:28:10.189Z</time></trkpt><trkpt lat="45.3315617" lon="10.5604933"><ele>71.0</ele><time>2026-03-29T07:28:11.188Z</time></trkpt><trkpt lat="45.3315483" lon="10.5607917"><ele>71.0</ele><time>2026-03-29T07:28:12.189Z</time></trkpt><trkpt lat="45.3315383" lon="10.5610917"><ele>71.0</ele><time>2026-03-29T07:28:13.188Z</time></trkpt><trkpt lat="45.3315367" lon="10.5613967"><ele>71.0</ele><time>2026-03-29T07:28:14.19Z</time></trkpt><trkpt lat="45.3315417" lon="10.5617067"><ele>70.66666666666667</ele><time>2026-03-29T07:28:15.188Z</time></trkpt><trkpt lat="45.3315517" lon="10.56202"><ele>70.33333333333333</ele><time>2026-03-29T07:28:16.188Z</time></trkpt><trkpt lat="45.3315667" lon="10.5623333"><ele>70.0</ele><time>2026-03-29T07:28:17.19Z</time></trkpt><trkpt lat="45.33159" lon="10.5626483"><ele>71.33333333333333</ele><time>2026-03-29T07:28:18.188Z</time></trkpt><trkpt lat="45.33162" lon="10.5629633"><ele>72.66666666666667</ele><time>2026-03-29T07:28:19.189Z</time></trkpt><trkpt lat="45.3316533" lon="10.56328"><ele>74.0</ele><time>2026-03-29T07:28:20.19Z</time></trkpt><trkpt lat="45.3316883" lon="10.5635983"><ele>74.66666666666667</ele><time>2026-03-29T07:28:21.191Z</time></trkpt><trkpt lat="45.3317233" lon="10.5639117"><ele>75.33333333333333</ele><time>2026-03-29T07:28:22.194Z</time></trkpt><trkpt lat="45.331755" lon="10.5642167"><ele>76.0</ele><time>2026-03-29T07:28:23.19Z</time></trkpt><trkpt lat="45.3317833" lon="10.5645183"><ele>75.33333333333333</ele><time>2026-03-29T07:28:24.188Z</time></trkpt><trkpt lat="45.3318117" lon="10.5648183"><ele>74.66666666666667</ele><time>2026-03-29T07:28:25.189Z</time></trkpt><trkpt lat="45.3318417" lon="10.5651233"><ele>74.0</ele><time>2026-03-29T07:28:26.19Z</time></trkpt><trkpt lat="45.3318717" lon="10.5654233"><ele>74.0</ele><time>2026-03-29T07:28:27.189Z</time></trkpt><trkpt lat="45.3318983" lon="10.5657233"><ele>74.0</ele><time>2026-03-29T07:28:28.189Z</time></trkpt><trkpt lat="45.3319233" lon="10.5660183"><ele>74.0</ele><time>2026-03-29T07:28:29.19Z</time></trkpt><trkpt lat="45.3319433" lon="10.5663133"><ele>74.33333333333334</ele><time>2026-03-29T07:28:30.188Z</time></trkpt><trkpt lat="45.3319617" lon="10.566605"><ele>74.66666666666667</ele><time>2026-03-29T07:28:31.19Z</time></trkpt><trkpt lat="45.33198" lon="10.5668817"><ele>75.0</ele><time>2026-03-29T07:28:32.189Z</time></trkpt><trkpt lat="45.331995" lon="10.5671183"><ele>75.0</ele><time>2026-03-29T07:28:33.189Z</time></trkpt><trkpt lat="45.33201" lon="10.56732"><ele>75.0</ele><time>2026-03-29T07:28:34.189Z</time></trkpt><trkpt lat="45.33202" lon="10.5674867"><ele>75.0</ele><time>2026-03-29T07:28:35.188Z</time></trkpt><trkpt lat="45.3320267" lon="10.5676167"><ele>75.0</ele><time>2026-03-29T07:28:36.188Z</time></trkpt><trkpt lat="45.3320233" lon="10.5677767"><ele>74.5</ele><time>2026-03-29T07:28:38.189Z</time></trkpt><trkpt lat="45.3319817" lon="10.5679817"><ele>74.0</ele><time>2026-03-29T07:28:40.188Z</time></trkpt><trkpt lat="45.3319617" lon="10.5681417"><ele>73.5</ele><time>2026-03-29T07:28:41.19Z</time></trkpt><trkpt lat="45.3319683" lon="10.5682933"><ele>73.0</ele><time>2026-03-29T07:28:42.188Z</time></trkpt><trkpt lat="45.332015" lon="10.5684233"><ele>73.0</ele><time>2026-03-29T07:28:43.188Z</time></trkpt><trkpt lat="45.3320933" lon="10.568525"><ele>73.0</ele><time>2026-03-29T07:28:44.189Z</time></trkpt><trkpt lat="45.3321867" lon="10.568575"><ele>73.0</ele><time>2026-03-29T07:28:45.189Z</time></trkpt><trkpt lat="45.3323" lon="10.5685667"><ele>73.0</ele><time>2026-03-29T07:28:46.188Z</time></trkpt><trkpt lat="45.3324333" lon="10.5685"><ele>73.5</ele><time>2026-03-29T07:28:47.189Z</time></trkpt><trkpt lat="45.3325717" lon="10.5684117"><ele>74.0</ele><time>2026-03-29T07:28:48.191Z</time></trkpt><trkpt lat="45.3326967" lon="10.568355"><ele>74.5</ele><time>2026-03-29T07:28:49.192Z</time></trkpt><trkpt lat="45.3328167" lon="10.568355"><ele>75.0</ele><time>2026-03-29T07:28:50.191Z</time></trkpt><trkpt lat="45.3329467" lon="10.5684167"><ele>75.66666666666667</ele><time>2026-03-29T07:28:51.191Z</time></trkpt><trkpt lat="45.3330767" lon="10.568565"><ele>76.33333333333334</ele><time>2026-03-29T07:28:52.19Z</time></trkpt><trkpt lat="45.33321" lon="10.5687983"><ele>77.0</ele><time>2026-03-29T07:28:53.191Z</time></trkpt><trkpt lat="45.3333467" lon="10.5690783"><ele>77.0</ele><time>2026-03-29T07:28:54.19Z</time></trkpt><trkpt lat="45.3334733" lon="10.569345"><ele>77.0</ele><time>2026-03-29T07:28:55.19Z</time></trkpt><trkpt lat="45.3335867" lon="10.5695867"><ele>77.0</ele><time>2026-03-29T07:28:56.192Z</time></trkpt><trkpt lat="45.333695" lon="10.5698"><ele>77.0</ele><time>2026-03-29T07:28:57.189Z</time></trkpt><trkpt lat="45.3337917" lon="10.5699933"><ele>77.0</ele><time>2026-03-29T07:28:58.19Z</time></trkpt><trkpt lat="45.33388" lon="10.570165"><ele>77.0</ele><time>2026-03-29T07:28:59.19Z</time></trkpt><trkpt lat="45.3339683" lon="10.57031"><ele>76.75</ele><time>2026-03-29T07:29:00.19Z</time></trkpt><trkpt lat="45.3340483" lon="10.5704183"><ele>76.5</ele><time>2026-03-29T07:29:01.19Z</time></trkpt><trkpt lat="45.3341083" lon="10.570495"><ele>76.25</ele><time>2026-03-29T07:29:02.191Z</time></trkpt><trkpt lat="45.3341683" lon="10.5706483"><ele>76.0</ele><time>2026-03-29T07:29:04.19Z</time></trkpt><trkpt lat="45.334095" lon="10.5708233"><ele>76.0</ele><time>2026-03-29T07:29:06.188Z</time></trkpt><trkpt lat="45.3340133" lon="10.570895"><ele>76.0</ele><time>2026-03-29T07:29:07.19Z</time></trkpt><trkpt lat="45.3338667" lon="10.5709483"><ele>76.0</ele><time>2026-03-29T07:29:08.19Z</time></trkpt><trkpt lat="45.33367" lon="10.5709917"><ele>76.0</ele><time>2026-03-29T07:29:09.189Z</time></trkpt><trkpt lat="45.3334417" lon="10.5710467"><ele>76.0</ele><time>2026-03-29T07:29:10.191Z</time></trkpt><trkpt lat="45.3331983" lon="10.57111"><ele>76.0</ele><time>2026-03-29T07:29:11.189Z</time></trkpt><trkpt lat="45.332965" lon="10.57117"><ele>76.0</ele><time>2026-03-29T07:29:12.189Z</time></trkpt><trkpt lat="45.3327633" lon="10.5712233"><ele>76.0</ele><time>2026-03-29T07:29:13.191Z</time></trkpt><trkpt lat="45.3326067" lon="10.5712667"><ele>76.0</ele><time>2026-03-29T07:29:14.191Z</time></trkpt><trkpt lat="45.3324933" lon="10.5713017"><ele>76.0</ele><time>2026-03-29T07:29:15.19Z</time></trkpt><trkpt lat="45.3324067" lon="10.5713583"><ele>76.0</ele><time>2026-03-29T07:29:16.189Z</time></trkpt><trkpt lat="45.3323367" lon="10.5714683"><ele>76.0</ele><time>2026-03-29T07:29:17.19Z</time></trkpt><trkpt lat="45.3322783" lon="10.5716517"><ele>76.0</ele><time>2026-03-29T07:29:18.192Z</time></trkpt><trkpt lat="45.3322317" lon="10.5718617"><ele>75.66666666666666</ele><time>2026-03-29T07:29:19.192Z</time></trkpt><trkpt lat="45.3321983" lon="10.572035"><ele>75.33333333333333</ele><time>2026-03-29T07:29:20.19Z</time></trkpt><trkpt lat="45.3321683" lon="10.5721683"><ele>75.0</ele><time>2026-03-29T07:29:21.19Z</time></trkpt><trkpt lat="45.33214" lon="10.5722683"><ele>74.66666666666667</ele><time>2026-03-29T07:29:22.19Z</time></trkpt><trkpt lat="45.33212" lon="10.5723567"><ele>74.33333333333334</ele><time>2026-03-29T07:29:23.194Z</time></trkpt><trkpt lat="45.3321033" lon="10.5724617"><ele>74.0</ele><time>2026-03-29T07:29:24.191Z</time></trkpt><trkpt lat="45.332085" lon="10.5726017"><ele>74.0</ele><time>2026-03-29T07:29:25.189Z</time></trkpt><trkpt lat="45.3320617" lon="10.5727567"><ele>74.0</ele><time>2026-03-29T07:29:26.191Z</time></trkpt><trkpt lat="45.3320383" lon="10.5729183"><ele>74.0</ele><time>2026-03-29T07:29:27.189Z</time></trkpt><trkpt lat="45.3320067" lon="10.57309"><ele>74.0</ele><time>2026-03-29T07:29:28.19Z</time></trkpt><trkpt lat="45.33197" lon="10.5732633"><ele>74.5</ele><time>2026-03-29T07:29:29.19Z</time></trkpt><trkpt lat="45.3319283" lon="10.57344"><ele>75.0</ele><time>2026-03-29T07:29:30.19Z</time></trkpt><trkpt lat="45.3318883" lon="10.5736283"><ele>75.5</ele><time>2026-03-29T07:29:31.19Z</time></trkpt><trkpt lat="45.3318483" lon="10.5738367"><ele>76.0</ele><time>2026-03-29T07:29:32.192Z</time></trkpt><trkpt lat="45.3318067" lon="10.57405"><ele>76.0</ele><time>2026-03-29T07:29:33.19Z</time></trkpt><trkpt lat="45.33176" lon="10.574265"><ele>76.0</ele><time>2026-03-29T07:29:34.19Z</time></trkpt><trkpt lat="45.3317117" lon="10.5744867"><ele>76.0</ele><time>2026-03-29T07:29:35.19Z</time></trkpt><trkpt lat="45.331665" lon="10.574705"><ele>76.33333333333333</ele><time>2026-03-29T07:29:36.19Z</time></trkpt><trkpt lat="45.3316183" lon="10.5749167"><ele>76.66666666666667</ele><time>2026-03-29T07:29:37.19Z</time></trkpt><trkpt lat="45.3315783" lon="10.575125"><ele>77.0</ele><time>2026-03-29T07:29:38.191Z</time></trkpt><trkpt lat="45.3315383" lon="10.5753283"><ele>76.75</ele><time>2026-03-29T07:29:39.19Z</time></trkpt><trkpt lat="45.3314933" lon="10.575525"><ele>76.5</ele><time>2026-03-29T07:29:40.191Z</time></trkpt><trkpt lat="45.3314533" lon="10.5757183"><ele>76.25</ele><time>2026-03-29T07:29:41.19Z</time></trkpt><trkpt lat="45.3314117" lon="10.5759117"><ele>76.0</ele><time>2026-03-29T07:29:42.19Z</time></trkpt><trkpt lat="45.3313683" lon="10.57612"><ele>75.33333333333333</ele><time>2026-03-29T07:29:43.19Z</time></trkpt><trkpt lat="45.3313217" lon="10.5763433"><ele>74.66666666666667</ele><time>2026-03-29T07:29:44.19Z</time></trkpt><trkpt lat="45.331275" lon="10.57657"><ele>74.0</ele><time>2026-03-29T07:29:45.19Z</time></trkpt><trkpt lat="45.3312317" lon="10.5768017"><ele>74.0</ele><time>2026-03-29T07:29:46.19Z</time></trkpt><trkpt lat="45.331185" lon="10.5770283"><ele>74.0</ele><time>2026-03-29T07:29:47.191Z</time></trkpt><trkpt lat="45.3311383" lon="10.57726"><ele>74.0</ele><time>2026-03-29T07:29:48.191Z</time></trkpt><trkpt lat="45.3310933" lon="10.5774967"><ele>74.0</ele><time>2026-03-29T07:29:49.189Z</time></trkpt><trkpt lat="45.3310467" lon="10.57773"><ele>74.0</ele><time>2026-03-29T07:29:50.191Z</time></trkpt><trkpt lat="45.331" lon="10.5779567"><ele>74.0</ele><time>2026-03-29T07:29:51.194Z</time></trkpt><trkpt lat="45.3309533" lon="10.5781783"><ele>73.66666666666667</ele><time>2026-03-29T07:29:52.19Z</time></trkpt><trkpt lat="45.3309083" lon="10.5783983"><ele>73.33333333333333</ele><time>2026-03-29T07:29:53.191Z</time></trkpt><trkpt lat="45.3308633" lon="10.578625"><ele>73.0</ele><time>2026-03-29T07:29:54.191Z</time></trkpt><trkpt lat="45.33082" lon="10.5788583"><ele>73.0</ele><time>2026-03-29T07:29:55.19Z</time></trkpt><trkpt lat="45.330775" lon="10.579085"><ele>73.0</ele><time>2026-03-29T07:29:56.195Z</time></trkpt><trkpt lat="45.3307333" lon="10.5793133"><ele>73.0</ele><time>2026-03-29T07:29:57.19Z</time></trkpt><trkpt lat="45.3306867" lon="10.57954"><ele>73.0</ele><time>2026-03-29T07:29:58.19Z</time></trkpt><trkpt lat="45.3306383" lon="10.5797617"><ele>73.0</ele><time>2026-03-29T07:29:59.192Z</time></trkpt><trkpt lat="45.3305883" lon="10.5799867"><ele>73.0</ele><time>2026-03-29T07:30:00.191Z</time></trkpt><trkpt lat="45.3305367" lon="10.5802117"><ele>72.33333333333333</ele><time>2026-03-29T07:30:01.19Z</time></trkpt><trkpt lat="45.3304867" lon="10.58044"><ele>71.66666666666667</ele><time>2026-03-29T07:30:02.191Z</time></trkpt><trkpt lat="45.330435" lon="10.5806717"><ele>71.0</ele><time>2026-03-29T07:30:03.191Z</time></trkpt><trkpt lat="45.330385" lon="10.5809033"><ele>71.0</ele><time>2026-03-29T07:30:04.189Z</time></trkpt><trkpt lat="45.3303367" lon="10.5811267"><ele>71.0</ele><time>2026-03-29T07:30:05.19Z</time></trkpt><trkpt lat="45.33029" lon="10.5813383"><ele>71.0</ele><time>2026-03-29T07:30:06.191Z</time></trkpt><trkpt lat="45.3302417" lon="10.581545"><ele>71.33333333333334</ele><time>2026-03-29T07:30:07.191Z</time></trkpt><trkpt lat="45.3301933" lon="10.581755"><ele>71.66666666666667</ele><time>2026-03-29T07:30:08.19Z</time></trkpt><trkpt lat="45.3301467" lon="10.58197"><ele>72.0</ele><time>2026-03-29T07:30:09.19Z</time></trkpt><trkpt lat="45.3301017" lon="10.58218"><ele>72.0</ele><time>2026-03-29T07:30:10.19Z</time></trkpt><trkpt lat="45.3300617" lon="10.5823683"><ele>72.0</ele><time>2026-03-29T07:30:11.191Z</time></trkpt><trkpt lat="45.330025" lon="10.5825383"><ele>72.0</ele><time>2026-03-29T07:30:12.189Z</time></trkpt><trkpt lat="45.3299933" lon="10.5826917"><ele>72.0</ele><time>2026-03-29T07:30:13.19Z</time></trkpt><trkpt lat="45.3299667" lon="10.5828317"><ele>72.16666666666667</ele><time>2026-03-29T07:30:14.19Z</time></trkpt><trkpt lat="45.32994" lon="10.5829583"><ele>72.33333333333333</ele><time>2026-03-29T07:30:15.191Z</time></trkpt><trkpt lat="45.3299167" lon="10.583065"><ele>72.5</ele><time>2026-03-29T07:30:16.189Z</time></trkpt><trkpt lat="45.3298967" lon="10.5831533"><ele>72.66666666666666</ele><time>2026-03-29T07:30:17.191Z</time></trkpt><trkpt lat="45.3298683" lon="10.5832717"><ele>72.83333333333333</ele><time>2026-03-29T07:30:19.19Z</time></trkpt><trkpt lat="45.3298567" lon="10.5833617"><ele>73.0</ele><time>2026-03-29T07:30:22.191Z</time></trkpt><trkpt lat="45.3298417" lon="10.5834767"><ele>73.0</ele><time>2026-03-29T07:30:24.189Z</time></trkpt><trkpt lat="45.3298283" lon="10.5835933"><ele>73.0</ele><time>2026-03-29T07:30:25.19Z</time></trkpt><trkpt lat="45.3298067" lon="10.583735"><ele>73.0</ele><time>2026-03-29T07:30:26.191Z</time></trkpt><trkpt lat="45.3297733" lon="10.5839017"><ele>73.0</ele><time>2026-03-29T07:30:27.19Z</time></trkpt><trkpt lat="45.32974" lon="10.58407"><ele>73.0</ele><time>2026-03-29T07:30:28.191Z</time></trkpt><trkpt lat="45.3297083" lon="10.5842533"><ele>72.0</ele><time>2026-03-29T07:30:29.19Z</time></trkpt><trkpt lat="45.3296683" lon="10.5844617"><ele>71.0</ele><time>2026-03-29T07:30:30.191Z</time></trkpt><trkpt lat="45.329625" lon="10.5846933"><ele>70.0</ele><time>2026-03-29T07:30:31.19Z</time></trkpt><trkpt lat="45.32958" lon="10.5849183"><ele>70.0</ele><time>2026-03-29T07:30:32.192Z</time></trkpt><trkpt lat="45.3295317" lon="10.5851283"><ele>70.0</ele><time>2026-03-29T07:30:33.189Z</time></trkpt><trkpt lat="45.32948" lon="10.5853367"><ele>70.0</ele><time>2026-03-29T07:30:34.189Z</time></trkpt><trkpt lat="45.3294233" lon="10.5855517"><ele>70.33333333333333</ele><time>2026-03-29T07:30:35.19Z</time></trkpt><trkpt lat="45.3293683" lon="10.58576"><ele>70.66666666666667</ele><time>2026-03-29T07:30:36.189Z</time></trkpt><trkpt lat="45.3293167" lon="10.58596"><ele>71.0</ele><time>2026-03-29T07:30:37.19Z</time></trkpt><trkpt lat="45.329265" lon="10.5861617"><ele>71.0</ele><time>2026-03-29T07:30:38.19Z</time></trkpt><trkpt lat="45.329215" lon="10.5863733"><ele>71.0</ele><time>2026-03-29T07:30:39.189Z</time></trkpt><trkpt lat="45.3291667" lon="10.5865833"><ele>71.0</ele><time>2026-03-29T07:30:40.189Z</time></trkpt><trkpt lat="45.3291217" lon="10.586785"><ele>71.0</ele><time>2026-03-29T07:30:41.189Z</time></trkpt><trkpt lat="45.32908" lon="10.5869717"><ele>71.0</ele><time>2026-03-29T07:30:42.189Z</time></trkpt><trkpt lat="45.3290433" lon="10.587145"><ele>71.0</ele><time>2026-03-29T07:30:43.191Z</time></trkpt><trkpt lat="45.3290117" lon="10.5872983"><ele>71.0</ele><time>2026-03-29T07:30:44.19Z</time></trkpt><trkpt lat="45.328985" lon="10.5874233"><ele>70.83333333333334</ele><time>2026-03-29T07:30:45.189Z</time></trkpt><trkpt lat="45.3289617" lon="10.5875233"><ele>70.66666666666667</ele><time>2026-03-29T07:30:46.191Z</time></trkpt><trkpt lat="45.3289433" lon="10.5876333"><ele>70.5</ele><time>2026-03-29T07:30:48.189Z</time></trkpt><trkpt lat="45.3289833" lon="10.5877117"><ele>70.33333333333333</ele><time>2026-03-29T07:30:52.189Z</time></trkpt><trkpt lat="45.3290917" lon="10.587755"><ele>70.16666666666666</ele><time>2026-03-29T07:30:54.189Z</time></trkpt><trkpt lat="45.3291717" lon="10.5877867"><ele>70.0</ele><time>2026-03-29T07:30:55.191Z</time></trkpt><trkpt lat="45.3292583" lon="10.587825"><ele>69.83333333333333</ele><time>2026-03-29T07:30:56.19Z</time></trkpt><trkpt lat="45.3293517" lon="10.5878567"><ele>69.66666666666666</ele><time>2026-03-29T07:30:57.189Z</time></trkpt><trkpt lat="45.3294467" lon="10.5878833"><ele>69.5</ele><time>2026-03-29T07:30:58.19Z</time></trkpt><trkpt lat="45.3295383" lon="10.5879033"><ele>69.33333333333333</ele><time>2026-03-29T07:30:59.19Z</time></trkpt><trkpt lat="45.3296183" lon="10.5879233"><ele>69.16666666666667</ele><time>2026-03-29T07:31:00.189Z</time></trkpt><trkpt lat="45.329685" lon="10.5879433"><ele>69.0</ele><time>2026-03-29T07:31:01.19Z</time></trkpt><trkpt lat="45.3297883" lon="10.5879783"><ele>69.0</ele><time>2026-03-29T07:31:03.19Z</time></trkpt><trkpt lat="45.32985" lon="10.5880317"><ele>69.0</ele><time>2026-03-29T07:31:06.189Z</time></trkpt><trkpt lat="45.3298467" lon="10.5881367"><ele>69.0</ele><time>2026-03-29T07:31:09.191Z</time></trkpt><trkpt lat="45.3298267" lon="10.58829"><ele>69.0</ele><time>2026-03-29T07:31:11.189Z</time></trkpt><trkpt lat="45.329815" lon="10.5883967"><ele>69.0</ele><time>2026-03-29T07:31:12.19Z</time></trkpt><trkpt lat="45.3298017" lon="10.58853"><ele>69.0</ele><time>2026-03-29T07:31:13.19Z</time></trkpt><trkpt lat="45.3297867" lon="10.588695"><ele>69.0</ele><time>2026-03-29T07:31:14.288Z</time></trkpt><trkpt lat="45.32977" lon="10.588865"><ele>69.0</ele><time>2026-03-29T07:31:15.189Z</time></trkpt><trkpt lat="45.329755" lon="10.5890183"><ele>69.0</ele><time>2026-03-29T07:31:16.189Z</time></trkpt><trkpt lat="45.3297417" lon="10.5891667"><ele>69.0</ele><time>2026-03-29T07:31:17.19Z</time></trkpt><trkpt lat="45.3297267" lon="10.5893183"><ele>69.0</ele><time>2026-03-29T07:31:18.189Z</time></trkpt><trkpt lat="45.3297117" lon="10.5894567"><ele>68.8</ele><time>2026-03-29T07:31:19.19Z</time></trkpt><trkpt lat="45.3297" lon="10.5895633"><ele>68.60000000000001</ele><time>2026-03-29T07:31:20.19Z</time></trkpt><trkpt lat="45.329705" lon="10.5897167"><ele>68.4</ele><time>2026-03-29T07:31:22.19Z</time></trkpt><trkpt lat="45.32976" lon="10.5898117"><ele>68.2</ele><time>2026-03-29T07:31:24.189Z</time></trkpt><trkpt lat="45.3298633" lon="10.5898467"><ele>68.0</ele><time>2026-03-29T07:31:26.191Z</time></trkpt><trkpt lat="45.3299583" lon="10.5898483"><ele>67.83333333333334</ele><time>2026-03-29T07:31:27.19Z</time></trkpt><trkpt lat="45.3300583" lon="10.58985"><ele>67.66666666666667</ele><time>2026-03-29T07:31:28.189Z</time></trkpt><trkpt lat="45.3301433" lon="10.5898533"><ele>67.5</ele><time>2026-03-29T07:31:29.189Z</time></trkpt><trkpt lat="45.3302083" lon="10.5898567"><ele>67.33333333333333</ele><time>2026-03-29T07:31:30.189Z</time></trkpt><trkpt lat="45.3302817" lon="10.5898517"><ele>67.16666666666666</ele><time>2026-03-29T07:31:31.191Z</time></trkpt><trkpt lat="45.3303733" lon="10.5898433"><ele>67.0</ele><time>2026-03-29T07:31:32.191Z</time></trkpt><trkpt lat="45.3304783" lon="10.5898367"><ele>67.4</ele><time>2026-03-29T07:31:33.19Z</time></trkpt><trkpt lat="45.33057" lon="10.5898333"><ele>67.80000000000001</ele><time>2026-03-29T07:31:34.19Z</time></trkpt><trkpt lat="45.3306467" lon="10.5898333"><ele>68.2</ele><time>2026-03-29T07:31:35.19Z</time></trkpt><trkpt lat="45.33075" lon="10.5898733"><ele>68.60000000000001</ele><time>2026-03-29T07:31:37.189Z</time></trkpt><trkpt lat="45.33079" lon="10.5899733"><ele>69.0</ele><time>2026-03-29T07:31:39.19Z</time></trkpt><trkpt lat="45.3307867" lon="10.5901867"><ele>69.0</ele><time>2026-03-29T07:31:41.189Z</time></trkpt><trkpt lat="45.33078" lon="10.5903683"><ele>69.0</ele><time>2026-03-29T07:31:42.189Z</time></trkpt><trkpt lat="45.3307767" lon="10.5905467"><ele>69.0</ele><time>2026-03-29T07:31:43.19Z</time></trkpt><trkpt lat="45.3307717" lon="10.590695"><ele>69.0</ele><time>2026-03-29T07:31:44.189Z</time></trkpt><trkpt lat="45.3307683" lon="10.590825"><ele>69.0</ele><time>2026-03-29T07:31:45.189Z</time></trkpt><trkpt lat="45.3307667" lon="10.59093"><ele>69.0</ele><time>2026-03-29T07:31:46.191Z</time></trkpt><trkpt lat="45.33079" lon="10.5910867"><ele>69.0</ele><time>2026-03-29T07:31:48.189Z</time></trkpt><trkpt lat="45.33085" lon="10.5911833"><ele>69.0</ele><time>2026-03-29T07:31:50.19Z</time></trkpt><trkpt lat="45.3309483" lon="10.591225"><ele>69.0</ele><time>2026-03-29T07:31:52.19Z</time></trkpt><trkpt lat="45.3310317" lon="10.59123"><ele>69.0</ele><time>2026-03-29T07:31:53.189Z</time></trkpt><trkpt lat="45.3311467" lon="10.59123"><ele>69.0</ele><time>2026-03-29T07:31:54.189Z</time></trkpt><trkpt lat="45.3312583" lon="10.59123"><ele>69.0</ele><time>2026-03-29T07:31:55.19Z</time></trkpt><trkpt lat="45.3313667" lon="10.5912333"><ele>69.0</ele><time>2026-03-29T07:31:56.19Z</time></trkpt><trkpt lat="45.3314817" lon="10.5912367"><ele>69.0</ele><time>2026-03-29T07:31:57.189Z</time></trkpt><trkpt lat="45.331605" lon="10.59124"><ele>68.75</ele><time>2026-03-29T07:31:58.189Z</time></trkpt><trkpt lat="45.33173" lon="10.5912433"><ele>68.5</ele><time>2026-03-29T07:31:59.191Z</time></trkpt><trkpt lat="45.331855" lon="10.5912483"><ele>68.25</ele><time>2026-03-29T07:32:00.191Z</time></trkpt><trkpt lat="45.3319767" lon="10.59125"><ele>68.0</ele><time>2026-03-29T07:32:01.191Z</time></trkpt><trkpt lat="45.332095" lon="10.5912517"><ele>68.0</ele><time>2026-03-29T07:32:02.19Z</time></trkpt><trkpt lat="45.3322067" lon="10.5912533"><ele>68.0</ele><time>2026-03-29T07:32:03.19Z</time></trkpt><trkpt lat="45.3323183" lon="10.5912533"><ele>68.0</ele><time>2026-03-29T07:32:04.19Z</time></trkpt><trkpt lat="45.3324233" lon="10.59125"><ele>68.0</ele><time>2026-03-29T07:32:05.19Z</time></trkpt><trkpt lat="45.3325217" lon="10.5912433"><ele>68.0</ele><time>2026-03-29T07:32:06.189Z</time></trkpt><trkpt lat="45.332615" lon="10.591235"><ele>68.5</ele><time>2026-03-29T07:32:07.19Z</time></trkpt><trkpt lat="45.3327033" lon="10.591225"><ele>69.0</ele><time>2026-03-29T07:32:08.19Z</time></trkpt><trkpt lat="45.3327933" lon="10.5912217"><ele>69.5</ele><time>2026-03-29T07:32:09.19Z</time></trkpt><trkpt lat="45.3328783" lon="10.59122"><ele>70.0</ele><time>2026-03-29T07:32:10.19Z</time></trkpt><trkpt lat="45.3329517" lon="10.5912233"><ele>70.5</ele><time>2026-03-29T07:32:11.189Z</time></trkpt><trkpt lat="45.3330183" lon="10.5912233"><ele>71.0</ele><time>2026-03-29T07:32:12.19Z</time></trkpt><trkpt lat="45.333125" lon="10.591225"><ele>71.0</ele><time>2026-03-29T07:32:14.19Z</time></trkpt><trkpt lat="45.3332117" lon="10.5912233"><ele>71.0</ele><time>2026-03-29T07:32:16.19Z</time></trkpt><trkpt lat="45.33332" lon="10.5912133"><ele>71.0</ele><time>2026-03-29T07:32:18.189Z</time></trkpt><trkpt lat="45.333405" lon="10.5912033"><ele>71.0</ele><time>2026-03-29T07:32:20.192Z</time></trkpt><trkpt lat="45.3334717" lon="10.5912083"><ele>71.0</ele><time>2026-03-29T07:32:22.19Z</time></trkpt><trkpt lat="45.3335283" lon="10.5912567"><ele>71.0</ele><time>2026-03-29T07:32:24.189Z</time></trkpt><trkpt lat="45.3335633" lon="10.59137"><ele>71.0</ele><time>2026-03-29T07:32:26.19Z</time></trkpt><trkpt lat="45.3335683" lon="10.5914667"><ele>71.0</ele><time>2026-03-29T07:32:27.189Z</time></trkpt><trkpt lat="45.33357" lon="10.59159"><ele>71.0</ele><time>2026-03-29T07:32:28.19Z</time></trkpt><trkpt lat="45.3335717" lon="10.591745"><ele>71.0</ele><time>2026-03-29T07:32:29.192Z</time></trkpt><trkpt lat="45.3335767" lon="10.5919133"><ele>71.0</ele><time>2026-03-29T07:32:30.189Z</time></trkpt><trkpt lat="45.3335833" lon="10.592095"><ele>71.0</ele><time>2026-03-29T07:32:31.19Z</time></trkpt><trkpt lat="45.3335883" lon="10.5922733"><ele>71.0</ele><time>2026-03-29T07:32:32.19Z</time></trkpt><trkpt lat="45.333595" lon="10.5924283"><ele>71.0</ele><time>2026-03-29T07:32:33.19Z</time></trkpt><trkpt lat="45.3336033" lon="10.59257"><ele>71.0</ele><time>2026-03-29T07:32:34.189Z</time></trkpt><trkpt lat="45.33361" lon="10.5926917"><ele>71.0</ele><time>2026-03-29T07:32:35.189Z</time></trkpt><trkpt lat="45.3336167" lon="10.5928017"><ele>71.2</ele><time>2026-03-29T07:32:36.189Z</time></trkpt><trkpt lat="45.3336233" lon="10.5929567"><ele>71.39999999999999</ele><time>2026-03-29T07:32:38.19Z</time></trkpt><trkpt lat="45.3336267" lon="10.5930517"><ele>71.6</ele><time>2026-03-29T07:32:44.19Z</time></trkpt><trkpt lat="45.33362" lon="10.593235"><ele>71.8</ele><time>2026-03-29T07:32:46.189Z</time></trkpt><trkpt lat="45.33361" lon="10.5933783"><ele>72.0</ele><time>2026-03-29T07:32:47.189Z</time></trkpt><trkpt lat="45.333595" lon="10.5935267"><ele>72.0</ele><time>2026-03-29T07:32:48.19Z</time></trkpt><trkpt lat="45.3335817" lon="10.593685"><ele>72.0</ele><time>2026-03-29T07:32:49.189Z</time></trkpt><trkpt lat="45.33357" lon="10.5938433"><ele>72.0</ele><time>2026-03-29T07:32:50.192Z</time></trkpt><trkpt lat="45.3335583" lon="10.594005"><ele>72.0</ele><time>2026-03-29T07:32:51.191Z</time></trkpt><trkpt lat="45.3335433" lon="10.5941633"><ele>72.0</ele><time>2026-03-29T07:32:52.189Z</time></trkpt><trkpt lat="45.3335233" lon="10.5943233"><ele>72.0</ele><time>2026-03-29T07:32:53.189Z</time></trkpt><trkpt lat="45.3335083" lon="10.5944983"><ele>72.0</ele><time>2026-03-29T07:32:54.189Z</time></trkpt><trkpt lat="45.33349" lon="10.5946767"><ele>72.0</ele><time>2026-03-29T07:32:55.189Z</time></trkpt><trkpt lat="45.3334733" lon="10.5948417"><ele>72.0</ele><time>2026-03-29T07:32:56.19Z</time></trkpt><trkpt lat="45.333455" lon="10.5949967"><ele>72.0</ele><time>2026-03-29T07:32:57.19Z</time></trkpt><trkpt lat="45.3334383" lon="10.5951417"><ele>72.0</ele><time>2026-03-29T07:32:58.19Z</time></trkpt><trkpt lat="45.33342" lon="10.59529"><ele>72.0</ele><time>2026-03-29T07:32:59.189Z</time></trkpt><trkpt lat="45.3333983" lon="10.5954533"><ele>72.0</ele><time>2026-03-29T07:33:00.189Z</time></trkpt><trkpt lat="45.3333767" lon="10.595635"><ele>72.0</ele><time>2026-03-29T07:33:01.189Z</time></trkpt><trkpt lat="45.3333533" lon="10.5958167"><ele>72.0</ele><time>2026-03-29T07:33:02.189Z</time></trkpt><trkpt lat="45.3333333" lon="10.5959867"><ele>72.0</ele><time>2026-03-29T07:33:03.19Z</time></trkpt><trkpt lat="45.33331" lon="10.596155"><ele>72.0</ele><time>2026-03-29T07:33:04.19Z</time></trkpt><trkpt lat="45.333285" lon="10.5963417"><ele>72.0</ele><time>2026-03-29T07:33:05.19Z</time></trkpt><trkpt lat="45.333255" lon="10.5965633"><ele>72.0</ele><time>2026-03-29T07:33:06.189Z</time></trkpt><trkpt lat="45.333225" lon="10.596785"><ele>72.0</ele><time>2026-03-29T07:33:07.191Z</time></trkpt><trkpt lat="45.3331983" lon="10.596985"><ele>72.0</ele><time>2026-03-29T07:33:08.19Z</time></trkpt><trkpt lat="45.3331733" lon="10.5971767"><ele>72.0</ele><time>2026-03-29T07:33:09.19Z</time></trkpt><trkpt lat="45.33315" lon="10.5973633"><ele>72.0</ele><time>2026-03-29T07:33:10.189Z</time></trkpt><trkpt lat="45.3331267" lon="10.5975383"><ele>72.0</ele><time>2026-03-29T07:33:11.189Z</time></trkpt><trkpt lat="45.3331083" lon="10.5977"><ele>72.0</ele><time>2026-03-29T07:33:12.189Z</time></trkpt><trkpt lat="45.3330933" lon="10.5978517"><ele>72.0</ele><time>2026-03-29T07:33:13.191Z</time></trkpt><trkpt lat="45.3330817" lon="10.59798"><ele>72.0</ele><time>2026-03-29T07:33:14.189Z</time></trkpt><trkpt lat="45.3330733" lon="10.5980933"><ele>72.0</ele><time>2026-03-29T07:33:15.189Z</time></trkpt><trkpt lat="45.3330717" lon="10.5981917"><ele>72.0</ele><time>2026-03-29T07:33:16.191Z</time></trkpt><trkpt lat="45.3330717" lon="10.5982833"><ele>72.0</ele><time>2026-03-29T07:33:17.189Z</time></trkpt><trkpt lat="45.3330717" lon="10.5984283"><ele>72.0</ele><time>2026-03-29T07:33:19.19Z</time></trkpt><trkpt lat="45.3330563" lon="10.5985347"><ele>72.0</ele><time>2026-03-29T07:33:22.188Z</time></trkpt><trkpt lat="45.3329926" lon="10.5985783"><ele>72.0</ele><time>2026-03-29T07:33:24.19Z</time></trkpt><trkpt lat="45.3329195" lon="10.5986028"><ele>72.0</ele><time>2026-03-29T07:33:25.189Z</time></trkpt><trkpt lat="45.3328173" lon="10.5986247"><ele>72.0</ele><time>2026-03-29T07:33:26.19Z</time></trkpt><trkpt lat="45.3327106" lon="10.5986394"><ele>72.0</ele><time>2026-03-29T07:33:27.189Z</time></trkpt><trkpt lat="45.332617" lon="10.5986456"><ele>71.83333333333333</ele><time>2026-03-29T07:33:28.189Z</time></trkpt><trkpt lat="45.3325433" lon="10.5986496"><ele>71.66666666666667</ele><time>2026-03-29T07:33:29.19Z</time></trkpt><trkpt lat="45.3324602" lon="10.5986855"><ele>71.5</ele><time>2026-03-29T07:33:31.189Z</time></trkpt><trkpt lat="45.3324333" lon="10.598835"><ele>71.33333333333334</ele><time>2026-03-29T07:33:34.189Z</time></trkpt><trkpt lat="45.3324326" lon="10.5989366"><ele>71.16666666666667</ele><time>2026-03-29T07:33:35.189Z</time></trkpt><trkpt lat="45.3324287" lon="10.5990696"><ele>71.0</ele><time>2026-03-29T07:33:36.189Z</time></trkpt><trkpt lat="45.3324219" lon="10.5992397"><ele>71.0</ele><time>2026-03-29T07:33:37.19Z</time></trkpt><trkpt lat="45.3324077" lon="10.5994222"><ele>71.0</ele><time>2026-03-29T07:33:38.19Z</time></trkpt><trkpt lat="45.3323869" lon="10.5996149"><ele>71.0</ele><time>2026-03-29T07:33:39.189Z</time></trkpt><trkpt lat="45.3323622" lon="10.5998366"><ele>71.0</ele><time>2026-03-29T07:33:40.189Z</time></trkpt><trkpt lat="45.332341" lon="10.600056"><ele>70.75</ele><time>2026-03-29T07:33:41.19Z</time></trkpt><trkpt lat="45.3323212" lon="10.6002562"><ele>70.5</ele><time>2026-03-29T07:33:42.193Z</time></trkpt><trkpt lat="45.3322989" lon="10.6004395"><ele>70.25</ele><time>2026-03-29T07:33:43.193Z</time></trkpt><trkpt lat="45.3322783" lon="10.6006134"><ele>70.0</ele><time>2026-03-29T07:33:44.19Z</time></trkpt><trkpt lat="45.3322633" lon="10.6007757"><ele>70.0</ele><time>2026-03-29T07:33:45.19Z</time></trkpt><trkpt lat="45.3322473" lon="10.6009297"><ele>70.0</ele><time>2026-03-29T07:33:46.189Z</time></trkpt><trkpt lat="45.3322318" lon="10.6010793"><ele>70.0</ele><time>2026-03-29T07:33:47.19Z</time></trkpt><trkpt lat="45.3322165" lon="10.6012288"><ele>70.0</ele><time>2026-03-29T07:33:48.189Z</time></trkpt><trkpt lat="45.3322029" lon="10.6013828"><ele>70.0</ele><time>2026-03-29T07:33:49.189Z</time></trkpt><trkpt lat="45.3321884" lon="10.6015447"><ele>70.0</ele><time>2026-03-29T07:33:50.19Z</time></trkpt><trkpt lat="45.3321677" lon="10.6017084"><ele>70.0</ele><time>2026-03-29T07:33:51.19Z</time></trkpt><trkpt lat="45.3321414" lon="10.6018735"><ele>70.0</ele><time>2026-03-29T07:33:52.19Z</time></trkpt><trkpt lat="45.3321099" lon="10.6020387"><ele>70.0</ele><time>2026-03-29T07:33:53.189Z</time></trkpt><trkpt lat="45.3320766" lon="10.6021952"><ele>70.0</ele><time>2026-03-29T07:33:54.188Z</time></trkpt><trkpt lat="45.3320496" lon="10.6023377"><ele>70.0</ele><time>2026-03-29T07:33:55.191Z</time></trkpt><trkpt lat="45.332022" lon="10.6024622"><ele>70.0</ele><time>2026-03-29T07:33:56.192Z</time></trkpt><trkpt lat="45.3319924" lon="10.6025725"><ele>70.0</ele><time>2026-03-29T07:33:57.19Z</time></trkpt><trkpt lat="45.3319595" lon="10.6026717"><ele>70.0</ele><time>2026-03-29T07:33:58.19Z</time></trkpt><trkpt lat="45.3319191" lon="10.60277"><ele>70.0</ele><time>2026-03-29T07:33:59.19Z</time></trkpt><trkpt lat="45.3318631" lon="10.6028795"><ele>69.75</ele><time>2026-03-29T07:34:00.189Z</time></trkpt><trkpt lat="45.331804" lon="10.602999"><ele>69.5</ele><time>2026-03-29T07:34:01.189Z</time></trkpt><trkpt lat="45.3317531" lon="10.6031271"><ele>69.25</ele><time>2026-03-29T07:34:02.19Z</time></trkpt><trkpt lat="45.3317113" lon="10.6032799"><ele>69.0</ele><time>2026-03-29T07:34:03.19Z</time></trkpt><trkpt lat="45.3316713" lon="10.603455"><ele>69.0</ele><time>2026-03-29T07:34:04.189Z</time></trkpt><trkpt lat="45.3316288" lon="10.6036481"><ele>69.0</ele><time>2026-03-29T07:34:05.189Z</time></trkpt><trkpt lat="45.3315899" lon="10.603834"><ele>69.0</ele><time>2026-03-29T07:34:06.189Z</time></trkpt><trkpt lat="45.3315588" lon="10.6040008"><ele>69.0</ele><time>2026-03-29T07:34:07.188Z</time></trkpt><trkpt lat="45.3315289" lon="10.6041659"><ele>68.75</ele><time>2026-03-29T07:34:08.189Z</time></trkpt><trkpt lat="45.3314964" lon="10.6043376"><ele>68.5</ele><time>2026-03-29T07:34:09.189Z</time></trkpt><trkpt lat="45.3314649" lon="10.6045022"><ele>68.25</ele><time>2026-03-29T07:34:10.188Z</time></trkpt><trkpt lat="45.331439" lon="10.6046537"><ele>68.0</ele><time>2026-03-29T07:34:11.194Z</time></trkpt><trkpt lat="45.3314107" lon="10.6048007"><ele>67.25</ele><time>2026-03-29T07:34:12.189Z</time></trkpt><trkpt lat="45.3313767" lon="10.6049611"><ele>66.5</ele><time>2026-03-29T07:34:13.189Z</time></trkpt><trkpt lat="45.3313382" lon="10.605133"><ele>65.75</ele><time>2026-03-29T07:34:14.189Z</time></trkpt><trkpt lat="45.3312969" lon="10.605309"><ele>65.0</ele><time>2026-03-29T07:34:15.188Z</time></trkpt><trkpt lat="45.3312628" lon="10.6054635"><ele>65.0</ele><time>2026-03-29T07:34:16.189Z</time></trkpt><trkpt lat="45.3312299" lon="10.6056101"><ele>65.0</ele><time>2026-03-29T07:34:17.19Z</time></trkpt><trkpt lat="45.3312025" lon="10.6057307"><ele>65.0</ele><time>2026-03-29T07:34:18.19Z</time></trkpt><trkpt lat="45.3311765" lon="10.6058324"><ele>65.0</ele><time>2026-03-29T07:34:19.189Z</time></trkpt><trkpt lat="45.3311404" lon="10.6059811"><ele>65.0</ele><time>2026-03-29T07:34:21.19Z</time></trkpt><trkpt lat="45.3311071" lon="10.6060693"><ele>65.0</ele><time>2026-03-29T07:34:24.189Z</time></trkpt><trkpt lat="45.3310335" lon="10.6060695"><ele>65.0</ele><time>2026-03-29T07:34:27.19Z</time></trkpt><trkpt lat="45.3309697" lon="10.6060596"><ele>65.0</ele><time>2026-03-29T07:34:28.19Z</time></trkpt><trkpt lat="45.3308942" lon="10.6060483"><ele>65.0</ele><time>2026-03-29T07:34:29.19Z</time></trkpt><trkpt lat="45.3308084" lon="10.6060361"><ele>65.0</ele><time>2026-03-29T07:34:30.19Z</time></trkpt><trkpt lat="45.3307072" lon="10.6060215"><ele>65.0</ele><time>2026-03-29T07:34:31.191Z</time></trkpt><trkpt lat="45.3305992" lon="10.6060031"><ele>65.2</ele><time>2026-03-29T07:34:32.19Z</time></trkpt><trkpt lat="45.3304923" lon="10.6059855"><ele>65.4</ele><time>2026-03-29T07:34:33.189Z</time></trkpt><trkpt lat="45.3303889" lon="10.6059743"><ele>65.6</ele><time>2026-03-29T07:34:34.189Z</time></trkpt><trkpt lat="45.3302922" lon="10.6059739"><ele>65.8</ele><time>2026-03-29T07:34:35.19Z</time></trkpt><trkpt lat="45.3301916" lon="10.6059848"><ele>66.0</ele><time>2026-03-29T07:34:36.191Z</time></trkpt><trkpt lat="45.3300769" lon="10.6060014"><ele>66.0</ele><time>2026-03-29T07:34:37.19Z</time></trkpt><trkpt lat="45.3299596" lon="10.606011"><ele>66.0</ele><time>2026-03-29T07:34:38.189Z</time></trkpt><trkpt lat="45.3298477" lon="10.6060092"><ele>66.0</ele><time>2026-03-29T07:34:39.191Z</time></trkpt><trkpt lat="45.3297403" lon="10.6059975"><ele>66.0</ele><time>2026-03-29T07:34:40.189Z</time></trkpt><trkpt lat="45.3296437" lon="10.605978"><ele>66.0</ele><time>2026-03-29T07:34:41.189Z</time></trkpt><trkpt lat="45.3295595" lon="10.605963"><ele>65.8</ele><time>2026-03-29T07:34:42.189Z</time></trkpt><trkpt lat="45.329484" lon="10.6059496"><ele>65.6</ele><time>2026-03-29T07:34:43.19Z</time></trkpt><trkpt lat="45.3294002" lon="10.6059317"><ele>65.4</ele><time>2026-03-29T07:34:44.19Z</time></trkpt><trkpt lat="45.3292921" lon="10.6059086"><ele>65.2</ele><time>2026-03-29T07:34:45.189Z</time></trkpt><trkpt lat="45.329166" lon="10.6058847"><ele>65.0</ele><time>2026-03-29T07:34:46.19Z</time></trkpt><trkpt lat="45.3290404" lon="10.6058614"><ele>65.0</ele><time>2026-03-29T07:34:47.191Z</time></trkpt><trkpt lat="45.3289292" lon="10.6058418"><ele>65.0</ele><time>2026-03-29T07:34:48.189Z</time></trkpt><trkpt lat="45.3288265" lon="10.6058253"><ele>65.0</ele><time>2026-03-29T07:34:49.19Z</time></trkpt><trkpt lat="45.3287238" lon="10.6058074"><ele>65.0</ele><time>2026-03-29T07:34:50.189Z</time></trkpt><trkpt lat="45.3286222" lon="10.6057886"><ele>65.0</ele><time>2026-03-29T07:34:51.189Z</time></trkpt><trkpt lat="45.3285221" lon="10.6057684"><ele>64.75</ele><time>2026-03-29T07:34:52.189Z</time></trkpt><trkpt lat="45.3284193" lon="10.605747"><ele>64.5</ele><time>2026-03-29T07:34:53.192Z</time></trkpt><trkpt lat="45.3283078" lon="10.6057266"><ele>64.25</ele><time>2026-03-29T07:34:54.189Z</time></trkpt><trkpt lat="45.3281887" lon="10.6057145"><ele>64.0</ele><time>2026-03-29T07:34:55.19Z</time></trkpt><trkpt lat="45.3280681" lon="10.6057184"><ele>63.800000000000004</ele><time>2026-03-29T07:34:56.189Z</time></trkpt><trkpt lat="45.3279516" lon="10.6057309"><ele>63.60000000000001</ele><time>2026-03-29T07:34:57.191Z</time></trkpt><trkpt lat="45.3278464" lon="10.6057461"><ele>63.4</ele><time>2026-03-29T07:34:58.19Z</time></trkpt><trkpt lat="45.3277504" lon="10.6057645"><ele>63.2</ele><time>2026-03-29T07:34:59.19Z</time></trkpt><trkpt lat="45.3276663" lon="10.6057804"><ele>63.0</ele><time>2026-03-29T07:35:00.189Z</time></trkpt><trkpt lat="45.3275883" lon="10.6057824"><ele>63.0</ele><time>2026-03-29T07:35:01.19Z</time></trkpt><trkpt lat="45.3274993" lon="10.6057735"><ele>63.0</ele><time>2026-03-29T07:35:02.19Z</time></trkpt><trkpt lat="45.3273871" lon="10.6057521"><ele>63.0</ele><time>2026-03-29T07:35:03.191Z</time></trkpt><trkpt lat="45.3272606" lon="10.6057243"><ele>63.0</ele><time>2026-03-29T07:35:04.191Z</time></trkpt><trkpt lat="45.3271381" lon="10.6056933"><ele>62.75</ele><time>2026-03-29T07:35:05.19Z</time></trkpt><trkpt lat="45.3270244" lon="10.6056723"><ele>62.5</ele><time>2026-03-29T07:35:06.188Z</time></trkpt><trkpt lat="45.3269113" lon="10.6056603"><ele>62.25</ele><time>2026-03-29T07:35:07.191Z</time></trkpt><trkpt lat="45.3267936" lon="10.6056529"><ele>62.0</ele><time>2026-03-29T07:35:08.19Z</time></trkpt><trkpt lat="45.3266836" lon="10.6056508"><ele>62.0</ele><time>2026-03-29T07:35:09.189Z</time></trkpt><trkpt lat="45.3265852" lon="10.6056557"><ele>62.0</ele><time>2026-03-29T07:35:10.189Z</time></trkpt><trkpt lat="45.3264855" lon="10.6056757"><ele>62.0</ele><time>2026-03-29T07:35:11.189Z</time></trkpt><trkpt lat="45.3263804" lon="10.6057098"><ele>62.0</ele><time>2026-03-29T07:35:12.19Z</time></trkpt><trkpt lat="45.3262781" lon="10.6057608"><ele>62.0</ele><time>2026-03-29T07:35:13.188Z</time></trkpt><trkpt lat="45.3261805" lon="10.6058217"><ele>62.0</ele><time>2026-03-29T07:35:14.19Z</time></trkpt><trkpt lat="45.3260886" lon="10.6058796"><ele>62.0</ele><time>2026-03-29T07:35:15.19Z</time></trkpt><trkpt lat="45.3260027" lon="10.6059331"><ele>62.0</ele><time>2026-03-29T07:35:16.189Z</time></trkpt><trkpt lat="45.3259214" lon="10.6059849"><ele>62.0</ele><time>2026-03-29T07:35:17.189Z</time></trkpt><trkpt lat="45.3258355" lon="10.6060402"><ele>62.0</ele><time>2026-03-29T07:35:18.189Z</time></trkpt><trkpt lat="45.3257485" lon="10.6060921"><ele>62.0</ele><time>2026-03-29T07:35:19.191Z</time></trkpt><trkpt lat="45.3256666" lon="10.6061418"><ele>62.0</ele><time>2026-03-29T07:35:20.189Z</time></trkpt><trkpt lat="45.3255832" lon="10.6061955"><ele>62.0</ele><time>2026-03-29T07:35:21.189Z</time></trkpt><trkpt lat="45.3254893" lon="10.6062564"><ele>62.0</ele><time>2026-03-29T07:35:22.19Z</time></trkpt><trkpt lat="45.3253942" lon="10.6063239"><ele>62.0</ele><time>2026-03-29T07:35:23.189Z</time></trkpt><trkpt lat="45.3253025" lon="10.6063925"><ele>61.50000000000001</ele><time>2026-03-29T07:35:24.19Z</time></trkpt><trkpt lat="45.3252142" lon="10.606458"><ele>61.0</ele><time>2026-03-29T07:35:25.19Z</time></trkpt><trkpt lat="45.325132" lon="10.6065229"><ele>60.5</ele><time>2026-03-29T07:35:26.189Z</time></trkpt><trkpt lat="45.3250605" lon="10.6065828"><ele>60.0</ele><time>2026-03-29T07:35:27.189Z</time></trkpt><trkpt lat="45.3250005" lon="10.6066341"><ele>59.50000000000001</ele><time>2026-03-29T07:35:28.189Z</time></trkpt><trkpt lat="45.3249232" lon="10.6067076"><ele>59.0</ele><time>2026-03-29T07:35:30.19Z</time></trkpt><trkpt lat="45.3248681" lon="10.6067718"><ele>59.0</ele><time>2026-03-29T07:35:32.19Z</time></trkpt><trkpt lat="45.3247754" lon="10.6068655"><ele>59.00000000000001</ele><time>2026-03-29T07:35:34.188Z</time></trkpt><trkpt lat="45.3246745" lon="10.6069531"><ele>59.00000000000001</ele><time>2026-03-29T07:35:36.188Z</time></trkpt><trkpt lat="45.3245874" lon="10.6070275"><ele>59.0</ele><time>2026-03-29T07:35:38.19Z</time></trkpt><trkpt lat="45.3245122" lon="10.6070969"><ele>59.0</ele><time>2026-03-29T07:35:40.192Z</time></trkpt><trkpt lat="45.3244012" lon="10.6071864"><ele>59.16666666666667</ele><time>2026-03-29T07:35:42.189Z</time></trkpt><trkpt lat="45.3243319" lon="10.6072376"><ele>59.333333333333336</ele><time>2026-03-29T07:35:43.19Z</time></trkpt><trkpt lat="45.3242608" lon="10.6072868"><ele>59.5</ele><time>2026-03-29T07:35:44.19Z</time></trkpt><trkpt lat="45.3241886" lon="10.6073347"><ele>59.66666666666667</ele><time>2026-03-29T07:35:45.19Z</time></trkpt><trkpt lat="45.3241181" lon="10.6073807"><ele>59.833333333333336</ele><time>2026-03-29T07:35:46.188Z</time></trkpt><trkpt lat="45.3240507" lon="10.6074273"><ele>60.0</ele><time>2026-03-29T07:35:47.189Z</time></trkpt><trkpt lat="45.3239827" lon="10.6074736"><ele>60.0</ele><time>2026-03-29T07:35:48.19Z</time></trkpt><trkpt lat="45.3239168" lon="10.6075176"><ele>60.0</ele><time>2026-03-29T07:35:49.189Z</time></trkpt><trkpt lat="45.3238504" lon="10.607562"><ele>60.0</ele><time>2026-03-29T07:35:50.19Z</time></trkpt><trkpt lat="45.323785" lon="10.6076051"><ele>60.0</ele><time>2026-03-29T07:35:51.189Z</time></trkpt><trkpt lat="45.3237186" lon="10.6076465"><ele>60.0</ele><time>2026-03-29T07:35:52.189Z</time></trkpt><trkpt lat="45.3236545" lon="10.6076848"><ele>60.0</ele><time>2026-03-29T07:35:53.19Z</time></trkpt><trkpt lat="45.3235923" lon="10.6077215"><ele>60.0</ele><time>2026-03-29T07:35:54.189Z</time></trkpt><trkpt lat="45.3235282" lon="10.6077579"><ele>60.2</ele><time>2026-03-29T07:35:55.189Z</time></trkpt><trkpt lat="45.3234639" lon="10.607793"><ele>60.4</ele><time>2026-03-29T07:35:56.189Z</time></trkpt><trkpt lat="45.3234046" lon="10.607824"><ele>60.599999999999994</ele><time>2026-03-29T07:35:57.189Z</time></trkpt><trkpt lat="45.3232898" lon="10.6078827"><ele>60.8</ele><time>2026-03-29T07:35:59.192Z</time></trkpt><trkpt lat="45.3231715" lon="10.6079405"><ele>61.0</ele><time>2026-03-29T07:36:01.189Z</time></trkpt><trkpt lat="45.3230604" lon="10.6079913"><ele>60.4</ele><time>2026-03-29T07:36:03.188Z</time></trkpt><trkpt lat="45.3229555" lon="10.6080381"><ele>59.8</ele><time>2026-03-29T07:36:05.188Z</time></trkpt><trkpt lat="45.3228406" lon="10.6080897"><ele>59.199999999999996</ele><time>2026-03-29T07:36:07.188Z</time></trkpt><trkpt lat="45.3227792" lon="10.6081137"><ele>58.599999999999994</ele><time>2026-03-29T07:36:08.189Z</time></trkpt><trkpt lat="45.32266" lon="10.6081638"><ele>58.0</ele><time>2026-03-29T07:36:10.188Z</time></trkpt><trkpt lat="45.3225974" lon="10.608191"><ele>58.00000000000001</ele><time>2026-03-29T07:36:11.188Z</time></trkpt><trkpt lat="45.3225339" lon="10.6082262"><ele>58.0</ele><time>2026-03-29T07:36:12.189Z</time></trkpt><trkpt lat="45.3224678" lon="10.6082698"><ele>58.00000000000001</ele><time>2026-03-29T07:36:13.19Z</time></trkpt><trkpt lat="45.3223994" lon="10.6083175"><ele>58.00000000000001</ele><time>2026-03-29T07:36:14.189Z</time></trkpt><trkpt lat="45.3223321" lon="10.608368"><ele>58.0</ele><time>2026-03-29T07:36:15.188Z</time></trkpt><trkpt lat="45.3222682" lon="10.6084185"><ele>58.00000000000001</ele><time>2026-03-29T07:36:16.188Z</time></trkpt><trkpt lat="45.3222108" lon="10.6084647"><ele>58.00000000000001</ele><time>2026-03-29T07:36:17.189Z</time></trkpt><trkpt lat="45.3221101" lon="10.6085479"><ele>57.83333333333333</ele><time>2026-03-29T07:36:19.191Z</time></trkpt><trkpt lat="45.3220088" lon="10.6086185"><ele>57.666666666666664</ele><time>2026-03-29T07:36:21.189Z</time></trkpt><trkpt lat="45.3219466" lon="10.608647"><ele>57.5</ele><time>2026-03-29T07:36:22.19Z</time></trkpt><trkpt lat="45.3218808" lon="10.608673"><ele>57.33333333333333</ele><time>2026-03-29T07:36:23.189Z</time></trkpt><trkpt lat="45.3218096" lon="10.6086975"><ele>57.166666666666664</ele><time>2026-03-29T07:36:24.189Z</time></trkpt><trkpt lat="45.3217317" lon="10.6087209"><ele>57.0</ele><time>2026-03-29T07:36:25.189Z</time></trkpt><trkpt lat="45.3216496" lon="10.6087396"><ele>57.0</ele><time>2026-03-29T07:36:26.189Z</time></trkpt><trkpt lat="45.3215645" lon="10.6087574"><ele>57.0</ele><time>2026-03-29T07:36:27.189Z</time></trkpt><trkpt lat="45.3214818" lon="10.6087783"><ele>57.0</ele><time>2026-03-29T07:36:28.189Z</time></trkpt><trkpt lat="45.3214056" lon="10.6088001"><ele>57.0</ele><time>2026-03-29T07:36:29.189Z</time></trkpt><trkpt lat="45.3213397" lon="10.6088191"><ele>57.0</ele><time>2026-03-29T07:36:30.188Z</time></trkpt><trkpt lat="45.3212538" lon="10.6088427"><ele>57.0</ele><time>2026-03-29T07:36:32.189Z</time></trkpt><trkpt lat="45.3212214" lon="10.6089618"><ele>57.0</ele><time>2026-03-29T07:36:36.189Z</time></trkpt><trkpt lat="45.3212469" lon="10.6090559"><ele>57.0</ele><time>2026-03-29T07:36:37.191Z</time></trkpt><trkpt lat="45.3212853" lon="10.6091952"><ele>57.0</ele><time>2026-03-29T07:36:38.189Z</time></trkpt><trkpt lat="45.3213383" lon="10.6094025"><ele>57.0</ele><time>2026-03-29T07:36:39.189Z</time></trkpt><trkpt lat="45.3214012" lon="10.6096671"><ele>57.0</ele><time>2026-03-29T07:36:40.189Z</time></trkpt><trkpt lat="45.3214784" lon="10.6099911"><ele>57.0</ele><time>2026-03-29T07:36:41.189Z</time></trkpt><trkpt lat="45.3215654" lon="10.610356"><ele>57.0</ele><time>2026-03-29T07:36:42.189Z</time></trkpt><trkpt lat="45.3216597" lon="10.610746"><ele>57.0</ele><time>2026-03-29T07:36:43.189Z</time></trkpt><trkpt lat="45.321756" lon="10.6111482"><ele>58.0</ele><time>2026-03-29T07:36:44.19Z</time></trkpt><trkpt lat="45.3218487" lon="10.6115402"><ele>59.0</ele><time>2026-03-29T07:36:45.189Z</time></trkpt><trkpt lat="45.3219358" lon="10.611906"><ele>58.5</ele><time>2026-03-29T07:36:46.188Z</time></trkpt><trkpt lat="45.3220179" lon="10.6122542"><ele>58.0</ele><time>2026-03-29T07:36:47.189Z</time></trkpt><trkpt lat="45.3220933" lon="10.6125878"><ele>57.0</ele><time>2026-03-29T07:36:48.19Z</time></trkpt><trkpt lat="45.3221588" lon="10.6129129"><ele>56.0</ele><time>2026-03-29T07:36:49.189Z</time></trkpt><trkpt lat="45.3222131" lon="10.6132427"><ele>57.0</ele><time>2026-03-29T07:36:50.19Z</time></trkpt><trkpt lat="45.3222567" lon="10.6135855"><ele>58.0</ele><time>2026-03-29T07:36:51.189Z</time></trkpt><trkpt lat="45.3222942" lon="10.6139264"><ele>58.0</ele><time>2026-03-29T07:36:52.189Z</time></trkpt><trkpt lat="45.3223245" lon="10.6142403"><ele>58.0</ele><time>2026-03-29T07:36:53.19Z</time></trkpt><trkpt lat="45.3223503" lon="10.6145148"><ele>58.0</ele><time>2026-03-29T07:36:54.19Z</time></trkpt><trkpt lat="45.3223645" lon="10.614774"><ele>58.0</ele><time>2026-03-29T07:36:55.188Z</time></trkpt><trkpt lat="45.3223541" lon="10.6150506"><ele>58.0</ele><time>2026-03-29T07:36:56.19Z</time></trkpt><trkpt lat="45.3223145" lon="10.615357"><ele>58.0</ele><time>2026-03-29T07:36:57.189Z</time></trkpt><trkpt lat="45.3222459" lon="10.6156851"><ele>57.5</ele><time>2026-03-29T07:36:58.188Z</time></trkpt><trkpt lat="45.3221417" lon="10.6160106"><ele>57.0</ele><time>2026-03-29T07:36:59.188Z</time></trkpt><trkpt lat="45.3220024" lon="10.6163444"><ele>57.5</ele><time>2026-03-29T07:37:00.191Z</time></trkpt><trkpt lat="45.3218343" lon="10.6166945"><ele>58.0</ele><time>2026-03-29T07:37:01.189Z</time></trkpt><trkpt lat="45.3216504" lon="10.6170633"><ele>58.0</ele><time>2026-03-29T07:37:02.19Z</time></trkpt><trkpt lat="45.3214674" lon="10.617426"><ele>58.0</ele><time>2026-03-29T07:37:03.189Z</time></trkpt><trkpt lat="45.3212985" lon="10.6177685"><ele>57.0</ele><time>2026-03-29T07:37:04.188Z</time></trkpt><trkpt lat="45.3211384" lon="10.6180958"><ele>56.0</ele><time>2026-03-29T07:37:05.189Z</time></trkpt><trkpt lat="45.3209943" lon="10.6183931"><ele>56.0</ele><time>2026-03-29T07:37:06.188Z</time></trkpt><trkpt lat="45.3208736" lon="10.6186441"><ele>56.0</ele><time>2026-03-29T07:37:07.19Z</time></trkpt><trkpt lat="45.3207672" lon="10.6188787"><ele>56.0</ele><time>2026-03-29T07:37:08.189Z</time></trkpt><trkpt lat="45.3206738" lon="10.6191235"><ele>56.0</ele><time>2026-03-29T07:37:09.188Z</time></trkpt><trkpt lat="45.3205955" lon="10.6193807"><ele>56.0</ele><time>2026-03-29T07:37:10.189Z</time></trkpt><trkpt lat="45.3205368" lon="10.6196291"><ele>56.0</ele><time>2026-03-29T07:37:11.188Z</time></trkpt><trkpt lat="45.3204981" lon="10.6198575"><ele>56.0</ele><time>2026-03-29T07:37:12.188Z</time></trkpt><trkpt lat="45.3204729" lon="10.6200514"><ele>55.99999999999999</ele><time>2026-03-29T07:37:13.189Z</time></trkpt><trkpt lat="45.3204583" lon="10.6202063"><ele>55.99999999999999</ele><time>2026-03-29T07:37:14.189Z</time></trkpt><trkpt lat="45.3204536" lon="10.620326"><ele>56.0</ele><time>2026-03-29T07:37:15.188Z</time></trkpt><trkpt lat="45.3204676" lon="10.6204797"><ele>56.0</ele><time>2026-03-29T07:37:17.189Z</time></trkpt><trkpt lat="45.3204461" lon="10.6205922"><ele>56.333333333333336</ele><time>2026-03-29T07:37:44.188Z</time></trkpt><trkpt lat="45.3204024" lon="10.6208256"><ele>56.66666666666667</ele><time>2026-03-29T07:37:46.189Z</time></trkpt><trkpt lat="45.3203793" lon="10.6210537"><ele>57.0</ele><time>2026-03-29T07:37:47.189Z</time></trkpt><trkpt lat="45.3203525" lon="10.6213326"><ele>58.0</ele><time>2026-03-29T07:37:48.19Z</time></trkpt><trkpt lat="45.3203213" lon="10.6216462"><ele>59.0</ele><time>2026-03-29T07:37:49.192Z</time></trkpt><trkpt lat="45.3202879" lon="10.6219791"><ele>59.0</ele><time>2026-03-29T07:37:50.191Z</time></trkpt><trkpt lat="45.3202529" lon="10.6223139"><ele>59.0</ele><time>2026-03-29T07:37:51.19Z</time></trkpt><trkpt lat="45.320219" lon="10.6226452"><ele>58.0</ele><time>2026-03-29T07:37:52.189Z</time></trkpt><trkpt lat="45.3201843" lon="10.6229745"><ele>57.0</ele><time>2026-03-29T07:37:53.189Z</time></trkpt><trkpt lat="45.3201507" lon="10.6233083"><ele>57.5</ele><time>2026-03-29T07:37:54.19Z</time></trkpt><trkpt lat="45.3201164" lon="10.6236569"><ele>58.0</ele><time>2026-03-29T07:37:55.191Z</time></trkpt><trkpt lat="45.3200781" lon="10.6240265"><ele>58.0</ele><time>2026-03-29T07:37:56.191Z</time></trkpt><trkpt lat="45.3200391" lon="10.6244104"><ele>58.0</ele><time>2026-03-29T07:37:57.189Z</time></trkpt><trkpt lat="45.319998" lon="10.6247945"><ele>58.5</ele><time>2026-03-29T07:37:58.189Z</time></trkpt><trkpt lat="45.3199589" lon="10.6251735"><ele>59.0</ele><time>2026-03-29T07:37:59.192Z</time></trkpt><trkpt lat="45.3199192" lon="10.6255487"><ele>59.0</ele><time>2026-03-29T07:38:00.19Z</time></trkpt><trkpt lat="45.3198806" lon="10.6259209"><ele>59.0</ele><time>2026-03-29T07:38:01.189Z</time></trkpt><trkpt lat="45.3198423" lon="10.6262938"><ele>59.0</ele><time>2026-03-29T07:38:02.19Z</time></trkpt><trkpt lat="45.3198039" lon="10.6266665"><ele>59.0</ele><time>2026-03-29T07:38:03.19Z</time></trkpt><trkpt lat="45.3197656" lon="10.6270369"><ele>59.0</ele><time>2026-03-29T07:38:04.189Z</time></trkpt><trkpt lat="45.31973" lon="10.6273995"><ele>59.0</ele><time>2026-03-29T07:38:05.19Z</time></trkpt><trkpt lat="45.3196974" lon="10.6277215"><ele>59.0</ele><time>2026-03-29T07:38:06.19Z</time></trkpt><trkpt lat="45.3196701" lon="10.6279653"><ele>59.00000000000001</ele><time>2026-03-29T07:38:07.19Z</time></trkpt><trkpt lat="45.3196495" lon="10.6281318"><ele>59.00000000000001</ele><time>2026-03-29T07:38:08.19Z</time></trkpt><trkpt lat="45.319637" lon="10.6282356"><ele>59.0</ele><time>2026-03-29T07:38:09.189Z</time></trkpt><trkpt lat="45.319634" lon="10.6283347"><ele>59.0</ele><time>2026-03-29T07:38:11.191Z</time></trkpt><trkpt lat="45.3197241" lon="10.6283447"><ele>59.5</ele><time>2026-03-29T07:38:14.19Z</time></trkpt><trkpt lat="45.3198792" lon="10.6283891"><ele>60.0</ele><time>2026-03-29T07:38:16.189Z</time></trkpt><trkpt lat="45.3199839" lon="10.6284233"><ele>60.5</ele><time>2026-03-29T07:38:17.19Z</time></trkpt><trkpt lat="45.3200868" lon="10.628463"><ele>61.0</ele><time>2026-03-29T07:38:18.189Z</time></trkpt><trkpt lat="45.3201921" lon="10.6285103"><ele>61.0</ele><time>2026-03-29T07:38:19.189Z</time></trkpt><trkpt lat="45.3203056" lon="10.6285592"><ele>61.0</ele><time>2026-03-29T07:38:20.192Z</time></trkpt><trkpt lat="45.3204246" lon="10.6286027"><ele>61.0</ele><time>2026-03-29T07:38:21.189Z</time></trkpt><trkpt lat="45.3205424" lon="10.6286441"><ele>61.0</ele><time>2026-03-29T07:38:22.189Z</time></trkpt><trkpt lat="45.320658" lon="10.6286816"><ele>61.199999999999996</ele><time>2026-03-29T07:38:23.191Z</time></trkpt><trkpt lat="45.3207704" lon="10.6287165"><ele>61.39999999999999</ele><time>2026-03-29T07:38:24.189Z</time></trkpt><trkpt lat="45.3208737" lon="10.628747"><ele>61.6</ele><time>2026-03-29T07:38:25.19Z</time></trkpt><trkpt lat="45.3209704" lon="10.6287818"><ele>61.8</ele><time>2026-03-29T07:38:26.19Z</time></trkpt><trkpt lat="45.3210659" lon="10.628823"><ele>62.0</ele><time>2026-03-29T07:38:27.19Z</time></trkpt><trkpt lat="45.3211521" lon="10.6288642"><ele>62.0</ele><time>2026-03-29T07:38:28.19Z</time></trkpt><trkpt lat="45.3212237" lon="10.6288978"><ele>62.0</ele><time>2026-03-29T07:38:29.191Z</time></trkpt><trkpt lat="45.3213118" lon="10.6289432"><ele>62.0</ele><time>2026-03-29T07:38:31.193Z</time></trkpt><trkpt lat="45.3213774" lon="10.629035"><ele>62.0</ele><time>2026-03-29T07:38:34.19Z</time></trkpt><trkpt lat="45.3214079" lon="10.6291715"><ele>62.0</ele><time>2026-03-29T07:38:36.192Z</time></trkpt><trkpt lat="45.3214" lon="10.6293249"><ele>62.0</ele><time>2026-03-29T07:38:38.19Z</time></trkpt><trkpt lat="45.3213677" lon="10.6294796"><ele>62.0</ele><time>2026-03-29T07:38:40.19Z</time></trkpt><trkpt lat="45.3213277" lon="10.6296133"><ele>62.0</ele><time>2026-03-29T07:38:42.188Z</time></trkpt><trkpt lat="45.3212966" lon="10.6297144"><ele>62.0</ele><time>2026-03-29T07:38:43.189Z</time></trkpt><trkpt lat="45.3212608" lon="10.629846"><ele>62.0</ele><time>2026-03-29T07:38:44.19Z</time></trkpt><trkpt lat="45.32122" lon="10.6300324"><ele>62.0</ele><time>2026-03-29T07:38:45.189Z</time></trkpt><trkpt lat="45.321188" lon="10.6302098"><ele>62.0</ele><time>2026-03-29T07:38:46.189Z</time></trkpt><trkpt lat="45.3211691" lon="10.6303806"><ele>62.0</ele><time>2026-03-29T07:38:47.19Z</time></trkpt><trkpt lat="45.3211624" lon="10.6305669"><ele>62.0</ele><time>2026-03-29T07:38:48.189Z</time></trkpt><trkpt lat="45.3211587" lon="10.6307472"><ele>61.8</ele><time>2026-03-29T07:38:49.19Z</time></trkpt><trkpt lat="45.3211637" lon="10.6309126"><ele>61.6</ele><time>2026-03-29T07:38:50.189Z</time></trkpt><trkpt lat="45.3211863" lon="10.6310651"><ele>61.39999999999999</ele><time>2026-03-29T07:38:51.19Z</time></trkpt><trkpt lat="45.3212233" lon="10.6312111"><ele>61.199999999999996</ele><time>2026-03-29T07:38:52.19Z</time></trkpt><trkpt lat="45.3212662" lon="10.6313483"><ele>61.0</ele><time>2026-03-29T07:38:53.191Z</time></trkpt><trkpt lat="45.3213093" lon="10.6314725"><ele>61.0</ele><time>2026-03-29T07:38:54.192Z</time></trkpt><trkpt lat="45.3213423" lon="10.6315836"><ele>60.99999999999999</ele><time>2026-03-29T07:38:55.191Z</time></trkpt><trkpt lat="45.3213648" lon="10.6317017"><ele>60.99999999999999</ele><time>2026-03-29T07:38:56.189Z</time></trkpt><trkpt lat="45.3213795" lon="10.6318454"><ele>61.0</ele><time>2026-03-29T07:38:57.189Z</time></trkpt><trkpt lat="45.3213812" lon="10.6320398"><ele>61.0</ele><time>2026-03-29T07:38:58.191Z</time></trkpt><trkpt lat="45.3213891" lon="10.632254"><ele>61.0</ele><time>2026-03-29T07:38:59.19Z</time></trkpt><trkpt lat="45.3213969" lon="10.6324586"><ele>61.0</ele><time>2026-03-29T07:39:00.191Z</time></trkpt><trkpt lat="45.3214053" lon="10.6326469"><ele>61.0</ele><time>2026-03-29T07:39:01.189Z</time></trkpt><trkpt lat="45.3214074" lon="10.632809"><ele>61.0</ele><time>2026-03-29T07:39:02.192Z</time></trkpt><trkpt lat="45.3214007" lon="10.6329392"><ele>61.0</ele><time>2026-03-29T07:39:03.191Z</time></trkpt><trkpt lat="45.3213893" lon="10.6330353"><ele>60.99999999999999</ele><time>2026-03-29T07:39:04.19Z</time></trkpt><trkpt lat="45.3213715" lon="10.6331289"><ele>60.99999999999999</ele><time>2026-03-29T07:39:05.19Z</time></trkpt><trkpt lat="45.3213482" lon="10.6332412"><ele>61.0</ele><time>2026-03-29T07:39:06.189Z</time></trkpt><trkpt lat="45.3213018" lon="10.6334221"><ele>61.0</ele><time>2026-03-29T07:39:07.19Z</time></trkpt><trkpt lat="45.3212218" lon="10.63366"><ele>60.5</ele><time>2026-03-29T07:39:08.191Z</time></trkpt><trkpt lat="45.3211274" lon="10.6339353"><ele>60.0</ele><time>2026-03-29T07:39:09.189Z</time></trkpt><trkpt lat="45.3210234" lon="10.6342442"><ele>60.5</ele><time>2026-03-29T07:39:10.19Z</time></trkpt><trkpt lat="45.3209127" lon="10.6345778"><ele>61.0</ele><time>2026-03-29T07:39:11.19Z</time></trkpt><trkpt lat="45.3207995" lon="10.6349147"><ele>61.0</ele><time>2026-03-29T07:39:12.189Z</time></trkpt><trkpt lat="45.3206896" lon="10.6352414"><ele>61.0</ele><time>2026-03-29T07:39:13.189Z</time></trkpt><trkpt lat="45.3205826" lon="10.6355601"><ele>60.0</ele><time>2026-03-29T07:39:14.19Z</time></trkpt><trkpt lat="45.3204749" lon="10.635874"><ele>59.0</ele><time>2026-03-29T07:39:15.19Z</time></trkpt><trkpt lat="45.3203695" lon="10.6361841"><ele>59.0</ele><time>2026-03-29T07:39:16.189Z</time></trkpt><trkpt lat="45.3202673" lon="10.6364823"><ele>59.0</ele><time>2026-03-29T07:39:17.189Z</time></trkpt><trkpt lat="45.3201671" lon="10.6367683"><ele>58.333333333333336</ele><time>2026-03-29T07:39:18.189Z</time></trkpt><trkpt lat="45.3200705" lon="10.6370421"><ele>57.66666666666667</ele><time>2026-03-29T07:39:19.191Z</time></trkpt><trkpt lat="45.3199847" lon="10.6372905"><ele>57.0</ele><time>2026-03-29T07:39:20.19Z</time></trkpt><trkpt lat="45.3199134" lon="10.6375016"><ele>57.0</ele><time>2026-03-29T07:39:21.191Z</time></trkpt><trkpt lat="45.319855" lon="10.6376616"><ele>57.0</ele><time>2026-03-29T07:39:22.19Z</time></trkpt><trkpt lat="45.3198135" lon="10.6377751"><ele>57.0</ele><time>2026-03-29T07:39:23.192Z</time></trkpt><trkpt lat="45.3197802" lon="10.6378581"><ele>57.0</ele><time>2026-03-29T07:39:24.189Z</time></trkpt><trkpt lat="45.31974" lon="10.638005"><ele>57.0</ele><time>2026-03-29T07:39:34.189Z</time></trkpt><trkpt lat="45.3197383" lon="10.6381833"><ele>57.0</ele><time>2026-03-29T07:39:35.191Z</time></trkpt><trkpt lat="45.31974" lon="10.6384417"><ele>57.0</ele><time>2026-03-29T07:39:36.19Z</time></trkpt><trkpt lat="45.3197383" lon="10.6387233"><ele>57.0</ele><time>2026-03-29T07:39:37.192Z</time></trkpt><trkpt lat="45.3197333" lon="10.639035"><ele>56.5</ele><time>2026-03-29T07:39:38.19Z</time></trkpt><trkpt lat="45.3197267" lon="10.6393567"><ele>56.0</ele><time>2026-03-29T07:39:39.189Z</time></trkpt><trkpt lat="45.31972" lon="10.6396917"><ele>56.0</ele><time>2026-03-29T07:39:40.19Z</time></trkpt><trkpt lat="45.319715" lon="10.6400383"><ele>56.0</ele><time>2026-03-29T07:39:41.19Z</time></trkpt><trkpt lat="45.3197083" lon="10.640395"><ele>56.0</ele><time>2026-03-29T07:39:42.189Z</time></trkpt><trkpt lat="45.3196983" lon="10.6407467"><ele>56.0</ele><time>2026-03-29T07:39:43.191Z</time></trkpt><trkpt lat="45.3196783" lon="10.6410867"><ele>56.0</ele><time>2026-03-29T07:39:44.191Z</time></trkpt><trkpt lat="45.3196433" lon="10.6414217"><ele>56.0</ele><time>2026-03-29T07:39:45.189Z</time></trkpt><trkpt lat="45.3195883" lon="10.6417567"><ele>56.0</ele><time>2026-03-29T07:39:46.189Z</time></trkpt><trkpt lat="45.3195167" lon="10.6420867"><ele>56.0</ele><time>2026-03-29T07:39:47.19Z</time></trkpt><trkpt lat="45.3194383" lon="10.6424017"><ele>56.0</ele><time>2026-03-29T07:39:48.189Z</time></trkpt><trkpt lat="45.3193633" lon="10.64269"><ele>56.0</ele><time>2026-03-29T07:39:49.191Z</time></trkpt><trkpt lat="45.319295" lon="10.6429417"><ele>56.0</ele><time>2026-03-29T07:39:50.192Z</time></trkpt><trkpt lat="45.3192383" lon="10.6431567"><ele>56.5</ele><time>2026-03-29T07:39:51.189Z</time></trkpt><trkpt lat="45.3191917" lon="10.64334"><ele>57.0</ele><time>2026-03-29T07:39:52.19Z</time></trkpt><trkpt lat="45.3191517" lon="10.6435017"><ele>57.5</ele><time>2026-03-29T07:39:53.192Z</time></trkpt><trkpt lat="45.3191117" lon="10.6436567"><ele>58.0</ele><time>2026-03-29T07:39:54.189Z</time></trkpt><trkpt lat="45.3190717" lon="10.64381"><ele>57.99999999999999</ele><time>2026-03-29T07:39:55.191Z</time></trkpt><trkpt lat="45.3190333" lon="10.64395"><ele>58.0</ele><time>2026-03-29T07:39:56.191Z</time></trkpt><trkpt lat="45.319" lon="10.644075"><ele>58.0</ele><time>2026-03-29T07:39:57.191Z</time></trkpt><trkpt lat="45.3189717" lon="10.64417"><ele>58.0</ele><time>2026-03-29T07:39:58.19Z</time></trkpt><trkpt lat="45.3189467" lon="10.644255"><ele>57.99999999999999</ele><time>2026-03-29T07:40:00.189Z</time></trkpt><trkpt lat="45.318915" lon="10.6443867"><ele>58.0</ele><time>2026-03-29T07:40:03.191Z</time></trkpt><trkpt lat="45.3188883" lon="10.6445133"><ele>57.666666666666664</ele><time>2026-03-29T07:40:04.189Z</time></trkpt><trkpt lat="45.318845" lon="10.64469"><ele>57.33333333333333</ele><time>2026-03-29T07:40:05.189Z</time></trkpt><trkpt lat="45.3187933" lon="10.644895"><ele>57.0</ele><time>2026-03-29T07:40:06.19Z</time></trkpt><trkpt lat="45.3187383" lon="10.6451317"><ele>56.66666666666667</ele><time>2026-03-29T07:40:07.189Z</time></trkpt><trkpt lat="45.3186767" lon="10.6453933"><ele>56.333333333333336</ele><time>2026-03-29T07:40:08.19Z</time></trkpt><trkpt lat="45.318615" lon="10.6456717"><ele>56.0</ele><time>2026-03-29T07:40:09.191Z</time></trkpt><trkpt lat="45.318555" lon="10.6459667"><ele>56.5</ele><time>2026-03-29T07:40:10.189Z</time></trkpt><trkpt lat="45.3184933" lon="10.646275"><ele>57.0</ele><time>2026-03-29T07:40:11.189Z</time></trkpt><trkpt lat="45.31843" lon="10.6465933"><ele>57.0</ele><time>2026-03-29T07:40:12.191Z</time></trkpt><trkpt lat="45.3183683" lon="10.646915"><ele>57.0</ele><time>2026-03-29T07:40:13.189Z</time></trkpt><trkpt lat="45.3183067" lon="10.6472267"><ele>57.0</ele><time>2026-03-29T07:40:14.192Z</time></trkpt><trkpt lat="45.31825" lon="10.6475217"><ele>57.0</ele><time>2026-03-29T07:40:15.19Z</time></trkpt><trkpt lat="45.318195" lon="10.6478017"><ele>57.0</ele><time>2026-03-29T07:40:16.189Z</time></trkpt><trkpt lat="45.31814" lon="10.64808"><ele>57.0</ele><time>2026-03-29T07:40:17.189Z</time></trkpt><trkpt lat="45.3180883" lon="10.648355"><ele>57.0</ele><time>2026-03-29T07:40:18.189Z</time></trkpt><trkpt lat="45.318035" lon="10.6486283"><ele>57.0</ele><time>2026-03-29T07:40:19.19Z</time></trkpt><trkpt lat="45.317985" lon="10.648895"><ele>57.0</ele><time>2026-03-29T07:40:20.191Z</time></trkpt><trkpt lat="45.3179333" lon="10.6491583"><ele>57.0</ele><time>2026-03-29T07:40:21.191Z</time></trkpt><trkpt lat="45.31788" lon="10.649415"><ele>57.0</ele><time>2026-03-29T07:40:22.19Z</time></trkpt><trkpt lat="45.3178217" lon="10.649665"><ele>57.33333333333333</ele><time>2026-03-29T07:40:23.191Z</time></trkpt><trkpt lat="45.3177567" lon="10.6499117"><ele>57.666666666666664</ele><time>2026-03-29T07:40:24.192Z</time></trkpt><trkpt lat="45.31768" lon="10.65015"><ele>58.0</ele><time>2026-03-29T07:40:25.191Z</time></trkpt><trkpt lat="45.3175917" lon="10.65038"><ele>58.33333333333333</ele><time>2026-03-29T07:40:26.19Z</time></trkpt><trkpt lat="45.3174867" lon="10.6506033"><ele>58.66666666666667</ele><time>2026-03-29T07:40:27.189Z</time></trkpt><trkpt lat="45.317375" lon="10.6508233"><ele>59.0</ele><time>2026-03-29T07:40:28.189Z</time></trkpt><trkpt lat="45.3172583" lon="10.6510417"><ele>59.0</ele><time>2026-03-29T07:40:29.19Z</time></trkpt><trkpt lat="45.317135" lon="10.6512633"><ele>59.0</ele><time>2026-03-29T07:40:30.195Z</time></trkpt><trkpt lat="45.3170133" lon="10.6514883"><ele>59.0</ele><time>2026-03-29T07:40:31.19Z</time></trkpt><trkpt lat="45.3168933" lon="10.651715"><ele>59.0</ele><time>2026-03-29T07:40:32.189Z</time></trkpt><trkpt lat="45.31678" lon="10.6519317"><ele>59.0</ele><time>2026-03-29T07:40:33.19Z</time></trkpt><trkpt lat="45.316675" lon="10.6521317"><ele>59.0</ele><time>2026-03-29T07:40:34.189Z</time></trkpt><trkpt lat="45.3165767" lon="10.6523117"><ele>58.800000000000004</ele><time>2026-03-29T07:40:35.189Z</time></trkpt><trkpt lat="45.3164883" lon="10.65246"><ele>58.60000000000001</ele><time>2026-03-29T07:40:36.189Z</time></trkpt><trkpt lat="45.3164133" lon="10.652585"><ele>58.4</ele><time>2026-03-29T07:40:37.189Z</time></trkpt><trkpt lat="45.3163467" lon="10.652685"><ele>58.2</ele><time>2026-03-29T07:40:38.189Z</time></trkpt><trkpt lat="45.3162783" lon="10.652765"><ele>58.0</ele><time>2026-03-29T07:40:39.189Z</time></trkpt><trkpt lat="45.3161983" lon="10.652825"><ele>58.4</ele><time>2026-03-29T07:40:40.189Z</time></trkpt><trkpt lat="45.3161217" lon="10.652885"><ele>58.8</ele><time>2026-03-29T07:40:41.189Z</time></trkpt><trkpt lat="45.31606" lon="10.6529617"><ele>59.2</ele><time>2026-03-29T07:40:42.189Z</time></trkpt><trkpt lat="45.31602" lon="10.6530583"><ele>59.6</ele><time>2026-03-29T07:40:43.19Z</time></trkpt><trkpt lat="45.3159933" lon="10.6531917"><ele>60.0</ele><time>2026-03-29T07:40:44.189Z</time></trkpt><trkpt lat="45.315955" lon="10.65337"><ele>60.0</ele><time>2026-03-29T07:40:45.19Z</time></trkpt><trkpt lat="45.3158917" lon="10.6535617"><ele>60.0</ele><time>2026-03-29T07:40:46.189Z</time></trkpt><trkpt lat="45.315805" lon="10.6537583"><ele>60.0</ele><time>2026-03-29T07:40:47.191Z</time></trkpt><trkpt lat="45.3157083" lon="10.6539533"><ele>60.0</ele><time>2026-03-29T07:40:48.19Z</time></trkpt><trkpt lat="45.31561" lon="10.6541433"><ele>60.0</ele><time>2026-03-29T07:40:49.191Z</time></trkpt><trkpt lat="45.31551" lon="10.65433"><ele>60.0</ele><time>2026-03-29T07:40:50.189Z</time></trkpt><trkpt lat="45.31541" lon="10.6545217"><ele>60.66666666666667</ele><time>2026-03-29T07:40:51.19Z</time></trkpt><trkpt lat="45.31531" lon="10.6547167"><ele>61.333333333333336</ele><time>2026-03-29T07:40:52.189Z</time></trkpt><trkpt lat="45.315205" lon="10.65492"><ele>62.0</ele><time>2026-03-29T07:40:53.189Z</time></trkpt><trkpt lat="45.3150983" lon="10.6551333"><ele>62.66666666666667</ele><time>2026-03-29T07:40:54.189Z</time></trkpt><trkpt lat="45.314985" lon="10.6553517"><ele>63.33333333333333</ele><time>2026-03-29T07:40:55.192Z</time></trkpt><trkpt lat="45.3148683" lon="10.655575"><ele>64.0</ele><time>2026-03-29T07:40:56.192Z</time></trkpt><trkpt lat="45.314755" lon="10.6558067"><ele>62.666666666666664</ele><time>2026-03-29T07:40:57.189Z</time></trkpt><trkpt lat="45.314645" lon="10.6560467"><ele>61.33333333333333</ele><time>2026-03-29T07:40:58.19Z</time></trkpt><trkpt lat="45.314535" lon="10.6562917"><ele>60.0</ele><time>2026-03-29T07:40:59.19Z</time></trkpt><trkpt lat="45.3144217" lon="10.6565367"><ele>60.0</ele><time>2026-03-29T07:41:00.189Z</time></trkpt><trkpt lat="45.31431" lon="10.65678"><ele>60.0</ele><time>2026-03-29T07:41:01.189Z</time></trkpt><trkpt lat="45.3141983" lon="10.6570233"><ele>60.0</ele><time>2026-03-29T07:41:02.19Z</time></trkpt><trkpt lat="45.3140917" lon="10.6572583"><ele>60.0</ele><time>2026-03-29T07:41:03.189Z</time></trkpt><trkpt lat="45.31399" lon="10.6574817"><ele>60.0</ele><time>2026-03-29T07:41:04.19Z</time></trkpt><trkpt lat="45.3139" lon="10.6576917"><ele>60.0</ele><time>2026-03-29T07:41:05.189Z</time></trkpt><trkpt lat="45.3138133" lon="10.6578817"><ele>60.0</ele><time>2026-03-29T07:41:06.189Z</time></trkpt><trkpt lat="45.313735" lon="10.6580433"><ele>60.0</ele><time>2026-03-29T07:41:07.189Z</time></trkpt><trkpt lat="45.313675" lon="10.65817"><ele>60.0</ele><time>2026-03-29T07:41:08.19Z</time></trkpt><trkpt lat="45.3136183" lon="10.6582767"><ele>60.0</ele><time>2026-03-29T07:41:09.189Z</time></trkpt><trkpt lat="45.3135533" lon="10.658355"><ele>60.0</ele><time>2026-03-29T07:41:10.19Z</time></trkpt><trkpt lat="45.3134783" lon="10.6584167"><ele>60.0</ele><time>2026-03-29T07:41:11.19Z</time></trkpt><trkpt lat="45.3134083" lon="10.6584783"><ele>60.0</ele><time>2026-03-29T07:41:12.189Z</time></trkpt><trkpt lat="45.3133483" lon="10.6585533"><ele>60.0</ele><time>2026-03-29T07:41:13.189Z</time></trkpt><trkpt lat="45.3133133" lon="10.658635"><ele>60.0</ele><time>2026-03-29T07:41:14.189Z</time></trkpt><trkpt lat="45.3133067" lon="10.658735"><ele>60.0</ele><time>2026-03-29T07:41:15.191Z</time></trkpt><trkpt lat="45.3133233" lon="10.6588767"><ele>60.0</ele><time>2026-03-29T07:41:16.189Z</time></trkpt><trkpt lat="45.31332" lon="10.6590717"><ele>60.0</ele><time>2026-03-29T07:41:17.19Z</time></trkpt><trkpt lat="45.3133167" lon="10.6593017"><ele>60.0</ele><time>2026-03-29T07:41:18.191Z</time></trkpt><trkpt lat="45.3133367" lon="10.65957"><ele>60.0</ele><time>2026-03-29T07:41:19.191Z</time></trkpt><trkpt lat="45.3133883" lon="10.6598833"><ele>60.0</ele><time>2026-03-29T07:41:20.19Z</time></trkpt><trkpt lat="45.3134367" lon="10.66021"><ele>60.0</ele><time>2026-03-29T07:41:21.19Z</time></trkpt><trkpt lat="45.3134833" lon="10.6605233"><ele>60.0</ele><time>2026-03-29T07:41:22.19Z</time></trkpt><trkpt lat="45.3135067" lon="10.66083"><ele>60.0</ele><time>2026-03-29T07:41:23.19Z</time></trkpt><trkpt lat="45.3135" lon="10.66115"><ele>60.0</ele><time>2026-03-29T07:41:24.189Z</time></trkpt><trkpt lat="45.3134617" lon="10.6614817"><ele>61.0</ele><time>2026-03-29T07:41:25.189Z</time></trkpt><trkpt lat="45.3133867" lon="10.6618333"><ele>62.0</ele><time>2026-03-29T07:41:26.19Z</time></trkpt><trkpt lat="45.3132967" lon="10.6621883"><ele>62.0</ele><time>2026-03-29T07:41:27.189Z</time></trkpt><trkpt lat="45.31321" lon="10.66253"><ele>62.0</ele><time>2026-03-29T07:41:28.189Z</time></trkpt><trkpt lat="45.3131267" lon="10.6628633"><ele>59.5</ele><time>2026-03-29T07:41:29.19Z</time></trkpt><trkpt lat="45.31305" lon="10.6631833"><ele>57.0</ele><time>2026-03-29T07:41:30.189Z</time></trkpt><trkpt lat="45.3129767" lon="10.6634983"><ele>57.0</ele><time>2026-03-29T07:41:31.189Z</time></trkpt><trkpt lat="45.3129" lon="10.6638117"><ele>57.0</ele><time>2026-03-29T07:41:32.189Z</time></trkpt><trkpt lat="45.3128233" lon="10.664115"><ele>57.0</ele><time>2026-03-29T07:41:33.189Z</time></trkpt><trkpt lat="45.3127467" lon="10.6644133"><ele>57.0</ele><time>2026-03-29T07:41:34.189Z</time></trkpt><trkpt lat="45.3126733" lon="10.66471"><ele>57.0</ele><time>2026-03-29T07:41:35.189Z</time></trkpt><trkpt lat="45.3126" lon="10.665005"><ele>57.33333333333333</ele><time>2026-03-29T07:41:36.189Z</time></trkpt><trkpt lat="45.3125283" lon="10.665295"><ele>57.666666666666664</ele><time>2026-03-29T07:41:37.189Z</time></trkpt><trkpt lat="45.3124583" lon="10.6655733"><ele>58.0</ele><time>2026-03-29T07:41:38.191Z</time></trkpt><trkpt lat="45.3123917" lon="10.6658317"><ele>58.0</ele><time>2026-03-29T07:41:39.189Z</time></trkpt><trkpt lat="45.3123283" lon="10.6660717"><ele>58.0</ele><time>2026-03-29T07:41:40.189Z</time></trkpt><trkpt lat="45.312255" lon="10.6663"><ele>58.0</ele><time>2026-03-29T07:41:41.19Z</time></trkpt><trkpt lat="45.3121683" lon="10.6665217"><ele>58.0</ele><time>2026-03-29T07:41:42.19Z</time></trkpt><trkpt lat="45.312065" lon="10.6667433"><ele>58.0</ele><time>2026-03-29T07:41:43.191Z</time></trkpt><trkpt lat="45.3119467" lon="10.66696"><ele>58.0</ele><time>2026-03-29T07:41:44.189Z</time></trkpt><trkpt lat="45.31182" lon="10.6671733"><ele>58.0</ele><time>2026-03-29T07:41:45.189Z</time></trkpt><trkpt lat="45.3116917" lon="10.667375"><ele>58.0</ele><time>2026-03-29T07:41:46.189Z</time></trkpt><trkpt lat="45.3115717" lon="10.6675633"><ele>58.0</ele><time>2026-03-29T07:41:47.189Z</time></trkpt><trkpt lat="45.3114567" lon="10.6677433"><ele>57.75</ele><time>2026-03-29T07:41:48.189Z</time></trkpt><trkpt lat="45.31135" lon="10.6679133"><ele>57.5</ele><time>2026-03-29T07:41:49.189Z</time></trkpt><trkpt lat="45.311255" lon="10.6680583"><ele>57.25</ele><time>2026-03-29T07:41:50.19Z</time></trkpt><trkpt lat="45.3111733" lon="10.6681883"><ele>57.0</ele><time>2026-03-29T07:41:51.189Z</time></trkpt><trkpt lat="45.3111017" lon="10.6682967"><ele>57.0</ele><time>2026-03-29T07:41:52.189Z</time></trkpt><trkpt lat="45.3110467" lon="10.66838"><ele>57.0</ele><time>2026-03-29T07:41:53.19Z</time></trkpt><trkpt lat="45.3109833" lon="10.6684733"><ele>57.0</ele><time>2026-03-29T07:41:55.19Z</time></trkpt><trkpt lat="45.3109117" lon="10.6684533"><ele>57.0</ele><time>2026-03-29T07:41:59.191Z</time></trkpt><trkpt lat="45.3108483" lon="10.6683767"><ele>57.0</ele><time>2026-03-29T07:42:02.191Z</time></trkpt><trkpt lat="45.3107633" lon="10.6684617"><ele>57.0</ele><time>2026-03-29T07:42:16.19Z</time></trkpt><trkpt lat="45.31084" lon="10.6684233"><ele>57.0</ele><time>2026-03-29T07:42:50.189Z</time></trkpt><trkpt lat="45.3109017" lon="10.6684683"><ele>57.0</ele><time>2026-03-29T07:42:52.189Z</time></trkpt><trkpt lat="45.3109367" lon="10.668545"><ele>57.0</ele><time>2026-03-29T07:42:55.19Z</time></trkpt><trkpt lat="45.31087" lon="10.66867"><ele>57.0</ele><time>2026-03-29T07:42:58.189Z</time></trkpt><trkpt lat="45.31082" lon="10.6687567"><ele>57.0</ele><time>2026-03-29T07:42:59.188Z</time></trkpt><trkpt lat="45.3107467" lon="10.6688733"><ele>57.0</ele><time>2026-03-29T07:43:00.189Z</time></trkpt><trkpt lat="45.3106567" lon="10.66901"><ele>57.0</ele><time>2026-03-29T07:43:01.189Z</time></trkpt><trkpt lat="45.3105483" lon="10.66917"><ele>57.0</ele><time>2026-03-29T07:43:02.19Z</time></trkpt><trkpt lat="45.3104333" lon="10.6693483"><ele>57.0</ele><time>2026-03-29T07:43:03.19Z</time></trkpt><trkpt lat="45.3103133" lon="10.6695367"><ele>57.0</ele><time>2026-03-29T07:43:04.191Z</time></trkpt><trkpt lat="45.310195" lon="10.669725"><ele>57.0</ele><time>2026-03-29T07:43:05.19Z</time></trkpt><trkpt lat="45.3100717" lon="10.6699167"><ele>57.0</ele><time>2026-03-29T07:43:06.189Z</time></trkpt><trkpt lat="45.3099483" lon="10.6701033"><ele>57.33333333333333</ele><time>2026-03-29T07:43:07.19Z</time></trkpt><trkpt lat="45.3098283" lon="10.6702883"><ele>57.666666666666664</ele><time>2026-03-29T07:43:08.191Z</time></trkpt><trkpt lat="45.3097133" lon="10.6704733"><ele>58.0</ele><time>2026-03-29T07:43:09.189Z</time></trkpt><trkpt lat="45.3095983" lon="10.6706533"><ele>58.0</ele><time>2026-03-29T07:43:10.189Z</time></trkpt><trkpt lat="45.3094833" lon="10.670835"><ele>58.0</ele><time>2026-03-29T07:43:11.19Z</time></trkpt><trkpt lat="45.30937" lon="10.6710167"><ele>58.0</ele><time>2026-03-29T07:43:12.189Z</time></trkpt><trkpt lat="45.309255" lon="10.6712017"><ele>58.0</ele><time>2026-03-29T07:43:13.189Z</time></trkpt><trkpt lat="45.30914" lon="10.6713867"><ele>58.0</ele><time>2026-03-29T07:43:14.19Z</time></trkpt><trkpt lat="45.3089117" lon="10.67175"><ele>57.666666666666664</ele><time>2026-03-29T07:43:16.19Z</time></trkpt><trkpt lat="45.3087967" lon="10.6719317"><ele>57.33333333333333</ele><time>2026-03-29T07:43:17.19Z</time></trkpt><trkpt lat="45.30868" lon="10.6721167"><ele>57.0</ele><time>2026-03-29T07:43:18.19Z</time></trkpt><trkpt lat="45.3085633" lon="10.6723017"><ele>57.0</ele><time>2026-03-29T07:43:19.19Z</time></trkpt><trkpt lat="45.3084483" lon="10.6724817"><ele>57.0</ele><time>2026-03-29T07:43:20.19Z</time></trkpt><trkpt lat="45.3083367" lon="10.6726517"><ele>57.0</ele><time>2026-03-29T07:43:21.193Z</time></trkpt><trkpt lat="45.30823" lon="10.6728183"><ele>57.0</ele><time>2026-03-29T07:43:22.189Z</time></trkpt><trkpt lat="45.3081267" lon="10.6729833"><ele>57.0</ele><time>2026-03-29T07:43:23.196Z</time></trkpt><trkpt lat="45.3080217" lon="10.6731533"><ele>57.0</ele><time>2026-03-29T07:43:24.19Z</time></trkpt><trkpt lat="45.3079133" lon="10.673325"><ele>57.0</ele><time>2026-03-29T07:43:25.19Z</time></trkpt><trkpt lat="45.3078033" lon="10.6735133"><ele>57.0</ele><time>2026-03-29T07:43:26.19Z</time></trkpt><trkpt lat="45.3076933" lon="10.6737117"><ele>57.0</ele><time>2026-03-29T07:43:27.19Z</time></trkpt><trkpt lat="45.3075867" lon="10.673925"><ele>56.66666666666667</ele><time>2026-03-29T07:43:28.19Z</time></trkpt><trkpt lat="45.3074817" lon="10.674155"><ele>56.333333333333336</ele><time>2026-03-29T07:43:29.189Z</time></trkpt><trkpt lat="45.3073817" lon="10.6743933"><ele>56.0</ele><time>2026-03-29T07:43:30.189Z</time></trkpt><trkpt lat="45.3072783" lon="10.6746383"><ele>56.333333333333336</ele><time>2026-03-29T07:43:31.19Z</time></trkpt><trkpt lat="45.3071717" lon="10.67489"><ele>56.66666666666667</ele><time>2026-03-29T07:43:32.19Z</time></trkpt><trkpt lat="45.307065" lon="10.6751417"><ele>57.0</ele><time>2026-03-29T07:43:33.19Z</time></trkpt><trkpt lat="45.30696" lon="10.67539"><ele>57.0</ele><time>2026-03-29T07:43:34.19Z</time></trkpt><trkpt lat="45.306855" lon="10.6756367"><ele>57.0</ele><time>2026-03-29T07:43:35.189Z</time></trkpt><trkpt lat="45.3067533" lon="10.6758767"><ele>57.0</ele><time>2026-03-29T07:43:36.19Z</time></trkpt><trkpt lat="45.3066517" lon="10.6761167"><ele>57.0</ele><time>2026-03-29T07:43:37.189Z</time></trkpt><trkpt lat="45.3065517" lon="10.6763533"><ele>57.0</ele><time>2026-03-29T07:43:38.191Z</time></trkpt><trkpt lat="45.30645" lon="10.676595"><ele>57.0</ele><time>2026-03-29T07:43:39.189Z</time></trkpt><trkpt lat="45.3063483" lon="10.6768417"><ele>57.33333333333333</ele><time>2026-03-29T07:43:40.19Z</time></trkpt><trkpt lat="45.3062433" lon="10.6770933"><ele>57.666666666666664</ele><time>2026-03-29T07:43:41.191Z</time></trkpt><trkpt lat="45.3061383" lon="10.677345"><ele>58.0</ele><time>2026-03-29T07:43:42.188Z</time></trkpt><trkpt lat="45.3060317" lon="10.6775983"><ele>58.33333333333333</ele><time>2026-03-29T07:43:43.19Z</time></trkpt><trkpt lat="45.3059233" lon="10.677855"><ele>58.66666666666667</ele><time>2026-03-29T07:43:44.19Z</time></trkpt><trkpt lat="45.3058133" lon="10.678115"><ele>59.0</ele><time>2026-03-29T07:43:45.19Z</time></trkpt><trkpt lat="45.3057033" lon="10.6783783"><ele>58.66666666666667</ele><time>2026-03-29T07:43:46.19Z</time></trkpt><trkpt lat="45.3055933" lon="10.6786417"><ele>58.33333333333333</ele><time>2026-03-29T07:43:47.19Z</time></trkpt><trkpt lat="45.3054817" lon="10.6789117"><ele>58.0</ele><time>2026-03-29T07:43:48.19Z</time></trkpt><trkpt lat="45.30537" lon="10.6791833"><ele>58.0</ele><time>2026-03-29T07:43:49.193Z</time></trkpt><trkpt lat="45.3052517" lon="10.6794567"><ele>58.0</ele><time>2026-03-29T07:43:50.19Z</time></trkpt><trkpt lat="45.3051333" lon="10.679735"><ele>58.0</ele><time>2026-03-29T07:43:51.189Z</time></trkpt><trkpt lat="45.3050133" lon="10.6800183"><ele>58.0</ele><time>2026-03-29T07:43:52.19Z</time></trkpt><trkpt lat="45.304895" lon="10.6803017"><ele>58.0</ele><time>2026-03-29T07:43:53.189Z</time></trkpt><trkpt lat="45.3047767" lon="10.6805833"><ele>58.0</ele><time>2026-03-29T07:43:54.189Z</time></trkpt><trkpt lat="45.30466" lon="10.6808583"><ele>58.0</ele><time>2026-03-29T07:43:55.19Z</time></trkpt><trkpt lat="45.3045483" lon="10.6811217"><ele>58.0</ele><time>2026-03-29T07:43:56.19Z</time></trkpt><trkpt lat="45.3044467" lon="10.681365"><ele>58.0</ele><time>2026-03-29T07:43:57.189Z</time></trkpt><trkpt lat="45.304355" lon="10.6815867"><ele>58.0</ele><time>2026-03-29T07:43:58.191Z</time></trkpt><trkpt lat="45.3042717" lon="10.6817883"><ele>58.0</ele><time>2026-03-29T07:43:59.189Z</time></trkpt><trkpt lat="45.304195" lon="10.6819683"><ele>58.0</ele><time>2026-03-29T07:44:00.189Z</time></trkpt><trkpt lat="45.3041283" lon="10.6821233"><ele>58.0</ele><time>2026-03-29T07:44:01.189Z</time></trkpt><trkpt lat="45.304075" lon="10.6822467"><ele>57.99999999999999</ele><time>2026-03-29T07:44:02.189Z</time></trkpt><trkpt lat="45.30403" lon="10.6823433"><ele>58.0</ele><time>2026-03-29T07:44:03.189Z</time></trkpt><trkpt lat="45.3039933" lon="10.682425"><ele>58.0</ele><time>2026-03-29T07:44:04.188Z</time></trkpt><trkpt lat="45.3039383" lon="10.6824983"><ele>58.0</ele><time>2026-03-29T07:44:06.191Z</time></trkpt><trkpt lat="45.3038467" lon="10.6824233"><ele>57.99999999999999</ele><time>2026-03-29T07:44:09.189Z</time></trkpt><trkpt lat="45.3037733" lon="10.682405"><ele>58.0</ele><time>2026-03-29T07:44:11.19Z</time></trkpt><trkpt lat="45.30372" lon="10.6824717"><ele>57.99999999999999</ele><time>2026-03-29T07:44:14.19Z</time></trkpt><trkpt lat="45.3036983" lon="10.6826"><ele>58.0</ele><time>2026-03-29T07:44:17.188Z</time></trkpt><trkpt lat="45.3036683" lon="10.6826833"><ele>58.0</ele><time>2026-03-29T07:44:19.19Z</time></trkpt><trkpt lat="45.3037217" lon="10.6825683"><ele>58.0</ele><time>2026-03-29T07:44:50.191Z</time></trkpt><trkpt lat="45.3037633" lon="10.6824883"><ele>57.99999999999999</ele><time>2026-03-29T07:44:52.189Z</time></trkpt><trkpt lat="45.3038183" lon="10.6824383"><ele>58.0</ele><time>2026-03-29T07:44:54.19Z</time></trkpt><trkpt lat="45.3038883" lon="10.682465"><ele>57.99999999999999</ele><time>2026-03-29T07:44:56.189Z</time></trkpt><trkpt lat="45.3039433" lon="10.6825433"><ele>58.0</ele><time>2026-03-29T07:44:59.189Z</time></trkpt><trkpt lat="45.3039017" lon="10.68268"><ele>58.0</ele><time>2026-03-29T07:45:02.191Z</time></trkpt><trkpt lat="45.3038617" lon="10.682765"><ele>58.0</ele><time>2026-03-29T07:45:03.19Z</time></trkpt><trkpt lat="45.30381" lon="10.6828717"><ele>57.99999999999999</ele><time>2026-03-29T07:45:04.192Z</time></trkpt><trkpt lat="45.3037567" lon="10.6829983"><ele>58.0</ele><time>2026-03-29T07:45:05.19Z</time></trkpt><trkpt lat="45.3037" lon="10.6831367"><ele>58.0</ele><time>2026-03-29T07:45:06.189Z</time></trkpt><trkpt lat="45.3036367" lon="10.683285"><ele>58.0</ele><time>2026-03-29T07:45:07.19Z</time></trkpt><trkpt lat="45.303575" lon="10.6834383"><ele>58.0</ele><time>2026-03-29T07:45:08.19Z</time></trkpt><trkpt lat="45.303515" lon="10.6835933"><ele>58.0</ele><time>2026-03-29T07:45:09.189Z</time></trkpt><trkpt lat="45.3034683" lon="10.683745"><ele>58.0</ele><time>2026-03-29T07:45:10.189Z</time></trkpt><trkpt lat="45.3034333" lon="10.6838983"><ele>58.0</ele><time>2026-03-29T07:45:11.19Z</time></trkpt><trkpt lat="45.303415" lon="10.6840517"><ele>58.0</ele><time>2026-03-29T07:45:12.189Z</time></trkpt><trkpt lat="45.3034117" lon="10.6842117"><ele>58.0</ele><time>2026-03-29T07:45:13.19Z</time></trkpt><trkpt lat="45.30342" lon="10.68437"><ele>58.0</ele><time>2026-03-29T07:45:14.19Z</time></trkpt><trkpt lat="45.3034417" lon="10.6845267"><ele>57.75</ele><time>2026-03-29T07:45:15.189Z</time></trkpt><trkpt lat="45.303475" lon="10.68469"><ele>57.5</ele><time>2026-03-29T07:45:16.19Z</time></trkpt><trkpt lat="45.303515" lon="10.68486"><ele>57.25</ele><time>2026-03-29T07:45:17.19Z</time></trkpt><trkpt lat="45.3035567" lon="10.6850383"><ele>57.0</ele><time>2026-03-29T07:45:18.189Z</time></trkpt><trkpt lat="45.3036017" lon="10.6852317"><ele>57.33333333333333</ele><time>2026-03-29T07:45:19.19Z</time></trkpt><trkpt lat="45.3036483" lon="10.6854367"><ele>57.666666666666664</ele><time>2026-03-29T07:45:20.188Z</time></trkpt><trkpt lat="45.3036933" lon="10.6856467"><ele>58.0</ele><time>2026-03-29T07:45:21.19Z</time></trkpt><trkpt lat="45.30374" lon="10.68586"><ele>58.0</ele><time>2026-03-29T07:45:22.19Z</time></trkpt><trkpt lat="45.3037867" lon="10.6860733"><ele>58.0</ele><time>2026-03-29T07:45:23.19Z</time></trkpt><trkpt lat="45.3038333" lon="10.6862867"><ele>58.0</ele><time>2026-03-29T07:45:24.189Z</time></trkpt><trkpt lat="45.30388" lon="10.6864967"><ele>58.33333333333333</ele><time>2026-03-29T07:45:25.189Z</time></trkpt><trkpt lat="45.3039267" lon="10.6867067"><ele>58.66666666666667</ele><time>2026-03-29T07:45:26.19Z</time></trkpt><trkpt lat="45.3039733" lon="10.686915"><ele>59.0</ele><time>2026-03-29T07:45:27.189Z</time></trkpt><trkpt lat="45.3040233" lon="10.6871283"><ele>59.333333333333336</ele><time>2026-03-29T07:45:28.189Z</time></trkpt><trkpt lat="45.3040717" lon="10.6873417"><ele>59.66666666666667</ele><time>2026-03-29T07:45:29.189Z</time></trkpt><trkpt lat="45.3041233" lon="10.6875617"><ele>60.0</ele><time>2026-03-29T07:45:30.189Z</time></trkpt><trkpt lat="45.304175" lon="10.68779"><ele>59.33333333333333</ele><time>2026-03-29T07:45:31.193Z</time></trkpt><trkpt lat="45.3042267" lon="10.6880167"><ele>58.666666666666664</ele><time>2026-03-29T07:45:32.192Z</time></trkpt><trkpt lat="45.30428" lon="10.6882517"><ele>58.0</ele><time>2026-03-29T07:45:33.192Z</time></trkpt><trkpt lat="45.3043333" lon="10.6884917"><ele>57.33333333333333</ele><time>2026-03-29T07:45:34.191Z</time></trkpt><trkpt lat="45.30439" lon="10.6887367"><ele>56.66666666666667</ele><time>2026-03-29T07:45:35.19Z</time></trkpt><trkpt lat="45.3044483" lon="10.688985"><ele>56.0</ele><time>2026-03-29T07:45:36.189Z</time></trkpt><trkpt lat="45.3045033" lon="10.6892317"><ele>56.0</ele><time>2026-03-29T07:45:37.19Z</time></trkpt><trkpt lat="45.3045583" lon="10.6894733"><ele>56.0</ele><time>2026-03-29T07:45:38.19Z</time></trkpt><trkpt lat="45.3046117" lon="10.689705"><ele>56.0</ele><time>2026-03-29T07:45:39.191Z</time></trkpt><trkpt lat="45.3046633" lon="10.6899383"><ele>56.0</ele><time>2026-03-29T07:45:40.19Z</time></trkpt><trkpt lat="45.3047167" lon="10.6901733"><ele>56.0</ele><time>2026-03-29T07:45:41.189Z</time></trkpt><trkpt lat="45.30477" lon="10.69041"><ele>56.0</ele><time>2026-03-29T07:45:42.19Z</time></trkpt><trkpt lat="45.304825" lon="10.690645"><ele>57.333333333333336</ele><time>2026-03-29T07:45:43.189Z</time></trkpt><trkpt lat="45.3048783" lon="10.6908817"><ele>58.66666666666667</ele><time>2026-03-29T07:45:44.189Z</time></trkpt><trkpt lat="45.3049333" lon="10.691115"><ele>60.0</ele><time>2026-03-29T07:45:45.191Z</time></trkpt><trkpt lat="45.3049883" lon="10.6913417"><ele>60.0</ele><time>2026-03-29T07:45:46.19Z</time></trkpt><trkpt lat="45.30504" lon="10.6915633"><ele>60.0</ele><time>2026-03-29T07:45:47.191Z</time></trkpt><trkpt lat="45.30509" lon="10.6917783"><ele>60.0</ele><time>2026-03-29T07:45:48.191Z</time></trkpt><trkpt lat="45.30514" lon="10.691985"><ele>59.5</ele><time>2026-03-29T07:45:49.189Z</time></trkpt><trkpt lat="45.3051917" lon="10.6921733"><ele>59.0</ele><time>2026-03-29T07:45:50.19Z</time></trkpt><trkpt lat="45.305245" lon="10.69234"><ele>58.5</ele><time>2026-03-29T07:45:51.189Z</time></trkpt><trkpt lat="45.3052983" lon="10.6924933"><ele>58.0</ele><time>2026-03-29T07:45:52.19Z</time></trkpt><trkpt lat="45.30536" lon="10.6926383"><ele>58.25</ele><time>2026-03-29T07:45:53.19Z</time></trkpt><trkpt lat="45.3054283" lon="10.6927833"><ele>58.5</ele><time>2026-03-29T07:45:54.189Z</time></trkpt><trkpt lat="45.3055017" lon="10.6929283"><ele>58.75</ele><time>2026-03-29T07:45:55.189Z</time></trkpt><trkpt lat="45.305575" lon="10.6930683"><ele>59.0</ele><time>2026-03-29T07:45:56.19Z</time></trkpt><trkpt lat="45.3056467" lon="10.6932067"><ele>59.0</ele><time>2026-03-29T07:45:57.189Z</time></trkpt><trkpt lat="45.30572" lon="10.6933433"><ele>59.0</ele><time>2026-03-29T07:45:58.19Z</time></trkpt><trkpt lat="45.3057967" lon="10.693485"><ele>59.0</ele><time>2026-03-29T07:45:59.189Z</time></trkpt><trkpt lat="45.3058783" lon="10.69364"><ele>59.0</ele><time>2026-03-29T07:46:00.188Z</time></trkpt><trkpt lat="45.3059633" lon="10.6938"><ele>59.0</ele><time>2026-03-29T07:46:01.189Z</time></trkpt><trkpt lat="45.306055" lon="10.6939733"><ele>59.0</ele><time>2026-03-29T07:46:02.189Z</time></trkpt><trkpt lat="45.3061517" lon="10.694165"><ele>59.0</ele><time>2026-03-29T07:46:03.19Z</time></trkpt><trkpt lat="45.30626" lon="10.694375"><ele>59.0</ele><time>2026-03-29T07:46:04.189Z</time></trkpt><trkpt lat="45.3063783" lon="10.6946"><ele>59.0</ele><time>2026-03-29T07:46:05.19Z</time></trkpt><trkpt lat="45.3065" lon="10.6948317"><ele>59.0</ele><time>2026-03-29T07:46:06.189Z</time></trkpt><trkpt lat="45.3066233" lon="10.6950617"><ele>59.66666666666667</ele><time>2026-03-29T07:46:07.19Z</time></trkpt><trkpt lat="45.3067433" lon="10.695295"><ele>60.33333333333333</ele><time>2026-03-29T07:46:08.192Z</time></trkpt><trkpt lat="45.3068633" lon="10.6955333"><ele>61.0</ele><time>2026-03-29T07:46:09.189Z</time></trkpt><trkpt lat="45.3069833" lon="10.6957667"><ele>61.0</ele><time>2026-03-29T07:46:10.188Z</time></trkpt><trkpt lat="45.3071017" lon="10.6959883"><ele>61.0</ele><time>2026-03-29T07:46:11.189Z</time></trkpt><trkpt lat="45.3072167" lon="10.6962067"><ele>61.0</ele><time>2026-03-29T07:46:12.19Z</time></trkpt><trkpt lat="45.3073283" lon="10.696425"><ele>61.33333333333333</ele><time>2026-03-29T07:46:13.189Z</time></trkpt><trkpt lat="45.30744" lon="10.6966383"><ele>61.66666666666667</ele><time>2026-03-29T07:46:14.189Z</time></trkpt><trkpt lat="45.307545" lon="10.6968433"><ele>62.0</ele><time>2026-03-29T07:46:15.19Z</time></trkpt><trkpt lat="45.3076467" lon="10.6970383"><ele>62.0</ele><time>2026-03-29T07:46:16.191Z</time></trkpt><trkpt lat="45.3077383" lon="10.697215"><ele>62.0</ele><time>2026-03-29T07:46:17.19Z</time></trkpt><trkpt lat="45.3078217" lon="10.697375"><ele>62.0</ele><time>2026-03-29T07:46:18.189Z</time></trkpt><trkpt lat="45.3078967" lon="10.6975217"><ele>62.0</ele><time>2026-03-29T07:46:19.19Z</time></trkpt><trkpt lat="45.307965" lon="10.6976533"><ele>62.0</ele><time>2026-03-29T07:46:20.19Z</time></trkpt><trkpt lat="45.308025" lon="10.69777"><ele>62.0</ele><time>2026-03-29T07:46:21.189Z</time></trkpt><trkpt lat="45.3080733" lon="10.6978633"><ele>62.0</ele><time>2026-03-29T07:46:22.189Z</time></trkpt><trkpt lat="45.3081233" lon="10.6979667"><ele>62.0</ele><time>2026-03-29T07:46:24.188Z</time></trkpt><trkpt lat="45.30811" lon="10.69806"><ele>62.0</ele><time>2026-03-29T07:46:27.19Z</time></trkpt><trkpt lat="45.3080033" lon="10.6981783"><ele>61.8</ele><time>2026-03-29T07:46:29.19Z</time></trkpt><trkpt lat="45.3079183" lon="10.6982483"><ele>61.6</ele><time>2026-03-29T07:46:30.189Z</time></trkpt><trkpt lat="45.3078233" lon="10.6983217"><ele>61.39999999999999</ele><time>2026-03-29T07:46:31.189Z</time></trkpt><trkpt lat="45.3077183" lon="10.6983833"><ele>61.199999999999996</ele><time>2026-03-29T07:46:32.189Z</time></trkpt><trkpt lat="45.3075983" lon="10.6984383"><ele>61.0</ele><time>2026-03-29T07:46:33.189Z</time></trkpt><trkpt lat="45.3074667" lon="10.6984883"><ele>61.0</ele><time>2026-03-29T07:46:34.189Z</time></trkpt><trkpt lat="45.307325" lon="10.6985317"><ele>61.0</ele><time>2026-03-29T07:46:35.19Z</time></trkpt><trkpt lat="45.3071767" lon="10.6985717"><ele>61.0</ele><time>2026-03-29T07:46:36.189Z</time></trkpt><trkpt lat="45.3070233" lon="10.6986183"><ele>60.0</ele><time>2026-03-29T07:46:37.189Z</time></trkpt><trkpt lat="45.3068667" lon="10.6986633"><ele>59.0</ele><time>2026-03-29T07:46:38.19Z</time></trkpt><trkpt lat="45.306705" lon="10.698715"><ele>58.0</ele><time>2026-03-29T07:46:39.189Z</time></trkpt><trkpt lat="45.3065367" lon="10.6987717"><ele>58.666666666666664</ele><time>2026-03-29T07:46:40.188Z</time></trkpt><trkpt lat="45.3063633" lon="10.6988317"><ele>59.33333333333333</ele><time>2026-03-29T07:46:41.189Z</time></trkpt><trkpt lat="45.30619" lon="10.6988883"><ele>60.0</ele><time>2026-03-29T07:46:42.188Z</time></trkpt><trkpt lat="45.3060217" lon="10.6989467"><ele>60.0</ele><time>2026-03-29T07:46:43.189Z</time></trkpt><trkpt lat="45.3058617" lon="10.6990083"><ele>60.0</ele><time>2026-03-29T07:46:44.191Z</time></trkpt><trkpt lat="45.305715" lon="10.699065"><ele>60.0</ele><time>2026-03-29T07:46:45.188Z</time></trkpt><trkpt lat="45.3055767" lon="10.69913"><ele>61.0</ele><time>2026-03-29T07:46:46.19Z</time></trkpt><trkpt lat="45.3054467" lon="10.699205"><ele>62.0</ele><time>2026-03-29T07:46:47.189Z</time></trkpt><trkpt lat="45.30532" lon="10.6992817"><ele>63.0</ele><time>2026-03-29T07:46:48.19Z</time></trkpt><trkpt lat="45.3052117" lon="10.699365"><ele>64.0</ele><time>2026-03-29T07:46:49.191Z</time></trkpt><trkpt lat="45.3051267" lon="10.6994367"><ele>64.0</ele><time>2026-03-29T07:46:50.19Z</time></trkpt><trkpt lat="45.3050667" lon="10.69948"><ele>63.99999999999999</ele><time>2026-03-29T07:46:51.19Z</time></trkpt><trkpt lat="45.3050033" lon="10.699495"><ele>64.0</ele><time>2026-03-29T07:46:54.189Z</time></trkpt><trkpt lat="45.3049417" lon="10.6994367"><ele>64.0</ele><time>2026-03-29T07:46:56.189Z</time></trkpt><trkpt lat="45.3048833" lon="10.6993933"><ele>63.99999999999999</ele><time>2026-03-29T07:46:57.188Z</time></trkpt><trkpt lat="45.3048083" lon="10.699355"><ele>64.0</ele><time>2026-03-29T07:46:58.189Z</time></trkpt><trkpt lat="45.304715" lon="10.6993167"><ele>64.0</ele><time>2026-03-29T07:46:59.189Z</time></trkpt><trkpt lat="45.304615" lon="10.6992817"><ele>63.400000000000006</ele><time>2026-03-29T07:47:00.189Z</time></trkpt><trkpt lat="45.3045117" lon="10.6992517"><ele>62.800000000000004</ele><time>2026-03-29T07:47:01.19Z</time></trkpt><trkpt lat="45.3044167" lon="10.6992233"><ele>62.199999999999996</ele><time>2026-03-29T07:47:02.19Z</time></trkpt><trkpt lat="45.30432" lon="10.6991917"><ele>61.599999999999994</ele><time>2026-03-29T07:47:03.189Z</time></trkpt><trkpt lat="45.3042217" lon="10.6991533"><ele>61.0</ele><time>2026-03-29T07:47:04.189Z</time></trkpt><trkpt lat="45.3041217" lon="10.69911"><ele>61.0</ele><time>2026-03-29T07:47:05.189Z</time></trkpt><trkpt lat="45.3040233" lon="10.6990683"><ele>60.99999999999999</ele><time>2026-03-29T07:47:06.188Z</time></trkpt><trkpt lat="45.30393" lon="10.69903"><ele>60.99999999999999</ele><time>2026-03-29T07:47:07.189Z</time></trkpt><trkpt lat="45.3038417" lon="10.6989983"><ele>61.0</ele><time>2026-03-29T07:47:08.189Z</time></trkpt><trkpt lat="45.30376" lon="10.698975"><ele>61.0</ele><time>2026-03-29T07:47:09.189Z</time></trkpt><trkpt lat="45.3036717" lon="10.69897"><ele>61.33333333333333</ele><time>2026-03-29T07:47:10.19Z</time></trkpt><trkpt lat="45.3035817" lon="10.698975"><ele>61.666666666666664</ele><time>2026-03-29T07:47:11.194Z</time></trkpt><trkpt lat="45.303495" lon="10.6989833"><ele>62.0</ele><time>2026-03-29T07:47:12.189Z</time></trkpt><trkpt lat="45.3034133" lon="10.69899"><ele>62.33333333333333</ele><time>2026-03-29T07:47:13.189Z</time></trkpt><trkpt lat="45.30334" lon="10.698995"><ele>62.666666666666664</ele><time>2026-03-29T07:47:14.189Z</time></trkpt><trkpt lat="45.3032733" lon="10.6989983"><ele>63.0</ele><time>2026-03-29T07:47:15.188Z</time></trkpt><trkpt lat="45.3031483" lon="10.699005"><ele>62.8</ele><time>2026-03-29T07:47:17.19Z</time></trkpt><trkpt lat="45.3030767" lon="10.6990083"><ele>62.599999999999994</ele><time>2026-03-29T07:47:18.191Z</time></trkpt><trkpt lat="45.302995" lon="10.6990133"><ele>62.400000000000006</ele><time>2026-03-29T07:47:19.191Z</time></trkpt><trkpt lat="45.3029233" lon="10.69902"><ele>62.2</ele><time>2026-03-29T07:47:20.191Z</time></trkpt><trkpt lat="45.3028033" lon="10.69903"><ele>62.0</ele><time>2026-03-29T07:47:22.189Z</time></trkpt><trkpt lat="45.3026983" lon="10.6990433"><ele>62.0</ele><time>2026-03-29T07:47:24.189Z</time></trkpt><trkpt lat="45.3026233" lon="10.6990817"><ele>62.0</ele><time>2026-03-29T07:47:26.19Z</time></trkpt><trkpt lat="45.3025583" lon="10.6991783"><ele>62.0</ele><time>2026-03-29T07:47:28.189Z</time></trkpt><trkpt lat="45.3024567" lon="10.6992567"><ele>62.0</ele><time>2026-03-29T07:47:30.19Z</time></trkpt><trkpt lat="45.302365" lon="10.6992983"><ele>62.0</ele><time>2026-03-29T07:47:31.189Z</time></trkpt><trkpt lat="45.30226" lon="10.699335"><ele>61.6</ele><time>2026-03-29T07:47:32.19Z</time></trkpt><trkpt lat="45.3021533" lon="10.69936"><ele>61.2</ele><time>2026-03-29T07:47:33.191Z</time></trkpt><trkpt lat="45.3020533" lon="10.6993733"><ele>60.8</ele><time>2026-03-29T07:47:34.189Z</time></trkpt><trkpt lat="45.301965" lon="10.6993717"><ele>60.4</ele><time>2026-03-29T07:47:35.19Z</time></trkpt><trkpt lat="45.30188" lon="10.69936"><ele>60.0</ele><time>2026-03-29T07:47:36.19Z</time></trkpt><trkpt lat="45.301795" lon="10.699345"><ele>60.0</ele><time>2026-03-29T07:47:37.189Z</time></trkpt><trkpt lat="45.30172" lon="10.6993383"><ele>60.0</ele><time>2026-03-29T07:47:38.191Z</time></trkpt><trkpt lat="45.3016467" lon="10.6993417"><ele>60.0</ele><time>2026-03-29T07:47:39.189Z</time></trkpt><trkpt lat="45.3015683" lon="10.6993483"><ele>60.0</ele><time>2026-03-29T07:47:40.189Z</time></trkpt><trkpt lat="45.3014833" lon="10.6993633"><ele>60.0</ele><time>2026-03-29T07:47:41.189Z</time></trkpt><trkpt lat="45.3013967" lon="10.6993767"><ele>60.0</ele><time>2026-03-29T07:47:42.189Z</time></trkpt><trkpt lat="45.3013133" lon="10.699385"><ele>60.0</ele><time>2026-03-29T07:47:43.189Z</time></trkpt><trkpt lat="45.3012233" lon="10.6993867"><ele>60.0</ele><time>2026-03-29T07:47:44.189Z</time></trkpt><trkpt lat="45.3011383" lon="10.6993817"><ele>60.0</ele><time>2026-03-29T07:47:45.19Z</time></trkpt><trkpt lat="45.3010667" lon="10.6993783"><ele>60.0</ele><time>2026-03-29T07:47:46.19Z</time></trkpt><trkpt lat="45.3009983" lon="10.6993733"><ele>60.0</ele><time>2026-03-29T07:47:47.195Z</time></trkpt><trkpt lat="45.300935" lon="10.6993683"><ele>60.0</ele><time>2026-03-29T07:47:48.189Z</time></trkpt><trkpt lat="45.3008717" lon="10.6993633"><ele>60.0</ele><time>2026-03-29T07:47:49.19Z</time></trkpt><trkpt lat="45.300775" lon="10.699365"><ele>60.0</ele><time>2026-03-29T07:47:51.189Z</time></trkpt><trkpt lat="45.3007033" lon="10.6994083"><ele>60.0</ele><time>2026-03-29T07:47:54.188Z</time></trkpt><trkpt lat="45.3007014" lon="10.6995273"><ele>60.0</ele><time>2026-03-29T07:47:59.189Z</time></trkpt><trkpt lat="45.3007222" lon="10.6996486"><ele>60.0</ele><time>2026-03-29T07:48:01.188Z</time></trkpt><trkpt lat="45.3007549" lon="10.6998341"><ele>60.0</ele><time>2026-03-29T07:48:03.188Z</time></trkpt><trkpt lat="45.3007791" lon="10.6999613"><ele>59.8</ele><time>2026-03-29T07:48:04.188Z</time></trkpt><trkpt lat="45.3008046" lon="10.7001016"><ele>59.6</ele><time>2026-03-29T07:48:05.19Z</time></trkpt><trkpt lat="45.3008275" lon="10.7002326"><ele>59.400000000000006</ele><time>2026-03-29T07:48:06.188Z</time></trkpt><trkpt lat="45.3008492" lon="10.7003463"><ele>59.2</ele><time>2026-03-29T07:48:07.19Z</time></trkpt><trkpt lat="45.3008719" lon="10.7004577"><ele>59.0</ele><time>2026-03-29T07:48:08.189Z</time></trkpt><trkpt lat="45.300894" lon="10.7005805"><ele>58.800000000000004</ele><time>2026-03-29T07:48:09.188Z</time></trkpt><trkpt lat="45.3009183" lon="10.7007154"><ele>58.60000000000001</ele><time>2026-03-29T07:48:10.189Z</time></trkpt><trkpt lat="45.300946" lon="10.7008589"><ele>58.4</ele><time>2026-03-29T07:48:11.189Z</time></trkpt><trkpt lat="45.3009719" lon="10.700998"><ele>58.2</ele><time>2026-03-29T07:48:12.189Z</time></trkpt><trkpt lat="45.3009912" lon="10.7011152"><ele>58.0</ele><time>2026-03-29T07:48:13.188Z</time></trkpt><trkpt lat="45.3010048" lon="10.7012161"><ele>58.0</ele><time>2026-03-29T07:48:14.189Z</time></trkpt><trkpt lat="45.3010292" lon="10.7013914"><ele>58.0</ele><time>2026-03-29T07:48:16.189Z</time></trkpt><trkpt lat="45.3010477" lon="10.7014861"><ele>58.0</ele><time>2026-03-29T07:48:17.188Z</time></trkpt><trkpt lat="45.3010637" lon="10.7015751"><ele>58.0</ele><time>2026-03-29T07:48:18.189Z</time></trkpt><trkpt lat="45.3010678" lon="10.7017133"><ele>58.0</ele><time>2026-03-29T07:48:20.191Z</time></trkpt><trkpt lat="45.3010416" lon="10.7018875"><ele>58.0</ele><time>2026-03-29T07:48:22.189Z</time></trkpt><trkpt lat="45.3010287" lon="10.7020177"><ele>58.0</ele><time>2026-03-29T07:48:23.189Z</time></trkpt><trkpt lat="45.3010459" lon="10.7021976"><ele>58.0</ele><time>2026-03-29T07:48:24.19Z</time></trkpt><trkpt lat="45.3010902" lon="10.7023823"><ele>58.0</ele><time>2026-03-29T07:48:25.191Z</time></trkpt><trkpt lat="45.3011552" lon="10.7025544"><ele>58.0</ele><time>2026-03-29T07:48:26.191Z</time></trkpt><trkpt lat="45.301237" lon="10.7027022"><ele>58.0</ele><time>2026-03-29T07:48:27.19Z</time></trkpt><trkpt lat="45.3013388" lon="10.7028243"><ele>58.0</ele><time>2026-03-29T07:48:28.19Z</time></trkpt><trkpt lat="45.3014694" lon="10.7029384"><ele>58.0</ele><time>2026-03-29T07:48:29.191Z</time></trkpt><trkpt lat="45.3016301" lon="10.7030705"><ele>57.0</ele><time>2026-03-29T07:48:30.191Z</time></trkpt><trkpt lat="45.301805" lon="10.7032183"><ele>56.0</ele><time>2026-03-29T07:48:31.189Z</time></trkpt><trkpt lat="45.3019787" lon="10.7033609"><ele>55.0</ele><time>2026-03-29T07:48:32.193Z</time></trkpt><trkpt lat="45.3021352" lon="10.7034885"><ele>53.75</ele><time>2026-03-29T07:48:33.19Z</time></trkpt><trkpt lat="45.3022764" lon="10.703604"><ele>52.5</ele><time>2026-03-29T07:48:34.189Z</time></trkpt><trkpt lat="45.3023968" lon="10.7037089"><ele>51.25</ele><time>2026-03-29T07:48:35.189Z</time></trkpt><trkpt lat="45.3024978" lon="10.7038062"><ele>50.0</ele><time>2026-03-29T07:48:36.191Z</time></trkpt><trkpt lat="45.3025735" lon="10.7038911"><ele>50.0</ele><time>2026-03-29T07:48:37.188Z</time></trkpt><trkpt lat="45.3026244" lon="10.7039669"><ele>50.0</ele><time>2026-03-29T07:48:38.189Z</time></trkpt><trkpt lat="45.3026701" lon="10.7041372"><ele>50.0</ele><time>2026-03-29T07:48:40.191Z</time></trkpt><trkpt lat="45.3026678" lon="10.7042698"><ele>50.0</ele><time>2026-03-29T07:48:41.189Z</time></trkpt><trkpt lat="45.3026462" lon="10.7044662"><ele>50.0</ele><time>2026-03-29T07:48:42.19Z</time></trkpt><trkpt lat="45.3026106" lon="10.7047245"><ele>49.0</ele><time>2026-03-29T07:48:43.189Z</time></trkpt><trkpt lat="45.3025757" lon="10.7050254"><ele>48.0</ele><time>2026-03-29T07:48:44.188Z</time></trkpt><trkpt lat="45.302543" lon="10.705347"><ele>47.0</ele><time>2026-03-29T07:48:45.189Z</time></trkpt><trkpt lat="45.3025142" lon="10.7056592"><ele>46.666666666666664</ele><time>2026-03-29T07:48:46.188Z</time></trkpt><trkpt lat="45.3024918" lon="10.7059443"><ele>46.333333333333336</ele><time>2026-03-29T07:48:47.192Z</time></trkpt><trkpt lat="45.3024745" lon="10.7062101"><ele>46.0</ele><time>2026-03-29T07:48:48.19Z</time></trkpt><trkpt lat="45.302466" lon="10.706467"><ele>46.0</ele><time>2026-03-29T07:48:49.191Z</time></trkpt><trkpt lat="45.3024631" lon="10.7067203"><ele>46.0</ele><time>2026-03-29T07:48:50.189Z</time></trkpt><trkpt lat="45.3024621" lon="10.7069606"><ele>46.0</ele><time>2026-03-29T07:48:51.189Z</time></trkpt><trkpt lat="45.3024638" lon="10.7071819"><ele>46.0</ele><time>2026-03-29T07:48:52.189Z</time></trkpt><trkpt lat="45.3024666" lon="10.707374"><ele>46.0</ele><time>2026-03-29T07:48:53.19Z</time></trkpt><trkpt lat="45.3024685" lon="10.7075333"><ele>46.0</ele><time>2026-03-29T07:48:54.189Z</time></trkpt><trkpt lat="45.3024732" lon="10.7076634"><ele>46.0</ele><time>2026-03-29T07:48:55.189Z</time></trkpt><trkpt lat="45.3024825" lon="10.7077812"><ele>46.0</ele><time>2026-03-29T07:48:56.189Z</time></trkpt><trkpt lat="45.3025038" lon="10.7078827"><ele>46.0</ele><time>2026-03-29T07:48:57.189Z</time></trkpt><trkpt lat="45.3025403" lon="10.7079594"><ele>46.0</ele><time>2026-03-29T07:48:58.191Z</time></trkpt><trkpt lat="45.302597" lon="10.7080126"><ele>46.0</ele><time>2026-03-29T07:48:59.189Z</time></trkpt><trkpt lat="45.3026788" lon="10.708049"><ele>46.0</ele><time>2026-03-29T07:49:00.19Z</time></trkpt><trkpt lat="45.3027792" lon="10.7080675"><ele>46.0</ele><time>2026-03-29T07:49:01.19Z</time></trkpt><trkpt lat="45.3028702" lon="10.7080709"><ele>46.0</ele><time>2026-03-29T07:49:02.19Z</time></trkpt><trkpt lat="45.302939" lon="10.7080742"><ele>46.0</ele><time>2026-03-29T07:49:03.19Z</time></trkpt><trkpt lat="45.3030092" lon="10.7080892"><ele>46.0</ele><time>2026-03-29T07:49:06.189Z</time></trkpt><trkpt lat="45.30309" lon="10.7080717"><ele>46.0</ele><time>2026-03-29T07:49:54.188Z</time></trkpt><trkpt lat="45.3031733" lon="10.70807"><ele>46.0</ele><time>2026-03-29T07:49:56.189Z</time></trkpt><trkpt lat="45.303245" lon="10.708075"><ele>46.0</ele><time>2026-03-29T07:49:57.188Z</time></trkpt><trkpt lat="45.3033417" lon="10.7080817"><ele>46.0</ele><time>2026-03-29T07:49:58.189Z</time></trkpt><trkpt lat="45.30345" lon="10.70809"><ele>45.8</ele><time>2026-03-29T07:49:59.19Z</time></trkpt><trkpt lat="45.3035583" lon="10.7080967"><ele>45.599999999999994</ele><time>2026-03-29T07:50:00.19Z</time></trkpt><trkpt lat="45.3036617" lon="10.7081067"><ele>45.4</ele><time>2026-03-29T07:50:01.188Z</time></trkpt><trkpt lat="45.3037583" lon="10.7081183"><ele>45.2</ele><time>2026-03-29T07:50:02.189Z</time></trkpt><trkpt lat="45.30386" lon="10.7081317"><ele>45.0</ele><time>2026-03-29T07:50:03.188Z</time></trkpt><trkpt lat="45.303975" lon="10.7081533"><ele>45.5</ele><time>2026-03-29T07:50:04.191Z</time></trkpt><trkpt lat="45.3040967" lon="10.7081833"><ele>46.0</ele><time>2026-03-29T07:50:05.192Z</time></trkpt><trkpt lat="45.3042217" lon="10.7082267"><ele>46.5</ele><time>2026-03-29T07:50:06.188Z</time></trkpt><trkpt lat="45.3043467" lon="10.7082783"><ele>47.0</ele><time>2026-03-29T07:50:07.188Z</time></trkpt><trkpt lat="45.3044633" lon="10.7083433"><ele>47.0</ele><time>2026-03-29T07:50:08.189Z</time></trkpt><trkpt lat="45.30458" lon="10.7084133"><ele>47.0</ele><time>2026-03-29T07:50:09.189Z</time></trkpt><trkpt lat="45.3046967" lon="10.708495"><ele>47.0</ele><time>2026-03-29T07:50:10.188Z</time></trkpt><trkpt lat="45.3048117" lon="10.7085833"><ele>47.0</ele><time>2026-03-29T07:50:11.188Z</time></trkpt><trkpt lat="45.3049183" lon="10.708675"><ele>46.8</ele><time>2026-03-29T07:50:12.189Z</time></trkpt><trkpt lat="45.3050117" lon="10.7087617"><ele>46.6</ele><time>2026-03-29T07:50:13.189Z</time></trkpt><trkpt lat="45.3050883" lon="10.7088583"><ele>46.4</ele><time>2026-03-29T07:50:14.188Z</time></trkpt><trkpt lat="45.3051383" lon="10.70898"><ele>46.199999999999996</ele><time>2026-03-29T07:50:15.189Z</time></trkpt><trkpt lat="45.3051767" lon="10.7091367"><ele>46.0</ele><time>2026-03-29T07:50:16.19Z</time></trkpt><trkpt lat="45.3052133" lon="10.7093"><ele>46.0</ele><time>2026-03-29T07:50:17.189Z</time></trkpt><trkpt lat="45.30525" lon="10.7094633"><ele>46.0</ele><time>2026-03-29T07:50:18.19Z</time></trkpt><trkpt lat="45.3052783" lon="10.7096217"><ele>46.0</ele><time>2026-03-29T07:50:19.188Z</time></trkpt><trkpt lat="45.3052983" lon="10.70978"><ele>46.0</ele><time>2026-03-29T07:50:20.189Z</time></trkpt><trkpt lat="45.305305" lon="10.7099483"><ele>46.0</ele><time>2026-03-29T07:50:21.188Z</time></trkpt><trkpt lat="45.3052917" lon="10.7101467"><ele>46.0</ele><time>2026-03-29T07:50:22.189Z</time></trkpt><trkpt lat="45.3052633" lon="10.7103717"><ele>46.0</ele><time>2026-03-29T07:50:23.19Z</time></trkpt><trkpt lat="45.3052333" lon="10.71059"><ele>46.25</ele><time>2026-03-29T07:50:24.188Z</time></trkpt><trkpt lat="45.3052017" lon="10.71079"><ele>46.5</ele><time>2026-03-29T07:50:25.188Z</time></trkpt><trkpt lat="45.3051733" lon="10.7109733"><ele>46.75</ele><time>2026-03-29T07:50:26.189Z</time></trkpt><trkpt lat="45.30515" lon="10.71114"><ele>47.0</ele><time>2026-03-29T07:50:27.189Z</time></trkpt><trkpt lat="45.3051283" lon="10.71129"><ele>47.0</ele><time>2026-03-29T07:50:28.19Z</time></trkpt><trkpt lat="45.30511" lon="10.7114317"><ele>47.0</ele><time>2026-03-29T07:50:29.188Z</time></trkpt><trkpt lat="45.3050983" lon="10.7115783"><ele>47.0</ele><time>2026-03-29T07:50:30.188Z</time></trkpt><trkpt lat="45.3051017" lon="10.7117367"><ele>47.0</ele><time>2026-03-29T07:50:31.189Z</time></trkpt><trkpt lat="45.3051183" lon="10.7118933"><ele>47.0</ele><time>2026-03-29T07:50:32.19Z</time></trkpt><trkpt lat="45.30514" lon="10.7120417"><ele>47.400000000000006</ele><time>2026-03-29T07:50:33.189Z</time></trkpt><trkpt lat="45.305155" lon="10.7121933"><ele>47.800000000000004</ele><time>2026-03-29T07:50:34.189Z</time></trkpt><trkpt lat="45.30516" lon="10.7123433"><ele>48.2</ele><time>2026-03-29T07:50:35.192Z</time></trkpt><trkpt lat="45.3051533" lon="10.7124817"><ele>48.6</ele><time>2026-03-29T07:50:36.188Z</time></trkpt><trkpt lat="45.3051383" lon="10.71261"><ele>49.0</ele><time>2026-03-29T07:50:37.189Z</time></trkpt><trkpt lat="45.30513" lon="10.7127117"><ele>49.25</ele><time>2026-03-29T07:50:38.189Z</time></trkpt><trkpt lat="45.3050983" lon="10.7128583"><ele>49.5</ele><time>2026-03-29T07:50:40.188Z</time></trkpt><trkpt lat="45.305045" lon="10.7130383"><ele>49.75</ele><time>2026-03-29T07:50:42.189Z</time></trkpt><trkpt lat="45.3049783" lon="10.7131783"><ele>50.0</ele><time>2026-03-29T07:50:43.191Z</time></trkpt><trkpt lat="45.30491" lon="10.7133183"><ele>50.0</ele><time>2026-03-29T07:50:44.191Z</time></trkpt><trkpt lat="45.3048433" lon="10.7134733"><ele>50.0</ele><time>2026-03-29T07:50:45.189Z</time></trkpt><trkpt lat="45.30478" lon="10.7136267"><ele>50.0</ele><time>2026-03-29T07:50:46.189Z</time></trkpt><trkpt lat="45.30472" lon="10.7137717"><ele>50.0</ele><time>2026-03-29T07:50:47.189Z</time></trkpt><trkpt lat="45.3046533" lon="10.7138983"><ele>50.0</ele><time>2026-03-29T07:50:48.189Z</time></trkpt><trkpt lat="45.3045917" lon="10.7140217"><ele>50.0</ele><time>2026-03-29T07:50:49.19Z</time></trkpt><trkpt lat="45.304535" lon="10.7141367"><ele>50.0</ele><time>2026-03-29T07:50:50.19Z</time></trkpt><trkpt lat="45.30447" lon="10.7142367"><ele>50.0</ele><time>2026-03-29T07:50:51.188Z</time></trkpt><trkpt lat="45.3044133" lon="10.714325"><ele>50.0</ele><time>2026-03-29T07:50:52.189Z</time></trkpt><trkpt lat="45.3043633" lon="10.7143867"><ele>50.00000000000001</ele><time>2026-03-29T07:50:53.188Z</time></trkpt><trkpt lat="45.3042983" lon="10.7144317"><ele>50.0</ele><time>2026-03-29T07:50:55.188Z</time></trkpt><trkpt lat="45.3042217" lon="10.7144133"><ele>50.0</ele><time>2026-03-29T07:50:57.188Z</time></trkpt><trkpt lat="45.30414" lon="10.7143833"><ele>50.0</ele><time>2026-03-29T07:50:58.189Z</time></trkpt><trkpt lat="45.3040533" lon="10.71435"><ele>50.00000000000001</ele><time>2026-03-29T07:50:59.19Z</time></trkpt><trkpt lat="45.3039733" lon="10.714335"><ele>50.0</ele><time>2026-03-29T07:51:00.188Z</time></trkpt><trkpt lat="45.3039017" lon="10.7143467"><ele>49.25</ele><time>2026-03-29T07:51:01.189Z</time></trkpt><trkpt lat="45.3038283" lon="10.7144083"><ele>48.5</ele><time>2026-03-29T07:51:02.189Z</time></trkpt><trkpt lat="45.303755" lon="10.7145017"><ele>47.75</ele><time>2026-03-29T07:51:03.188Z</time></trkpt><trkpt lat="45.3036667" lon="10.7146533"><ele>47.0</ele><time>2026-03-29T07:51:04.19Z</time></trkpt><trkpt lat="45.303585" lon="10.7148117"><ele>47.0</ele><time>2026-03-29T07:51:05.189Z</time></trkpt><trkpt lat="45.3035083" lon="10.71495"><ele>47.0</ele><time>2026-03-29T07:51:06.189Z</time></trkpt><trkpt lat="45.3034283" lon="10.7150783"><ele>47.0</ele><time>2026-03-29T07:51:07.189Z</time></trkpt><trkpt lat="45.30335" lon="10.715205"><ele>47.0</ele><time>2026-03-29T07:51:08.189Z</time></trkpt><trkpt lat="45.3032683" lon="10.7153283"><ele>47.0</ele><time>2026-03-29T07:51:09.189Z</time></trkpt><trkpt lat="45.3031883" lon="10.7154483"><ele>47.0</ele><time>2026-03-29T07:51:10.189Z</time></trkpt><trkpt lat="45.3030983" lon="10.7155583"><ele>47.0</ele><time>2026-03-29T07:51:11.19Z</time></trkpt><trkpt lat="45.3030183" lon="10.7156633"><ele>47.0</ele><time>2026-03-29T07:51:12.188Z</time></trkpt><trkpt lat="45.3029233" lon="10.7157567"><ele>47.0</ele><time>2026-03-29T07:51:13.19Z</time></trkpt><trkpt lat="45.30283" lon="10.7158533"><ele>47.0</ele><time>2026-03-29T07:51:14.189Z</time></trkpt><trkpt lat="45.3027533" lon="10.7159667"><ele>47.0</ele><time>2026-03-29T07:51:15.189Z</time></trkpt><trkpt lat="45.30268" lon="10.7160883"><ele>47.0</ele><time>2026-03-29T07:51:16.188Z</time></trkpt><trkpt lat="45.30261" lon="10.7162217"><ele>47.0</ele><time>2026-03-29T07:51:17.191Z</time></trkpt><trkpt lat="45.3025317" lon="10.7163717"><ele>47.0</ele><time>2026-03-29T07:51:18.19Z</time></trkpt><trkpt lat="45.30245" lon="10.7165367"><ele>47.0</ele><time>2026-03-29T07:51:19.191Z</time></trkpt><trkpt lat="45.3023767" lon="10.7167033"><ele>47.0</ele><time>2026-03-29T07:51:20.189Z</time></trkpt><trkpt lat="45.30231" lon="10.7168517"><ele>47.0</ele><time>2026-03-29T07:51:21.19Z</time></trkpt><trkpt lat="45.30225" lon="10.716985"><ele>47.0</ele><time>2026-03-29T07:51:22.19Z</time></trkpt><trkpt lat="45.3021883" lon="10.7171083"><ele>47.0</ele><time>2026-03-29T07:51:23.19Z</time></trkpt><trkpt lat="45.3021183" lon="10.7172267"><ele>47.0</ele><time>2026-03-29T07:51:24.191Z</time></trkpt><trkpt lat="45.3020333" lon="10.7173633"><ele>47.0</ele><time>2026-03-29T07:51:25.189Z</time></trkpt><trkpt lat="45.3019333" lon="10.7175133"><ele>47.0</ele><time>2026-03-29T07:51:26.192Z</time></trkpt><trkpt lat="45.3018367" lon="10.717665"><ele>47.0</ele><time>2026-03-29T07:51:27.189Z</time></trkpt><trkpt lat="45.3017267" lon="10.7178067"><ele>47.0</ele><time>2026-03-29T07:51:28.19Z</time></trkpt><trkpt lat="45.3016283" lon="10.71796"><ele>47.0</ele><time>2026-03-29T07:51:29.188Z</time></trkpt><trkpt lat="45.3015417" lon="10.7181367"><ele>47.0</ele><time>2026-03-29T07:51:30.193Z</time></trkpt><trkpt lat="45.3014533" lon="10.7183417"><ele>47.0</ele><time>2026-03-29T07:51:31.189Z</time></trkpt><trkpt lat="45.30136" lon="10.7185683"><ele>47.0</ele><time>2026-03-29T07:51:32.191Z</time></trkpt><trkpt lat="45.3012583" lon="10.7188017"><ele>47.0</ele><time>2026-03-29T07:51:33.189Z</time></trkpt><trkpt lat="45.301165" lon="10.71902"><ele>47.0</ele><time>2026-03-29T07:51:34.189Z</time></trkpt><trkpt lat="45.3010783" lon="10.7192283"><ele>47.0</ele><time>2026-03-29T07:51:35.19Z</time></trkpt><trkpt lat="45.3009933" lon="10.7194317"><ele>47.0</ele><time>2026-03-29T07:51:36.189Z</time></trkpt><trkpt lat="45.300905" lon="10.7196283"><ele>47.0</ele><time>2026-03-29T07:51:37.19Z</time></trkpt><trkpt lat="45.3008167" lon="10.7198233"><ele>47.0</ele><time>2026-03-29T07:51:38.191Z</time></trkpt><trkpt lat="45.3007233" lon="10.7200183"><ele>47.0</ele><time>2026-03-29T07:51:39.192Z</time></trkpt><trkpt lat="45.3006183" lon="10.7202117"><ele>47.0</ele><time>2026-03-29T07:51:40.191Z</time></trkpt><trkpt lat="45.30051" lon="10.720405"><ele>47.33333333333333</ele><time>2026-03-29T07:51:41.189Z</time></trkpt><trkpt lat="45.3003967" lon="10.7206"><ele>47.666666666666664</ele><time>2026-03-29T07:51:42.19Z</time></trkpt><trkpt lat="45.3002867" lon="10.720795"><ele>48.0</ele><time>2026-03-29T07:51:43.189Z</time></trkpt><trkpt lat="45.3001767" lon="10.7209883"><ele>47.333333333333336</ele><time>2026-03-29T07:51:44.19Z</time></trkpt><trkpt lat="45.300075" lon="10.7211783"><ele>46.66666666666667</ele><time>2026-03-29T07:51:45.189Z</time></trkpt><trkpt lat="45.2999817" lon="10.721355"><ele>46.0</ele><time>2026-03-29T07:51:46.19Z</time></trkpt><trkpt lat="45.2998867" lon="10.7215383"><ele>46.0</ele><time>2026-03-29T07:51:47.189Z</time></trkpt><trkpt lat="45.2997867" lon="10.7217217"><ele>46.0</ele><time>2026-03-29T07:51:48.189Z</time></trkpt><trkpt lat="45.299675" lon="10.7219067"><ele>46.0</ele><time>2026-03-29T07:51:49.191Z</time></trkpt><trkpt lat="45.2995533" lon="10.7220933"><ele>46.0</ele><time>2026-03-29T07:51:50.19Z</time></trkpt><trkpt lat="45.2994217" lon="10.7222767"><ele>46.0</ele><time>2026-03-29T07:51:51.192Z</time></trkpt><trkpt lat="45.299285" lon="10.722455"><ele>46.0</ele><time>2026-03-29T07:51:52.19Z</time></trkpt><trkpt lat="45.2991317" lon="10.7226317"><ele>45.66666666666667</ele><time>2026-03-29T07:51:53.191Z</time></trkpt><trkpt lat="45.29897" lon="10.7228083"><ele>45.333333333333336</ele><time>2026-03-29T07:51:54.191Z</time></trkpt><trkpt lat="45.298795" lon="10.7229833"><ele>45.0</ele><time>2026-03-29T07:51:55.19Z</time></trkpt><trkpt lat="45.2986117" lon="10.72316"><ele>45.0</ele><time>2026-03-29T07:51:56.192Z</time></trkpt><trkpt lat="45.2984317" lon="10.72333"><ele>45.0</ele><time>2026-03-29T07:51:57.191Z</time></trkpt><trkpt lat="45.2982567" lon="10.7234933"><ele>45.0</ele><time>2026-03-29T07:51:58.191Z</time></trkpt><trkpt lat="45.2980933" lon="10.723655"><ele>45.0</ele><time>2026-03-29T07:51:59.191Z</time></trkpt><trkpt lat="45.297935" lon="10.7238283"><ele>45.0</ele><time>2026-03-29T07:52:00.19Z</time></trkpt><trkpt lat="45.2977767" lon="10.7240133"><ele>45.0</ele><time>2026-03-29T07:52:01.189Z</time></trkpt><trkpt lat="45.2976167" lon="10.7242167"><ele>44.0</ele><time>2026-03-29T07:52:02.189Z</time></trkpt><trkpt lat="45.2974483" lon="10.72443"><ele>43.0</ele><time>2026-03-29T07:52:03.19Z</time></trkpt><trkpt lat="45.2972767" lon="10.7246417"><ele>44.0</ele><time>2026-03-29T07:52:04.19Z</time></trkpt><trkpt lat="45.2971017" lon="10.724845"><ele>45.0</ele><time>2026-03-29T07:52:05.19Z</time></trkpt><trkpt lat="45.2969133" lon="10.72504"><ele>45.0</ele><time>2026-03-29T07:52:06.189Z</time></trkpt><trkpt lat="45.2967083" lon="10.7252283"><ele>45.0</ele><time>2026-03-29T07:52:07.19Z</time></trkpt><trkpt lat="45.29649" lon="10.72542"><ele>45.0</ele><time>2026-03-29T07:52:08.19Z</time></trkpt><trkpt lat="45.2962483" lon="10.72563"><ele>45.0</ele><time>2026-03-29T07:52:09.192Z</time></trkpt><trkpt lat="45.2959883" lon="10.7258567"><ele>45.0</ele><time>2026-03-29T07:52:10.19Z</time></trkpt><trkpt lat="45.29573" lon="10.7260817"><ele>45.0</ele><time>2026-03-29T07:52:11.189Z</time></trkpt><trkpt lat="45.2954933" lon="10.7262867"><ele>44.5</ele><time>2026-03-29T07:52:12.189Z</time></trkpt><trkpt lat="45.2952783" lon="10.7264733"><ele>44.0</ele><time>2026-03-29T07:52:13.191Z</time></trkpt><trkpt lat="45.2950733" lon="10.7266383"><ele>44.0</ele><time>2026-03-29T07:52:14.19Z</time></trkpt><trkpt lat="45.2948633" lon="10.72679"><ele>44.0</ele><time>2026-03-29T07:52:15.189Z</time></trkpt><trkpt lat="45.2946367" lon="10.726925"><ele>44.0</ele><time>2026-03-29T07:52:16.19Z</time></trkpt><trkpt lat="45.294405" lon="10.7270433"><ele>44.0</ele><time>2026-03-29T07:52:17.189Z</time></trkpt><trkpt lat="45.2941867" lon="10.7271383"><ele>44.0</ele><time>2026-03-29T07:52:18.189Z</time></trkpt><trkpt lat="45.2939767" lon="10.7272167"><ele>44.0</ele><time>2026-03-29T07:52:19.19Z</time></trkpt><trkpt lat="45.2937717" lon="10.7272783"><ele>44.0</ele><time>2026-03-29T07:52:20.191Z</time></trkpt><trkpt lat="45.29358" lon="10.727325"><ele>44.0</ele><time>2026-03-29T07:52:21.19Z</time></trkpt><trkpt lat="45.2934067" lon="10.72737"><ele>44.0</ele><time>2026-03-29T07:52:22.19Z</time></trkpt><trkpt lat="45.2932417" lon="10.727435"><ele>44.0</ele><time>2026-03-29T07:52:23.192Z</time></trkpt><trkpt lat="45.29307" lon="10.72752"><ele>44.33333333333333</ele><time>2026-03-29T07:52:24.19Z</time></trkpt><trkpt lat="45.29288" lon="10.727635"><ele>44.666666666666664</ele><time>2026-03-29T07:52:25.19Z</time></trkpt><trkpt lat="45.2926883" lon="10.7277483"><ele>45.0</ele><time>2026-03-29T07:52:26.191Z</time></trkpt><trkpt lat="45.2925033" lon="10.7278567"><ele>47.33333333333333</ele><time>2026-03-29T07:52:27.19Z</time></trkpt><trkpt lat="45.2923083" lon="10.7279367"><ele>49.666666666666664</ele><time>2026-03-29T07:52:28.19Z</time></trkpt><trkpt lat="45.2921" lon="10.7279833"><ele>52.0</ele><time>2026-03-29T07:52:29.191Z</time></trkpt><trkpt lat="45.29189" lon="10.728015"><ele>52.666666666666664</ele><time>2026-03-29T07:52:30.192Z</time></trkpt><trkpt lat="45.2916983" lon="10.72805"><ele>53.33333333333333</ele><time>2026-03-29T07:52:31.19Z</time></trkpt><trkpt lat="45.2915417" lon="10.7280917"><ele>54.0</ele><time>2026-03-29T07:52:32.194Z</time></trkpt><trkpt lat="45.2914233" lon="10.728135"><ele>54.2</ele><time>2026-03-29T07:52:33.19Z</time></trkpt><trkpt lat="45.2913467" lon="10.728175"><ele>54.400000000000006</ele><time>2026-03-29T07:52:34.191Z</time></trkpt><trkpt lat="45.291235" lon="10.72824"><ele>54.6</ele><time>2026-03-29T07:52:36.189Z</time></trkpt><trkpt lat="45.291155" lon="10.7282783"><ele>54.8</ele><time>2026-03-29T07:52:37.189Z</time></trkpt><trkpt lat="45.2910217" lon="10.7283267"><ele>55.0</ele><time>2026-03-29T07:52:38.19Z</time></trkpt><trkpt lat="45.2908433" lon="10.7283883"><ele>55.0</ele><time>2026-03-29T07:52:39.19Z</time></trkpt><trkpt lat="45.290635" lon="10.72845"><ele>55.0</ele><time>2026-03-29T07:52:40.191Z</time></trkpt><trkpt lat="45.2904067" lon="10.7285217"><ele>55.0</ele><time>2026-03-29T07:52:41.189Z</time></trkpt><trkpt lat="45.2901817" lon="10.72859"><ele>55.33333333333333</ele><time>2026-03-29T07:52:42.19Z</time></trkpt><trkpt lat="45.2899667" lon="10.7286533"><ele>55.66666666666667</ele><time>2026-03-29T07:52:43.19Z</time></trkpt><trkpt lat="45.2897583" lon="10.7287133"><ele>56.0</ele><time>2026-03-29T07:52:44.191Z</time></trkpt><trkpt lat="45.2895567" lon="10.7287733"><ele>54.0</ele><time>2026-03-29T07:52:45.189Z</time></trkpt><trkpt lat="45.2893617" lon="10.7288283"><ele>52.0</ele><time>2026-03-29T07:52:46.189Z</time></trkpt><trkpt lat="45.2891683" lon="10.7288833"><ele>50.0</ele><time>2026-03-29T07:52:47.19Z</time></trkpt><trkpt lat="45.2889767" lon="10.7289367"><ele>49.0</ele><time>2026-03-29T07:52:48.191Z</time></trkpt><trkpt lat="45.2887833" lon="10.7289917"><ele>48.0</ele><time>2026-03-29T07:52:49.192Z</time></trkpt><trkpt lat="45.2885883" lon="10.7290483"><ele>47.0</ele><time>2026-03-29T07:52:50.191Z</time></trkpt><trkpt lat="45.2883883" lon="10.7291083"><ele>47.0</ele><time>2026-03-29T07:52:51.189Z</time></trkpt><trkpt lat="45.2881833" lon="10.7291683"><ele>47.0</ele><time>2026-03-29T07:52:52.189Z</time></trkpt><trkpt lat="45.2879733" lon="10.7292283"><ele>47.0</ele><time>2026-03-29T07:52:53.19Z</time></trkpt><trkpt lat="45.2877583" lon="10.729295"><ele>46.5</ele><time>2026-03-29T07:52:54.19Z</time></trkpt><trkpt lat="45.2875367" lon="10.7293633"><ele>46.0</ele><time>2026-03-29T07:52:55.19Z</time></trkpt><trkpt lat="45.2873133" lon="10.7294333"><ele>45.5</ele><time>2026-03-29T07:52:56.191Z</time></trkpt><trkpt lat="45.287085" lon="10.729505"><ele>45.0</ele><time>2026-03-29T07:52:57.19Z</time></trkpt><trkpt lat="45.2868517" lon="10.729575"><ele>45.0</ele><time>2026-03-29T07:52:58.191Z</time></trkpt><trkpt lat="45.28662" lon="10.729645"><ele>45.0</ele><time>2026-03-29T07:52:59.19Z</time></trkpt><trkpt lat="45.286385" lon="10.7297133"><ele>44.5</ele><time>2026-03-29T07:53:00.19Z</time></trkpt><trkpt lat="45.2861517" lon="10.7297833"><ele>44.0</ele><time>2026-03-29T07:53:01.191Z</time></trkpt><trkpt lat="45.2859183" lon="10.7298567"><ele>44.0</ele><time>2026-03-29T07:53:02.192Z</time></trkpt><trkpt lat="45.285685" lon="10.7299267"><ele>44.0</ele><time>2026-03-29T07:53:03.191Z</time></trkpt><trkpt lat="45.2854517" lon="10.7299967"><ele>44.0</ele><time>2026-03-29T07:53:04.19Z</time></trkpt><trkpt lat="45.28522" lon="10.7300667"><ele>44.0</ele><time>2026-03-29T07:53:05.19Z</time></trkpt><trkpt lat="45.28499" lon="10.7301367"><ele>44.0</ele><time>2026-03-29T07:53:06.189Z</time></trkpt><trkpt lat="45.2847683" lon="10.730205"><ele>44.0</ele><time>2026-03-29T07:53:07.189Z</time></trkpt><trkpt lat="45.2845517" lon="10.7302717"><ele>44.0</ele><time>2026-03-29T07:53:08.191Z</time></trkpt><trkpt lat="45.2843433" lon="10.7303333"><ele>44.33333333333333</ele><time>2026-03-29T07:53:09.19Z</time></trkpt><trkpt lat="45.2841483" lon="10.7303917"><ele>44.666666666666664</ele><time>2026-03-29T07:53:10.189Z</time></trkpt><trkpt lat="45.283965" lon="10.7304467"><ele>45.0</ele><time>2026-03-29T07:53:11.192Z</time></trkpt><trkpt lat="45.2837933" lon="10.7305"><ele>46.33333333333333</ele><time>2026-03-29T07:53:12.19Z</time></trkpt><trkpt lat="45.2836267" lon="10.73055"><ele>47.666666666666664</ele><time>2026-03-29T07:53:13.192Z</time></trkpt><trkpt lat="45.2834633" lon="10.7305967"><ele>49.0</ele><time>2026-03-29T07:53:14.19Z</time></trkpt><trkpt lat="45.2833083" lon="10.7306383"><ele>49.0</ele><time>2026-03-29T07:53:15.191Z</time></trkpt><trkpt lat="45.283165" lon="10.7306767"><ele>49.0</ele><time>2026-03-29T07:53:16.19Z</time></trkpt><trkpt lat="45.283045" lon="10.7307067"><ele>49.0</ele><time>2026-03-29T07:53:17.19Z</time></trkpt><trkpt lat="45.2829483" lon="10.7307333"><ele>49.0</ele><time>2026-03-29T07:53:18.191Z</time></trkpt><trkpt lat="45.2828683" lon="10.7307517"><ele>49.0</ele><time>2026-03-29T07:53:19.191Z</time></trkpt><trkpt lat="45.2827733" lon="10.73075"><ele>49.166666666666664</ele><time>2026-03-29T07:53:21.192Z</time></trkpt><trkpt lat="45.2827" lon="10.7307183"><ele>49.33333333333333</ele><time>2026-03-29T07:53:26.19Z</time></trkpt><trkpt lat="45.2826917" lon="10.7305617"><ele>49.5</ele><time>2026-03-29T07:53:29.188Z</time></trkpt><trkpt lat="45.282695" lon="10.7304633"><ele>49.66666666666667</ele><time>2026-03-29T07:53:30.189Z</time></trkpt><trkpt lat="45.2826883" lon="10.7303267"><ele>49.833333333333336</ele><time>2026-03-29T07:53:31.197Z</time></trkpt><trkpt lat="45.2826767" lon="10.730195"><ele>50.0</ele><time>2026-03-29T07:53:32.19Z</time></trkpt><trkpt lat="45.28266" lon="10.7300733"><ele>49.333333333333336</ele><time>2026-03-29T07:53:33.189Z</time></trkpt><trkpt lat="45.282645" lon="10.7299633"><ele>48.66666666666667</ele><time>2026-03-29T07:53:34.189Z</time></trkpt><trkpt lat="45.2826283" lon="10.7298717"><ele>48.0</ele><time>2026-03-29T07:53:35.191Z</time></trkpt><trkpt lat="45.2826183" lon="10.7297533"><ele>47.333333333333336</ele><time>2026-03-29T07:53:37.189Z</time></trkpt><trkpt lat="45.282595" lon="10.7296633"><ele>46.66666666666667</ele><time>2026-03-29T07:53:44.191Z</time></trkpt><trkpt lat="45.2825767" lon="10.7295583"><ele>46.0</ele><time>2026-03-29T07:53:45.19Z</time></trkpt><trkpt lat="45.282555" lon="10.7294233"><ele>45.66666666666667</ele><time>2026-03-29T07:53:46.189Z</time></trkpt><trkpt lat="45.282535" lon="10.7292817"><ele>45.333333333333336</ele><time>2026-03-29T07:53:47.192Z</time></trkpt><trkpt lat="45.2825167" lon="10.7291483"><ele>45.0</ele><time>2026-03-29T07:53:48.191Z</time></trkpt><trkpt lat="45.2825017" lon="10.7290317"><ele>44.666666666666664</ele><time>2026-03-29T07:53:49.191Z</time></trkpt><trkpt lat="45.2824867" lon="10.7289433"><ele>44.33333333333333</ele><time>2026-03-29T07:53:50.19Z</time></trkpt><trkpt lat="45.2824733" lon="10.728835"><ele>44.0</ele><time>2026-03-29T07:53:52.191Z</time></trkpt><trkpt lat="45.2824217" lon="10.72878"><ele>44.0</ele><time>2026-03-29T07:53:56.189Z</time></trkpt><trkpt lat="45.2823167" lon="10.7288283"><ele>44.0</ele><time>2026-03-29T07:53:59.196Z</time></trkpt><trkpt lat="45.2822517" lon="10.7288517"><ele>44.0</ele><time>2026-03-29T07:54:00.189Z</time></trkpt><trkpt lat="45.2821683" lon="10.72888"><ele>44.0</ele><time>2026-03-29T07:54:01.188Z</time></trkpt><trkpt lat="45.2820867" lon="10.72891"><ele>44.0</ele><time>2026-03-29T07:54:02.19Z</time></trkpt><trkpt lat="45.2820217" lon="10.728925"><ele>44.0</ele><time>2026-03-29T07:54:03.191Z</time></trkpt><trkpt lat="45.2819317" lon="10.7289433"><ele>43.83333333333333</ele><time>2026-03-29T07:54:05.19Z</time></trkpt><trkpt lat="45.2818567" lon="10.7289933"><ele>43.666666666666664</ele><time>2026-03-29T07:54:08.19Z</time></trkpt><trkpt lat="45.2817917" lon="10.7290283"><ele>43.5</ele><time>2026-03-29T07:54:11.19Z</time></trkpt><trkpt lat="45.2816967" lon="10.7290383"><ele>43.333333333333336</ele><time>2026-03-29T07:54:14.19Z</time></trkpt><trkpt lat="45.281635" lon="10.7290567"><ele>43.16666666666667</ele><time>2026-03-29T07:54:16.189Z</time></trkpt><trkpt lat="45.2815467" lon="10.7290883"><ele>43.0</ele><time>2026-03-29T07:54:18.192Z</time></trkpt><trkpt lat="45.2814217" lon="10.7291317"><ele>43.00000000000001</ele><time>2026-03-29T07:54:20.191Z</time></trkpt><trkpt lat="45.2813517" lon="10.72915"><ele>43.0</ele><time>2026-03-29T07:54:21.189Z</time></trkpt><trkpt lat="45.2812883" lon="10.7291667"><ele>43.0</ele><time>2026-03-29T07:54:22.189Z</time></trkpt><trkpt lat="45.2812267" lon="10.7291883"><ele>43.0</ele><time>2026-03-29T07:54:23.189Z</time></trkpt><trkpt lat="45.2811583" lon="10.729205"><ele>43.0</ele><time>2026-03-29T07:54:24.19Z</time></trkpt><trkpt lat="45.28109" lon="10.7292183"><ele>43.00000000000001</ele><time>2026-03-29T07:54:25.189Z</time></trkpt><trkpt lat="45.28102" lon="10.72923"><ele>43.0</ele><time>2026-03-29T07:54:26.191Z</time></trkpt><trkpt lat="45.2809517" lon="10.7292433"><ele>43.0</ele><time>2026-03-29T07:54:27.189Z</time></trkpt><trkpt lat="45.2808817" lon="10.7292617"><ele>43.0</ele><time>2026-03-29T07:54:28.189Z</time></trkpt><trkpt lat="45.280815" lon="10.7292817"><ele>43.0</ele><time>2026-03-29T07:54:29.19Z</time></trkpt><trkpt lat="45.2807483" lon="10.7293"><ele>43.0</ele><time>2026-03-29T07:54:30.19Z</time></trkpt><trkpt lat="45.28068" lon="10.729315"><ele>43.0</ele><time>2026-03-29T07:54:31.19Z</time></trkpt><trkpt lat="45.2806117" lon="10.7293267"><ele>43.0</ele><time>2026-03-29T07:54:32.19Z</time></trkpt><trkpt lat="45.2804867" lon="10.7293583"><ele>42.833333333333336</ele><time>2026-03-29T07:54:34.191Z</time></trkpt><trkpt lat="45.2804233" lon="10.7293767"><ele>42.66666666666667</ele><time>2026-03-29T07:54:35.19Z</time></trkpt><trkpt lat="45.2803533" lon="10.7294033"><ele>42.5</ele><time>2026-03-29T07:54:36.19Z</time></trkpt><trkpt lat="45.28029" lon="10.7294067"><ele>42.333333333333336</ele><time>2026-03-29T07:54:37.191Z</time></trkpt><trkpt lat="45.2801683" lon="10.729425"><ele>42.166666666666664</ele><time>2026-03-29T07:54:39.19Z</time></trkpt><trkpt lat="45.2801017" lon="10.7294383"><ele>42.0</ele><time>2026-03-29T07:54:40.189Z</time></trkpt><trkpt lat="45.2800267" lon="10.72946"><ele>42.333333333333336</ele><time>2026-03-29T07:54:41.191Z</time></trkpt><trkpt lat="45.2799417" lon="10.7294833"><ele>42.666666666666664</ele><time>2026-03-29T07:54:42.19Z</time></trkpt><trkpt lat="45.2798533" lon="10.7295067"><ele>43.0</ele><time>2026-03-29T07:54:43.19Z</time></trkpt><trkpt lat="45.2797667" lon="10.7295283"><ele>43.33333333333333</ele><time>2026-03-29T07:54:44.192Z</time></trkpt><trkpt lat="45.2796883" lon="10.7295433"><ele>43.666666666666664</ele><time>2026-03-29T07:54:45.191Z</time></trkpt><trkpt lat="45.2796183" lon="10.7295683"><ele>44.0</ele><time>2026-03-29T07:54:46.19Z</time></trkpt><trkpt lat="45.279555" lon="10.729595"><ele>44.0</ele><time>2026-03-29T07:54:47.19Z</time></trkpt><trkpt lat="45.279435" lon="10.729625"><ele>44.0</ele><time>2026-03-29T07:54:49.19Z</time></trkpt><trkpt lat="45.2793683" lon="10.7296333"><ele>44.0</ele><time>2026-03-29T07:54:50.19Z</time></trkpt><trkpt lat="45.2792967" lon="10.729635"><ele>44.0</ele><time>2026-03-29T07:54:51.189Z</time></trkpt><trkpt lat="45.2792267" lon="10.7296433"><ele>44.0</ele><time>2026-03-29T07:54:52.189Z</time></trkpt><trkpt lat="45.279155" lon="10.7296583"><ele>44.0</ele><time>2026-03-29T07:54:53.19Z</time></trkpt><trkpt lat="45.279075" lon="10.7296683"><ele>44.0</ele><time>2026-03-29T07:54:54.19Z</time></trkpt><trkpt lat="45.278995" lon="10.7296767"><ele>44.0</ele><time>2026-03-29T07:54:55.191Z</time></trkpt><trkpt lat="45.2789267" lon="10.7296817"><ele>44.0</ele><time>2026-03-29T07:54:56.191Z</time></trkpt><trkpt lat="45.2788567" lon="10.7296833"><ele>44.0</ele><time>2026-03-29T07:54:57.192Z</time></trkpt><trkpt lat="45.2787767" lon="10.7296917"><ele>44.0</ele><time>2026-03-29T07:54:58.195Z</time></trkpt><trkpt lat="45.2786867" lon="10.7297017"><ele>44.0</ele><time>2026-03-29T07:54:59.19Z</time></trkpt><trkpt lat="45.27857" lon="10.7297167"><ele>43.25</ele><time>2026-03-29T07:55:00.191Z</time></trkpt><trkpt lat="45.278455" lon="10.72973"><ele>42.5</ele><time>2026-03-29T07:55:01.191Z</time></trkpt><trkpt lat="45.2783433" lon="10.7297333"><ele>41.75</ele><time>2026-03-29T07:55:02.19Z</time></trkpt><trkpt lat="45.27823" lon="10.7297317"><ele>41.0</ele><time>2026-03-29T07:55:03.189Z</time></trkpt><trkpt lat="45.278115" lon="10.7297333"><ele>41.0</ele><time>2026-03-29T07:55:04.191Z</time></trkpt><trkpt lat="45.2780033" lon="10.7297283"><ele>41.0</ele><time>2026-03-29T07:55:05.19Z</time></trkpt><trkpt lat="45.2778967" lon="10.7297317"><ele>41.0</ele><time>2026-03-29T07:55:06.191Z</time></trkpt><trkpt lat="45.27779" lon="10.729725"><ele>41.0</ele><time>2026-03-29T07:55:07.189Z</time></trkpt><trkpt lat="45.2776833" lon="10.7297133"><ele>41.0</ele><time>2026-03-29T07:55:08.19Z</time></trkpt><trkpt lat="45.27757" lon="10.7297033"><ele>41.0</ele><time>2026-03-29T07:55:09.191Z</time></trkpt><trkpt lat="45.2774583" lon="10.7296983"><ele>41.0</ele><time>2026-03-29T07:55:10.189Z</time></trkpt><trkpt lat="45.2773533" lon="10.7296917"><ele>41.0</ele><time>2026-03-29T07:55:11.189Z</time></trkpt><trkpt lat="45.27725" lon="10.7296767"><ele>41.0</ele><time>2026-03-29T07:55:12.19Z</time></trkpt><trkpt lat="45.2771517" lon="10.7296517"><ele>41.0</ele><time>2026-03-29T07:55:13.189Z</time></trkpt><trkpt lat="45.2770467" lon="10.72963"><ele>41.0</ele><time>2026-03-29T07:55:14.19Z</time></trkpt><trkpt lat="45.2769433" lon="10.72962"><ele>41.0</ele><time>2026-03-29T07:55:15.189Z</time></trkpt><trkpt lat="45.276845" lon="10.729605"><ele>41.0</ele><time>2026-03-29T07:55:16.189Z</time></trkpt><trkpt lat="45.27675" lon="10.7295883"><ele>41.0</ele><time>2026-03-29T07:55:17.189Z</time></trkpt><trkpt lat="45.2766633" lon="10.729575"><ele>41.0</ele><time>2026-03-29T07:55:18.189Z</time></trkpt><trkpt lat="45.27658" lon="10.7295667"><ele>41.0</ele><time>2026-03-29T07:55:19.19Z</time></trkpt><trkpt lat="45.2764933" lon="10.7295517"><ele>41.0</ele><time>2026-03-29T07:55:20.189Z</time></trkpt><trkpt lat="45.2764" lon="10.729525"><ele>41.0</ele><time>2026-03-29T07:55:21.191Z</time></trkpt><trkpt lat="45.2762983" lon="10.729505"><ele>41.0</ele><time>2026-03-29T07:55:22.192Z</time></trkpt><trkpt lat="45.2761983" lon="10.7294867"><ele>41.0</ele><time>2026-03-29T07:55:23.193Z</time></trkpt><trkpt lat="45.2761" lon="10.7294633"><ele>41.0</ele><time>2026-03-29T07:55:24.19Z</time></trkpt><trkpt lat="45.2760067" lon="10.729435"><ele>41.0</ele><time>2026-03-29T07:55:25.195Z</time></trkpt><trkpt lat="45.2759117" lon="10.7294033"><ele>41.0</ele><time>2026-03-29T07:55:26.19Z</time></trkpt><trkpt lat="45.2758167" lon="10.7293683"><ele>41.0</ele><time>2026-03-29T07:55:27.19Z</time></trkpt><trkpt lat="45.2757233" lon="10.729335"><ele>41.0</ele><time>2026-03-29T07:55:28.19Z</time></trkpt><trkpt lat="45.27564" lon="10.729305"><ele>41.0</ele><time>2026-03-29T07:55:29.19Z</time></trkpt><trkpt lat="45.2755683" lon="10.72928"><ele>41.0</ele><time>2026-03-29T07:55:30.189Z</time></trkpt><trkpt lat="45.2754967" lon="10.7292567"><ele>41.0</ele><time>2026-03-29T07:55:31.19Z</time></trkpt><trkpt lat="45.2754083" lon="10.72923"><ele>41.0</ele><time>2026-03-29T07:55:32.191Z</time></trkpt><trkpt lat="45.2752933" lon="10.7291883"><ele>41.0</ele><time>2026-03-29T07:55:33.19Z</time></trkpt><trkpt lat="45.2751767" lon="10.7291367"><ele>41.0</ele><time>2026-03-29T07:55:34.19Z</time></trkpt><trkpt lat="45.2750633" lon="10.72909"><ele>41.0</ele><time>2026-03-29T07:55:35.19Z</time></trkpt><trkpt lat="45.2749517" lon="10.72905"><ele>41.0</ele><time>2026-03-29T07:55:36.19Z</time></trkpt><trkpt lat="45.2748417" lon="10.729005"><ele>41.0</ele><time>2026-03-29T07:55:37.19Z</time></trkpt><trkpt lat="45.27472" lon="10.7289517"><ele>41.0</ele><time>2026-03-29T07:55:38.19Z</time></trkpt><trkpt lat="45.27459" lon="10.7288883"><ele>41.0</ele><time>2026-03-29T07:55:39.189Z</time></trkpt><trkpt lat="45.274455" lon="10.728825"><ele>41.0</ele><time>2026-03-29T07:55:40.19Z</time></trkpt><trkpt lat="45.2743317" lon="10.7287667"><ele>41.0</ele><time>2026-03-29T07:55:41.19Z</time></trkpt><trkpt lat="45.2742017" lon="10.7287033"><ele>41.0</ele><time>2026-03-29T07:55:42.189Z</time></trkpt><trkpt lat="45.274065" lon="10.728635"><ele>41.0</ele><time>2026-03-29T07:55:43.19Z</time></trkpt><trkpt lat="45.2739283" lon="10.728565"><ele>41.0</ele><time>2026-03-29T07:55:44.19Z</time></trkpt><trkpt lat="45.273795" lon="10.7285017"><ele>41.0</ele><time>2026-03-29T07:55:45.19Z</time></trkpt><trkpt lat="45.273655" lon="10.7284367"><ele>41.5</ele><time>2026-03-29T07:55:46.19Z</time></trkpt><trkpt lat="45.2735117" lon="10.72837"><ele>42.0</ele><time>2026-03-29T07:55:47.192Z</time></trkpt><trkpt lat="45.2733767" lon="10.7283"><ele>42.5</ele><time>2026-03-29T07:55:48.193Z</time></trkpt><trkpt lat="45.2732483" lon="10.7282367"><ele>43.0</ele><time>2026-03-29T07:55:49.19Z</time></trkpt><trkpt lat="45.27312" lon="10.7281733"><ele>42.75</ele><time>2026-03-29T07:55:50.19Z</time></trkpt><trkpt lat="45.272995" lon="10.72811"><ele>42.5</ele><time>2026-03-29T07:55:51.194Z</time></trkpt><trkpt lat="45.2728733" lon="10.72805"><ele>42.25</ele><time>2026-03-29T07:55:52.19Z</time></trkpt><trkpt lat="45.2727617" lon="10.7280017"><ele>42.0</ele><time>2026-03-29T07:55:53.19Z</time></trkpt><trkpt lat="45.2726517" lon="10.7279533"><ele>42.0</ele><time>2026-03-29T07:55:54.189Z</time></trkpt><trkpt lat="45.2725433" lon="10.7278983"><ele>42.0</ele><time>2026-03-29T07:55:55.189Z</time></trkpt><trkpt lat="45.2724383" lon="10.727845"><ele>42.0</ele><time>2026-03-29T07:55:56.189Z</time></trkpt><trkpt lat="45.2723433" lon="10.7278017"><ele>42.0</ele><time>2026-03-29T07:55:57.19Z</time></trkpt><trkpt lat="45.2722583" lon="10.727765"><ele>42.0</ele><time>2026-03-29T07:55:58.19Z</time></trkpt><trkpt lat="45.2721783" lon="10.727735"><ele>41.8</ele><time>2026-03-29T07:55:59.191Z</time></trkpt><trkpt lat="45.2721" lon="10.7277067"><ele>41.6</ele><time>2026-03-29T07:56:00.189Z</time></trkpt><trkpt lat="45.27202" lon="10.7276783"><ele>41.4</ele><time>2026-03-29T07:56:01.189Z</time></trkpt><trkpt lat="45.27193" lon="10.7276417"><ele>41.199999999999996</ele><time>2026-03-29T07:56:02.19Z</time></trkpt><trkpt lat="45.2718217" lon="10.7275867"><ele>41.0</ele><time>2026-03-29T07:56:03.19Z</time></trkpt><trkpt lat="45.2717167" lon="10.7275383"><ele>41.0</ele><time>2026-03-29T07:56:04.19Z</time></trkpt><trkpt lat="45.2716067" lon="10.7274983"><ele>41.0</ele><time>2026-03-29T07:56:05.189Z</time></trkpt><trkpt lat="45.2714867" lon="10.727465"><ele>41.0</ele><time>2026-03-29T07:56:06.189Z</time></trkpt><trkpt lat="45.271355" lon="10.727435"><ele>41.0</ele><time>2026-03-29T07:56:07.19Z</time></trkpt><trkpt lat="45.2712333" lon="10.727405"><ele>41.4</ele><time>2026-03-29T07:56:08.191Z</time></trkpt><trkpt lat="45.2711317" lon="10.72738"><ele>41.8</ele><time>2026-03-29T07:56:09.19Z</time></trkpt><trkpt lat="45.271035" lon="10.7273567"><ele>42.199999999999996</ele><time>2026-03-29T07:56:10.189Z</time></trkpt><trkpt lat="45.2709317" lon="10.72734"><ele>42.599999999999994</ele><time>2026-03-29T07:56:11.189Z</time></trkpt><trkpt lat="45.270825" lon="10.7273267"><ele>43.0</ele><time>2026-03-29T07:56:12.189Z</time></trkpt><trkpt lat="45.27073" lon="10.7273167"><ele>43.0</ele><time>2026-03-29T07:56:13.19Z</time></trkpt><trkpt lat="45.2706533" lon="10.7273083"><ele>43.0</ele><time>2026-03-29T07:56:14.19Z</time></trkpt><trkpt lat="45.2705817" lon="10.7272967"><ele>43.0</ele><time>2026-03-29T07:56:15.189Z</time></trkpt><trkpt lat="45.2704967" lon="10.7272867"><ele>43.0</ele><time>2026-03-29T07:56:16.189Z</time></trkpt><trkpt lat="45.2703867" lon="10.727285"><ele>43.0</ele><time>2026-03-29T07:56:17.189Z</time></trkpt><trkpt lat="45.2702767" lon="10.72728"><ele>42.8</ele><time>2026-03-29T07:56:18.19Z</time></trkpt><trkpt lat="45.2701783" lon="10.7272783"><ele>42.599999999999994</ele><time>2026-03-29T07:56:19.19Z</time></trkpt><trkpt lat="45.27008" lon="10.7272817"><ele>42.400000000000006</ele><time>2026-03-29T07:56:20.19Z</time></trkpt><trkpt lat="45.2699967" lon="10.72728"><ele>42.2</ele><time>2026-03-29T07:56:21.192Z</time></trkpt><trkpt lat="45.269915" lon="10.7272833"><ele>42.0</ele><time>2026-03-29T07:56:22.189Z</time></trkpt><trkpt lat="45.2698217" lon="10.7272833"><ele>41.4</ele><time>2026-03-29T07:56:23.189Z</time></trkpt><trkpt lat="45.26972" lon="10.7272867"><ele>40.800000000000004</ele><time>2026-03-29T07:56:24.189Z</time></trkpt><trkpt lat="45.26962" lon="10.727295"><ele>40.2</ele><time>2026-03-29T07:56:25.19Z</time></trkpt><trkpt lat="45.2695267" lon="10.7273"><ele>39.6</ele><time>2026-03-29T07:56:26.19Z</time></trkpt><trkpt lat="45.2694333" lon="10.7273067"><ele>39.0</ele><time>2026-03-29T07:56:27.19Z</time></trkpt><trkpt lat="45.2693433" lon="10.727315"><ele>39.0</ele><time>2026-03-29T07:56:28.19Z</time></trkpt><trkpt lat="45.2692567" lon="10.7273267"><ele>39.0</ele><time>2026-03-29T07:56:29.191Z</time></trkpt><trkpt lat="45.26917" lon="10.7273417"><ele>39.0</ele><time>2026-03-29T07:56:30.189Z</time></trkpt><trkpt lat="45.269085" lon="10.7273633"><ele>39.0</ele><time>2026-03-29T07:56:31.19Z</time></trkpt><trkpt lat="45.2689983" lon="10.7273817"><ele>39.0</ele><time>2026-03-29T07:56:32.19Z</time></trkpt><trkpt lat="45.2689133" lon="10.7273967"><ele>39.0</ele><time>2026-03-29T07:56:33.189Z</time></trkpt><trkpt lat="45.2688317" lon="10.7274083"><ele>39.0</ele><time>2026-03-29T07:56:34.189Z</time></trkpt><trkpt lat="45.268745" lon="10.7274267"><ele>39.0</ele><time>2026-03-29T07:56:35.191Z</time></trkpt><trkpt lat="45.2686633" lon="10.7274433"><ele>39.0</ele><time>2026-03-29T07:56:36.19Z</time></trkpt><trkpt lat="45.2685783" lon="10.7274533"><ele>39.0</ele><time>2026-03-29T07:56:37.19Z</time></trkpt><trkpt lat="45.2684933" lon="10.7274633"><ele>39.0</ele><time>2026-03-29T07:56:38.189Z</time></trkpt><trkpt lat="45.2684083" lon="10.72748"><ele>39.0</ele><time>2026-03-29T07:56:39.19Z</time></trkpt><trkpt lat="45.2683267" lon="10.7274917"><ele>39.0</ele><time>2026-03-29T07:56:40.189Z</time></trkpt><trkpt lat="45.26825" lon="10.7275033"><ele>39.0</ele><time>2026-03-29T07:56:41.189Z</time></trkpt><trkpt lat="45.2681767" lon="10.7275133"><ele>39.0</ele><time>2026-03-29T07:56:42.189Z</time></trkpt><trkpt lat="45.2681133" lon="10.7275267"><ele>39.0</ele><time>2026-03-29T07:56:43.19Z</time></trkpt><trkpt lat="45.26799" lon="10.727575"><ele>39.0</ele><time>2026-03-29T07:56:45.19Z</time></trkpt><trkpt lat="45.2679033" lon="10.7275917"><ele>39.0</ele><time>2026-03-29T07:56:46.19Z</time></trkpt><trkpt lat="45.267805" lon="10.7276083"><ele>39.5</ele><time>2026-03-29T07:56:47.19Z</time></trkpt><trkpt lat="45.26771" lon="10.7276233"><ele>40.0</ele><time>2026-03-29T07:56:48.19Z</time></trkpt><trkpt lat="45.2676267" lon="10.7276317"><ele>40.5</ele><time>2026-03-29T07:56:49.189Z</time></trkpt><trkpt lat="45.267555" lon="10.7276433"><ele>41.0</ele><time>2026-03-29T07:56:50.193Z</time></trkpt><trkpt lat="45.2674783" lon="10.7276633"><ele>41.5</ele><time>2026-03-29T07:56:51.189Z</time></trkpt><trkpt lat="45.2673867" lon="10.7276917"><ele>42.0</ele><time>2026-03-29T07:56:52.189Z</time></trkpt><trkpt lat="45.2672833" lon="10.7277267"><ele>41.5</ele><time>2026-03-29T07:56:53.189Z</time></trkpt><trkpt lat="45.2671667" lon="10.7277683"><ele>41.0</ele><time>2026-03-29T07:56:54.189Z</time></trkpt><trkpt lat="45.2670517" lon="10.727805"><ele>40.5</ele><time>2026-03-29T07:56:55.19Z</time></trkpt><trkpt lat="45.26694" lon="10.7278283"><ele>40.0</ele><time>2026-03-29T07:56:56.192Z</time></trkpt><trkpt lat="45.266835" lon="10.72785"><ele>40.0</ele><time>2026-03-29T07:56:57.189Z</time></trkpt><trkpt lat="45.2667217" lon="10.727875"><ele>40.0</ele><time>2026-03-29T07:56:58.189Z</time></trkpt><trkpt lat="45.2666067" lon="10.7279033"><ele>40.0</ele><time>2026-03-29T07:56:59.191Z</time></trkpt><trkpt lat="45.2664933" lon="10.7279217"><ele>40.0</ele><time>2026-03-29T07:57:00.19Z</time></trkpt><trkpt lat="45.2663883" lon="10.7279433"><ele>39.6</ele><time>2026-03-29T07:57:01.19Z</time></trkpt><trkpt lat="45.2662967" lon="10.7279617"><ele>39.2</ele><time>2026-03-29T07:57:02.19Z</time></trkpt><trkpt lat="45.2662017" lon="10.727985"><ele>38.8</ele><time>2026-03-29T07:57:03.189Z</time></trkpt><trkpt lat="45.2660983" lon="10.72801"><ele>38.4</ele><time>2026-03-29T07:57:04.189Z</time></trkpt><trkpt lat="45.2659983" lon="10.728035"><ele>38.0</ele><time>2026-03-29T07:57:05.189Z</time></trkpt><trkpt lat="45.2659017" lon="10.72806"><ele>38.0</ele><time>2026-03-29T07:57:06.189Z</time></trkpt><trkpt lat="45.2658167" lon="10.72808"><ele>38.0</ele><time>2026-03-29T07:57:07.191Z</time></trkpt><trkpt lat="45.2657367" lon="10.728095"><ele>38.0</ele><time>2026-03-29T07:57:08.191Z</time></trkpt><trkpt lat="45.2656533" lon="10.7281183"><ele>38.0</ele><time>2026-03-29T07:57:09.19Z</time></trkpt><trkpt lat="45.26554" lon="10.72814"><ele>38.0</ele><time>2026-03-29T07:57:10.19Z</time></trkpt><trkpt lat="45.2654233" lon="10.728165"><ele>38.75</ele><time>2026-03-29T07:57:11.189Z</time></trkpt><trkpt lat="45.265305" lon="10.728195"><ele>39.5</ele><time>2026-03-29T07:57:12.189Z</time></trkpt><trkpt lat="45.2651933" lon="10.7282283"><ele>40.25</ele><time>2026-03-29T07:57:13.189Z</time></trkpt><trkpt lat="45.265085" lon="10.7282567"><ele>41.0</ele><time>2026-03-29T07:57:14.191Z</time></trkpt><trkpt lat="45.2649767" lon="10.728285"><ele>41.0</ele><time>2026-03-29T07:57:15.192Z</time></trkpt><trkpt lat="45.2648633" lon="10.7283167"><ele>41.0</ele><time>2026-03-29T07:57:16.189Z</time></trkpt><trkpt lat="45.2647481" lon="10.7283435"><ele>41.0</ele><time>2026-03-29T07:57:17.193Z</time></trkpt><trkpt lat="45.2646287" lon="10.72837"><ele>41.0</ele><time>2026-03-29T07:57:18.189Z</time></trkpt><trkpt lat="45.264504" lon="10.7283968"><ele>42.25</ele><time>2026-03-29T07:57:19.189Z</time></trkpt><trkpt lat="45.2643736" lon="10.7284214"><ele>43.5</ele><time>2026-03-29T07:57:20.19Z</time></trkpt><trkpt lat="45.2642401" lon="10.7284461"><ele>44.75</ele><time>2026-03-29T07:57:21.192Z</time></trkpt><trkpt lat="45.26411" lon="10.7284726"><ele>46.0</ele><time>2026-03-29T07:57:22.191Z</time></trkpt><trkpt lat="45.2639676" lon="10.7285095"><ele>45.66666666666667</ele><time>2026-03-29T07:57:23.191Z</time></trkpt><trkpt lat="45.2638126" lon="10.7285497"><ele>45.333333333333336</ele><time>2026-03-29T07:57:24.188Z</time></trkpt><trkpt lat="45.2636571" lon="10.7285836"><ele>45.0</ele><time>2026-03-29T07:57:25.189Z</time></trkpt><trkpt lat="45.2635126" lon="10.7286111"><ele>44.5</ele><time>2026-03-29T07:57:26.19Z</time></trkpt><trkpt lat="45.2633828" lon="10.7286358"><ele>44.0</ele><time>2026-03-29T07:57:27.189Z</time></trkpt><trkpt lat="45.2632617" lon="10.7286577"><ele>43.5</ele><time>2026-03-29T07:57:28.19Z</time></trkpt><trkpt lat="45.2631399" lon="10.7286839"><ele>43.0</ele><time>2026-03-29T07:57:29.189Z</time></trkpt><trkpt lat="45.2630153" lon="10.7287127"><ele>42.599999999999994</ele><time>2026-03-29T07:57:30.191Z</time></trkpt><trkpt lat="45.2628971" lon="10.7287399"><ele>42.199999999999996</ele><time>2026-03-29T07:57:31.189Z</time></trkpt><trkpt lat="45.2627868" lon="10.7287669"><ele>41.8</ele><time>2026-03-29T07:57:32.19Z</time></trkpt><trkpt lat="45.2626844" lon="10.7287936"><ele>41.4</ele><time>2026-03-29T07:57:33.189Z</time></trkpt><trkpt lat="45.2625898" lon="10.7288195"><ele>41.0</ele><time>2026-03-29T07:57:34.19Z</time></trkpt><trkpt lat="45.2624971" lon="10.7288406"><ele>41.0</ele><time>2026-03-29T07:57:35.189Z</time></trkpt><trkpt lat="45.2624003" lon="10.728859"><ele>41.0</ele><time>2026-03-29T07:57:36.19Z</time></trkpt><trkpt lat="45.2622945" lon="10.7288803"><ele>41.0</ele><time>2026-03-29T07:57:37.19Z</time></trkpt><trkpt lat="45.2621853" lon="10.7289033"><ele>41.0</ele><time>2026-03-29T07:57:38.189Z</time></trkpt><trkpt lat="45.2620831" lon="10.7289248"><ele>41.0</ele><time>2026-03-29T07:57:39.19Z</time></trkpt><trkpt lat="45.2619888" lon="10.7289453"><ele>40.75</ele><time>2026-03-29T07:57:40.191Z</time></trkpt><trkpt lat="45.2618964" lon="10.7289626"><ele>40.5</ele><time>2026-03-29T07:57:41.189Z</time></trkpt><trkpt lat="45.2617902" lon="10.7289809"><ele>40.25</ele><time>2026-03-29T07:57:42.189Z</time></trkpt><trkpt lat="45.2616637" lon="10.7290076"><ele>40.0</ele><time>2026-03-29T07:57:43.189Z</time></trkpt><trkpt lat="45.2615197" lon="10.729042"><ele>39.333333333333336</ele><time>2026-03-29T07:57:44.189Z</time></trkpt><trkpt lat="45.2613568" lon="10.7290784"><ele>38.666666666666664</ele><time>2026-03-29T07:57:45.189Z</time></trkpt><trkpt lat="45.2611902" lon="10.729114"><ele>38.0</ele><time>2026-03-29T07:57:46.19Z</time></trkpt><trkpt lat="45.2610309" lon="10.7291496"><ele>38.0</ele><time>2026-03-29T07:57:47.19Z</time></trkpt><trkpt lat="45.2608755" lon="10.7291848"><ele>38.0</ele><time>2026-03-29T07:57:48.19Z</time></trkpt><trkpt lat="45.260726" lon="10.729222"><ele>38.0</ele><time>2026-03-29T07:57:49.194Z</time></trkpt><trkpt lat="45.2605813" lon="10.7292547"><ele>38.25</ele><time>2026-03-29T07:57:50.19Z</time></trkpt><trkpt lat="45.2604432" lon="10.7292836"><ele>38.5</ele><time>2026-03-29T07:57:51.189Z</time></trkpt><trkpt lat="45.2603139" lon="10.7293095"><ele>38.75</ele><time>2026-03-29T07:57:52.19Z</time></trkpt><trkpt lat="45.2601931" lon="10.7293331"><ele>39.0</ele><time>2026-03-29T07:57:53.189Z</time></trkpt><trkpt lat="45.2600663" lon="10.7293602"><ele>39.0</ele><time>2026-03-29T07:57:54.189Z</time></trkpt><trkpt lat="45.2599419" lon="10.7293854"><ele>39.0</ele><time>2026-03-29T07:57:55.19Z</time></trkpt><trkpt lat="45.2598271" lon="10.7294077"><ele>39.0</ele><time>2026-03-29T07:57:56.19Z</time></trkpt><trkpt lat="45.2597136" lon="10.7294316"><ele>39.0</ele><time>2026-03-29T07:57:57.19Z</time></trkpt><trkpt lat="45.2595994" lon="10.7294581"><ele>39.0</ele><time>2026-03-29T07:57:58.19Z</time></trkpt><trkpt lat="45.2594837" lon="10.729488"><ele>39.0</ele><time>2026-03-29T07:57:59.189Z</time></trkpt><trkpt lat="45.2593662" lon="10.7295254"><ele>39.0</ele><time>2026-03-29T07:58:00.189Z</time></trkpt><trkpt lat="45.2592497" lon="10.7295702"><ele>39.0</ele><time>2026-03-29T07:58:01.19Z</time></trkpt><trkpt lat="45.2591451" lon="10.729625"><ele>39.0</ele><time>2026-03-29T07:58:02.19Z</time></trkpt><trkpt lat="45.2590454" lon="10.7296838"><ele>39.0</ele><time>2026-03-29T07:58:03.191Z</time></trkpt><trkpt lat="45.2589491" lon="10.7297459"><ele>39.0</ele><time>2026-03-29T07:58:04.189Z</time></trkpt><trkpt lat="45.2588672" lon="10.7298142"><ele>39.0</ele><time>2026-03-29T07:58:05.19Z</time></trkpt><trkpt lat="45.2587926" lon="10.7298963"><ele>39.0</ele><time>2026-03-29T07:58:06.189Z</time></trkpt><trkpt lat="45.25872" lon="10.7299867"><ele>39.0</ele><time>2026-03-29T07:58:07.192Z</time></trkpt><trkpt lat="45.2586511" lon="10.7300814"><ele>39.0</ele><time>2026-03-29T07:58:08.19Z</time></trkpt><trkpt lat="45.2585907" lon="10.7301713"><ele>39.0</ele><time>2026-03-29T07:58:09.189Z</time></trkpt><trkpt lat="45.258539" lon="10.7302528"><ele>39.0</ele><time>2026-03-29T07:58:10.189Z</time></trkpt><trkpt lat="45.258493" lon="10.7303258"><ele>39.0</ele><time>2026-03-29T07:58:11.191Z</time></trkpt><trkpt lat="45.2584283" lon="10.7304528"><ele>39.0</ele><time>2026-03-29T07:58:13.194Z</time></trkpt><trkpt lat="45.2583855" lon="10.730581"><ele>39.0</ele><time>2026-03-29T07:58:15.19Z</time></trkpt><trkpt lat="45.2583284" lon="10.7307201"><ele>39.0</ele><time>2026-03-29T07:58:17.191Z</time></trkpt><trkpt lat="45.2582573" lon="10.7308554"><ele>39.0</ele><time>2026-03-29T07:58:19.189Z</time></trkpt><trkpt lat="45.2582032" lon="10.7309805"><ele>39.0</ele><time>2026-03-29T07:58:21.19Z</time></trkpt><trkpt lat="45.2581616" lon="10.7311065"><ele>39.0</ele><time>2026-03-29T07:58:23.188Z</time></trkpt><trkpt lat="45.2581241" lon="10.7312646"><ele>39.0</ele><time>2026-03-29T07:58:25.189Z</time></trkpt><trkpt lat="45.2580917" lon="10.7314215"><ele>39.0</ele><time>2026-03-29T07:58:27.188Z</time></trkpt><trkpt lat="45.2580713" lon="10.7315819"><ele>39.0</ele><time>2026-03-29T07:58:29.19Z</time></trkpt><trkpt lat="45.2580622" lon="10.7317469"><ele>39.0</ele><time>2026-03-29T07:58:31.189Z</time></trkpt><trkpt lat="45.2580535" lon="10.7318381"><ele>39.0</ele><time>2026-03-29T07:58:32.189Z</time></trkpt><trkpt lat="45.2580395" lon="10.7319293"><ele>39.0</ele><time>2026-03-29T07:58:33.189Z</time></trkpt><trkpt lat="45.258015" lon="10.7320195"><ele>39.0</ele><time>2026-03-29T07:58:34.189Z</time></trkpt><trkpt lat="45.257981" lon="10.7321152"><ele>39.0</ele><time>2026-03-29T07:58:35.189Z</time></trkpt><trkpt lat="45.2579393" lon="10.7322138"><ele>39.0</ele><time>2026-03-29T07:58:36.188Z</time></trkpt><trkpt lat="45.2578932" lon="10.7323081"><ele>39.0</ele><time>2026-03-29T07:58:37.19Z</time></trkpt><trkpt lat="45.2578366" lon="10.7323979"><ele>39.0</ele><time>2026-03-29T07:58:38.189Z</time></trkpt><trkpt lat="45.2577652" lon="10.7324842"><ele>39.0</ele><time>2026-03-29T07:58:39.188Z</time></trkpt><trkpt lat="45.2576782" lon="10.7325614"><ele>39.0</ele><time>2026-03-29T07:58:40.19Z</time></trkpt><trkpt lat="45.2575871" lon="10.7326271"><ele>39.0</ele><time>2026-03-29T07:58:41.189Z</time></trkpt><trkpt lat="45.2574958" lon="10.732684"><ele>39.0</ele><time>2026-03-29T07:58:42.19Z</time></trkpt><trkpt lat="45.2573996" lon="10.7327307"><ele>39.0</ele><time>2026-03-29T07:58:43.189Z</time></trkpt><trkpt lat="45.2572953" lon="10.7327711"><ele>39.25</ele><time>2026-03-29T07:58:44.192Z</time></trkpt><trkpt lat="45.2571866" lon="10.7327931"><ele>39.5</ele><time>2026-03-29T07:58:45.19Z</time></trkpt><trkpt lat="45.2570672" lon="10.732808"><ele>39.75</ele><time>2026-03-29T07:58:46.189Z</time></trkpt><trkpt lat="45.2569476" lon="10.7328221"><ele>40.0</ele><time>2026-03-29T07:58:47.19Z</time></trkpt><trkpt lat="45.256836" lon="10.7328343"><ele>40.0</ele><time>2026-03-29T07:58:48.19Z</time></trkpt><trkpt lat="45.2567313" lon="10.7328388"><ele>40.0</ele><time>2026-03-29T07:58:49.189Z</time></trkpt><trkpt lat="45.2566324" lon="10.7328261"><ele>40.0</ele><time>2026-03-29T07:58:50.19Z</time></trkpt><trkpt lat="45.256534" lon="10.7328049"><ele>40.0</ele><time>2026-03-29T07:58:51.189Z</time></trkpt><trkpt lat="45.256439" lon="10.732785"><ele>40.0</ele><time>2026-03-29T07:58:52.189Z</time></trkpt><trkpt lat="45.2563439" lon="10.7327565"><ele>39.4</ele><time>2026-03-29T07:58:53.191Z</time></trkpt><trkpt lat="45.2562378" lon="10.7327191"><ele>38.8</ele><time>2026-03-29T07:58:54.189Z</time></trkpt><trkpt lat="45.2561376" lon="10.7326799"><ele>38.2</ele><time>2026-03-29T07:58:55.19Z</time></trkpt><trkpt lat="45.2560462" lon="10.732638"><ele>37.6</ele><time>2026-03-29T07:58:56.191Z</time></trkpt><trkpt lat="45.2559614" lon="10.732587"><ele>37.0</ele><time>2026-03-29T07:58:57.189Z</time></trkpt><trkpt lat="45.2558854" lon="10.7325371"><ele>37.0</ele><time>2026-03-29T07:58:58.191Z</time></trkpt><trkpt lat="45.2558133" lon="10.7324917"><ele>37.0</ele><time>2026-03-29T07:58:59.189Z</time></trkpt><trkpt lat="45.2557345" lon="10.7324501"><ele>37.0</ele><time>2026-03-29T07:59:00.188Z</time></trkpt><trkpt lat="45.2556596" lon="10.7324108"><ele>37.0</ele><time>2026-03-29T07:59:01.188Z</time></trkpt><trkpt lat="45.2555908" lon="10.7323774"><ele>37.0</ele><time>2026-03-29T07:59:02.189Z</time></trkpt><trkpt lat="45.2554825" lon="10.7323211"><ele>37.0</ele><time>2026-03-29T07:59:04.189Z</time></trkpt><trkpt lat="45.2554117" lon="10.73228"><ele>36.833333333333336</ele><time>2026-03-29T07:59:06.189Z</time></trkpt><trkpt lat="45.2553367" lon="10.732285"><ele>36.66666666666667</ele><time>2026-03-29T07:59:11.191Z</time></trkpt><trkpt lat="45.2553017" lon="10.73239"><ele>36.5</ele><time>2026-03-29T07:59:14.192Z</time></trkpt><trkpt lat="45.2552683" lon="10.73248"><ele>36.333333333333336</ele><time>2026-03-29T07:59:16.188Z</time></trkpt><trkpt lat="45.25526" lon="10.7325767"><ele>36.166666666666664</ele><time>2026-03-29T07:59:35.188Z</time></trkpt><trkpt lat="45.2552817" lon="10.732475"><ele>36.0</ele><time>2026-03-29T07:59:50.19Z</time></trkpt><trkpt lat="45.2553117" lon="10.7323483"><ele>36.0</ele><time>2026-03-29T07:59:52.189Z</time></trkpt><trkpt lat="45.2553033" lon="10.7322567"><ele>36.0</ele><time>2026-03-29T07:59:55.188Z</time></trkpt><trkpt lat="45.2552483" lon="10.7322067"><ele>36.0</ele><time>2026-03-29T07:59:57.189Z</time></trkpt><trkpt lat="45.2551233" lon="10.7321283"><ele>36.0</ele><time>2026-03-29T07:59:59.19Z</time></trkpt><trkpt lat="45.255035" lon="10.7320817"><ele>36.0</ele><time>2026-03-29T08:00:00.189Z</time></trkpt><trkpt lat="45.2549533" lon="10.7320417"><ele>36.0</ele><time>2026-03-29T08:00:01.19Z</time></trkpt><trkpt lat="45.2548833" lon="10.73201"><ele>35.8</ele><time>2026-03-29T08:00:02.191Z</time></trkpt><trkpt lat="45.254775" lon="10.7319483"><ele>35.6</ele><time>2026-03-29T08:00:04.19Z</time></trkpt><trkpt lat="45.2546917" lon="10.73189"><ele>35.4</ele><time>2026-03-29T08:00:06.189Z</time></trkpt><trkpt lat="45.254605" lon="10.731845"><ele>35.2</ele><time>2026-03-29T08:00:08.189Z</time></trkpt><trkpt lat="45.2545417" lon="10.7318367"><ele>35.0</ele><time>2026-03-29T08:00:11.188Z</time></trkpt><trkpt lat="45.2545083" lon="10.7319533"><ele>35.0</ele><time>2026-03-29T08:00:16.19Z</time></trkpt><trkpt lat="45.2545083" lon="10.7320733"><ele>35.0</ele><time>2026-03-29T08:00:17.189Z</time></trkpt><trkpt lat="45.2545033" lon="10.732215"><ele>35.0</ele><time>2026-03-29T08:00:18.188Z</time></trkpt><trkpt lat="45.254525" lon="10.73243"><ele>35.0</ele><time>2026-03-29T08:00:19.189Z</time></trkpt><trkpt lat="45.254555" lon="10.732655"><ele>34.75</ele><time>2026-03-29T08:00:20.189Z</time></trkpt><trkpt lat="45.2545833" lon="10.73286"><ele>34.5</ele><time>2026-03-29T08:00:21.19Z</time></trkpt><trkpt lat="45.2546083" lon="10.7330583"><ele>34.25</ele><time>2026-03-29T08:00:22.189Z</time></trkpt><trkpt lat="45.2546283" lon="10.7332567"><ele>34.0</ele><time>2026-03-29T08:00:23.188Z</time></trkpt><trkpt lat="45.2546517" lon="10.7334567"><ele>34.25</ele><time>2026-03-29T08:00:24.189Z</time></trkpt><trkpt lat="45.25467" lon="10.73365"><ele>34.5</ele><time>2026-03-29T08:00:25.188Z</time></trkpt><trkpt lat="45.2546867" lon="10.7338383"><ele>34.75</ele><time>2026-03-29T08:00:26.189Z</time></trkpt><trkpt lat="45.2547083" lon="10.7340217"><ele>35.0</ele><time>2026-03-29T08:00:27.188Z</time></trkpt><trkpt lat="45.2547267" lon="10.73421"><ele>34.75</ele><time>2026-03-29T08:00:28.19Z</time></trkpt><trkpt lat="45.2547433" lon="10.7343883"><ele>34.5</ele><time>2026-03-29T08:00:29.193Z</time></trkpt><trkpt lat="45.25476" lon="10.7345633"><ele>34.25</ele><time>2026-03-29T08:00:30.19Z</time></trkpt><trkpt lat="45.2547817" lon="10.73472"><ele>34.0</ele><time>2026-03-29T08:00:31.191Z</time></trkpt><trkpt lat="45.2548017" lon="10.7348467"><ele>34.5</ele><time>2026-03-29T08:00:32.191Z</time></trkpt><trkpt lat="45.2548183" lon="10.734945"><ele>35.0</ele><time>2026-03-29T08:00:33.19Z</time></trkpt><trkpt lat="45.2548417" lon="10.7350367"><ele>35.5</ele><time>2026-03-29T08:00:34.191Z</time></trkpt><trkpt lat="45.25487" lon="10.7351383"><ele>36.0</ele><time>2026-03-29T08:00:35.19Z</time></trkpt><trkpt lat="45.25491" lon="10.735265"><ele>36.5</ele><time>2026-03-29T08:00:36.19Z</time></trkpt><trkpt lat="45.2549567" lon="10.73542"><ele>37.0</ele><time>2026-03-29T08:00:37.191Z</time></trkpt><trkpt lat="45.2550017" lon="10.73557"><ele>37.6</ele><time>2026-03-29T08:00:38.19Z</time></trkpt><trkpt lat="45.2550433" lon="10.7357067"><ele>38.2</ele><time>2026-03-29T08:00:39.19Z</time></trkpt><trkpt lat="45.2550867" lon="10.7358367"><ele>38.8</ele><time>2026-03-29T08:00:40.19Z</time></trkpt><trkpt lat="45.255125" lon="10.7359533"><ele>39.4</ele><time>2026-03-29T08:00:41.19Z</time></trkpt><trkpt lat="45.2551583" lon="10.73606"><ele>40.0</ele><time>2026-03-29T08:00:42.192Z</time></trkpt><trkpt lat="45.2551967" lon="10.7361517"><ele>40.333333333333336</ele><time>2026-03-29T08:00:43.19Z</time></trkpt><trkpt lat="45.25523" lon="10.73623"><ele>40.66666666666667</ele><time>2026-03-29T08:00:44.189Z</time></trkpt><trkpt lat="45.2552783" lon="10.7363367"><ele>41.0</ele><time>2026-03-29T08:00:46.189Z</time></trkpt><trkpt lat="45.255315" lon="10.73642"><ele>41.333333333333336</ele><time>2026-03-29T08:00:49.189Z</time></trkpt><trkpt lat="45.2553967" lon="10.7364383"><ele>41.666666666666664</ele><time>2026-03-29T08:01:20.19Z</time></trkpt><trkpt lat="45.2554833" lon="10.7364383"><ele>42.0</ele><time>2026-03-29T08:01:22.188Z</time></trkpt><trkpt lat="45.2556033" lon="10.73654"><ele>42.0</ele><time>2026-03-29T08:01:24.189Z</time></trkpt><trkpt lat="45.255665" lon="10.7366383"><ele>42.0</ele><time>2026-03-29T08:01:25.189Z</time></trkpt><trkpt lat="45.2557117" lon="10.7367517"><ele>42.0</ele><time>2026-03-29T08:01:26.189Z</time></trkpt><trkpt lat="45.2557533" lon="10.7368717"><ele>42.0</ele><time>2026-03-29T08:01:27.188Z</time></trkpt><trkpt lat="45.2557933" lon="10.737"><ele>42.0</ele><time>2026-03-29T08:01:28.19Z</time></trkpt><trkpt lat="45.2558333" lon="10.7371317"><ele>42.0</ele><time>2026-03-29T08:01:29.189Z</time></trkpt><trkpt lat="45.255875" lon="10.7372717"><ele>42.0</ele><time>2026-03-29T08:01:30.191Z</time></trkpt><trkpt lat="45.255915" lon="10.737415"><ele>42.0</ele><time>2026-03-29T08:01:31.189Z</time></trkpt><trkpt lat="45.2559583" lon="10.73756"><ele>42.0</ele><time>2026-03-29T08:01:32.189Z</time></trkpt><trkpt lat="45.2560083" lon="10.7377217"><ele>41.5</ele><time>2026-03-29T08:01:33.188Z</time></trkpt><trkpt lat="45.2560633" lon="10.7378917"><ele>41.0</ele><time>2026-03-29T08:01:34.19Z</time></trkpt><trkpt lat="45.25612" lon="10.7380633"><ele>40.5</ele><time>2026-03-29T08:01:35.189Z</time></trkpt><trkpt lat="45.2561767" lon="10.738225"><ele>40.0</ele><time>2026-03-29T08:01:36.191Z</time></trkpt><trkpt lat="45.2562233" lon="10.7383717"><ele>40.0</ele><time>2026-03-29T08:01:37.19Z</time></trkpt><trkpt lat="45.25626" lon="10.738515"><ele>40.0</ele><time>2026-03-29T08:01:38.191Z</time></trkpt><trkpt lat="45.256285" lon="10.73867"><ele>40.0</ele><time>2026-03-29T08:01:39.192Z</time></trkpt><trkpt lat="45.2562933" lon="10.7388367"><ele>40.0</ele><time>2026-03-29T08:01:40.193Z</time></trkpt><trkpt lat="45.2562933" lon="10.7390017"><ele>39.8</ele><time>2026-03-29T08:01:41.19Z</time></trkpt><trkpt lat="45.2563017" lon="10.7391433"><ele>39.6</ele><time>2026-03-29T08:01:42.19Z</time></trkpt><trkpt lat="45.256335" lon="10.739275"><ele>39.4</ele><time>2026-03-29T08:01:43.189Z</time></trkpt><trkpt lat="45.2563917" lon="10.7393967"><ele>39.2</ele><time>2026-03-29T08:01:44.19Z</time></trkpt><trkpt lat="45.2564733" lon="10.7395233"><ele>39.0</ele><time>2026-03-29T08:01:45.189Z</time></trkpt><trkpt lat="45.2565717" lon="10.739675"><ele>39.0</ele><time>2026-03-29T08:01:46.19Z</time></trkpt><trkpt lat="45.2566683" lon="10.7398667"><ele>39.0</ele><time>2026-03-29T08:01:47.189Z</time></trkpt><trkpt lat="45.256755" lon="10.740085"><ele>39.0</ele><time>2026-03-29T08:01:48.189Z</time></trkpt><trkpt lat="45.2568317" lon="10.7403133"><ele>39.333333333333336</ele><time>2026-03-29T08:01:49.188Z</time></trkpt><trkpt lat="45.256905" lon="10.740545"><ele>39.66666666666667</ele><time>2026-03-29T08:01:50.19Z</time></trkpt><trkpt lat="45.2569783" lon="10.7407733"><ele>40.0</ele><time>2026-03-29T08:01:51.189Z</time></trkpt><trkpt lat="45.2570533" lon="10.741"><ele>39.333333333333336</ele><time>2026-03-29T08:01:52.189Z</time></trkpt><trkpt lat="45.2571267" lon="10.7412283"><ele>38.666666666666664</ele><time>2026-03-29T08:01:53.188Z</time></trkpt><trkpt lat="45.2572033" lon="10.7414667"><ele>38.0</ele><time>2026-03-29T08:01:54.189Z</time></trkpt><trkpt lat="45.2572833" lon="10.74172"><ele>38.33333333333333</ele><time>2026-03-29T08:01:55.19Z</time></trkpt><trkpt lat="45.2573667" lon="10.7419817"><ele>38.666666666666664</ele><time>2026-03-29T08:01:56.285Z</time></trkpt><trkpt lat="45.2574517" lon="10.7422533"><ele>39.0</ele><time>2026-03-29T08:01:57.189Z</time></trkpt><trkpt lat="45.2575367" lon="10.7425283"><ele>39.333333333333336</ele><time>2026-03-29T08:01:58.189Z</time></trkpt><trkpt lat="45.257625" lon="10.7428067"><ele>39.66666666666667</ele><time>2026-03-29T08:01:59.189Z</time></trkpt><trkpt lat="45.2577133" lon="10.743085"><ele>40.0</ele><time>2026-03-29T08:02:00.19Z</time></trkpt><trkpt lat="45.2578017" lon="10.743365"><ele>39.66666666666667</ele><time>2026-03-29T08:02:01.189Z</time></trkpt><trkpt lat="45.25789" lon="10.743645"><ele>39.333333333333336</ele><time>2026-03-29T08:02:02.19Z</time></trkpt><trkpt lat="45.25798" lon="10.74393"><ele>39.0</ele><time>2026-03-29T08:02:03.189Z</time></trkpt><trkpt lat="45.25807" lon="10.7442167"><ele>38.666666666666664</ele><time>2026-03-29T08:02:04.19Z</time></trkpt><trkpt lat="45.25816" lon="10.7445067"><ele>38.33333333333333</ele><time>2026-03-29T08:02:05.191Z</time></trkpt><trkpt lat="45.2582517" lon="10.7447967"><ele>38.0</ele><time>2026-03-29T08:02:06.192Z</time></trkpt><trkpt lat="45.2583433" lon="10.7450883"><ele>38.5</ele><time>2026-03-29T08:02:07.189Z</time></trkpt><trkpt lat="45.258435" lon="10.74538"><ele>39.0</ele><time>2026-03-29T08:02:08.194Z</time></trkpt><trkpt lat="45.25853" lon="10.74567"><ele>39.0</ele><time>2026-03-29T08:02:09.19Z</time></trkpt><trkpt lat="45.2586267" lon="10.7459617"><ele>39.0</ele><time>2026-03-29T08:02:10.189Z</time></trkpt><trkpt lat="45.2587217" lon="10.7462567"><ele>38.5</ele><time>2026-03-29T08:02:11.189Z</time></trkpt><trkpt lat="45.258815" lon="10.74655"><ele>38.0</ele><time>2026-03-29T08:02:12.189Z</time></trkpt><trkpt lat="45.2589083" lon="10.74685"><ele>39.5</ele><time>2026-03-29T08:02:13.19Z</time></trkpt><trkpt lat="45.2590017" lon="10.7471467"><ele>41.0</ele><time>2026-03-29T08:02:14.189Z</time></trkpt><trkpt lat="45.2590967" lon="10.747445"><ele>40.5</ele><time>2026-03-29T08:02:15.189Z</time></trkpt><trkpt lat="45.2591917" lon="10.747745"><ele>40.0</ele><time>2026-03-29T08:02:16.189Z</time></trkpt><trkpt lat="45.2592883" lon="10.7480467"><ele>40.0</ele><time>2026-03-29T08:02:17.189Z</time></trkpt><trkpt lat="45.2593867" lon="10.74835"><ele>40.0</ele><time>2026-03-29T08:02:18.19Z</time></trkpt><trkpt lat="45.2594867" lon="10.74866"><ele>39.0</ele><time>2026-03-29T08:02:19.191Z</time></trkpt><trkpt lat="45.259585" lon="10.7489733"><ele>38.0</ele><time>2026-03-29T08:02:20.19Z</time></trkpt><trkpt lat="45.2596833" lon="10.7492883"><ele>38.0</ele><time>2026-03-29T08:02:21.19Z</time></trkpt><trkpt lat="45.2597833" lon="10.74961"><ele>38.0</ele><time>2026-03-29T08:02:22.189Z</time></trkpt><trkpt lat="45.2598833" lon="10.74993"><ele>37.5</ele><time>2026-03-29T08:02:23.189Z</time></trkpt><trkpt lat="45.2599833" lon="10.7502467"><ele>37.0</ele><time>2026-03-29T08:02:24.19Z</time></trkpt><trkpt lat="45.2600783" lon="10.7505483"><ele>37.0</ele><time>2026-03-29T08:02:25.19Z</time></trkpt><trkpt lat="45.2601667" lon="10.7508333"><ele>37.0</ele><time>2026-03-29T08:02:26.188Z</time></trkpt><trkpt lat="45.2602517" lon="10.7511017"><ele>37.0</ele><time>2026-03-29T08:02:27.189Z</time></trkpt><trkpt lat="45.2603317" lon="10.7513533"><ele>37.333333333333336</ele><time>2026-03-29T08:02:28.189Z</time></trkpt><trkpt lat="45.2604083" lon="10.75159"><ele>37.666666666666664</ele><time>2026-03-29T08:02:29.189Z</time></trkpt><trkpt lat="45.26048" lon="10.75181"><ele>38.0</ele><time>2026-03-29T08:02:30.189Z</time></trkpt><trkpt lat="45.260545" lon="10.7520217"><ele>38.25</ele><time>2026-03-29T08:02:31.19Z</time></trkpt><trkpt lat="45.2606033" lon="10.7522117"><ele>38.5</ele><time>2026-03-29T08:02:32.189Z</time></trkpt><trkpt lat="45.260655" lon="10.752385"><ele>38.75</ele><time>2026-03-29T08:02:33.189Z</time></trkpt><trkpt lat="45.2606967" lon="10.7525383"><ele>39.0</ele><time>2026-03-29T08:02:34.19Z</time></trkpt><trkpt lat="45.2607217" lon="10.75267"><ele>39.0</ele><time>2026-03-29T08:02:35.19Z</time></trkpt><trkpt lat="45.260725" lon="10.752785"><ele>39.0</ele><time>2026-03-29T08:02:36.19Z</time></trkpt><trkpt lat="45.260705" lon="10.7529017"><ele>39.0</ele><time>2026-03-29T08:02:37.188Z</time></trkpt><trkpt lat="45.26066" lon="10.7530183"><ele>39.0</ele><time>2026-03-29T08:02:38.19Z</time></trkpt><trkpt lat="45.2605867" lon="10.7531117"><ele>39.0</ele><time>2026-03-29T08:02:39.194Z</time></trkpt><trkpt lat="45.2604767" lon="10.753175"><ele>39.0</ele><time>2026-03-29T08:02:40.189Z</time></trkpt><trkpt lat="45.2603417" lon="10.753215"><ele>39.0</ele><time>2026-03-29T08:02:41.19Z</time></trkpt><trkpt lat="45.2601717" lon="10.7532167"><ele>39.0</ele><time>2026-03-29T08:02:42.19Z</time></trkpt><trkpt lat="45.25996" lon="10.7532067"><ele>38.5</ele><time>2026-03-29T08:02:43.189Z</time></trkpt><trkpt lat="45.259725" lon="10.7531983"><ele>38.0</ele><time>2026-03-29T08:02:44.189Z</time></trkpt><trkpt lat="45.2594983" lon="10.75319"><ele>38.0</ele><time>2026-03-29T08:02:45.189Z</time></trkpt><trkpt lat="45.2592783" lon="10.7531817"><ele>38.0</ele><time>2026-03-29T08:02:46.19Z</time></trkpt><trkpt lat="45.2590517" lon="10.7531767"><ele>38.0</ele><time>2026-03-29T08:02:47.189Z</time></trkpt><trkpt lat="45.2588183" lon="10.7531717"><ele>38.0</ele><time>2026-03-29T08:02:48.189Z</time></trkpt><trkpt lat="45.2585817" lon="10.7531667"><ele>38.0</ele><time>2026-03-29T08:02:49.188Z</time></trkpt><trkpt lat="45.2583533" lon="10.75317"><ele>38.0</ele><time>2026-03-29T08:02:50.189Z</time></trkpt><trkpt lat="45.25811" lon="10.7531933"><ele>38.0</ele><time>2026-03-29T08:02:51.188Z</time></trkpt><trkpt lat="45.2578533" lon="10.753245"><ele>38.0</ele><time>2026-03-29T08:02:52.188Z</time></trkpt><trkpt lat="45.257585" lon="10.7533133"><ele>38.0</ele><time>2026-03-29T08:02:53.189Z</time></trkpt><trkpt lat="45.2573133" lon="10.753375"><ele>37.0</ele><time>2026-03-29T08:02:54.19Z</time></trkpt><trkpt lat="45.257045" lon="10.7534417"><ele>36.0</ele><time>2026-03-29T08:02:55.19Z</time></trkpt><trkpt lat="45.256785" lon="10.7535067"><ele>36.0</ele><time>2026-03-29T08:02:56.189Z</time></trkpt><trkpt lat="45.2565183" lon="10.753575"><ele>36.0</ele><time>2026-03-29T08:02:57.188Z</time></trkpt><trkpt lat="45.256255" lon="10.7536467"><ele>37.0</ele><time>2026-03-29T08:02:58.189Z</time></trkpt><trkpt lat="45.2559967" lon="10.7537133"><ele>38.0</ele><time>2026-03-29T08:02:59.189Z</time></trkpt><trkpt lat="45.255745" lon="10.75378"><ele>38.0</ele><time>2026-03-29T08:03:00.19Z</time></trkpt><trkpt lat="45.255505" lon="10.7538433"><ele>38.0</ele><time>2026-03-29T08:03:01.19Z</time></trkpt><trkpt lat="45.2552683" lon="10.7539083"><ele>38.0</ele><time>2026-03-29T08:03:02.189Z</time></trkpt><trkpt lat="45.2550333" lon="10.7539767"><ele>38.0</ele><time>2026-03-29T08:03:03.192Z</time></trkpt><trkpt lat="45.2548" lon="10.7540367"><ele>37.5</ele><time>2026-03-29T08:03:04.195Z</time></trkpt><trkpt lat="45.2545683" lon="10.754105"><ele>37.0</ele><time>2026-03-29T08:03:05.189Z</time></trkpt><trkpt lat="45.2543433" lon="10.75418"><ele>37.0</ele><time>2026-03-29T08:03:06.188Z</time></trkpt><trkpt lat="45.2541167" lon="10.754255"><ele>37.0</ele><time>2026-03-29T08:03:07.189Z</time></trkpt><trkpt lat="45.2538867" lon="10.7543333"><ele>36.5</ele><time>2026-03-29T08:03:08.189Z</time></trkpt><trkpt lat="45.253655" lon="10.7544183"><ele>36.0</ele><time>2026-03-29T08:03:09.189Z</time></trkpt><trkpt lat="45.253415" lon="10.75451"><ele>36.0</ele><time>2026-03-29T08:03:10.189Z</time></trkpt><trkpt lat="45.2531783" lon="10.7546167"><ele>36.0</ele><time>2026-03-29T08:03:11.19Z</time></trkpt><trkpt lat="45.2529383" lon="10.75473"><ele>36.5</ele><time>2026-03-29T08:03:12.189Z</time></trkpt><trkpt lat="45.2526967" lon="10.7548383"><ele>37.0</ele><time>2026-03-29T08:03:13.188Z</time></trkpt><trkpt lat="45.2524583" lon="10.7549383"><ele>37.0</ele><time>2026-03-29T08:03:14.19Z</time></trkpt><trkpt lat="45.252225" lon="10.755035"><ele>37.0</ele><time>2026-03-29T08:03:15.189Z</time></trkpt><trkpt lat="45.252" lon="10.755135"><ele>37.0</ele><time>2026-03-29T08:03:16.19Z</time></trkpt><trkpt lat="45.2517867" lon="10.7552333"><ele>37.0</ele><time>2026-03-29T08:03:17.189Z</time></trkpt><trkpt lat="45.2515767" lon="10.75533"><ele>37.0</ele><time>2026-03-29T08:03:18.19Z</time></trkpt><trkpt lat="45.2513683" lon="10.7554233"><ele>36.66666666666667</ele><time>2026-03-29T08:03:19.19Z</time></trkpt><trkpt lat="45.2511683" lon="10.7555067"><ele>36.333333333333336</ele><time>2026-03-29T08:03:20.19Z</time></trkpt><trkpt lat="45.2509733" lon="10.7555817"><ele>36.0</ele><time>2026-03-29T08:03:21.191Z</time></trkpt><trkpt lat="45.250775" lon="10.7556433"><ele>35.666666666666664</ele><time>2026-03-29T08:03:22.189Z</time></trkpt><trkpt lat="45.2505683" lon="10.7556917"><ele>35.33333333333333</ele><time>2026-03-29T08:03:23.189Z</time></trkpt><trkpt lat="45.2503517" lon="10.75573"><ele>35.0</ele><time>2026-03-29T08:03:24.189Z</time></trkpt><trkpt lat="45.250125" lon="10.7557533"><ele>35.0</ele><time>2026-03-29T08:03:25.191Z</time></trkpt><trkpt lat="45.249895" lon="10.7557667"><ele>35.0</ele><time>2026-03-29T08:03:26.191Z</time></trkpt><trkpt lat="45.2496667" lon="10.7557717"><ele>35.33333333333333</ele><time>2026-03-29T08:03:27.19Z</time></trkpt><trkpt lat="45.249445" lon="10.7557733"><ele>35.666666666666664</ele><time>2026-03-29T08:03:28.19Z</time></trkpt><trkpt lat="45.24923" lon="10.75578"><ele>36.0</ele><time>2026-03-29T08:03:29.189Z</time></trkpt><trkpt lat="45.249025" lon="10.7557817"><ele>36.0</ele><time>2026-03-29T08:03:30.188Z</time></trkpt><trkpt lat="45.2488267" lon="10.75578"><ele>36.0</ele><time>2026-03-29T08:03:31.19Z</time></trkpt><trkpt lat="45.2486317" lon="10.7557717"><ele>36.0</ele><time>2026-03-29T08:03:32.19Z</time></trkpt><trkpt lat="45.2484433" lon="10.75574"><ele>36.0</ele><time>2026-03-29T08:03:33.189Z</time></trkpt><trkpt lat="45.2482717" lon="10.755695"><ele>36.0</ele><time>2026-03-29T08:03:34.189Z</time></trkpt><trkpt lat="45.2481267" lon="10.7556467"><ele>36.0</ele><time>2026-03-29T08:03:35.19Z</time></trkpt><trkpt lat="45.2480033" lon="10.755605"><ele>35.833333333333336</ele><time>2026-03-29T08:03:36.189Z</time></trkpt><trkpt lat="45.2478967" lon="10.75557"><ele>35.666666666666664</ele><time>2026-03-29T08:03:37.189Z</time></trkpt><trkpt lat="45.2478067" lon="10.7555433"><ele>35.5</ele><time>2026-03-29T08:03:38.189Z</time></trkpt><trkpt lat="45.2477317" lon="10.75552"><ele>35.33333333333333</ele><time>2026-03-29T08:03:39.191Z</time></trkpt><trkpt lat="45.2476633" lon="10.7555067"><ele>35.166666666666664</ele><time>2026-03-29T08:03:40.19Z</time></trkpt><trkpt lat="45.2475967" lon="10.7555067"><ele>35.0</ele><time>2026-03-29T08:03:41.19Z</time></trkpt><trkpt lat="45.2475267" lon="10.7555183"><ele>35.0</ele><time>2026-03-29T08:03:42.189Z</time></trkpt><trkpt lat="45.2474567" lon="10.7555433"><ele>35.0</ele><time>2026-03-29T08:03:43.189Z</time></trkpt><trkpt lat="45.2473517" lon="10.7556067"><ele>35.0</ele><time>2026-03-29T08:03:45.188Z</time></trkpt><trkpt lat="45.2473083" lon="10.755705"><ele>35.0</ele><time>2026-03-29T08:03:48.189Z</time></trkpt><trkpt lat="45.2473233" lon="10.755795"><ele>35.0</ele><time>2026-03-29T08:03:50.188Z</time></trkpt><trkpt lat="45.2473433" lon="10.7559033"><ele>35.0</ele><time>2026-03-29T08:03:52.19Z</time></trkpt><trkpt lat="45.247335" lon="10.7560217"><ele>35.2</ele><time>2026-03-29T08:03:54.191Z</time></trkpt><trkpt lat="45.2473183" lon="10.7561167"><ele>35.4</ele><time>2026-03-29T08:03:56.189Z</time></trkpt><trkpt lat="45.2473167" lon="10.7562317"><ele>35.6</ele><time>2026-03-29T08:04:12.188Z</time></trkpt><trkpt lat="45.2473017" lon="10.7563633"><ele>35.8</ele><time>2026-03-29T08:04:13.19Z</time></trkpt><trkpt lat="45.24728" lon="10.7565333"><ele>36.0</ele><time>2026-03-29T08:04:14.19Z</time></trkpt><trkpt lat="45.247255" lon="10.7567283"><ele>36.5</ele><time>2026-03-29T08:04:15.189Z</time></trkpt><trkpt lat="45.24723" lon="10.7569283"><ele>37.0</ele><time>2026-03-29T08:04:16.189Z</time></trkpt><trkpt lat="45.2472017" lon="10.7571317"><ele>37.5</ele><time>2026-03-29T08:04:17.19Z</time></trkpt><trkpt lat="45.2471733" lon="10.7573383"><ele>38.0</ele><time>2026-03-29T08:04:18.188Z</time></trkpt><trkpt lat="45.2471433" lon="10.7575467"><ele>38.25</ele><time>2026-03-29T08:04:19.189Z</time></trkpt><trkpt lat="45.247115" lon="10.75775"><ele>38.5</ele><time>2026-03-29T08:04:20.19Z</time></trkpt><trkpt lat="45.24709" lon="10.7579517"><ele>38.75</ele><time>2026-03-29T08:04:21.19Z</time></trkpt><trkpt lat="45.247065" lon="10.7581517"><ele>39.0</ele><time>2026-03-29T08:04:22.19Z</time></trkpt><trkpt lat="45.2470433" lon="10.7583517"><ele>38.75</ele><time>2026-03-29T08:04:23.191Z</time></trkpt><trkpt lat="45.24702" lon="10.7585483"><ele>38.5</ele><time>2026-03-29T08:04:24.191Z</time></trkpt><trkpt lat="45.2469917" lon="10.7587433"><ele>38.25</ele><time>2026-03-29T08:04:25.19Z</time></trkpt><trkpt lat="45.2469633" lon="10.75894"><ele>38.0</ele><time>2026-03-29T08:04:26.19Z</time></trkpt><trkpt lat="45.2469367" lon="10.7591383"><ele>38.0</ele><time>2026-03-29T08:04:27.19Z</time></trkpt><trkpt lat="45.246905" lon="10.759335"><ele>38.0</ele><time>2026-03-29T08:04:28.191Z</time></trkpt><trkpt lat="45.2468783" lon="10.75953"><ele>38.0</ele><time>2026-03-29T08:04:29.191Z</time></trkpt><trkpt lat="45.2468517" lon="10.7597183"><ele>38.0</ele><time>2026-03-29T08:04:30.19Z</time></trkpt><trkpt lat="45.2468217" lon="10.7599067"><ele>38.0</ele><time>2026-03-29T08:04:31.191Z</time></trkpt><trkpt lat="45.24679" lon="10.7600967"><ele>38.0</ele><time>2026-03-29T08:04:32.19Z</time></trkpt><trkpt lat="45.2467617" lon="10.7602883"><ele>38.0</ele><time>2026-03-29T08:04:33.189Z</time></trkpt><trkpt lat="45.2467317" lon="10.760485"><ele>38.0</ele><time>2026-03-29T08:04:34.189Z</time></trkpt><trkpt lat="45.2467" lon="10.7606867"><ele>37.75</ele><time>2026-03-29T08:04:35.193Z</time></trkpt><trkpt lat="45.2466683" lon="10.7608883"><ele>37.5</ele><time>2026-03-29T08:04:36.189Z</time></trkpt><trkpt lat="45.2466383" lon="10.7610867"><ele>37.25</ele><time>2026-03-29T08:04:37.192Z</time></trkpt><trkpt lat="45.2466133" lon="10.7612767"><ele>37.0</ele><time>2026-03-29T08:04:38.192Z</time></trkpt><trkpt lat="45.24659" lon="10.76146"><ele>36.75</ele><time>2026-03-29T08:04:39.19Z</time></trkpt><trkpt lat="45.2465667" lon="10.7616367"><ele>36.5</ele><time>2026-03-29T08:04:40.19Z</time></trkpt><trkpt lat="45.24655" lon="10.7618067"><ele>36.25</ele><time>2026-03-29T08:04:41.191Z</time></trkpt><trkpt lat="45.24654" lon="10.7619717"><ele>36.0</ele><time>2026-03-29T08:04:42.19Z</time></trkpt><trkpt lat="45.2465383" lon="10.762125"><ele>36.0</ele><time>2026-03-29T08:04:43.19Z</time></trkpt><trkpt lat="45.246545" lon="10.7622517"><ele>36.0</ele><time>2026-03-29T08:04:44.191Z</time></trkpt><trkpt lat="45.2465633" lon="10.76238"><ele>36.0</ele><time>2026-03-29T08:04:45.19Z</time></trkpt><trkpt lat="45.24659" lon="10.76252"><ele>36.0</ele><time>2026-03-29T08:04:46.19Z</time></trkpt><trkpt lat="45.2466233" lon="10.762675"><ele>36.0</ele><time>2026-03-29T08:04:47.19Z</time></trkpt><trkpt lat="45.24666" lon="10.76283"><ele>36.2</ele><time>2026-03-29T08:04:48.189Z</time></trkpt><trkpt lat="45.246695" lon="10.7629817"><ele>36.400000000000006</ele><time>2026-03-29T08:04:49.19Z</time></trkpt><trkpt lat="45.24673" lon="10.7631333"><ele>36.6</ele><time>2026-03-29T08:04:50.192Z</time></trkpt><trkpt lat="45.24676" lon="10.7632783"><ele>36.800000000000004</ele><time>2026-03-29T08:04:51.192Z</time></trkpt><trkpt lat="45.246785" lon="10.7634233"><ele>37.0</ele><time>2026-03-29T08:04:52.191Z</time></trkpt><trkpt lat="45.2468017" lon="10.7635717"><ele>37.0</ele><time>2026-03-29T08:04:53.19Z</time></trkpt><trkpt lat="45.2468083" lon="10.7637317"><ele>37.0</ele><time>2026-03-29T08:04:54.191Z</time></trkpt><trkpt lat="45.24681" lon="10.763915"><ele>37.0</ele><time>2026-03-29T08:04:55.191Z</time></trkpt><trkpt lat="45.2468083" lon="10.7641167"><ele>37.0</ele><time>2026-03-29T08:04:56.191Z</time></trkpt><trkpt lat="45.2468033" lon="10.764325"><ele>36.75</ele><time>2026-03-29T08:04:57.192Z</time></trkpt><trkpt lat="45.2467917" lon="10.7645267"><ele>36.5</ele><time>2026-03-29T08:04:58.19Z</time></trkpt><trkpt lat="45.2467733" lon="10.7647317"><ele>36.25</ele><time>2026-03-29T08:04:59.19Z</time></trkpt><trkpt lat="45.2467467" lon="10.7649467"><ele>36.0</ele><time>2026-03-29T08:05:00.192Z</time></trkpt><trkpt lat="45.2467183" lon="10.7651667"><ele>36.333333333333336</ele><time>2026-03-29T08:05:01.19Z</time></trkpt><trkpt lat="45.24669" lon="10.7653917"><ele>36.66666666666667</ele><time>2026-03-29T08:05:02.19Z</time></trkpt><trkpt lat="45.2466617" lon="10.7656083"><ele>37.0</ele><time>2026-03-29T08:05:03.189Z</time></trkpt><trkpt lat="45.2466317" lon="10.7658017"><ele>37.0</ele><time>2026-03-29T08:05:04.189Z</time></trkpt><trkpt lat="45.2466067" lon="10.7659733"><ele>37.0</ele><time>2026-03-29T08:05:05.19Z</time></trkpt><trkpt lat="45.2465817" lon="10.7661333"><ele>37.0</ele><time>2026-03-29T08:05:06.189Z</time></trkpt><trkpt lat="45.2465583" lon="10.7662717"><ele>37.0</ele><time>2026-03-29T08:05:07.19Z</time></trkpt><trkpt lat="45.24654" lon="10.76639"><ele>37.0</ele><time>2026-03-29T08:05:08.19Z</time></trkpt><trkpt lat="45.246525" lon="10.7665"><ele>37.0</ele><time>2026-03-29T08:05:09.189Z</time></trkpt><trkpt lat="45.246515" lon="10.7666067"><ele>37.0</ele><time>2026-03-29T08:05:10.19Z</time></trkpt><trkpt lat="45.24651" lon="10.7667067"><ele>37.0</ele><time>2026-03-29T08:05:11.191Z</time></trkpt><trkpt lat="45.246515" lon="10.7667967"><ele>37.0</ele><time>2026-03-29T08:05:12.19Z</time></trkpt><trkpt lat="45.24656" lon="10.7669433"><ele>37.0</ele><time>2026-03-29T08:05:14.189Z</time></trkpt><trkpt lat="45.2466075" lon="10.7670033"><ele>37.0</ele><time>2026-03-29T08:05:15.191Z</time></trkpt><trkpt lat="45.2466748" lon="10.7670674"><ele>37.0</ele><time>2026-03-29T08:05:16.19Z</time></trkpt><trkpt lat="45.2467407" lon="10.7671263"><ele>37.0</ele><time>2026-03-29T08:05:17.19Z</time></trkpt><trkpt lat="45.2467945" lon="10.7671789"><ele>37.0</ele><time>2026-03-29T08:05:18.191Z</time></trkpt><trkpt lat="45.2468894" lon="10.7672736"><ele>37.0</ele><time>2026-03-29T08:05:20.191Z</time></trkpt><trkpt lat="45.2469974" lon="10.7673764"><ele>37.0</ele><time>2026-03-29T08:05:22.191Z</time></trkpt><trkpt lat="45.2470528" lon="10.7674273"><ele>37.0</ele><time>2026-03-29T08:05:23.19Z</time></trkpt><trkpt lat="45.2471068" lon="10.7674778"><ele>37.0</ele><time>2026-03-29T08:05:24.19Z</time></trkpt><trkpt lat="45.2471668" lon="10.7675355"><ele>37.0</ele><time>2026-03-29T08:05:25.191Z</time></trkpt><trkpt lat="45.2472357" lon="10.7676082"><ele>37.0</ele><time>2026-03-29T08:05:26.19Z</time></trkpt><trkpt lat="45.2473196" lon="10.7676965"><ele>37.0</ele><time>2026-03-29T08:05:27.19Z</time></trkpt><trkpt lat="45.2474087" lon="10.7677969"><ele>37.0</ele><time>2026-03-29T08:05:28.189Z</time></trkpt><trkpt lat="45.2475034" lon="10.7678985"><ele>37.0</ele><time>2026-03-29T08:05:29.19Z</time></trkpt><trkpt lat="45.2475982" lon="10.767998"><ele>37.0</ele><time>2026-03-29T08:05:30.19Z</time></trkpt><trkpt lat="45.2476902" lon="10.7680941"><ele>37.0</ele><time>2026-03-29T08:05:31.19Z</time></trkpt><trkpt lat="45.2477838" lon="10.7681901"><ele>37.0</ele><time>2026-03-29T08:05:32.191Z</time></trkpt><trkpt lat="45.2478745" lon="10.7682876"><ele>37.0</ele><time>2026-03-29T08:05:33.19Z</time></trkpt><trkpt lat="45.2479654" lon="10.7683838"><ele>37.0</ele><time>2026-03-29T08:05:34.191Z</time></trkpt><trkpt lat="45.2480596" lon="10.7684801"><ele>37.0</ele><time>2026-03-29T08:05:35.189Z</time></trkpt><trkpt lat="45.248153" lon="10.768579"><ele>37.0</ele><time>2026-03-29T08:05:36.19Z</time></trkpt><trkpt lat="45.2482473" lon="10.7686846"><ele>37.0</ele><time>2026-03-29T08:05:37.19Z</time></trkpt><trkpt lat="45.2483454" lon="10.768791"><ele>37.0</ele><time>2026-03-29T08:05:38.19Z</time></trkpt><trkpt lat="45.2484388" lon="10.7688931"><ele>37.0</ele><time>2026-03-29T08:05:39.189Z</time></trkpt><trkpt lat="45.2485385" lon="10.7689934"><ele>37.0</ele><time>2026-03-29T08:05:40.191Z</time></trkpt><trkpt lat="45.2486423" lon="10.7690921"><ele>37.0</ele><time>2026-03-29T08:05:41.19Z</time></trkpt><trkpt lat="45.2487423" lon="10.769192"><ele>37.0</ele><time>2026-03-29T08:05:42.19Z</time></trkpt><trkpt lat="45.2488393" lon="10.7692902"><ele>37.0</ele><time>2026-03-29T08:05:43.191Z</time></trkpt><trkpt lat="45.2489262" lon="10.7693803"><ele>37.0</ele><time>2026-03-29T08:05:44.19Z</time></trkpt><trkpt lat="45.2490084" lon="10.769468"><ele>36.75</ele><time>2026-03-29T08:05:45.191Z</time></trkpt><trkpt lat="45.2491032" lon="10.7695651"><ele>36.5</ele><time>2026-03-29T08:05:46.19Z</time></trkpt><trkpt lat="45.2492246" lon="10.769686"><ele>36.25</ele><time>2026-03-29T08:05:47.19Z</time></trkpt><trkpt lat="45.2493769" lon="10.7698321"><ele>36.0</ele><time>2026-03-29T08:05:48.191Z</time></trkpt><trkpt lat="45.2495379" lon="10.7699879"><ele>36.0</ele><time>2026-03-29T08:05:49.19Z</time></trkpt><trkpt lat="45.2496819" lon="10.7701265"><ele>36.0</ele><time>2026-03-29T08:05:50.191Z</time></trkpt><trkpt lat="45.2498083" lon="10.7702424"><ele>36.0</ele><time>2026-03-29T08:05:51.191Z</time></trkpt><trkpt lat="45.249929" lon="10.770343"><ele>36.0</ele><time>2026-03-29T08:05:52.19Z</time></trkpt><trkpt lat="45.2500536" lon="10.770429"><ele>36.0</ele><time>2026-03-29T08:05:53.191Z</time></trkpt><trkpt lat="45.2501899" lon="10.7704934"><ele>36.0</ele><time>2026-03-29T08:05:54.191Z</time></trkpt><trkpt lat="45.2503376" lon="10.770533"><ele>36.0</ele><time>2026-03-29T08:05:55.191Z</time></trkpt><trkpt lat="45.2504873" lon="10.7705479"><ele>35.75</ele><time>2026-03-29T08:05:56.189Z</time></trkpt><trkpt lat="45.2506255" lon="10.7705558"><ele>35.5</ele><time>2026-03-29T08:05:57.19Z</time></trkpt><trkpt lat="45.2507659" lon="10.7705679"><ele>35.25</ele><time>2026-03-29T08:05:58.189Z</time></trkpt><trkpt lat="45.250892" lon="10.7705765"><ele>35.0</ele><time>2026-03-29T08:05:59.189Z</time></trkpt><trkpt lat="45.2510006" lon="10.7705633"><ele>35.0</ele><time>2026-03-29T08:06:00.189Z</time></trkpt><trkpt lat="45.2510991" lon="10.7705299"><ele>35.0</ele><time>2026-03-29T08:06:01.19Z</time></trkpt><trkpt lat="45.2512064" lon="10.770483"><ele>35.0</ele><time>2026-03-29T08:06:02.19Z</time></trkpt><trkpt lat="45.2513415" lon="10.7704162"><ele>35.0</ele><time>2026-03-29T08:06:03.19Z</time></trkpt><trkpt lat="45.2514977" lon="10.7703377"><ele>35.25</ele><time>2026-03-29T08:06:04.19Z</time></trkpt><trkpt lat="45.2516484" lon="10.7702579"><ele>35.5</ele><time>2026-03-29T08:06:05.191Z</time></trkpt><trkpt lat="45.2517871" lon="10.7701867"><ele>35.75</ele><time>2026-03-29T08:06:06.191Z</time></trkpt><trkpt lat="45.2519144" lon="10.7701392"><ele>36.0</ele><time>2026-03-29T08:06:07.191Z</time></trkpt><trkpt lat="45.2520418" lon="10.7701257"><ele>35.75</ele><time>2026-03-29T08:06:08.191Z</time></trkpt><trkpt lat="45.2521757" lon="10.770143"><ele>35.5</ele><time>2026-03-29T08:06:09.192Z</time></trkpt><trkpt lat="45.2523073" lon="10.7701766"><ele>35.25</ele><time>2026-03-29T08:06:10.192Z</time></trkpt><trkpt lat="45.2524326" lon="10.770215"><ele>35.0</ele><time>2026-03-29T08:06:11.19Z</time></trkpt><trkpt lat="45.2525498" lon="10.7702485"><ele>35.0</ele><time>2026-03-29T08:06:12.189Z</time></trkpt><trkpt lat="45.2526574" lon="10.7702835"><ele>35.0</ele><time>2026-03-29T08:06:13.191Z</time></trkpt><trkpt lat="45.2527592" lon="10.7703298"><ele>35.0</ele><time>2026-03-29T08:06:14.191Z</time></trkpt><trkpt lat="45.2528676" lon="10.7703977"><ele>35.0</ele><time>2026-03-29T08:06:15.19Z</time></trkpt><trkpt lat="45.2529823" lon="10.7704912"><ele>35.0</ele><time>2026-03-29T08:06:16.189Z</time></trkpt><trkpt lat="45.2530926" lon="10.7705933"><ele>35.0</ele><time>2026-03-29T08:06:17.188Z</time></trkpt><trkpt lat="45.253184" lon="10.7706663"><ele>35.0</ele><time>2026-03-29T08:06:18.189Z</time></trkpt><trkpt lat="45.2532719" lon="10.7707304"><ele>35.0</ele><time>2026-03-29T08:06:19.19Z</time></trkpt><trkpt lat="45.2533399" lon="10.7707762"><ele>35.0</ele><time>2026-03-29T08:06:20.189Z</time></trkpt><trkpt lat="45.2534446" lon="10.770855"><ele>35.2</ele><time>2026-03-29T08:06:22.189Z</time></trkpt><trkpt lat="45.2535189" lon="10.7709728"><ele>35.4</ele><time>2026-03-29T08:06:24.189Z</time></trkpt><trkpt lat="45.2535844" lon="10.7711296"><ele>35.6</ele><time>2026-03-29T08:06:26.192Z</time></trkpt><trkpt lat="45.25363" lon="10.7712422"><ele>35.8</ele><time>2026-03-29T08:06:27.189Z</time></trkpt><trkpt lat="45.2536897" lon="10.7713838"><ele>36.0</ele><time>2026-03-29T08:06:28.191Z</time></trkpt><trkpt lat="45.2537566" lon="10.7715346"><ele>36.0</ele><time>2026-03-29T08:06:29.192Z</time></trkpt><trkpt lat="45.2538194" lon="10.7716811"><ele>36.0</ele><time>2026-03-29T08:06:30.191Z</time></trkpt><trkpt lat="45.2538788" lon="10.7718162"><ele>36.0</ele><time>2026-03-29T08:06:31.191Z</time></trkpt><trkpt lat="45.2539386" lon="10.7719485"><ele>36.0</ele><time>2026-03-29T08:06:32.191Z</time></trkpt><trkpt lat="45.253996" lon="10.7720806"><ele>35.8</ele><time>2026-03-29T08:06:33.19Z</time></trkpt><trkpt lat="45.2540538" lon="10.772214"><ele>35.6</ele><time>2026-03-29T08:06:34.19Z</time></trkpt><trkpt lat="45.2541055" lon="10.7723435"><ele>35.4</ele><time>2026-03-29T08:06:35.191Z</time></trkpt><trkpt lat="45.2541525" lon="10.7724691"><ele>35.2</ele><time>2026-03-29T08:06:36.19Z</time></trkpt><trkpt lat="45.2541999" lon="10.7725968"><ele>35.0</ele><time>2026-03-29T08:06:37.192Z</time></trkpt><trkpt lat="45.2542502" lon="10.7727271"><ele>34.8</ele><time>2026-03-29T08:06:38.192Z</time></trkpt><trkpt lat="45.2542985" lon="10.7728473"><ele>34.6</ele><time>2026-03-29T08:06:39.189Z</time></trkpt><trkpt lat="45.2543583" lon="10.7729933"><ele>34.4</ele><time>2026-03-29T08:06:40.191Z</time></trkpt><trkpt lat="45.2544173" lon="10.7731388"><ele>34.2</ele><time>2026-03-29T08:06:41.19Z</time></trkpt><trkpt lat="45.2544709" lon="10.7732792"><ele>34.0</ele><time>2026-03-29T08:06:42.19Z</time></trkpt><trkpt lat="45.2545255" lon="10.7734159"><ele>34.0</ele><time>2026-03-29T08:06:43.19Z</time></trkpt><trkpt lat="45.2545785" lon="10.773541"><ele>34.0</ele><time>2026-03-29T08:06:44.19Z</time></trkpt><trkpt lat="45.2546248" lon="10.7736544"><ele>34.0</ele><time>2026-03-29T08:06:45.189Z</time></trkpt><trkpt lat="45.2546657" lon="10.773752"><ele>34.0</ele><time>2026-03-29T08:06:46.189Z</time></trkpt><trkpt lat="45.2547024" lon="10.7738309"><ele>34.0</ele><time>2026-03-29T08:06:47.189Z</time></trkpt><trkpt lat="45.2547393" lon="10.7739128"><ele>34.0</ele><time>2026-03-29T08:06:48.189Z</time></trkpt><trkpt lat="45.2547757" lon="10.7740033"><ele>34.0</ele><time>2026-03-29T08:06:49.189Z</time></trkpt><trkpt lat="45.2548152" lon="10.7741074"><ele>34.0</ele><time>2026-03-29T08:06:50.19Z</time></trkpt><trkpt lat="45.2548604" lon="10.7742204"><ele>34.0</ele><time>2026-03-29T08:06:51.19Z</time></trkpt><trkpt lat="45.2549079" lon="10.7743384"><ele>34.0</ele><time>2026-03-29T08:06:52.189Z</time></trkpt><trkpt lat="45.2549552" lon="10.7744515"><ele>34.0</ele><time>2026-03-29T08:06:53.191Z</time></trkpt><trkpt lat="45.2549983" lon="10.7745611"><ele>34.0</ele><time>2026-03-29T08:06:54.189Z</time></trkpt><trkpt lat="45.255043" lon="10.7746769"><ele>34.0</ele><time>2026-03-29T08:06:55.192Z</time></trkpt><trkpt lat="45.2550932" lon="10.7747972"><ele>34.0</ele><time>2026-03-29T08:06:56.19Z</time></trkpt><trkpt lat="45.2551417" lon="10.7749086"><ele>34.0</ele><time>2026-03-29T08:06:57.189Z</time></trkpt><trkpt lat="45.2551816" lon="10.7749964"><ele>34.0</ele><time>2026-03-29T08:06:58.191Z</time></trkpt><trkpt lat="45.2552246" lon="10.7750969"><ele>34.0</ele><time>2026-03-29T08:07:00.19Z</time></trkpt><trkpt lat="45.2552659" lon="10.7752314"><ele>34.0</ele><time>2026-03-29T08:07:12.19Z</time></trkpt><trkpt lat="45.2553053" lon="10.7753182"><ele>34.0</ele><time>2026-03-29T08:07:13.191Z</time></trkpt><trkpt lat="45.2553507" lon="10.7754239"><ele>34.0</ele><time>2026-03-29T08:07:14.192Z</time></trkpt><trkpt lat="45.255398" lon="10.7755325"><ele>34.0</ele><time>2026-03-29T08:07:15.189Z</time></trkpt><trkpt lat="45.2554425" lon="10.7756324"><ele>34.0</ele><time>2026-03-29T08:07:16.189Z</time></trkpt><trkpt lat="45.2554782" lon="10.7757215"><ele>34.0</ele><time>2026-03-29T08:07:17.189Z</time></trkpt><trkpt lat="45.2555072" lon="10.775802"><ele>34.0</ele><time>2026-03-29T08:07:18.189Z</time></trkpt><trkpt lat="45.2555389" lon="10.7758882"><ele>34.0</ele><time>2026-03-29T08:07:19.19Z</time></trkpt><trkpt lat="45.2555811" lon="10.7759904"><ele>34.0</ele><time>2026-03-29T08:07:20.19Z</time></trkpt><trkpt lat="45.2556318" lon="10.776112"><ele>34.0</ele><time>2026-03-29T08:07:21.189Z</time></trkpt><trkpt lat="45.2556856" lon="10.7762444"><ele>34.0</ele><time>2026-03-29T08:07:22.19Z</time></trkpt><trkpt lat="45.2557355" lon="10.776368"><ele>34.4</ele><time>2026-03-29T08:07:23.191Z</time></trkpt><trkpt lat="45.2557784" lon="10.7764732"><ele>34.8</ele><time>2026-03-29T08:07:24.191Z</time></trkpt><trkpt lat="45.2558143" lon="10.776559"><ele>35.2</ele><time>2026-03-29T08:07:25.19Z</time></trkpt><trkpt lat="45.2558632" lon="10.7766777"><ele>35.6</ele><time>2026-03-29T08:07:27.189Z</time></trkpt><trkpt lat="45.2559072" lon="10.7768535"><ele>36.0</ele><time>2026-03-29T08:11:20.189Z</time></trkpt><trkpt lat="45.2559515" lon="10.7769768"><ele>36.0</ele><time>2026-03-29T08:11:21.189Z</time></trkpt><trkpt lat="45.2559953" lon="10.7771037"><ele>36.0</ele><time>2026-03-29T08:11:22.189Z</time></trkpt><trkpt lat="45.2560359" lon="10.7772264"><ele>36.0</ele><time>2026-03-29T08:11:23.191Z</time></trkpt><trkpt lat="45.2560735" lon="10.7773463"><ele>36.0</ele><time>2026-03-29T08:11:24.191Z</time></trkpt><trkpt lat="45.2561102" lon="10.777475"><ele>36.0</ele><time>2026-03-29T08:11:25.19Z</time></trkpt><trkpt lat="45.2561442" lon="10.7776014"><ele>35.833333333333336</ele><time>2026-03-29T08:11:26.191Z</time></trkpt><trkpt lat="45.2561758" lon="10.7777165"><ele>35.666666666666664</ele><time>2026-03-29T08:11:27.189Z</time></trkpt><trkpt lat="45.2562043" lon="10.7778202"><ele>35.5</ele><time>2026-03-29T08:11:28.189Z</time></trkpt><trkpt lat="45.2562309" lon="10.7779147"><ele>35.33333333333333</ele><time>2026-03-29T08:11:29.19Z</time></trkpt><trkpt lat="45.2562585" lon="10.7780126"><ele>35.166666666666664</ele><time>2026-03-29T08:11:30.189Z</time></trkpt><trkpt lat="45.2562869" lon="10.7781156"><ele>35.0</ele><time>2026-03-29T08:11:31.191Z</time></trkpt><trkpt lat="45.2563154" lon="10.7782227"><ele>35.0</ele><time>2026-03-29T08:11:32.19Z</time></trkpt><trkpt lat="45.2563501" lon="10.7783397"><ele>35.0</ele><time>2026-03-29T08:11:33.189Z</time></trkpt><trkpt lat="45.2563901" lon="10.7784762"><ele>35.0</ele><time>2026-03-29T08:11:34.19Z</time></trkpt><trkpt lat="45.2564298" lon="10.7786133"><ele>35.0</ele><time>2026-03-29T08:11:35.19Z</time></trkpt><trkpt lat="45.2564685" lon="10.7787519"><ele>35.0</ele><time>2026-03-29T08:11:36.189Z</time></trkpt><trkpt lat="45.2565046" lon="10.7788856"><ele>35.0</ele><time>2026-03-29T08:11:37.189Z</time></trkpt><trkpt lat="45.2565444" lon="10.7790188"><ele>35.0</ele><time>2026-03-29T08:11:38.19Z</time></trkpt><trkpt lat="45.2565802" lon="10.7791469"><ele>35.0</ele><time>2026-03-29T08:11:39.189Z</time></trkpt><trkpt lat="45.2566165" lon="10.7792647"><ele>35.0</ele><time>2026-03-29T08:11:40.192Z</time></trkpt><trkpt lat="45.2566452" lon="10.7793659"><ele>35.0</ele><time>2026-03-29T08:11:41.194Z</time></trkpt><trkpt lat="45.2566688" lon="10.779452"><ele>35.0</ele><time>2026-03-29T08:11:42.189Z</time></trkpt><trkpt lat="45.2566998" lon="10.7796054"><ele>35.0</ele><time>2026-03-29T08:11:44.189Z</time></trkpt><trkpt lat="45.2567178" lon="10.7797368"><ele>35.0</ele><time>2026-03-29T08:11:46.189Z</time></trkpt><trkpt lat="45.2567101" lon="10.7798565"><ele>35.0</ele><time>2026-03-29T08:11:49.19Z</time></trkpt><trkpt lat="45.2566571" lon="10.7799866"><ele>35.0</ele><time>2026-03-29T08:11:51.191Z</time></trkpt><trkpt lat="45.2565734" lon="10.7801363"><ele>35.0</ele><time>2026-03-29T08:11:52.19Z</time></trkpt><trkpt lat="45.2564697" lon="10.7803335"><ele>34.666666666666664</ele><time>2026-03-29T08:11:53.19Z</time></trkpt><trkpt lat="45.2563682" lon="10.7805511"><ele>34.333333333333336</ele><time>2026-03-29T08:11:54.189Z</time></trkpt><trkpt lat="45.2562679" lon="10.7807891"><ele>34.0</ele><time>2026-03-29T08:11:55.189Z</time></trkpt><trkpt lat="45.2561716" lon="10.781033"><ele>34.0</ele><time>2026-03-29T08:11:56.19Z</time></trkpt><trkpt lat="45.256079" lon="10.7812723"><ele>34.0</ele><time>2026-03-29T08:11:57.189Z</time></trkpt><trkpt lat="45.2559923" lon="10.781504"><ele>34.0</ele><time>2026-03-29T08:11:58.19Z</time></trkpt><trkpt lat="45.2559058" lon="10.7817341"><ele>34.0</ele><time>2026-03-29T08:11:59.19Z</time></trkpt><trkpt lat="45.2558151" lon="10.7819788"><ele>34.0</ele><time>2026-03-29T08:12:00.191Z</time></trkpt><trkpt lat="45.25572" lon="10.7822395"><ele>34.0</ele><time>2026-03-29T08:12:01.191Z</time></trkpt><trkpt lat="45.2556256" lon="10.7824999"><ele>33.333333333333336</ele><time>2026-03-29T08:12:02.191Z</time></trkpt><trkpt lat="45.2555336" lon="10.7827464"><ele>32.666666666666664</ele><time>2026-03-29T08:12:03.192Z</time></trkpt><trkpt lat="45.2554451" lon="10.7829836"><ele>32.0</ele><time>2026-03-29T08:12:04.19Z</time></trkpt><trkpt lat="45.25536" lon="10.7832196"><ele>32.0</ele><time>2026-03-29T08:12:05.19Z</time></trkpt><trkpt lat="45.2552769" lon="10.7834559"><ele>32.0</ele><time>2026-03-29T08:12:06.19Z</time></trkpt><trkpt lat="45.2551967" lon="10.7836885"><ele>32.0</ele><time>2026-03-29T08:12:07.194Z</time></trkpt><trkpt lat="45.2551246" lon="10.7839125"><ele>32.666666666666664</ele><time>2026-03-29T08:12:08.19Z</time></trkpt><trkpt lat="45.2550618" lon="10.784125"><ele>33.333333333333336</ele><time>2026-03-29T08:12:09.19Z</time></trkpt><trkpt lat="45.2550066" lon="10.784324"><ele>34.0</ele><time>2026-03-29T08:12:10.19Z</time></trkpt><trkpt lat="45.2549583" lon="10.7845094"><ele>34.0</ele><time>2026-03-29T08:12:11.189Z</time></trkpt><trkpt lat="45.254917" lon="10.7846785"><ele>34.0</ele><time>2026-03-29T08:12:12.19Z</time></trkpt><trkpt lat="45.2548835" lon="10.7848292"><ele>34.0</ele><time>2026-03-29T08:12:13.19Z</time></trkpt><trkpt lat="45.2548643" lon="10.7849536"><ele>34.0</ele><time>2026-03-29T08:12:14.19Z</time></trkpt><trkpt lat="45.2548593" lon="10.7850564"><ele>34.0</ele><time>2026-03-29T08:12:15.19Z</time></trkpt><trkpt lat="45.2548645" lon="10.7852186"><ele>34.16666666666667</ele><time>2026-03-29T08:12:17.189Z</time></trkpt><trkpt lat="45.2548693" lon="10.7853241"><ele>34.333333333333336</ele><time>2026-03-29T08:12:18.19Z</time></trkpt><trkpt lat="45.2548731" lon="10.785451"><ele>34.5</ele><time>2026-03-29T08:12:19.195Z</time></trkpt><trkpt lat="45.2548738" lon="10.7855746"><ele>34.666666666666664</ele><time>2026-03-29T08:12:20.19Z</time></trkpt><trkpt lat="45.2548738" lon="10.785683"><ele>34.83333333333333</ele><time>2026-03-29T08:12:21.19Z</time></trkpt><trkpt lat="45.2548705" lon="10.7857858"><ele>35.0</ele><time>2026-03-29T08:12:22.189Z</time></trkpt><trkpt lat="45.2548638" lon="10.785896"><ele>35.0</ele><time>2026-03-29T08:12:23.191Z</time></trkpt><trkpt lat="45.2548553" lon="10.7860119"><ele>35.0</ele><time>2026-03-29T08:12:24.19Z</time></trkpt><trkpt lat="45.2548498" lon="10.7861271"><ele>35.0</ele><time>2026-03-29T08:12:25.189Z</time></trkpt><trkpt lat="45.2548434" lon="10.786254"><ele>35.0</ele><time>2026-03-29T08:12:26.189Z</time></trkpt><trkpt lat="45.2548337" lon="10.7863802"><ele>35.0</ele><time>2026-03-29T08:12:27.188Z</time></trkpt><trkpt lat="45.2548177" lon="10.7865066"><ele>35.0</ele><time>2026-03-29T08:12:28.189Z</time></trkpt><trkpt lat="45.2548017" lon="10.7866409"><ele>34.666666666666664</ele><time>2026-03-29T08:12:29.189Z</time></trkpt><trkpt lat="45.2547838" lon="10.7867695"><ele>34.33333333333333</ele><time>2026-03-29T08:12:30.19Z</time></trkpt><trkpt lat="45.2547663" lon="10.7868761"><ele>34.0</ele><time>2026-03-29T08:12:31.19Z</time></trkpt><trkpt lat="45.2547411" lon="10.7870249"><ele>33.666666666666664</ele><time>2026-03-29T08:12:33.189Z</time></trkpt><trkpt lat="45.2547233" lon="10.7871217"><ele>33.333333333333336</ele><time>2026-03-29T08:12:36.189Z</time></trkpt><trkpt lat="45.2546936" lon="10.7872463"><ele>33.0</ele><time>2026-03-29T08:12:41.189Z</time></trkpt><trkpt lat="45.2546667" lon="10.7873961"><ele>33.0</ele><time>2026-03-29T08:12:43.19Z</time></trkpt><trkpt lat="45.254633" lon="10.7875353"><ele>33.0</ele><time>2026-03-29T08:12:45.19Z</time></trkpt><trkpt lat="45.2545963" lon="10.7876827"><ele>33.0</ele><time>2026-03-29T08:12:47.19Z</time></trkpt><trkpt lat="45.254566" lon="10.787789"><ele>33.0</ele><time>2026-03-29T08:12:48.189Z</time></trkpt><trkpt lat="45.2545252" lon="10.7879208"><ele>33.0</ele><time>2026-03-29T08:12:49.19Z</time></trkpt><trkpt lat="45.2544793" lon="10.7880657"><ele>33.0</ele><time>2026-03-29T08:12:50.191Z</time></trkpt><trkpt lat="45.254432" lon="10.7882087"><ele>33.0</ele><time>2026-03-29T08:12:51.189Z</time></trkpt><trkpt lat="45.2543876" lon="10.7883463"><ele>33.0</ele><time>2026-03-29T08:12:52.189Z</time></trkpt><trkpt lat="45.2543386" lon="10.7884922"><ele>33.0</ele><time>2026-03-29T08:12:53.191Z</time></trkpt><trkpt lat="45.2542854" lon="10.7886451"><ele>32.75</ele><time>2026-03-29T08:12:54.19Z</time></trkpt><trkpt lat="45.2542299" lon="10.7888036"><ele>32.5</ele><time>2026-03-29T08:12:55.19Z</time></trkpt><trkpt lat="45.2541715" lon="10.7889742"><ele>32.25</ele><time>2026-03-29T08:12:56.19Z</time></trkpt><trkpt lat="45.2541087" lon="10.789154"><ele>32.0</ele><time>2026-03-29T08:12:57.189Z</time></trkpt><trkpt lat="45.2540479" lon="10.7893282"><ele>32.4</ele><time>2026-03-29T08:12:58.191Z</time></trkpt><trkpt lat="45.2539933" lon="10.7894876"><ele>32.800000000000004</ele><time>2026-03-29T08:12:59.19Z</time></trkpt><trkpt lat="45.253943" lon="10.7896282"><ele>33.2</ele><time>2026-03-29T08:13:00.191Z</time></trkpt><trkpt lat="45.2538977" lon="10.7897514"><ele>33.6</ele><time>2026-03-29T08:13:01.19Z</time></trkpt><trkpt lat="45.2538574" lon="10.7898714"><ele>34.0</ele><time>2026-03-29T08:13:02.192Z</time></trkpt><trkpt lat="45.253818" lon="10.7899979"><ele>34.0</ele><time>2026-03-29T08:13:03.191Z</time></trkpt><trkpt lat="45.2537758" lon="10.7901374"><ele>34.0</ele><time>2026-03-29T08:13:04.19Z</time></trkpt><trkpt lat="45.2537295" lon="10.7902934"><ele>34.0</ele><time>2026-03-29T08:13:05.191Z</time></trkpt><trkpt lat="45.2536808" lon="10.790457"><ele>34.0</ele><time>2026-03-29T08:13:06.191Z</time></trkpt><trkpt lat="45.2536282" lon="10.7906211"><ele>34.0</ele><time>2026-03-29T08:13:07.19Z</time></trkpt><trkpt lat="45.2535757" lon="10.7907795"><ele>34.0</ele><time>2026-03-29T08:13:08.193Z</time></trkpt><trkpt lat="45.2535253" lon="10.7909303"><ele>34.0</ele><time>2026-03-29T08:13:09.189Z</time></trkpt><trkpt lat="45.253481" lon="10.7910617"><ele>34.0</ele><time>2026-03-29T08:13:10.189Z</time></trkpt><trkpt lat="45.2534422" lon="10.7911688"><ele>34.0</ele><time>2026-03-29T08:13:11.19Z</time></trkpt><trkpt lat="45.2534126" lon="10.7912501"><ele>34.0</ele><time>2026-03-29T08:13:12.189Z</time></trkpt><trkpt lat="45.2533764" lon="10.7913526"><ele>34.0</ele><time>2026-03-29T08:13:14.192Z</time></trkpt><trkpt lat="45.253305" lon="10.7914985"><ele>34.0</ele><time>2026-03-29T08:13:22.19Z</time></trkpt><trkpt lat="45.2532509" lon="10.791648"><ele>34.0</ele><time>2026-03-29T08:13:23.19Z</time></trkpt><trkpt lat="45.253192" lon="10.7918517"><ele>34.0</ele><time>2026-03-29T08:13:24.189Z</time></trkpt><trkpt lat="45.2531324" lon="10.7920986"><ele>34.0</ele><time>2026-03-29T08:13:25.189Z</time></trkpt><trkpt lat="45.2530708" lon="10.7923642"><ele>34.0</ele><time>2026-03-29T08:13:26.19Z</time></trkpt><trkpt lat="45.2530093" lon="10.7926392"><ele>34.0</ele><time>2026-03-29T08:13:27.189Z</time></trkpt><trkpt lat="45.2529486" lon="10.7929394"><ele>34.0</ele><time>2026-03-29T08:13:28.189Z</time></trkpt><trkpt lat="45.2528877" lon="10.7932695"><ele>33.5</ele><time>2026-03-29T08:13:29.189Z</time></trkpt><trkpt lat="45.2528297" lon="10.7936049"><ele>33.0</ele><time>2026-03-29T08:13:30.189Z</time></trkpt><trkpt lat="45.2527769" lon="10.7939185"><ele>33.0</ele><time>2026-03-29T08:13:31.189Z</time></trkpt><trkpt lat="45.2527296" lon="10.7942077"><ele>33.0</ele><time>2026-03-29T08:13:32.189Z</time></trkpt><trkpt lat="45.252687" lon="10.7944728"><ele>33.0</ele><time>2026-03-29T08:13:33.19Z</time></trkpt><trkpt lat="45.2526476" lon="10.7947075"><ele>33.0</ele><time>2026-03-29T08:13:34.19Z</time></trkpt><trkpt lat="45.2526135" lon="10.7949184"><ele>33.0</ele><time>2026-03-29T08:13:35.189Z</time></trkpt><trkpt lat="45.2525845" lon="10.7951075"><ele>33.0</ele><time>2026-03-29T08:13:36.189Z</time></trkpt><trkpt lat="45.2525605" lon="10.7952722"><ele>33.0</ele><time>2026-03-29T08:13:37.19Z</time></trkpt><trkpt lat="45.2525398" lon="10.7954189"><ele>32.833333333333336</ele><time>2026-03-29T08:13:38.19Z</time></trkpt><trkpt lat="45.2525234" lon="10.7955464"><ele>32.666666666666664</ele><time>2026-03-29T08:13:39.192Z</time></trkpt><trkpt lat="45.252511" lon="10.7956591"><ele>32.5</ele><time>2026-03-29T08:13:40.19Z</time></trkpt><trkpt lat="45.2524956" lon="10.7957685"><ele>32.33333333333333</ele><time>2026-03-29T08:13:41.189Z</time></trkpt><trkpt lat="45.2524774" lon="10.7958735"><ele>32.166666666666664</ele><time>2026-03-29T08:13:42.189Z</time></trkpt><trkpt lat="45.2524563" lon="10.7959779"><ele>32.0</ele><time>2026-03-29T08:13:43.189Z</time></trkpt><trkpt lat="45.2524371" lon="10.7960729"><ele>32.6</ele><time>2026-03-29T08:13:44.189Z</time></trkpt><trkpt lat="45.252418" lon="10.7962347"><ele>33.2</ele><time>2026-03-29T08:13:46.19Z</time></trkpt><trkpt lat="45.2524033" lon="10.7963608"><ele>33.8</ele><time>2026-03-29T08:13:48.189Z</time></trkpt><trkpt lat="45.2523905" lon="10.796457"><ele>34.4</ele><time>2026-03-29T08:13:51.189Z</time></trkpt><trkpt lat="45.2523617" lon="10.7966567"><ele>35.0</ele><time>2026-03-29T08:18:10.189Z</time></trkpt><trkpt lat="45.252345" lon="10.7967833"><ele>34.75</ele><time>2026-03-29T08:18:11.19Z</time></trkpt><trkpt lat="45.2523067" lon="10.7969417"><ele>34.5</ele><time>2026-03-29T08:18:12.189Z</time></trkpt><trkpt lat="45.252255" lon="10.79713"><ele>34.25</ele><time>2026-03-29T08:18:13.193Z</time></trkpt><trkpt lat="45.2521983" lon="10.7973233"><ele>34.0</ele><time>2026-03-29T08:18:14.189Z</time></trkpt><trkpt lat="45.2521383" lon="10.797515"><ele>33.0</ele><time>2026-03-29T08:18:15.19Z</time></trkpt><trkpt lat="45.2520667" lon="10.7977183"><ele>32.0</ele><time>2026-03-29T08:18:16.188Z</time></trkpt><trkpt lat="45.2519917" lon="10.7979283"><ele>31.0</ele><time>2026-03-29T08:18:17.188Z</time></trkpt><trkpt lat="45.2519133" lon="10.7981467"><ele>31.0</ele><time>2026-03-29T08:18:18.19Z</time></trkpt><trkpt lat="45.2518333" lon="10.7983633"><ele>31.0</ele><time>2026-03-29T08:18:19.189Z</time></trkpt><trkpt lat="45.2517583" lon="10.79858"><ele>31.0</ele><time>2026-03-29T08:18:20.189Z</time></trkpt><trkpt lat="45.251685" lon="10.7987933"><ele>31.666666666666668</ele><time>2026-03-29T08:18:21.189Z</time></trkpt><trkpt lat="45.2516133" lon="10.799005"><ele>32.333333333333336</ele><time>2026-03-29T08:18:22.189Z</time></trkpt><trkpt lat="45.2515383" lon="10.7992217"><ele>33.0</ele><time>2026-03-29T08:18:23.189Z</time></trkpt><trkpt lat="45.251465" lon="10.7994483"><ele>32.666666666666664</ele><time>2026-03-29T08:18:24.188Z</time></trkpt><trkpt lat="45.25139" lon="10.7996883"><ele>32.33333333333333</ele><time>2026-03-29T08:18:25.189Z</time></trkpt><trkpt lat="45.2513183" lon="10.7999383"><ele>32.0</ele><time>2026-03-29T08:18:26.19Z</time></trkpt><trkpt lat="45.2512517" lon="10.80021"><ele>32.0</ele><time>2026-03-29T08:18:27.19Z</time></trkpt><trkpt lat="45.25119" lon="10.800495"><ele>32.0</ele><time>2026-03-29T08:18:28.19Z</time></trkpt><trkpt lat="45.25113" lon="10.800795"><ele>32.0</ele><time>2026-03-29T08:18:29.189Z</time></trkpt><trkpt lat="45.2510667" lon="10.801095"><ele>32.666666666666664</ele><time>2026-03-29T08:18:30.189Z</time></trkpt><trkpt lat="45.2510033" lon="10.8013983"><ele>33.333333333333336</ele><time>2026-03-29T08:18:31.194Z</time></trkpt><trkpt lat="45.2509383" lon="10.801705"><ele>34.0</ele><time>2026-03-29T08:18:32.189Z</time></trkpt><trkpt lat="45.2508767" lon="10.8020133"><ele>34.0</ele><time>2026-03-29T08:18:33.189Z</time></trkpt><trkpt lat="45.2508167" lon="10.8023167"><ele>34.0</ele><time>2026-03-29T08:18:34.188Z</time></trkpt><trkpt lat="45.2507617" lon="10.802605"><ele>34.0</ele><time>2026-03-29T08:18:35.196Z</time></trkpt><trkpt lat="45.2507083" lon="10.80287"><ele>34.0</ele><time>2026-03-29T08:18:36.189Z</time></trkpt><trkpt lat="45.2506567" lon="10.803115"><ele>34.0</ele><time>2026-03-29T08:18:37.19Z</time></trkpt><trkpt lat="45.2506117" lon="10.8033267"><ele>34.0</ele><time>2026-03-29T08:18:38.19Z</time></trkpt><trkpt lat="45.25057" lon="10.8035083"><ele>33.5</ele><time>2026-03-29T08:18:39.189Z</time></trkpt><trkpt lat="45.25053" lon="10.8036717"><ele>33.0</ele><time>2026-03-29T08:18:40.189Z</time></trkpt><trkpt lat="45.25048" lon="10.80381"><ele>32.5</ele><time>2026-03-29T08:18:41.189Z</time></trkpt><trkpt lat="45.2504067" lon="10.8039417"><ele>32.0</ele><time>2026-03-29T08:18:42.189Z</time></trkpt><trkpt lat="45.250315" lon="10.8040583"><ele>32.0</ele><time>2026-03-29T08:18:43.189Z</time></trkpt><trkpt lat="45.2502367" lon="10.804175"><ele>32.0</ele><time>2026-03-29T08:18:44.189Z</time></trkpt><trkpt lat="45.2501833" lon="10.804315"><ele>32.0</ele><time>2026-03-29T08:18:45.189Z</time></trkpt><trkpt lat="45.2501633" lon="10.8044767"><ele>32.0</ele><time>2026-03-29T08:18:46.19Z</time></trkpt><trkpt lat="45.250175" lon="10.8046617"><ele>31.666666666666664</ele><time>2026-03-29T08:18:47.188Z</time></trkpt><trkpt lat="45.2502067" lon="10.8049117"><ele>31.333333333333336</ele><time>2026-03-29T08:18:48.189Z</time></trkpt><trkpt lat="45.2502167" lon="10.80521"><ele>31.0</ele><time>2026-03-29T08:18:49.19Z</time></trkpt><trkpt lat="45.2501833" lon="10.805535"><ele>31.0</ele><time>2026-03-29T08:18:50.19Z</time></trkpt><trkpt lat="45.2501233" lon="10.8059"><ele>31.0</ele><time>2026-03-29T08:18:51.189Z</time></trkpt><trkpt lat="45.2500533" lon="10.8063033"><ele>30.5</ele><time>2026-03-29T08:18:52.189Z</time></trkpt><trkpt lat="45.2499833" lon="10.8067283"><ele>30.0</ele><time>2026-03-29T08:18:53.19Z</time></trkpt><trkpt lat="45.2499067" lon="10.8071667"><ele>31.0</ele><time>2026-03-29T08:18:54.19Z</time></trkpt><trkpt lat="45.2498283" lon="10.80759"><ele>32.0</ele><time>2026-03-29T08:18:55.191Z</time></trkpt><trkpt lat="45.24976" lon="10.8079883"><ele>32.0</ele><time>2026-03-29T08:18:56.189Z</time></trkpt><trkpt lat="45.2497017" lon="10.80835"><ele>32.0</ele><time>2026-03-29T08:18:57.189Z</time></trkpt><trkpt lat="45.2496483" lon="10.8086767"><ele>32.33333333333333</ele><time>2026-03-29T08:18:58.19Z</time></trkpt><trkpt lat="45.2496083" lon="10.80898"><ele>32.666666666666664</ele><time>2026-03-29T08:18:59.189Z</time></trkpt><trkpt lat="45.2495867" lon="10.809265"><ele>33.0</ele><time>2026-03-29T08:19:00.19Z</time></trkpt><trkpt lat="45.2495867" lon="10.8095433"><ele>33.75</ele><time>2026-03-29T08:19:01.189Z</time></trkpt><trkpt lat="45.2495967" lon="10.8097917"><ele>34.5</ele><time>2026-03-29T08:19:02.189Z</time></trkpt><trkpt lat="45.2496083" lon="10.80999"><ele>35.25</ele><time>2026-03-29T08:19:03.189Z</time></trkpt><trkpt lat="45.2496183" lon="10.8101383"><ele>36.0</ele><time>2026-03-29T08:19:04.188Z</time></trkpt><trkpt lat="45.24962" lon="10.8102483"><ele>36.0</ele><time>2026-03-29T08:19:05.192Z</time></trkpt><trkpt lat="45.2496133" lon="10.8103483"><ele>36.0</ele><time>2026-03-29T08:19:06.189Z</time></trkpt><trkpt lat="45.249595" lon="10.8104517"><ele>36.0</ele><time>2026-03-29T08:19:07.189Z</time></trkpt><trkpt lat="45.2495617" lon="10.810575"><ele>36.0</ele><time>2026-03-29T08:19:08.189Z</time></trkpt><trkpt lat="45.24948" lon="10.81074"><ele>36.0</ele><time>2026-03-29T08:19:09.188Z</time></trkpt><trkpt lat="45.2493833" lon="10.8109367"><ele>35.333333333333336</ele><time>2026-03-29T08:19:10.189Z</time></trkpt><trkpt lat="45.249275" lon="10.8111417"><ele>34.66666666666667</ele><time>2026-03-29T08:19:11.189Z</time></trkpt><trkpt lat="45.249175" lon="10.8113467"><ele>34.0</ele><time>2026-03-29T08:19:12.188Z</time></trkpt><trkpt lat="45.24909" lon="10.8115417"><ele>34.0</ele><time>2026-03-29T08:19:13.189Z</time></trkpt><trkpt lat="45.24902" lon="10.8117233"><ele>34.0</ele><time>2026-03-29T08:19:14.189Z</time></trkpt><trkpt lat="45.2489533" lon="10.811885"><ele>34.0</ele><time>2026-03-29T08:19:15.189Z</time></trkpt><trkpt lat="45.248895" lon="10.8120317"><ele>34.0</ele><time>2026-03-29T08:19:16.188Z</time></trkpt><trkpt lat="45.24885" lon="10.81217"><ele>34.0</ele><time>2026-03-29T08:19:17.189Z</time></trkpt><trkpt lat="45.248815" lon="10.812315"><ele>34.0</ele><time>2026-03-29T08:19:18.19Z</time></trkpt><trkpt lat="45.24879" lon="10.812475"><ele>34.0</ele><time>2026-03-29T08:19:19.19Z</time></trkpt><trkpt lat="45.2487733" lon="10.8126417"><ele>34.0</ele><time>2026-03-29T08:19:20.19Z</time></trkpt><trkpt lat="45.2487617" lon="10.8128033"><ele>34.0</ele><time>2026-03-29T08:19:21.189Z</time></trkpt><trkpt lat="45.2487533" lon="10.8129617"><ele>34.0</ele><time>2026-03-29T08:19:22.19Z</time></trkpt><trkpt lat="45.24875" lon="10.813115"><ele>34.0</ele><time>2026-03-29T08:19:23.19Z</time></trkpt><trkpt lat="45.248745" lon="10.8132533"><ele>34.0</ele><time>2026-03-29T08:19:24.189Z</time></trkpt><trkpt lat="45.2487417" lon="10.8133717"><ele>34.0</ele><time>2026-03-29T08:19:25.193Z</time></trkpt><trkpt lat="45.2487433" lon="10.81347"><ele>34.0</ele><time>2026-03-29T08:19:26.19Z</time></trkpt><trkpt lat="45.2487467" lon="10.813575"><ele>34.0</ele><time>2026-03-29T08:19:28.19Z</time></trkpt><trkpt lat="45.248765" lon="10.8137183"><ele>34.0</ele><time>2026-03-29T08:19:39.191Z</time></trkpt><trkpt lat="45.2487817" lon="10.81385"><ele>34.0</ele><time>2026-03-29T08:19:41.191Z</time></trkpt><trkpt lat="45.2487833" lon="10.8139433"><ele>34.0</ele><time>2026-03-29T08:19:44.191Z</time></trkpt><trkpt lat="45.2487433" lon="10.8140267"><ele>34.0</ele><time>2026-03-29T08:19:46.19Z</time></trkpt><trkpt lat="45.2486267" lon="10.81418"><ele>34.0</ele><time>2026-03-29T08:19:48.19Z</time></trkpt><trkpt lat="45.2485483" lon="10.814275"><ele>34.0</ele><time>2026-03-29T08:19:49.192Z</time></trkpt><trkpt lat="45.2484667" lon="10.8143633"><ele>34.0</ele><time>2026-03-29T08:19:50.19Z</time></trkpt><trkpt lat="45.2483817" lon="10.8144567"><ele>34.0</ele><time>2026-03-29T08:19:51.191Z</time></trkpt><trkpt lat="45.24828" lon="10.81454"><ele>34.0</ele><time>2026-03-29T08:19:52.19Z</time></trkpt><trkpt lat="45.2481717" lon="10.81463"><ele>33.75</ele><time>2026-03-29T08:19:53.19Z</time></trkpt><trkpt lat="45.2480583" lon="10.8147267"><ele>33.5</ele><time>2026-03-29T08:19:54.191Z</time></trkpt><trkpt lat="45.247945" lon="10.8148133"><ele>33.25</ele><time>2026-03-29T08:19:55.19Z</time></trkpt><trkpt lat="45.24783" lon="10.8148983"><ele>33.0</ele><time>2026-03-29T08:19:56.191Z</time></trkpt><trkpt lat="45.247715" lon="10.815"><ele>33.0</ele><time>2026-03-29T08:19:57.191Z</time></trkpt><trkpt lat="45.2476033" lon="10.8150967"><ele>33.0</ele><time>2026-03-29T08:19:58.189Z</time></trkpt><trkpt lat="45.247495" lon="10.8152067"><ele>33.0</ele><time>2026-03-29T08:19:59.19Z</time></trkpt><trkpt lat="45.2473867" lon="10.8153183"><ele>33.0</ele><time>2026-03-29T08:20:00.19Z</time></trkpt><trkpt lat="45.24729" lon="10.8154283"><ele>32.25</ele><time>2026-03-29T08:20:01.19Z</time></trkpt><trkpt lat="45.24719" lon="10.8155467"><ele>31.5</ele><time>2026-03-29T08:20:02.19Z</time></trkpt><trkpt lat="45.2470917" lon="10.8156633"><ele>30.75</ele><time>2026-03-29T08:20:03.19Z</time></trkpt><trkpt lat="45.2470017" lon="10.81578"><ele>30.0</ele><time>2026-03-29T08:20:04.191Z</time></trkpt><trkpt lat="45.2469067" lon="10.8158833"><ele>30.0</ele><time>2026-03-29T08:20:05.189Z</time></trkpt><trkpt lat="45.2468183" lon="10.8159633"><ele>30.0</ele><time>2026-03-29T08:20:06.19Z</time></trkpt><trkpt lat="45.2467333" lon="10.816025"><ele>30.0</ele><time>2026-03-29T08:20:07.192Z</time></trkpt><trkpt lat="45.246645" lon="10.8160583"><ele>30.0</ele><time>2026-03-29T08:20:08.19Z</time></trkpt><trkpt lat="45.2465383" lon="10.8160917"><ele>30.0</ele><time>2026-03-29T08:20:09.19Z</time></trkpt><trkpt lat="45.2464083" lon="10.8161217"><ele>30.0</ele><time>2026-03-29T08:20:10.19Z</time></trkpt><trkpt lat="45.2462617" lon="10.816175"><ele>30.0</ele><time>2026-03-29T08:20:11.189Z</time></trkpt><trkpt lat="45.246115" lon="10.8162283"><ele>30.0</ele><time>2026-03-29T08:20:12.19Z</time></trkpt><trkpt lat="45.2459667" lon="10.8162917"><ele>30.0</ele><time>2026-03-29T08:20:13.19Z</time></trkpt><trkpt lat="45.2458167" lon="10.8163617"><ele>30.0</ele><time>2026-03-29T08:20:14.19Z</time></trkpt><trkpt lat="45.2456667" lon="10.816435"><ele>30.0</ele><time>2026-03-29T08:20:15.19Z</time></trkpt><trkpt lat="45.2455167" lon="10.8165017"><ele>30.0</ele><time>2026-03-29T08:20:16.19Z</time></trkpt><trkpt lat="45.24537" lon="10.8165717"><ele>30.0</ele><time>2026-03-29T08:20:17.19Z</time></trkpt><trkpt lat="45.2452233" lon="10.81664"><ele>30.0</ele><time>2026-03-29T08:20:18.189Z</time></trkpt><trkpt lat="45.2450717" lon="10.8167067"><ele>30.0</ele><time>2026-03-29T08:20:19.189Z</time></trkpt><trkpt lat="45.2449283" lon="10.816765"><ele>30.0</ele><time>2026-03-29T08:20:20.191Z</time></trkpt><trkpt lat="45.2447783" lon="10.816825"><ele>30.0</ele><time>2026-03-29T08:20:21.19Z</time></trkpt><trkpt lat="45.244625" lon="10.816885"><ele>30.5</ele><time>2026-03-29T08:20:22.191Z</time></trkpt><trkpt lat="45.244485" lon="10.8169433"><ele>31.0</ele><time>2026-03-29T08:20:23.19Z</time></trkpt><trkpt lat="45.24436" lon="10.8169967"><ele>31.5</ele><time>2026-03-29T08:20:24.192Z</time></trkpt><trkpt lat="45.2442567" lon="10.8170433"><ele>32.0</ele><time>2026-03-29T08:20:25.191Z</time></trkpt><trkpt lat="45.2441717" lon="10.8170783"><ele>31.999999999999996</ele><time>2026-03-29T08:20:26.189Z</time></trkpt><trkpt lat="45.2441033" lon="10.8171067"><ele>32.0</ele><time>2026-03-29T08:20:27.191Z</time></trkpt><trkpt lat="45.244015" lon="10.8171467"><ele>32.0</ele><time>2026-03-29T08:20:29.191Z</time></trkpt><trkpt lat="45.2439667" lon="10.817235"><ele>32.0</ele><time>2026-03-29T08:20:32.189Z</time></trkpt><trkpt lat="45.2439683" lon="10.8173567"><ele>31.999999999999996</ele><time>2026-03-29T08:20:34.191Z</time></trkpt><trkpt lat="45.24399" lon="10.8175017"><ele>32.0</ele><time>2026-03-29T08:20:35.189Z</time></trkpt><trkpt lat="45.2440283" lon="10.8176683"><ele>31.666666666666664</ele><time>2026-03-29T08:20:36.19Z</time></trkpt><trkpt lat="45.2440767" lon="10.8178767"><ele>31.333333333333336</ele><time>2026-03-29T08:20:37.19Z</time></trkpt><trkpt lat="45.2441267" lon="10.8180983"><ele>31.0</ele><time>2026-03-29T08:20:38.19Z</time></trkpt><trkpt lat="45.2441767" lon="10.8183067"><ele>30.666666666666668</ele><time>2026-03-29T08:20:39.191Z</time></trkpt><trkpt lat="45.2442317" lon="10.8185167"><ele>30.333333333333336</ele><time>2026-03-29T08:20:40.19Z</time></trkpt><trkpt lat="45.244295" lon="10.81873"><ele>30.0</ele><time>2026-03-29T08:20:41.19Z</time></trkpt><trkpt lat="45.2443567" lon="10.8189317"><ele>30.0</ele><time>2026-03-29T08:20:42.19Z</time></trkpt><trkpt lat="45.2444183" lon="10.8191217"><ele>30.0</ele><time>2026-03-29T08:20:43.191Z</time></trkpt><trkpt lat="45.244475" lon="10.81931"><ele>30.0</ele><time>2026-03-29T08:20:44.19Z</time></trkpt><trkpt lat="45.24452" lon="10.8195"><ele>30.0</ele><time>2026-03-29T08:20:45.191Z</time></trkpt><trkpt lat="45.2445783" lon="10.8196883"><ele>30.333333333333336</ele><time>2026-03-29T08:20:46.19Z</time></trkpt><trkpt lat="45.2446333" lon="10.8198833"><ele>30.666666666666668</ele><time>2026-03-29T08:20:47.19Z</time></trkpt><trkpt lat="45.24469" lon="10.8200867"><ele>31.0</ele><time>2026-03-29T08:20:48.19Z</time></trkpt><trkpt lat="45.2447467" lon="10.8202867"><ele>30.666666666666668</ele><time>2026-03-29T08:20:49.19Z</time></trkpt><trkpt lat="45.2447983" lon="10.820485"><ele>30.333333333333336</ele><time>2026-03-29T08:20:50.19Z</time></trkpt><trkpt lat="45.2448567" lon="10.8206867"><ele>30.0</ele><time>2026-03-29T08:20:51.189Z</time></trkpt><trkpt lat="45.244925" lon="10.8208933"><ele>30.0</ele><time>2026-03-29T08:20:52.19Z</time></trkpt><trkpt lat="45.244995" lon="10.821085"><ele>30.0</ele><time>2026-03-29T08:20:53.189Z</time></trkpt><trkpt lat="45.245065" lon="10.82126"><ele>30.0</ele><time>2026-03-29T08:20:54.189Z</time></trkpt><trkpt lat="45.2451283" lon="10.8214267"><ele>30.0</ele><time>2026-03-29T08:20:55.189Z</time></trkpt><trkpt lat="45.2451883" lon="10.8215983"><ele>30.0</ele><time>2026-03-29T08:20:56.193Z</time></trkpt><trkpt lat="45.2452433" lon="10.82178"><ele>30.0</ele><time>2026-03-29T08:20:57.189Z</time></trkpt><trkpt lat="45.245295" lon="10.8219717"><ele>30.0</ele><time>2026-03-29T08:20:58.191Z</time></trkpt><trkpt lat="45.2453433" lon="10.8221617"><ele>30.0</ele><time>2026-03-29T08:20:59.19Z</time></trkpt><trkpt lat="45.245385" lon="10.82233"><ele>30.2</ele><time>2026-03-29T08:21:00.191Z</time></trkpt><trkpt lat="45.24542" lon="10.8224733"><ele>30.4</ele><time>2026-03-29T08:21:01.19Z</time></trkpt><trkpt lat="45.2454433" lon="10.8226067"><ele>30.6</ele><time>2026-03-29T08:21:02.191Z</time></trkpt><trkpt lat="45.2454567" lon="10.82275"><ele>30.8</ele><time>2026-03-29T08:21:03.19Z</time></trkpt><trkpt lat="45.2454567" lon="10.82291"><ele>31.0</ele><time>2026-03-29T08:21:04.19Z</time></trkpt><trkpt lat="45.2454567" lon="10.8231067"><ele>31.0</ele><time>2026-03-29T08:21:05.19Z</time></trkpt><trkpt lat="45.24546" lon="10.82333"><ele>31.0</ele><time>2026-03-29T08:21:06.192Z</time></trkpt><trkpt lat="45.245465" lon="10.8235617"><ele>31.0</ele><time>2026-03-29T08:21:07.191Z</time></trkpt><trkpt lat="45.2454717" lon="10.8237783"><ele>31.0</ele><time>2026-03-29T08:21:08.19Z</time></trkpt><trkpt lat="45.245475" lon="10.823975"><ele>31.0</ele><time>2026-03-29T08:21:09.19Z</time></trkpt><trkpt lat="45.2454683" lon="10.82416"><ele>31.0</ele><time>2026-03-29T08:21:10.191Z</time></trkpt><trkpt lat="45.24546" lon="10.824345"><ele>31.0</ele><time>2026-03-29T08:21:11.191Z</time></trkpt><trkpt lat="45.2454567" lon="10.824525"><ele>31.000000000000004</ele><time>2026-03-29T08:21:12.189Z</time></trkpt><trkpt lat="45.2454583" lon="10.8246883"><ele>31.0</ele><time>2026-03-29T08:21:13.191Z</time></trkpt><trkpt lat="45.2454633" lon="10.82483"><ele>31.0</ele><time>2026-03-29T08:21:14.19Z</time></trkpt><trkpt lat="45.245475" lon="10.824945"><ele>31.0</ele><time>2026-03-29T08:21:15.19Z</time></trkpt><trkpt lat="45.2454867" lon="10.82504"><ele>31.000000000000004</ele><time>2026-03-29T08:21:16.19Z</time></trkpt><trkpt lat="45.2454983" lon="10.8251317"><ele>31.0</ele><time>2026-03-29T08:21:18.191Z</time></trkpt><trkpt lat="45.2454558" lon="10.8253173"><ele>31.0</ele><time>2026-03-29T08:21:31.189Z</time></trkpt><trkpt lat="45.2453844" lon="10.8255169"><ele>31.0</ele><time>2026-03-29T08:21:32.19Z</time></trkpt><trkpt lat="45.245289" lon="10.8257573"><ele>31.0</ele><time>2026-03-29T08:21:33.19Z</time></trkpt><trkpt lat="45.2451844" lon="10.8260262"><ele>31.0</ele><time>2026-03-29T08:21:34.19Z</time></trkpt><trkpt lat="45.245076" lon="10.8263127"><ele>31.0</ele><time>2026-03-29T08:21:35.192Z</time></trkpt><trkpt lat="45.2449599" lon="10.8266126"><ele>30.5</ele><time>2026-03-29T08:21:36.19Z</time></trkpt><trkpt lat="45.2448393" lon="10.8269153"><ele>30.0</ele><time>2026-03-29T08:21:37.191Z</time></trkpt><trkpt lat="45.2447205" lon="10.8272118"><ele>30.333333333333336</ele><time>2026-03-29T08:21:38.19Z</time></trkpt><trkpt lat="45.2446054" lon="10.8274945"><ele>30.666666666666668</ele><time>2026-03-29T08:21:39.19Z</time></trkpt><trkpt lat="45.2444983" lon="10.8277641"><ele>31.0</ele><time>2026-03-29T08:21:40.191Z</time></trkpt><trkpt lat="45.2443937" lon="10.8280237"><ele>31.0</ele><time>2026-03-29T08:21:41.19Z</time></trkpt><trkpt lat="45.2442888" lon="10.8282851"><ele>31.0</ele><time>2026-03-29T08:21:42.19Z</time></trkpt><trkpt lat="45.2441791" lon="10.8285593"><ele>31.0</ele><time>2026-03-29T08:21:43.191Z</time></trkpt><trkpt lat="45.2440671" lon="10.8288443"><ele>30.5</ele><time>2026-03-29T08:21:44.191Z</time></trkpt><trkpt lat="45.2439491" lon="10.8291407"><ele>30.0</ele><time>2026-03-29T08:21:45.19Z</time></trkpt><trkpt lat="45.2438257" lon="10.8294565"><ele>29.5</ele><time>2026-03-29T08:21:46.192Z</time></trkpt><trkpt lat="45.2436964" lon="10.8297859"><ele>29.0</ele><time>2026-03-29T08:21:47.19Z</time></trkpt><trkpt lat="45.2435596" lon="10.830124"><ele>29.5</ele><time>2026-03-29T08:21:48.189Z</time></trkpt><trkpt lat="45.2434156" lon="10.8304771"><ele>30.0</ele><time>2026-03-29T08:21:49.191Z</time></trkpt><trkpt lat="45.2432703" lon="10.8308375"><ele>30.0</ele><time>2026-03-29T08:21:50.19Z</time></trkpt><trkpt lat="45.2431303" lon="10.8311871"><ele>30.0</ele><time>2026-03-29T08:21:51.19Z</time></trkpt><trkpt lat="45.2429979" lon="10.8315204"><ele>30.0</ele><time>2026-03-29T08:21:52.19Z</time></trkpt><trkpt lat="45.2428683" lon="10.831845"><ele>30.0</ele><time>2026-03-29T08:21:53.189Z</time></trkpt><trkpt lat="45.2427426" lon="10.8321635"><ele>30.0</ele><time>2026-03-29T08:21:54.19Z</time></trkpt><trkpt lat="45.2426155" lon="10.8324818"><ele>30.0</ele><time>2026-03-29T08:21:55.189Z</time></trkpt><trkpt lat="45.2424876" lon="10.8327987"><ele>30.5</ele><time>2026-03-29T08:21:56.19Z</time></trkpt><trkpt lat="45.242362" lon="10.8331149"><ele>31.0</ele><time>2026-03-29T08:21:57.19Z</time></trkpt><trkpt lat="45.2422358" lon="10.8334284"><ele>31.0</ele><time>2026-03-29T08:21:58.191Z</time></trkpt><trkpt lat="45.2421122" lon="10.8337368"><ele>31.0</ele><time>2026-03-29T08:21:59.191Z</time></trkpt><trkpt lat="45.2419905" lon="10.8340402"><ele>31.5</ele><time>2026-03-29T08:22:00.19Z</time></trkpt><trkpt lat="45.2418705" lon="10.834335"><ele>32.0</ele><time>2026-03-29T08:22:01.189Z</time></trkpt><trkpt lat="45.2417547" lon="10.8346178"><ele>32.0</ele><time>2026-03-29T08:22:02.19Z</time></trkpt><trkpt lat="45.2416459" lon="10.8348883"><ele>32.0</ele><time>2026-03-29T08:22:03.189Z</time></trkpt><trkpt lat="45.2415408" lon="10.8351441"><ele>32.0</ele><time>2026-03-29T08:22:04.189Z</time></trkpt><trkpt lat="45.2414385" lon="10.8353889"><ele>31.666666666666664</ele><time>2026-03-29T08:22:05.189Z</time></trkpt><trkpt lat="45.2413389" lon="10.8356266"><ele>31.333333333333336</ele><time>2026-03-29T08:22:06.189Z</time></trkpt><trkpt lat="45.241237" lon="10.8358648"><ele>31.0</ele><time>2026-03-29T08:22:07.19Z</time></trkpt><trkpt lat="45.2411311" lon="10.8361069"><ele>31.0</ele><time>2026-03-29T08:22:08.19Z</time></trkpt><trkpt lat="45.2410227" lon="10.8363569"><ele>31.0</ele><time>2026-03-29T08:22:09.19Z</time></trkpt><trkpt lat="45.2409127" lon="10.8366145"><ele>31.0</ele><time>2026-03-29T08:22:10.191Z</time></trkpt><trkpt lat="45.2408027" lon="10.8368775"><ele>31.0</ele><time>2026-03-29T08:22:11.19Z</time></trkpt><trkpt lat="45.2406912" lon="10.8371399"><ele>31.0</ele><time>2026-03-29T08:22:12.19Z</time></trkpt><trkpt lat="45.2405808" lon="10.8373958"><ele>31.0</ele><time>2026-03-29T08:22:13.19Z</time></trkpt><trkpt lat="45.2404723" lon="10.8376487"><ele>30.666666666666668</ele><time>2026-03-29T08:22:14.19Z</time></trkpt><trkpt lat="45.240364" lon="10.8378989"><ele>30.333333333333336</ele><time>2026-03-29T08:22:15.189Z</time></trkpt><trkpt lat="45.2402573" lon="10.8381421"><ele>30.0</ele><time>2026-03-29T08:22:16.189Z</time></trkpt><trkpt lat="45.2401521" lon="10.8383812"><ele>29.333333333333336</ele><time>2026-03-29T08:22:17.195Z</time></trkpt><trkpt lat="45.2400447" lon="10.8386133"><ele>28.666666666666668</ele><time>2026-03-29T08:22:18.193Z</time></trkpt><trkpt lat="45.2399344" lon="10.8388453"><ele>28.0</ele><time>2026-03-29T08:22:19.189Z</time></trkpt><trkpt lat="45.2398181" lon="10.8390758"><ele>28.666666666666668</ele><time>2026-03-29T08:22:20.191Z</time></trkpt><trkpt lat="45.2396952" lon="10.8393107"><ele>29.333333333333336</ele><time>2026-03-29T08:22:21.189Z</time></trkpt><trkpt lat="45.2395655" lon="10.839552"><ele>30.0</ele><time>2026-03-29T08:22:22.189Z</time></trkpt><trkpt lat="45.239429" lon="10.8398002"><ele>30.0</ele><time>2026-03-29T08:22:23.191Z</time></trkpt><trkpt lat="45.2392859" lon="10.8400607"><ele>30.0</ele><time>2026-03-29T08:22:24.189Z</time></trkpt><trkpt lat="45.2391431" lon="10.8403263"><ele>30.0</ele><time>2026-03-29T08:22:25.19Z</time></trkpt><trkpt lat="45.2390039" lon="10.8405863"><ele>30.0</ele><time>2026-03-29T08:22:26.191Z</time></trkpt><trkpt lat="45.2388684" lon="10.8408396"><ele>29.666666666666664</ele><time>2026-03-29T08:22:27.19Z</time></trkpt><trkpt lat="45.2387352" lon="10.8410853"><ele>29.333333333333332</ele><time>2026-03-29T08:22:28.19Z</time></trkpt><trkpt lat="45.238601" lon="10.8413269"><ele>29.0</ele><time>2026-03-29T08:22:29.19Z</time></trkpt><trkpt lat="45.238466" lon="10.8415707"><ele>29.5</ele><time>2026-03-29T08:22:30.19Z</time></trkpt><trkpt lat="45.2383292" lon="10.8418255"><ele>30.0</ele><time>2026-03-29T08:22:31.19Z</time></trkpt><trkpt lat="45.2381876" lon="10.8420916"><ele>31.0</ele><time>2026-03-29T08:22:32.191Z</time></trkpt><trkpt lat="45.2380438" lon="10.8423635"><ele>32.0</ele><time>2026-03-29T08:22:33.19Z</time></trkpt><trkpt lat="45.2378999" lon="10.8426348"><ele>32.0</ele><time>2026-03-29T08:22:34.19Z</time></trkpt><trkpt lat="45.2377567" lon="10.8429036"><ele>32.0</ele><time>2026-03-29T08:22:35.189Z</time></trkpt><trkpt lat="45.2376165" lon="10.8431692"><ele>32.0</ele><time>2026-03-29T08:22:36.189Z</time></trkpt><trkpt lat="45.2374799" lon="10.8434269"><ele>32.0</ele><time>2026-03-29T08:22:37.189Z</time></trkpt><trkpt lat="45.2373463" lon="10.843673"><ele>32.0</ele><time>2026-03-29T08:22:38.189Z</time></trkpt><trkpt lat="45.2372119" lon="10.843903"><ele>32.0</ele><time>2026-03-29T08:22:39.189Z</time></trkpt><trkpt lat="45.2370772" lon="10.8441184"><ele>32.0</ele><time>2026-03-29T08:22:40.19Z</time></trkpt><trkpt lat="45.2369355" lon="10.8443243"><ele>32.0</ele><time>2026-03-29T08:22:41.19Z</time></trkpt><trkpt lat="45.2367916" lon="10.8445137"><ele>32.0</ele><time>2026-03-29T08:22:42.19Z</time></trkpt><trkpt lat="45.2366506" lon="10.8446806"><ele>32.0</ele><time>2026-03-29T08:22:43.192Z</time></trkpt><trkpt lat="45.2365174" lon="10.8448308"><ele>32.0</ele><time>2026-03-29T08:22:44.19Z</time></trkpt><trkpt lat="45.2363927" lon="10.8449659"><ele>32.0</ele><time>2026-03-29T08:22:45.189Z</time></trkpt><trkpt lat="45.2362755" lon="10.8450926"><ele>32.0</ele><time>2026-03-29T08:22:46.19Z</time></trkpt><trkpt lat="45.2361684" lon="10.8452099"><ele>32.0</ele><time>2026-03-29T08:22:47.191Z</time></trkpt><trkpt lat="45.2360798" lon="10.8453105"><ele>32.0</ele><time>2026-03-29T08:22:48.191Z</time></trkpt><trkpt lat="45.2360104" lon="10.8453925"><ele>31.8</ele><time>2026-03-29T08:22:49.192Z</time></trkpt><trkpt lat="45.235953" lon="10.8454579"><ele>31.6</ele><time>2026-03-29T08:22:50.191Z</time></trkpt><trkpt lat="45.2358726" lon="10.845575"><ele>31.400000000000002</ele><time>2026-03-29T08:22:52.191Z</time></trkpt><trkpt lat="45.2358817" lon="10.8457467"><ele>31.200000000000003</ele><time>2026-03-29T08:22:54.189Z</time></trkpt><trkpt lat="45.2359067" lon="10.845865"><ele>31.0</ele><time>2026-03-29T08:22:55.19Z</time></trkpt><trkpt lat="45.2359367" lon="10.8459933"><ele>30.6</ele><time>2026-03-29T08:22:56.19Z</time></trkpt><trkpt lat="45.235965" lon="10.8461067"><ele>30.200000000000003</ele><time>2026-03-29T08:22:57.19Z</time></trkpt><trkpt lat="45.2359867" lon="10.8462167"><ele>29.799999999999997</ele><time>2026-03-29T08:22:58.19Z</time></trkpt><trkpt lat="45.2360117" lon="10.8463483"><ele>29.4</ele><time>2026-03-29T08:22:59.19Z</time></trkpt><trkpt lat="45.2360467" lon="10.8465467"><ele>29.0</ele><time>2026-03-29T08:23:00.189Z</time></trkpt><trkpt lat="45.2360883" lon="10.8467717"><ele>28.333333333333332</ele><time>2026-03-29T08:23:01.189Z</time></trkpt><trkpt lat="45.23613" lon="10.846985"><ele>27.666666666666664</ele><time>2026-03-29T08:23:02.191Z</time></trkpt><trkpt lat="45.2361717" lon="10.8471933"><ele>27.0</ele><time>2026-03-29T08:23:03.19Z</time></trkpt><trkpt lat="45.2362167" lon="10.8474133"><ele>27.0</ele><time>2026-03-29T08:23:04.19Z</time></trkpt><trkpt lat="45.2362667" lon="10.847625"><ele>27.0</ele><time>2026-03-29T08:23:05.19Z</time></trkpt><trkpt lat="45.2363283" lon="10.8478233"><ele>27.0</ele><time>2026-03-29T08:23:06.189Z</time></trkpt><trkpt lat="45.2364067" lon="10.8480033"><ele>27.0</ele><time>2026-03-29T08:23:07.191Z</time></trkpt><trkpt lat="45.236495" lon="10.84817"><ele>27.0</ele><time>2026-03-29T08:23:08.191Z</time></trkpt><trkpt lat="45.2365867" lon="10.8483267"><ele>27.0</ele><time>2026-03-29T08:23:09.189Z</time></trkpt><trkpt lat="45.2366783" lon="10.84848"><ele>27.0</ele><time>2026-03-29T08:23:10.19Z</time></trkpt><trkpt lat="45.2367683" lon="10.8486333"><ele>27.333333333333336</ele><time>2026-03-29T08:23:11.19Z</time></trkpt><trkpt lat="45.236865" lon="10.8487983"><ele>27.666666666666668</ele><time>2026-03-29T08:23:12.19Z</time></trkpt><trkpt lat="45.23697" lon="10.8489783"><ele>28.0</ele><time>2026-03-29T08:23:13.189Z</time></trkpt><trkpt lat="45.2370817" lon="10.8491717"><ele>28.666666666666668</ele><time>2026-03-29T08:23:14.19Z</time></trkpt><trkpt lat="45.2371933" lon="10.8493617"><ele>29.333333333333336</ele><time>2026-03-29T08:23:15.189Z</time></trkpt><trkpt lat="45.2373033" lon="10.8495383"><ele>30.0</ele><time>2026-03-29T08:23:16.19Z</time></trkpt><trkpt lat="45.237415" lon="10.84971"><ele>30.666666666666664</ele><time>2026-03-29T08:23:17.19Z</time></trkpt><trkpt lat="45.2375283" lon="10.8498783"><ele>31.333333333333332</ele><time>2026-03-29T08:23:18.19Z</time></trkpt><trkpt lat="45.23764" lon="10.850035"><ele>32.0</ele><time>2026-03-29T08:23:19.191Z</time></trkpt><trkpt lat="45.23775" lon="10.85018"><ele>32.0</ele><time>2026-03-29T08:23:20.193Z</time></trkpt><trkpt lat="45.2378567" lon="10.8503417"><ele>32.0</ele><time>2026-03-29T08:23:21.191Z</time></trkpt><trkpt lat="45.2379567" lon="10.85049"><ele>32.0</ele><time>2026-03-29T08:23:22.19Z</time></trkpt><trkpt lat="45.2380417" lon="10.8506233"><ele>32.0</ele><time>2026-03-29T08:23:23.19Z</time></trkpt><trkpt lat="45.2381117" lon="10.8507317"><ele>31.8</ele><time>2026-03-29T08:23:24.191Z</time></trkpt><trkpt lat="45.2381617" lon="10.8508217"><ele>31.6</ele><time>2026-03-29T08:23:25.189Z</time></trkpt><trkpt lat="45.2381867" lon="10.8509067"><ele>31.400000000000002</ele><time>2026-03-29T08:23:26.19Z</time></trkpt><trkpt lat="45.23815" lon="10.8510667"><ele>31.200000000000003</ele><time>2026-03-29T08:23:28.189Z</time></trkpt><trkpt lat="45.23809" lon="10.8511483"><ele>31.0</ele><time>2026-03-29T08:23:29.19Z</time></trkpt><trkpt lat="45.2380083" lon="10.851255"><ele>31.0</ele><time>2026-03-29T08:23:30.19Z</time></trkpt><trkpt lat="45.2378967" lon="10.851405"><ele>31.0</ele><time>2026-03-29T08:23:31.191Z</time></trkpt><trkpt lat="45.2377883" lon="10.8515483"><ele>31.0</ele><time>2026-03-29T08:23:32.19Z</time></trkpt><trkpt lat="45.237685" lon="10.8516883"><ele>31.0</ele><time>2026-03-29T08:23:33.19Z</time></trkpt><trkpt lat="45.2375883" lon="10.8518233"><ele>31.25</ele><time>2026-03-29T08:23:34.189Z</time></trkpt><trkpt lat="45.2374917" lon="10.85196"><ele>31.5</ele><time>2026-03-29T08:23:35.19Z</time></trkpt><trkpt lat="45.2373933" lon="10.8520967"><ele>31.75</ele><time>2026-03-29T08:23:36.19Z</time></trkpt><trkpt lat="45.237295" lon="10.852235"><ele>32.0</ele><time>2026-03-29T08:23:37.19Z</time></trkpt><trkpt lat="45.2371883" lon="10.8523767"><ele>31.666666666666664</ele><time>2026-03-29T08:23:38.19Z</time></trkpt><trkpt lat="45.2370783" lon="10.85252"><ele>31.333333333333336</ele><time>2026-03-29T08:23:39.191Z</time></trkpt><trkpt lat="45.236965" lon="10.8526683"><ele>31.0</ele><time>2026-03-29T08:23:40.19Z</time></trkpt><trkpt lat="45.23685" lon="10.8528267"><ele>31.0</ele><time>2026-03-29T08:23:41.19Z</time></trkpt><trkpt lat="45.23674" lon="10.8529783"><ele>31.0</ele><time>2026-03-29T08:23:42.19Z</time></trkpt><trkpt lat="45.23664" lon="10.85312"><ele>31.0</ele><time>2026-03-29T08:23:43.189Z</time></trkpt><trkpt lat="45.2365583" lon="10.8532317"><ele>31.0</ele><time>2026-03-29T08:23:44.19Z</time></trkpt><trkpt lat="45.2364967" lon="10.85332"><ele>30.8</ele><time>2026-03-29T08:23:45.19Z</time></trkpt><trkpt lat="45.23645" lon="10.8534"><ele>30.6</ele><time>2026-03-29T08:23:46.191Z</time></trkpt><trkpt lat="45.2364167" lon="10.85348"><ele>30.4</ele><time>2026-03-29T08:23:47.192Z</time></trkpt><trkpt lat="45.236405" lon="10.8536383"><ele>30.2</ele><time>2026-03-29T08:23:49.196Z</time></trkpt><trkpt lat="45.2364517" lon="10.85381"><ele>30.0</ele><time>2026-03-29T08:23:51.191Z</time></trkpt><trkpt lat="45.2364867" lon="10.853915"><ele>30.0</ele><time>2026-03-29T08:23:52.191Z</time></trkpt><trkpt lat="45.236535" lon="10.85405"><ele>30.0</ele><time>2026-03-29T08:23:53.192Z</time></trkpt><trkpt lat="45.236615" lon="10.85424"><ele>30.0</ele><time>2026-03-29T08:23:54.191Z</time></trkpt><trkpt lat="45.2367033" lon="10.8544633"><ele>30.0</ele><time>2026-03-29T08:23:55.191Z</time></trkpt><trkpt lat="45.23679" lon="10.8547083"><ele>29.666666666666664</ele><time>2026-03-29T08:23:56.19Z</time></trkpt><trkpt lat="45.23687" lon="10.85493"><ele>29.333333333333332</ele><time>2026-03-29T08:23:57.188Z</time></trkpt><trkpt lat="45.2369467" lon="10.855135"><ele>29.0</ele><time>2026-03-29T08:23:58.19Z</time></trkpt><trkpt lat="45.2370183" lon="10.8553383"><ele>29.0</ele><time>2026-03-29T08:23:59.19Z</time></trkpt><trkpt lat="45.2370933" lon="10.8555383"><ele>29.0</ele><time>2026-03-29T08:24:00.19Z</time></trkpt><trkpt lat="45.2371717" lon="10.8557417"><ele>29.0</ele><time>2026-03-29T08:24:01.19Z</time></trkpt><trkpt lat="45.2372517" lon="10.8559467"><ele>29.0</ele><time>2026-03-29T08:24:02.191Z</time></trkpt><trkpt lat="45.2373383" lon="10.8561633"><ele>29.0</ele><time>2026-03-29T08:24:03.189Z</time></trkpt><trkpt lat="45.2374283" lon="10.8563867"><ele>29.0</ele><time>2026-03-29T08:24:04.189Z</time></trkpt><trkpt lat="45.2375217" lon="10.85662"><ele>29.0</ele><time>2026-03-29T08:24:05.19Z</time></trkpt><trkpt lat="45.2376217" lon="10.8568583"><ele>29.0</ele><time>2026-03-29T08:24:06.189Z</time></trkpt><trkpt lat="45.2377233" lon="10.8571017"><ele>29.0</ele><time>2026-03-29T08:24:07.19Z</time></trkpt><trkpt lat="45.2378267" lon="10.8573483"><ele>29.0</ele><time>2026-03-29T08:24:08.19Z</time></trkpt><trkpt lat="45.2379317" lon="10.85759"><ele>29.0</ele><time>2026-03-29T08:24:09.189Z</time></trkpt><trkpt lat="45.2380383" lon="10.8578317"><ele>29.0</ele><time>2026-03-29T08:24:10.189Z</time></trkpt><trkpt lat="45.2381483" lon="10.8580817"><ele>29.0</ele><time>2026-03-29T08:24:11.192Z</time></trkpt><trkpt lat="45.2382633" lon="10.8583483"><ele>29.0</ele><time>2026-03-29T08:24:12.19Z</time></trkpt><trkpt lat="45.2383833" lon="10.8586333"><ele>28.5</ele><time>2026-03-29T08:24:13.191Z</time></trkpt><trkpt lat="45.2385083" lon="10.8589233"><ele>28.0</ele><time>2026-03-29T08:24:14.192Z</time></trkpt><trkpt lat="45.2386317" lon="10.85921"><ele>28.5</ele><time>2026-03-29T08:24:15.192Z</time></trkpt><trkpt lat="45.2387517" lon="10.85949"><ele>29.0</ele><time>2026-03-29T08:24:16.195Z</time></trkpt><trkpt lat="45.23887" lon="10.8597667"><ele>28.5</ele><time>2026-03-29T08:24:17.191Z</time></trkpt><trkpt lat="45.2389917" lon="10.8600433"><ele>28.0</ele><time>2026-03-29T08:24:18.191Z</time></trkpt><trkpt lat="45.2391217" lon="10.8603133"><ele>29.0</ele><time>2026-03-29T08:24:19.191Z</time></trkpt><trkpt lat="45.23926" lon="10.8605767"><ele>30.0</ele><time>2026-03-29T08:24:20.191Z</time></trkpt><trkpt lat="45.2394033" lon="10.8608383"><ele>29.333333333333336</ele><time>2026-03-29T08:24:21.189Z</time></trkpt><trkpt lat="45.23954" lon="10.861085"><ele>28.666666666666668</ele><time>2026-03-29T08:24:22.189Z</time></trkpt><trkpt lat="45.23967" lon="10.86132"><ele>28.0</ele><time>2026-03-29T08:24:23.191Z</time></trkpt><trkpt lat="45.239795" lon="10.8615417"><ele>28.0</ele><time>2026-03-29T08:24:24.191Z</time></trkpt><trkpt lat="45.23992" lon="10.8617533"><ele>28.0</ele><time>2026-03-29T08:24:25.189Z</time></trkpt><trkpt lat="45.24006" lon="10.8619567"><ele>28.0</ele><time>2026-03-29T08:24:26.19Z</time></trkpt><trkpt lat="45.2402233" lon="10.86216"><ele>28.0</ele><time>2026-03-29T08:24:27.19Z</time></trkpt><trkpt lat="45.2404067" lon="10.86236"><ele>28.0</ele><time>2026-03-29T08:24:28.19Z</time></trkpt><trkpt lat="45.240585" lon="10.8625483"><ele>29.333333333333336</ele><time>2026-03-29T08:24:29.189Z</time></trkpt><trkpt lat="45.2407417" lon="10.8627133"><ele>30.666666666666664</ele><time>2026-03-29T08:24:30.189Z</time></trkpt><trkpt lat="45.240875" lon="10.8628583"><ele>32.0</ele><time>2026-03-29T08:24:31.189Z</time></trkpt><trkpt lat="45.2409933" lon="10.8629867"><ele>32.0</ele><time>2026-03-29T08:24:32.19Z</time></trkpt><trkpt lat="45.2411" lon="10.86311"><ele>32.0</ele><time>2026-03-29T08:24:33.189Z</time></trkpt><trkpt lat="45.2411883" lon="10.86325"><ele>32.0</ele><time>2026-03-29T08:24:34.19Z</time></trkpt><trkpt lat="45.2412483" lon="10.86343"><ele>32.0</ele><time>2026-03-29T08:24:35.193Z</time></trkpt><trkpt lat="45.241275" lon="10.8636483"><ele>32.0</ele><time>2026-03-29T08:24:36.189Z</time></trkpt><trkpt lat="45.24126" lon="10.8639"><ele>32.0</ele><time>2026-03-29T08:24:37.191Z</time></trkpt><trkpt lat="45.2412183" lon="10.8641667"><ele>32.0</ele><time>2026-03-29T08:24:38.191Z</time></trkpt><trkpt lat="45.241175" lon="10.8643967"><ele>32.0</ele><time>2026-03-29T08:24:39.19Z</time></trkpt><trkpt lat="45.2411417" lon="10.8645883"><ele>32.0</ele><time>2026-03-29T08:24:40.189Z</time></trkpt><trkpt lat="45.24114" lon="10.864765"><ele>32.0</ele><time>2026-03-29T08:24:41.191Z</time></trkpt><trkpt lat="45.2411733" lon="10.8649417"><ele>32.0</ele><time>2026-03-29T08:24:42.189Z</time></trkpt><trkpt lat="45.2412567" lon="10.8651233"><ele>31.333333333333332</ele><time>2026-03-29T08:24:43.19Z</time></trkpt><trkpt lat="45.2413717" lon="10.8652833"><ele>30.666666666666664</ele><time>2026-03-29T08:24:44.19Z</time></trkpt><trkpt lat="45.2414917" lon="10.8654233"><ele>30.0</ele><time>2026-03-29T08:24:45.189Z</time></trkpt><trkpt lat="45.24161" lon="10.8655567"><ele>29.666666666666664</ele><time>2026-03-29T08:24:46.191Z</time></trkpt><trkpt lat="45.24173" lon="10.8656933"><ele>29.333333333333332</ele><time>2026-03-29T08:24:47.194Z</time></trkpt><trkpt lat="45.241855" lon="10.8658433"><ele>29.0</ele><time>2026-03-29T08:24:48.189Z</time></trkpt><trkpt lat="45.2419867" lon="10.8660133"><ele>29.333333333333332</ele><time>2026-03-29T08:24:49.19Z</time></trkpt><trkpt lat="45.242125" lon="10.8662067"><ele>29.666666666666664</ele><time>2026-03-29T08:24:50.19Z</time></trkpt><trkpt lat="45.2422617" lon="10.86643"><ele>30.0</ele><time>2026-03-29T08:24:51.191Z</time></trkpt><trkpt lat="45.2423983" lon="10.866685"><ele>30.5</ele><time>2026-03-29T08:24:52.191Z</time></trkpt><trkpt lat="45.2425417" lon="10.8669633"><ele>31.0</ele><time>2026-03-29T08:24:53.192Z</time></trkpt><trkpt lat="45.2426883" lon="10.867245"><ele>31.0</ele><time>2026-03-29T08:24:54.19Z</time></trkpt><trkpt lat="45.2428283" lon="10.8675183"><ele>31.0</ele><time>2026-03-29T08:24:55.19Z</time></trkpt><trkpt lat="45.242965" lon="10.867785"><ele>31.0</ele><time>2026-03-29T08:24:56.19Z</time></trkpt><trkpt lat="45.2430983" lon="10.8680483"><ele>31.0</ele><time>2026-03-29T08:24:57.19Z</time></trkpt><trkpt lat="45.243235" lon="10.868315"><ele>31.0</ele><time>2026-03-29T08:24:58.191Z</time></trkpt><trkpt lat="45.2433667" lon="10.868575"><ele>31.0</ele><time>2026-03-29T08:24:59.19Z</time></trkpt><trkpt lat="45.2434933" lon="10.8688217"><ele>31.0</ele><time>2026-03-29T08:25:00.189Z</time></trkpt><trkpt lat="45.2436133" lon="10.8690533"><ele>31.0</ele><time>2026-03-29T08:25:01.191Z</time></trkpt><trkpt lat="45.24373" lon="10.86928"><ele>31.0</ele><time>2026-03-29T08:25:02.19Z</time></trkpt><trkpt lat="45.24384" lon="10.8694917"><ele>31.0</ele><time>2026-03-29T08:25:03.192Z</time></trkpt><trkpt lat="45.2439467" lon="10.8696917"><ele>30.75</ele><time>2026-03-29T08:25:04.191Z</time></trkpt><trkpt lat="45.244045" lon="10.8698783"><ele>30.5</ele><time>2026-03-29T08:25:05.19Z</time></trkpt><trkpt lat="45.2441317" lon="10.87004"><ele>30.25</ele><time>2026-03-29T08:25:06.189Z</time></trkpt><trkpt lat="45.24421" lon="10.870185"><ele>30.0</ele><time>2026-03-29T08:25:07.191Z</time></trkpt><trkpt lat="45.2442833" lon="10.8703183"><ele>30.0</ele><time>2026-03-29T08:25:08.19Z</time></trkpt><trkpt lat="45.2443383" lon="10.8704383"><ele>30.0</ele><time>2026-03-29T08:25:09.19Z</time></trkpt><trkpt lat="45.24437" lon="10.870555"><ele>30.0</ele><time>2026-03-29T08:25:10.192Z</time></trkpt><trkpt lat="45.2443667" lon="10.8706817"><ele>30.0</ele><time>2026-03-29T08:25:11.19Z</time></trkpt><trkpt lat="45.24432" lon="10.8708217"><ele>30.0</ele><time>2026-03-29T08:25:12.189Z</time></trkpt><trkpt lat="45.2442417" lon="10.8709983"><ele>29.75</ele><time>2026-03-29T08:25:13.195Z</time></trkpt><trkpt lat="45.2441517" lon="10.8711883"><ele>29.5</ele><time>2026-03-29T08:25:14.19Z</time></trkpt><trkpt lat="45.2440683" lon="10.8713633"><ele>29.25</ele><time>2026-03-29T08:25:15.19Z</time></trkpt><trkpt lat="45.2439967" lon="10.87152"><ele>29.0</ele><time>2026-03-29T08:25:16.189Z</time></trkpt><trkpt lat="45.2439267" lon="10.871675"><ele>29.25</ele><time>2026-03-29T08:25:17.19Z</time></trkpt><trkpt lat="45.2438583" lon="10.8718217"><ele>29.5</ele><time>2026-03-29T08:25:18.191Z</time></trkpt><trkpt lat="45.243795" lon="10.87196"><ele>29.75</ele><time>2026-03-29T08:25:19.19Z</time></trkpt><trkpt lat="45.2437367" lon="10.872095"><ele>30.0</ele><time>2026-03-29T08:25:20.19Z</time></trkpt><trkpt lat="45.2436917" lon="10.872225"><ele>30.0</ele><time>2026-03-29T08:25:21.191Z</time></trkpt><trkpt lat="45.2436733" lon="10.872355"><ele>30.0</ele><time>2026-03-29T08:25:22.191Z</time></trkpt><trkpt lat="45.2436767" lon="10.872485"><ele>30.0</ele><time>2026-03-29T08:25:23.192Z</time></trkpt><trkpt lat="45.2437067" lon="10.8726283"><ele>30.0</ele><time>2026-03-29T08:25:24.189Z</time></trkpt><trkpt lat="45.2437617" lon="10.87278"><ele>30.0</ele><time>2026-03-29T08:25:25.189Z</time></trkpt><trkpt lat="45.243835" lon="10.8729567"><ele>29.666666666666664</ele><time>2026-03-29T08:25:26.19Z</time></trkpt><trkpt lat="45.24392" lon="10.873165"><ele>29.333333333333332</ele><time>2026-03-29T08:25:27.191Z</time></trkpt><trkpt lat="45.2440133" lon="10.8734"><ele>29.0</ele><time>2026-03-29T08:25:28.189Z</time></trkpt><trkpt lat="45.2441083" lon="10.8736517"><ele>29.0</ele><time>2026-03-29T08:25:29.191Z</time></trkpt><trkpt lat="45.2442017" lon="10.8738967"><ele>29.0</ele><time>2026-03-29T08:25:30.192Z</time></trkpt><trkpt lat="45.2442983" lon="10.8741417"><ele>29.0</ele><time>2026-03-29T08:25:31.189Z</time></trkpt><trkpt lat="45.2444" lon="10.8743933"><ele>29.333333333333332</ele><time>2026-03-29T08:25:32.189Z</time></trkpt><trkpt lat="45.2445033" lon="10.874655"><ele>29.666666666666664</ele><time>2026-03-29T08:25:33.19Z</time></trkpt><trkpt lat="45.2446083" lon="10.8749217"><ele>30.0</ele><time>2026-03-29T08:25:34.189Z</time></trkpt><trkpt lat="45.244715" lon="10.8751917"><ele>30.333333333333336</ele><time>2026-03-29T08:25:35.189Z</time></trkpt><trkpt lat="45.2448217" lon="10.8754617"><ele>30.666666666666668</ele><time>2026-03-29T08:25:36.189Z</time></trkpt><trkpt lat="45.2449317" lon="10.875735"><ele>31.0</ele><time>2026-03-29T08:25:37.19Z</time></trkpt><trkpt lat="45.2450417" lon="10.8760133"><ele>31.0</ele><time>2026-03-29T08:25:38.19Z</time></trkpt><trkpt lat="45.2451517" lon="10.8762883"><ele>31.0</ele><time>2026-03-29T08:25:39.189Z</time></trkpt><trkpt lat="45.245255" lon="10.8765567"><ele>31.0</ele><time>2026-03-29T08:25:40.188Z</time></trkpt><trkpt lat="45.245355" lon="10.8768133"><ele>30.666666666666668</ele><time>2026-03-29T08:25:41.189Z</time></trkpt><trkpt lat="45.2454517" lon="10.8770617"><ele>30.333333333333336</ele><time>2026-03-29T08:25:42.193Z</time></trkpt><trkpt lat="45.2455417" lon="10.8772883"><ele>30.0</ele><time>2026-03-29T08:25:43.19Z</time></trkpt><trkpt lat="45.2456233" lon="10.8774917"><ele>30.0</ele><time>2026-03-29T08:25:44.19Z</time></trkpt><trkpt lat="45.2456933" lon="10.87767"><ele>30.0</ele><time>2026-03-29T08:25:45.189Z</time></trkpt><trkpt lat="45.2457517" lon="10.87783"><ele>30.0</ele><time>2026-03-29T08:25:46.189Z</time></trkpt><trkpt lat="45.245795" lon="10.877975"><ele>30.0</ele><time>2026-03-29T08:25:47.194Z</time></trkpt><trkpt lat="45.2458133" lon="10.87812"><ele>30.0</ele><time>2026-03-29T08:25:48.19Z</time></trkpt><trkpt lat="45.2458" lon="10.8782783"><ele>30.0</ele><time>2026-03-29T08:25:49.191Z</time></trkpt><trkpt lat="45.245745" lon="10.878445"><ele>30.0</ele><time>2026-03-29T08:25:50.189Z</time></trkpt><trkpt lat="45.2456567" lon="10.8786233"><ele>30.0</ele><time>2026-03-29T08:25:51.189Z</time></trkpt><trkpt lat="45.2455633" lon="10.8788067"><ele>30.25</ele><time>2026-03-29T08:25:52.191Z</time></trkpt><trkpt lat="45.2454767" lon="10.87898"><ele>30.5</ele><time>2026-03-29T08:25:53.189Z</time></trkpt><trkpt lat="45.245395" lon="10.8791467"><ele>30.75</ele><time>2026-03-29T08:25:54.189Z</time></trkpt><trkpt lat="45.2453117" lon="10.8793183"><ele>31.0</ele><time>2026-03-29T08:25:55.189Z</time></trkpt><trkpt lat="45.2452267" lon="10.8794967"><ele>31.0</ele><time>2026-03-29T08:25:56.19Z</time></trkpt><trkpt lat="45.2451367" lon="10.8796833"><ele>31.0</ele><time>2026-03-29T08:25:57.19Z</time></trkpt><trkpt lat="45.2450383" lon="10.8798817"><ele>31.0</ele><time>2026-03-29T08:25:58.19Z</time></trkpt><trkpt lat="45.2449333" lon="10.8800967"><ele>30.666666666666668</ele><time>2026-03-29T08:25:59.189Z</time></trkpt><trkpt lat="45.2448267" lon="10.88032"><ele>30.333333333333336</ele><time>2026-03-29T08:26:00.189Z</time></trkpt><trkpt lat="45.2447283" lon="10.880555"><ele>30.0</ele><time>2026-03-29T08:26:01.189Z</time></trkpt><trkpt lat="45.2446367" lon="10.8808133"><ele>30.0</ele><time>2026-03-29T08:26:02.19Z</time></trkpt><trkpt lat="45.2445467" lon="10.881105"><ele>30.0</ele><time>2026-03-29T08:26:03.188Z</time></trkpt><trkpt lat="45.24446" lon="10.8814117"><ele>30.0</ele><time>2026-03-29T08:26:04.188Z</time></trkpt><trkpt lat="45.2443783" lon="10.881705"><ele>30.0</ele><time>2026-03-29T08:26:05.189Z</time></trkpt><trkpt lat="45.2442983" lon="10.881995"><ele>30.0</ele><time>2026-03-29T08:26:06.19Z</time></trkpt><trkpt lat="45.2442183" lon="10.88229"><ele>30.0</ele><time>2026-03-29T08:26:07.189Z</time></trkpt><trkpt lat="45.2441383" lon="10.8825817"><ele>30.0</ele><time>2026-03-29T08:26:08.191Z</time></trkpt><trkpt lat="45.24406" lon="10.8828683"><ele>30.0</ele><time>2026-03-29T08:26:09.19Z</time></trkpt><trkpt lat="45.2439817" lon="10.88315"><ele>30.0</ele><time>2026-03-29T08:26:10.19Z</time></trkpt><trkpt lat="45.2439033" lon="10.88343"><ele>30.0</ele><time>2026-03-29T08:26:11.192Z</time></trkpt><trkpt lat="45.2438283" lon="10.8837033"><ele>30.0</ele><time>2026-03-29T08:26:12.191Z</time></trkpt><trkpt lat="45.2437583" lon="10.8839667"><ele>30.0</ele><time>2026-03-29T08:26:13.189Z</time></trkpt><trkpt lat="45.24369" lon="10.8842167"><ele>30.0</ele><time>2026-03-29T08:26:14.189Z</time></trkpt><trkpt lat="45.2436217" lon="10.8844767"><ele>30.0</ele><time>2026-03-29T08:26:15.189Z</time></trkpt><trkpt lat="45.2435483" lon="10.8847433"><ele>30.0</ele><time>2026-03-29T08:26:16.19Z</time></trkpt><trkpt lat="45.2434733" lon="10.8850083"><ele>30.0</ele><time>2026-03-29T08:26:17.189Z</time></trkpt><trkpt lat="45.2434033" lon="10.88526"><ele>30.0</ele><time>2026-03-29T08:26:18.19Z</time></trkpt><trkpt lat="45.2433367" lon="10.8854883"><ele>30.0</ele><time>2026-03-29T08:26:19.189Z</time></trkpt><trkpt lat="45.2432867" lon="10.8856667"><ele>30.0</ele><time>2026-03-29T08:26:20.19Z</time></trkpt><trkpt lat="45.2432467" lon="10.8857967"><ele>30.0</ele><time>2026-03-29T08:26:21.189Z</time></trkpt><trkpt lat="45.243215" lon="10.885905"><ele>30.0</ele><time>2026-03-29T08:26:22.19Z</time></trkpt><trkpt lat="45.243185" lon="10.886"><ele>30.0</ele><time>2026-03-29T08:26:23.189Z</time></trkpt><trkpt lat="45.2431533" lon="10.8860983"><ele>29.75</ele><time>2026-03-29T08:26:24.19Z</time></trkpt><trkpt lat="45.24312" lon="10.8862133"><ele>29.5</ele><time>2026-03-29T08:26:25.189Z</time></trkpt><trkpt lat="45.2430717" lon="10.886375"><ele>29.25</ele><time>2026-03-29T08:26:26.19Z</time></trkpt><trkpt lat="45.2430033" lon="10.8865883"><ele>29.0</ele><time>2026-03-29T08:26:27.189Z</time></trkpt><trkpt lat="45.2429133" lon="10.8868617"><ele>29.0</ele><time>2026-03-29T08:26:28.189Z</time></trkpt><trkpt lat="45.24281" lon="10.887165"><ele>29.0</ele><time>2026-03-29T08:26:29.19Z</time></trkpt><trkpt lat="45.242705" lon="10.88746"><ele>29.333333333333332</ele><time>2026-03-29T08:26:30.189Z</time></trkpt><trkpt lat="45.2426" lon="10.8877267"><ele>29.666666666666664</ele><time>2026-03-29T08:26:31.189Z</time></trkpt><trkpt lat="45.2424933" lon="10.8879783"><ele>30.0</ele><time>2026-03-29T08:26:32.189Z</time></trkpt><trkpt lat="45.2423867" lon="10.888225"><ele>29.666666666666664</ele><time>2026-03-29T08:26:33.19Z</time></trkpt><trkpt lat="45.2422783" lon="10.8884667"><ele>29.333333333333332</ele><time>2026-03-29T08:26:34.19Z</time></trkpt><trkpt lat="45.2421633" lon="10.8887133"><ele>29.0</ele><time>2026-03-29T08:26:35.189Z</time></trkpt><trkpt lat="45.24204" lon="10.8889867"><ele>29.0</ele><time>2026-03-29T08:26:36.19Z</time></trkpt><trkpt lat="45.2419" lon="10.8893017"><ele>29.0</ele><time>2026-03-29T08:26:37.191Z</time></trkpt><trkpt lat="45.2417517" lon="10.889635"><ele>29.0</ele><time>2026-03-29T08:26:38.189Z</time></trkpt><trkpt lat="45.2416117" lon="10.88995"><ele>29.0</ele><time>2026-03-29T08:26:39.19Z</time></trkpt><trkpt lat="45.2414817" lon="10.8902317"><ele>29.333333333333332</ele><time>2026-03-29T08:26:40.189Z</time></trkpt><trkpt lat="45.2413683" lon="10.890475"><ele>29.666666666666664</ele><time>2026-03-29T08:26:41.19Z</time></trkpt><trkpt lat="45.241275" lon="10.890675"><ele>30.0</ele><time>2026-03-29T08:26:42.189Z</time></trkpt><trkpt lat="45.2412017" lon="10.8908367"><ele>29.833333333333332</ele><time>2026-03-29T08:26:43.189Z</time></trkpt><trkpt lat="45.241145" lon="10.8909683"><ele>29.666666666666664</ele><time>2026-03-29T08:26:44.19Z</time></trkpt><trkpt lat="45.2411033" lon="10.89108"><ele>29.5</ele><time>2026-03-29T08:26:45.188Z</time></trkpt><trkpt lat="45.2410733" lon="10.8911833"><ele>29.333333333333332</ele><time>2026-03-29T08:26:46.188Z</time></trkpt><trkpt lat="45.24107" lon="10.8912883"><ele>29.166666666666664</ele><time>2026-03-29T08:26:47.19Z</time></trkpt><trkpt lat="45.2411" lon="10.8914"><ele>29.0</ele><time>2026-03-29T08:26:48.189Z</time></trkpt><trkpt lat="45.2412133" lon="10.8915267"><ele>29.0</ele><time>2026-03-29T08:26:49.189Z</time></trkpt><trkpt lat="45.2413733" lon="10.891665"><ele>29.0</ele><time>2026-03-29T08:26:50.19Z</time></trkpt><trkpt lat="45.2415567" lon="10.8918233"><ele>29.0</ele><time>2026-03-29T08:26:51.19Z</time></trkpt><trkpt lat="45.2417733" lon="10.89201"><ele>29.5</ele><time>2026-03-29T08:26:52.19Z</time></trkpt><trkpt lat="45.2420217" lon="10.8922317"><ele>30.0</ele><time>2026-03-29T08:26:53.189Z</time></trkpt><trkpt lat="45.2422817" lon="10.8924617"><ele>29.5</ele><time>2026-03-29T08:26:54.189Z</time></trkpt><trkpt lat="45.24253" lon="10.8926833"><ele>29.0</ele><time>2026-03-29T08:26:55.189Z</time></trkpt><trkpt lat="45.242765" lon="10.8928883"><ele>29.0</ele><time>2026-03-29T08:26:56.189Z</time></trkpt><trkpt lat="45.242985" lon="10.8930817"><ele>29.0</ele><time>2026-03-29T08:26:57.189Z</time></trkpt><trkpt lat="45.2431783" lon="10.8932533"><ele>29.2</ele><time>2026-03-29T08:26:58.189Z</time></trkpt><trkpt lat="45.2433217" lon="10.8933817"><ele>29.4</ele><time>2026-03-29T08:26:59.189Z</time></trkpt><trkpt lat="45.243415" lon="10.89347"><ele>29.6</ele><time>2026-03-29T08:27:00.189Z</time></trkpt><trkpt lat="45.2434817" lon="10.8935383"><ele>29.8</ele><time>2026-03-29T08:27:01.189Z</time></trkpt><trkpt lat="45.2435383" lon="10.8936"><ele>30.0</ele><time>2026-03-29T08:27:03.191Z</time></trkpt><trkpt lat="45.243615" lon="10.89365"><ele>30.0</ele><time>2026-03-29T08:27:06.189Z</time></trkpt><trkpt lat="45.243665" lon="10.8937383"><ele>30.0</ele><time>2026-03-29T08:27:08.191Z</time></trkpt><trkpt lat="45.2436517" lon="10.8938983"><ele>30.0</ele><time>2026-03-29T08:27:10.189Z</time></trkpt><trkpt lat="45.2436117" lon="10.894065"><ele>30.0</ele><time>2026-03-29T08:27:11.189Z</time></trkpt><trkpt lat="45.2435583" lon="10.8942717"><ele>30.0</ele><time>2026-03-29T08:27:12.188Z</time></trkpt><trkpt lat="45.2434817" lon="10.894525"><ele>30.0</ele><time>2026-03-29T08:27:13.189Z</time></trkpt><trkpt lat="45.2433883" lon="10.8948217"><ele>30.0</ele><time>2026-03-29T08:27:14.189Z</time></trkpt><trkpt lat="45.2432917" lon="10.8951367"><ele>30.0</ele><time>2026-03-29T08:27:15.189Z</time></trkpt><trkpt lat="45.243195" lon="10.8954683"><ele>30.0</ele><time>2026-03-29T08:27:16.188Z</time></trkpt><trkpt lat="45.243095" lon="10.8958183"><ele>30.0</ele><time>2026-03-29T08:27:17.19Z</time></trkpt><trkpt lat="45.2429917" lon="10.8961733"><ele>30.0</ele><time>2026-03-29T08:27:18.189Z</time></trkpt><trkpt lat="45.2428867" lon="10.8965283"><ele>30.0</ele><time>2026-03-29T08:27:19.19Z</time></trkpt><trkpt lat="45.2427883" lon="10.89687"><ele>30.0</ele><time>2026-03-29T08:27:20.191Z</time></trkpt><trkpt lat="45.2426933" lon="10.897195"><ele>30.0</ele><time>2026-03-29T08:27:21.19Z</time></trkpt><trkpt lat="45.2425967" lon="10.8975067"><ele>30.0</ele><time>2026-03-29T08:27:22.189Z</time></trkpt><trkpt lat="45.2424967" lon="10.8978133"><ele>30.5</ele><time>2026-03-29T08:27:23.191Z</time></trkpt><trkpt lat="45.2423983" lon="10.8981317"><ele>31.0</ele><time>2026-03-29T08:27:24.19Z</time></trkpt><trkpt lat="45.242305" lon="10.8984767"><ele>30.5</ele><time>2026-03-29T08:27:25.19Z</time></trkpt><trkpt lat="45.2422183" lon="10.8988333"><ele>30.0</ele><time>2026-03-29T08:27:26.19Z</time></trkpt><trkpt lat="45.24214" lon="10.8991817"><ele>30.0</ele><time>2026-03-29T08:27:27.19Z</time></trkpt><trkpt lat="45.2420667" lon="10.8995067"><ele>30.0</ele><time>2026-03-29T08:27:28.19Z</time></trkpt><trkpt lat="45.242" lon="10.8998183"><ele>29.333333333333336</ele><time>2026-03-29T08:27:29.189Z</time></trkpt><trkpt lat="45.2419433" lon="10.9001183"><ele>28.666666666666668</ele><time>2026-03-29T08:27:30.188Z</time></trkpt><trkpt lat="45.2419017" lon="10.9004167"><ele>28.0</ele><time>2026-03-29T08:27:31.189Z</time></trkpt><trkpt lat="45.241875" lon="10.9007"><ele>28.0</ele><time>2026-03-29T08:27:32.19Z</time></trkpt><trkpt lat="45.2418617" lon="10.90096"><ele>28.0</ele><time>2026-03-29T08:27:33.188Z</time></trkpt><trkpt lat="45.2418683" lon="10.9012"><ele>28.0</ele><time>2026-03-29T08:27:34.189Z</time></trkpt><trkpt lat="45.24189" lon="10.9014233"><ele>28.0</ele><time>2026-03-29T08:27:35.189Z</time></trkpt><trkpt lat="45.2419183" lon="10.9016133"><ele>28.0</ele><time>2026-03-29T08:27:36.19Z</time></trkpt><trkpt lat="45.2419383" lon="10.901775"><ele>28.0</ele><time>2026-03-29T08:27:37.189Z</time></trkpt><trkpt lat="45.24194" lon="10.9019317"><ele>28.0</ele><time>2026-03-29T08:27:38.189Z</time></trkpt><trkpt lat="45.241905" lon="10.9021133"><ele>28.0</ele><time>2026-03-29T08:27:39.189Z</time></trkpt><trkpt lat="45.24184" lon="10.9023367"><ele>28.0</ele><time>2026-03-29T08:27:40.19Z</time></trkpt><trkpt lat="45.2417617" lon="10.9026083"><ele>28.0</ele><time>2026-03-29T08:27:41.19Z</time></trkpt><trkpt lat="45.24167" lon="10.9029183"><ele>28.5</ele><time>2026-03-29T08:27:42.189Z</time></trkpt><trkpt lat="45.241575" lon="10.9032367"><ele>29.0</ele><time>2026-03-29T08:27:43.189Z</time></trkpt><trkpt lat="45.2414867" lon="10.90355"><ele>29.0</ele><time>2026-03-29T08:27:44.189Z</time></trkpt><trkpt lat="45.2414033" lon="10.90384"><ele>29.0</ele><time>2026-03-29T08:27:45.19Z</time></trkpt><trkpt lat="45.2413217" lon="10.904125"><ele>29.0</ele><time>2026-03-29T08:27:46.189Z</time></trkpt><trkpt lat="45.2412433" lon="10.9044017"><ele>29.0</ele><time>2026-03-29T08:27:47.189Z</time></trkpt><trkpt lat="45.2411683" lon="10.904665"><ele>29.0</ele><time>2026-03-29T08:27:48.188Z</time></trkpt><trkpt lat="45.2410983" lon="10.904915"><ele>29.0</ele><time>2026-03-29T08:27:49.189Z</time></trkpt><trkpt lat="45.241035" lon="10.9051433"><ele>29.0</ele><time>2026-03-29T08:27:50.19Z</time></trkpt><trkpt lat="45.2409783" lon="10.9053433"><ele>29.0</ele><time>2026-03-29T08:27:51.19Z</time></trkpt><trkpt lat="45.2409317" lon="10.9055083"><ele>29.0</ele><time>2026-03-29T08:27:52.189Z</time></trkpt><trkpt lat="45.2408967" lon="10.9056267"><ele>29.0</ele><time>2026-03-29T08:27:53.19Z</time></trkpt><trkpt lat="45.2408683" lon="10.9057133"><ele>29.0</ele><time>2026-03-29T08:27:54.189Z</time></trkpt><trkpt lat="45.2408667" lon="10.90581"><ele>28.5</ele><time>2026-03-29T08:27:58.19Z</time></trkpt><trkpt lat="45.2409533" lon="10.9059267"><ele>28.0</ele><time>2026-03-29T08:28:00.19Z</time></trkpt><trkpt lat="45.2410733" lon="10.9060433"><ele>27.5</ele><time>2026-03-29T08:28:01.188Z</time></trkpt><trkpt lat="45.2412067" lon="10.9061733"><ele>27.0</ele><time>2026-03-29T08:28:02.191Z</time></trkpt><trkpt lat="45.2413417" lon="10.9063067"><ele>27.75</ele><time>2026-03-29T08:28:03.189Z</time></trkpt><trkpt lat="45.24147" lon="10.9064367"><ele>28.5</ele><time>2026-03-29T08:28:04.188Z</time></trkpt><trkpt lat="45.2415833" lon="10.9065533"><ele>29.25</ele><time>2026-03-29T08:28:05.189Z</time></trkpt><trkpt lat="45.2416817" lon="10.9066567"><ele>30.0</ele><time>2026-03-29T08:28:06.189Z</time></trkpt><trkpt lat="45.2417617" lon="10.9067367"><ele>30.0</ele><time>2026-03-29T08:28:07.189Z</time></trkpt><trkpt lat="45.2418217" lon="10.9067983"><ele>30.0</ele><time>2026-03-29T08:28:08.19Z</time></trkpt><trkpt lat="45.2418983" lon="10.9069133"><ele>30.0</ele><time>2026-03-29T08:28:10.189Z</time></trkpt><trkpt lat="45.2419117" lon="10.9070933"><ele>30.0</ele><time>2026-03-29T08:28:12.188Z</time></trkpt><trkpt lat="45.24189" lon="10.9072217"><ele>30.0</ele><time>2026-03-29T08:28:13.19Z</time></trkpt><trkpt lat="45.2418433" lon="10.9074067"><ele>29.666666666666664</ele><time>2026-03-29T08:28:14.19Z</time></trkpt><trkpt lat="45.2417783" lon="10.907635"><ele>29.333333333333332</ele><time>2026-03-29T08:28:15.188Z</time></trkpt><trkpt lat="45.2417033" lon="10.9078917"><ele>29.0</ele><time>2026-03-29T08:28:16.188Z</time></trkpt><trkpt lat="45.24162" lon="10.9081817"><ele>28.5</ele><time>2026-03-29T08:28:17.189Z</time></trkpt><trkpt lat="45.2415267" lon="10.9084933"><ele>28.0</ele><time>2026-03-29T08:28:18.189Z</time></trkpt><trkpt lat="45.2414283" lon="10.9088233"><ele>28.0</ele><time>2026-03-29T08:28:19.189Z</time></trkpt><trkpt lat="45.241325" lon="10.9091667"><ele>28.0</ele><time>2026-03-29T08:28:20.19Z</time></trkpt><trkpt lat="45.24122" lon="10.9095167"><ele>28.0</ele><time>2026-03-29T08:28:21.191Z</time></trkpt><trkpt lat="45.2411183" lon="10.9098667"><ele>28.0</ele><time>2026-03-29T08:28:22.191Z</time></trkpt><trkpt lat="45.24102" lon="10.9102133"><ele>28.0</ele><time>2026-03-29T08:28:23.191Z</time></trkpt><trkpt lat="45.2409233" lon="10.9105617"><ele>28.0</ele><time>2026-03-29T08:28:24.191Z</time></trkpt><trkpt lat="45.2408267" lon="10.910905"><ele>28.0</ele><time>2026-03-29T08:28:25.191Z</time></trkpt><trkpt lat="45.24073" lon="10.911245"><ele>28.0</ele><time>2026-03-29T08:28:26.191Z</time></trkpt><trkpt lat="45.2406367" lon="10.9115767"><ele>28.0</ele><time>2026-03-29T08:28:27.191Z</time></trkpt><trkpt lat="45.2405483" lon="10.9118933"><ele>28.0</ele><time>2026-03-29T08:28:28.19Z</time></trkpt><trkpt lat="45.2404633" lon="10.9122"><ele>28.0</ele><time>2026-03-29T08:28:29.192Z</time></trkpt><trkpt lat="45.2403833" lon="10.912495"><ele>28.0</ele><time>2026-03-29T08:28:30.192Z</time></trkpt><trkpt lat="45.2403117" lon="10.9127733"><ele>28.0</ele><time>2026-03-29T08:28:31.192Z</time></trkpt><trkpt lat="45.240245" lon="10.913035"><ele>28.333333333333336</ele><time>2026-03-29T08:28:32.19Z</time></trkpt><trkpt lat="45.2401883" lon="10.913295"><ele>28.666666666666664</ele><time>2026-03-29T08:28:33.189Z</time></trkpt><trkpt lat="45.2401383" lon="10.9135783"><ele>29.0</ele><time>2026-03-29T08:28:34.191Z</time></trkpt><trkpt lat="45.2400917" lon="10.9138833"><ele>28.0</ele><time>2026-03-29T08:28:35.19Z</time></trkpt><trkpt lat="45.2400467" lon="10.9141983"><ele>27.0</ele><time>2026-03-29T08:28:36.19Z</time></trkpt><trkpt lat="45.240005" lon="10.914525"><ele>26.5</ele><time>2026-03-29T08:28:37.191Z</time></trkpt><trkpt lat="45.239965" lon="10.9148433"><ele>26.0</ele><time>2026-03-29T08:28:38.19Z</time></trkpt><trkpt lat="45.239925" lon="10.9151533"><ele>26.0</ele><time>2026-03-29T08:28:39.189Z</time></trkpt><trkpt lat="45.2398833" lon="10.915435"><ele>26.0</ele><time>2026-03-29T08:28:40.191Z</time></trkpt><trkpt lat="45.2398317" lon="10.91571"><ele>26.0</ele><time>2026-03-29T08:28:41.19Z</time></trkpt><trkpt lat="45.2397633" lon="10.91597"><ele>26.0</ele><time>2026-03-29T08:28:42.191Z</time></trkpt><trkpt lat="45.239695" lon="10.9162317"><ele>26.0</ele><time>2026-03-29T08:28:43.188Z</time></trkpt><trkpt lat="45.2396367" lon="10.9165"><ele>26.0</ele><time>2026-03-29T08:28:44.192Z</time></trkpt><trkpt lat="45.2395983" lon="10.91678"><ele>26.333333333333332</ele><time>2026-03-29T08:28:45.19Z</time></trkpt><trkpt lat="45.2395783" lon="10.9170767"><ele>26.666666666666664</ele><time>2026-03-29T08:28:46.19Z</time></trkpt><trkpt lat="45.239565" lon="10.9173817"><ele>27.0</ele><time>2026-03-29T08:28:47.19Z</time></trkpt><trkpt lat="45.239555" lon="10.917675"><ele>27.0</ele><time>2026-03-29T08:28:48.193Z</time></trkpt><trkpt lat="45.2395467" lon="10.9179483"><ele>27.0</ele><time>2026-03-29T08:28:49.192Z</time></trkpt><trkpt lat="45.2395383" lon="10.9181933"><ele>27.0</ele><time>2026-03-29T08:28:50.191Z</time></trkpt><trkpt lat="45.23953" lon="10.9184233"><ele>27.0</ele><time>2026-03-29T08:28:51.192Z</time></trkpt><trkpt lat="45.239515" lon="10.91863"><ele>27.0</ele><time>2026-03-29T08:28:52.19Z</time></trkpt><trkpt lat="45.2394917" lon="10.9188183"><ele>27.0</ele><time>2026-03-29T08:28:53.191Z</time></trkpt><trkpt lat="45.23947" lon="10.918985"><ele>27.0</ele><time>2026-03-29T08:28:54.191Z</time></trkpt><trkpt lat="45.239445" lon="10.9191383"><ele>27.0</ele><time>2026-03-29T08:28:55.193Z</time></trkpt><trkpt lat="45.23942" lon="10.9192783"><ele>27.000000000000004</ele><time>2026-03-29T08:28:56.192Z</time></trkpt><trkpt lat="45.2393983" lon="10.919405"><ele>27.000000000000004</ele><time>2026-03-29T08:28:57.191Z</time></trkpt><trkpt lat="45.239375" lon="10.9195233"><ele>27.0</ele><time>2026-03-29T08:28:58.192Z</time></trkpt><trkpt lat="45.2393483" lon="10.9196567"><ele>27.0</ele><time>2026-03-29T08:28:59.191Z</time></trkpt><trkpt lat="45.2393217" lon="10.9198217"><ele>27.0</ele><time>2026-03-29T08:29:00.19Z</time></trkpt><trkpt lat="45.2392933" lon="10.920015"><ele>27.0</ele><time>2026-03-29T08:29:01.191Z</time></trkpt><trkpt lat="45.2392633" lon="10.920235"><ele>27.0</ele><time>2026-03-29T08:29:02.192Z</time></trkpt><trkpt lat="45.2392267" lon="10.920455"><ele>27.0</ele><time>2026-03-29T08:29:03.191Z</time></trkpt><trkpt lat="45.239195" lon="10.920655"><ele>27.0</ele><time>2026-03-29T08:29:04.189Z</time></trkpt><trkpt lat="45.2391683" lon="10.9208233"><ele>27.0</ele><time>2026-03-29T08:29:05.192Z</time></trkpt><trkpt lat="45.23914" lon="10.92097"><ele>27.0</ele><time>2026-03-29T08:29:06.19Z</time></trkpt><trkpt lat="45.2391083" lon="10.9211083"><ele>27.0</ele><time>2026-03-29T08:29:07.191Z</time></trkpt><trkpt lat="45.239075" lon="10.9212367"><ele>27.000000000000004</ele><time>2026-03-29T08:29:08.192Z</time></trkpt><trkpt lat="45.2390417" lon="10.921365"><ele>27.000000000000004</ele><time>2026-03-29T08:29:09.19Z</time></trkpt><trkpt lat="45.2390033" lon="10.9215"><ele>27.0</ele><time>2026-03-29T08:29:10.19Z</time></trkpt><trkpt lat="45.2389617" lon="10.9216467"><ele>27.0</ele><time>2026-03-29T08:29:11.189Z</time></trkpt><trkpt lat="45.2389167" lon="10.9217883"><ele>26.6</ele><time>2026-03-29T08:29:12.189Z</time></trkpt><trkpt lat="45.238875" lon="10.9219183"><ele>26.200000000000003</ele><time>2026-03-29T08:29:13.19Z</time></trkpt><trkpt lat="45.2388383" lon="10.9220367"><ele>25.8</ele><time>2026-03-29T08:29:14.19Z</time></trkpt><trkpt lat="45.2388033" lon="10.922145"><ele>25.4</ele><time>2026-03-29T08:29:15.192Z</time></trkpt><trkpt lat="45.2387467" lon="10.9222683"><ele>25.0</ele><time>2026-03-29T08:29:17.191Z</time></trkpt><trkpt lat="45.2386633" lon="10.922295"><ele>25.0</ele><time>2026-03-29T08:29:20.192Z</time></trkpt><trkpt lat="45.238545" lon="10.9222283"><ele>25.0</ele><time>2026-03-29T08:29:22.19Z</time></trkpt><trkpt lat="45.23844" lon="10.922165"><ele>25.0</ele><time>2026-03-29T08:29:23.19Z</time></trkpt><trkpt lat="45.2383217" lon="10.9220883"><ele>25.0</ele><time>2026-03-29T08:29:24.19Z</time></trkpt><trkpt lat="45.2381967" lon="10.92201"><ele>25.0</ele><time>2026-03-29T08:29:25.19Z</time></trkpt><trkpt lat="45.2380633" lon="10.92194"><ele>25.0</ele><time>2026-03-29T08:29:26.191Z</time></trkpt><trkpt lat="45.23792" lon="10.9218617"><ele>25.0</ele><time>2026-03-29T08:29:27.19Z</time></trkpt><trkpt lat="45.237775" lon="10.9217867"><ele>25.0</ele><time>2026-03-29T08:29:28.19Z</time></trkpt><trkpt lat="45.2376333" lon="10.9217133"><ele>25.0</ele><time>2026-03-29T08:29:29.189Z</time></trkpt><trkpt lat="45.2374933" lon="10.9216367"><ele>25.0</ele><time>2026-03-29T08:29:30.191Z</time></trkpt><trkpt lat="45.2373483" lon="10.9215567"><ele>25.333333333333336</ele><time>2026-03-29T08:29:31.19Z</time></trkpt><trkpt lat="45.2371967" lon="10.9214733"><ele>25.666666666666664</ele><time>2026-03-29T08:29:32.19Z</time></trkpt><trkpt lat="45.23704" lon="10.9213867"><ele>26.0</ele><time>2026-03-29T08:29:33.191Z</time></trkpt><trkpt lat="45.2368783" lon="10.9212933"><ele>26.0</ele><time>2026-03-29T08:29:34.191Z</time></trkpt><trkpt lat="45.2367117" lon="10.9211983"><ele>26.0</ele><time>2026-03-29T08:29:35.19Z</time></trkpt><trkpt lat="45.2365417" lon="10.9211017"><ele>26.0</ele><time>2026-03-29T08:29:36.195Z</time></trkpt><trkpt lat="45.236375" lon="10.92101"><ele>26.333333333333332</ele><time>2026-03-29T08:29:37.199Z</time></trkpt><trkpt lat="45.2362117" lon="10.9209167"><ele>26.666666666666664</ele><time>2026-03-29T08:29:38.193Z</time></trkpt><trkpt lat="45.2360617" lon="10.9208283"><ele>27.0</ele><time>2026-03-29T08:29:39.192Z</time></trkpt><trkpt lat="45.235935" lon="10.92076"><ele>27.0</ele><time>2026-03-29T08:29:40.19Z</time></trkpt><trkpt lat="45.2358267" lon="10.920705"><ele>27.0</ele><time>2026-03-29T08:29:41.19Z</time></trkpt><trkpt lat="45.235725" lon="10.9206517"><ele>27.0</ele><time>2026-03-29T08:29:42.192Z</time></trkpt><trkpt lat="45.23561" lon="10.9205883"><ele>27.0</ele><time>2026-03-29T08:29:43.192Z</time></trkpt><trkpt lat="45.23549" lon="10.920525"><ele>27.0</ele><time>2026-03-29T08:29:44.19Z</time></trkpt><trkpt lat="45.235375" lon="10.9204617"><ele>27.000000000000004</ele><time>2026-03-29T08:29:45.19Z</time></trkpt><trkpt lat="45.235275" lon="10.9204033"><ele>27.000000000000004</ele><time>2026-03-29T08:29:46.19Z</time></trkpt><trkpt lat="45.2351817" lon="10.92035"><ele>27.0</ele><time>2026-03-29T08:29:47.191Z</time></trkpt><trkpt lat="45.2351" lon="10.9203033"><ele>27.0</ele><time>2026-03-29T08:29:48.192Z</time></trkpt><trkpt lat="45.2350217" lon="10.9202617"><ele>27.0</ele><time>2026-03-29T08:29:49.191Z</time></trkpt><trkpt lat="45.234955" lon="10.9202217"><ele>27.000000000000004</ele><time>2026-03-29T08:29:50.191Z</time></trkpt><trkpt lat="45.2348517" lon="10.92019"><ele>27.000000000000004</ele><time>2026-03-29T08:29:52.192Z</time></trkpt><trkpt lat="45.234765" lon="10.92024"><ele>27.0</ele><time>2026-03-29T08:29:54.19Z</time></trkpt><trkpt lat="45.23469" lon="10.9203733"><ele>27.0</ele><time>2026-03-29T08:29:56.19Z</time></trkpt><trkpt lat="45.2346617" lon="10.9204967"><ele>27.0</ele><time>2026-03-29T08:29:57.191Z</time></trkpt><trkpt lat="45.2346267" lon="10.9206867"><ele>27.0</ele><time>2026-03-29T08:29:58.19Z</time></trkpt><trkpt lat="45.234585" lon="10.9209067"><ele>27.0</ele><time>2026-03-29T08:29:59.191Z</time></trkpt><trkpt lat="45.234535" lon="10.92116"><ele>26.666666666666664</ele><time>2026-03-29T08:30:00.191Z</time></trkpt><trkpt lat="45.2344783" lon="10.921435"><ele>26.333333333333332</ele><time>2026-03-29T08:30:01.191Z</time></trkpt><trkpt lat="45.2344217" lon="10.92171"><ele>26.0</ele><time>2026-03-29T08:30:02.193Z</time></trkpt><trkpt lat="45.23437" lon="10.9219667"><ele>26.0</ele><time>2026-03-29T08:30:03.193Z</time></trkpt><trkpt lat="45.234325" lon="10.9222033"><ele>26.0</ele><time>2026-03-29T08:30:04.19Z</time></trkpt><trkpt lat="45.2342833" lon="10.9224183"><ele>26.0</ele><time>2026-03-29T08:30:05.191Z</time></trkpt><trkpt lat="45.2342383" lon="10.9226317"><ele>26.0</ele><time>2026-03-29T08:30:06.294Z</time></trkpt><trkpt lat="45.2341333" lon="10.9231017"><ele>26.0</ele><time>2026-03-29T08:30:08.191Z</time></trkpt><trkpt lat="45.234085" lon="10.92332"><ele>26.0</ele><time>2026-03-29T08:30:09.191Z</time></trkpt><trkpt lat="45.2340383" lon="10.92353"><ele>26.0</ele><time>2026-03-29T08:30:10.192Z</time></trkpt><trkpt lat="45.2339883" lon="10.92374"><ele>26.0</ele><time>2026-03-29T08:30:11.191Z</time></trkpt><trkpt lat="45.2339383" lon="10.9239433"><ele>26.0</ele><time>2026-03-29T08:30:12.19Z</time></trkpt><trkpt lat="45.2338933" lon="10.9241483"><ele>26.0</ele><time>2026-03-29T08:30:13.189Z</time></trkpt><trkpt lat="45.2338433" lon="10.92435"><ele>26.0</ele><time>2026-03-29T08:30:14.192Z</time></trkpt><trkpt lat="45.2337917" lon="10.9245467"><ele>26.333333333333332</ele><time>2026-03-29T08:30:15.191Z</time></trkpt><trkpt lat="45.23374" lon="10.9247483"><ele>26.666666666666664</ele><time>2026-03-29T08:30:16.191Z</time></trkpt><trkpt lat="45.23369" lon="10.92496"><ele>27.0</ele><time>2026-03-29T08:30:17.189Z</time></trkpt><trkpt lat="45.2336467" lon="10.9251683"><ele>27.0</ele><time>2026-03-29T08:30:18.192Z</time></trkpt><trkpt lat="45.2335983" lon="10.9253767"><ele>27.0</ele><time>2026-03-29T08:30:19.191Z</time></trkpt><trkpt lat="45.2335517" lon="10.92558"><ele>27.0</ele><time>2026-03-29T08:30:20.19Z</time></trkpt><trkpt lat="45.23351" lon="10.92577"><ele>27.0</ele><time>2026-03-29T08:30:21.192Z</time></trkpt><trkpt lat="45.2334767" lon="10.9259417"><ele>27.0</ele><time>2026-03-29T08:30:22.191Z</time></trkpt><trkpt lat="45.233455" lon="10.9261017"><ele>27.0</ele><time>2026-03-29T08:30:23.189Z</time></trkpt><trkpt lat="45.2334441" lon="10.9262592"><ele>27.0</ele><time>2026-03-29T08:30:24.19Z</time></trkpt><trkpt lat="45.2334388" lon="10.9264334"><ele>27.0</ele><time>2026-03-29T08:30:25.189Z</time></trkpt><trkpt lat="45.2334401" lon="10.9266151"><ele>26.75</ele><time>2026-03-29T08:30:26.191Z</time></trkpt><trkpt lat="45.233446" lon="10.9267834"><ele>26.5</ele><time>2026-03-29T08:30:27.189Z</time></trkpt><trkpt lat="45.2334627" lon="10.9269393"><ele>26.25</ele><time>2026-03-29T08:30:28.189Z</time></trkpt><trkpt lat="45.2334962" lon="10.927103"><ele>26.0</ele><time>2026-03-29T08:30:29.192Z</time></trkpt><trkpt lat="45.233547" lon="10.9272889"><ele>26.0</ele><time>2026-03-29T08:30:30.191Z</time></trkpt><trkpt lat="45.2336153" lon="10.9274939"><ele>26.0</ele><time>2026-03-29T08:30:31.192Z</time></trkpt><trkpt lat="45.2336871" lon="10.927694"><ele>26.0</ele><time>2026-03-29T08:30:32.195Z</time></trkpt><trkpt lat="45.2337478" lon="10.9278667"><ele>26.0</ele><time>2026-03-29T08:30:33.192Z</time></trkpt><trkpt lat="45.2337953" lon="10.9280218"><ele>26.0</ele><time>2026-03-29T08:30:34.19Z</time></trkpt><trkpt lat="45.2338281" lon="10.9281668"><ele>26.0</ele><time>2026-03-29T08:30:35.191Z</time></trkpt><trkpt lat="45.2338499" lon="10.928301"><ele>26.0</ele><time>2026-03-29T08:30:36.191Z</time></trkpt><trkpt lat="45.2338682" lon="10.9284379"><ele>26.0</ele><time>2026-03-29T08:30:37.194Z</time></trkpt><trkpt lat="45.2338814" lon="10.9285744"><ele>25.75</ele><time>2026-03-29T08:30:38.19Z</time></trkpt><trkpt lat="45.2338897" lon="10.9287152"><ele>25.5</ele><time>2026-03-29T08:30:39.19Z</time></trkpt><trkpt lat="45.2338922" lon="10.9288862"><ele>25.25</ele><time>2026-03-29T08:30:40.19Z</time></trkpt><trkpt lat="45.233885" lon="10.9290736"><ele>25.0</ele><time>2026-03-29T08:30:41.191Z</time></trkpt><trkpt lat="45.233868" lon="10.9292633"><ele>25.666666666666668</ele><time>2026-03-29T08:30:42.19Z</time></trkpt><trkpt lat="45.2338403" lon="10.9294729"><ele>26.333333333333336</ele><time>2026-03-29T08:30:43.189Z</time></trkpt><trkpt lat="45.2338034" lon="10.9297173"><ele>27.0</ele><time>2026-03-29T08:30:44.19Z</time></trkpt><trkpt lat="45.2337638" lon="10.9299848"><ele>26.666666666666664</ele><time>2026-03-29T08:30:45.19Z</time></trkpt><trkpt lat="45.2337273" lon="10.9302356"><ele>26.333333333333332</ele><time>2026-03-29T08:30:46.19Z</time></trkpt><trkpt lat="45.233698" lon="10.9304428"><ele>26.0</ele><time>2026-03-29T08:30:47.19Z</time></trkpt><trkpt lat="45.2336753" lon="10.9306154"><ele>25.999999999999996</ele><time>2026-03-29T08:30:48.19Z</time></trkpt><trkpt lat="45.2336523" lon="10.9307616"><ele>26.0</ele><time>2026-03-29T08:30:49.191Z</time></trkpt><trkpt lat="45.2336318" lon="10.9308846"><ele>26.0</ele><time>2026-03-29T08:30:50.19Z</time></trkpt><trkpt lat="45.2336152" lon="10.9309813"><ele>26.0</ele><time>2026-03-29T08:30:51.189Z</time></trkpt><trkpt lat="45.2335909" lon="10.931089"><ele>25.999999999999996</ele><time>2026-03-29T08:30:53.19Z</time></trkpt><trkpt lat="45.2335681" lon="10.9312157"><ele>26.0</ele><time>2026-03-29T08:30:59.191Z</time></trkpt><trkpt lat="45.2335465" lon="10.9313774"><ele>26.0</ele><time>2026-03-29T08:31:00.19Z</time></trkpt><trkpt lat="45.2335166" lon="10.931587"><ele>26.0</ele><time>2026-03-29T08:31:01.191Z</time></trkpt><trkpt lat="45.2334731" lon="10.93185"><ele>26.0</ele><time>2026-03-29T08:31:02.191Z</time></trkpt><trkpt lat="45.2334269" lon="10.9321564"><ele>25.5</ele><time>2026-03-29T08:31:03.19Z</time></trkpt><trkpt lat="45.2333824" lon="10.9324763"><ele>25.0</ele><time>2026-03-29T08:31:04.189Z</time></trkpt><trkpt lat="45.2333368" lon="10.9327981"><ele>25.333333333333336</ele><time>2026-03-29T08:31:05.19Z</time></trkpt><trkpt lat="45.2332896" lon="10.9331115"><ele>25.666666666666664</ele><time>2026-03-29T08:31:06.192Z</time></trkpt><trkpt lat="45.2332413" lon="10.9334161"><ele>26.0</ele><time>2026-03-29T08:31:07.189Z</time></trkpt><trkpt lat="45.2331912" lon="10.9337147"><ele>26.0</ele><time>2026-03-29T08:31:08.189Z</time></trkpt><trkpt lat="45.2331419" lon="10.9340212"><ele>26.0</ele><time>2026-03-29T08:31:09.189Z</time></trkpt><trkpt lat="45.2330849" lon="10.9343635"><ele>26.0</ele><time>2026-03-29T08:31:10.19Z</time></trkpt><trkpt lat="45.2330236" lon="10.9347393"><ele>26.0</ele><time>2026-03-29T08:31:11.19Z</time></trkpt><trkpt lat="45.2329666" lon="10.9351262"><ele>26.0</ele><time>2026-03-29T08:31:12.19Z</time></trkpt><trkpt lat="45.2329261" lon="10.9355019"><ele>26.0</ele><time>2026-03-29T08:31:13.189Z</time></trkpt><trkpt lat="45.2328983" lon="10.9358639"><ele>26.5</ele><time>2026-03-29T08:31:14.19Z</time></trkpt><trkpt lat="45.2328759" lon="10.9362057"><ele>27.0</ele><time>2026-03-29T08:31:15.19Z</time></trkpt><trkpt lat="45.2328561" lon="10.9365376"><ele>26.0</ele><time>2026-03-29T08:31:16.188Z</time></trkpt><trkpt lat="45.2328377" lon="10.936865"><ele>25.0</ele><time>2026-03-29T08:31:17.189Z</time></trkpt><trkpt lat="45.2328227" lon="10.9371977"><ele>25.0</ele><time>2026-03-29T08:31:18.191Z</time></trkpt><trkpt lat="45.2328125" lon="10.9375271"><ele>25.0</ele><time>2026-03-29T08:31:19.189Z</time></trkpt><trkpt lat="45.2328058" lon="10.9378458"><ele>25.0</ele><time>2026-03-29T08:31:20.191Z</time></trkpt><trkpt lat="45.2327995" lon="10.9381548"><ele>25.0</ele><time>2026-03-29T08:31:21.19Z</time></trkpt><trkpt lat="45.2327935" lon="10.9384409"><ele>25.0</ele><time>2026-03-29T08:31:22.19Z</time></trkpt><trkpt lat="45.2327889" lon="10.9387159"><ele>25.0</ele><time>2026-03-29T08:31:23.191Z</time></trkpt><trkpt lat="45.2327928" lon="10.9389982"><ele>25.0</ele><time>2026-03-29T08:31:24.191Z</time></trkpt><trkpt lat="45.2328196" lon="10.9393035"><ele>25.0</ele><time>2026-03-29T08:31:25.19Z</time></trkpt><trkpt lat="45.2328677" lon="10.9396201"><ele>25.0</ele><time>2026-03-29T08:31:26.19Z</time></trkpt><trkpt lat="45.2329244" lon="10.9399019"><ele>25.0</ele><time>2026-03-29T08:31:27.193Z</time></trkpt><trkpt lat="45.2329946" lon="10.940145"><ele>25.0</ele><time>2026-03-29T08:31:28.19Z</time></trkpt><trkpt lat="45.2331036" lon="10.9403654"><ele>26.0</ele><time>2026-03-29T08:31:29.195Z</time></trkpt><trkpt lat="45.2332606" lon="10.940568"><ele>27.0</ele><time>2026-03-29T08:31:30.19Z</time></trkpt><trkpt lat="45.2334572" lon="10.9407722"><ele>26.5</ele><time>2026-03-29T08:31:31.189Z</time></trkpt><trkpt lat="45.2336859" lon="10.94099"><ele>26.0</ele><time>2026-03-29T08:31:32.189Z</time></trkpt><trkpt lat="45.2339229" lon="10.941205"><ele>26.0</ele><time>2026-03-29T08:31:33.191Z</time></trkpt><trkpt lat="45.2341312" lon="10.9413838"><ele>26.0</ele><time>2026-03-29T08:31:34.19Z</time></trkpt><trkpt lat="45.2342905" lon="10.9415143"><ele>26.0</ele><time>2026-03-29T08:31:35.19Z</time></trkpt><trkpt lat="45.2344079" lon="10.9416249"><ele>25.666666666666664</ele><time>2026-03-29T08:31:36.189Z</time></trkpt><trkpt lat="45.2344919" lon="10.9417667"><ele>25.333333333333336</ele><time>2026-03-29T08:31:37.188Z</time></trkpt><trkpt lat="45.2345451" lon="10.9419555"><ele>25.0</ele><time>2026-03-29T08:31:38.193Z</time></trkpt><trkpt lat="45.2345809" lon="10.9422034"><ele>25.0</ele><time>2026-03-29T08:31:39.19Z</time></trkpt><trkpt lat="45.2346411" lon="10.9424957"><ele>25.0</ele><time>2026-03-29T08:31:40.19Z</time></trkpt><trkpt lat="45.2347354" lon="10.9428272"><ele>25.0</ele><time>2026-03-29T08:31:41.19Z</time></trkpt><trkpt lat="45.2348519" lon="10.9431932"><ele>25.0</ele><time>2026-03-29T08:31:42.19Z</time></trkpt><trkpt lat="45.2349843" lon="10.9435838"><ele>25.0</ele><time>2026-03-29T08:31:43.192Z</time></trkpt><trkpt lat="45.2351189" lon="10.9439821"><ele>25.0</ele><time>2026-03-29T08:31:44.192Z</time></trkpt><trkpt lat="45.235248" lon="10.9443562"><ele>25.0</ele><time>2026-03-29T08:31:45.192Z</time></trkpt><trkpt lat="45.2353705" lon="10.9447159"><ele>25.0</ele><time>2026-03-29T08:31:46.191Z</time></trkpt><trkpt lat="45.2354904" lon="10.9450687"><ele>25.0</ele><time>2026-03-29T08:31:47.191Z</time></trkpt><trkpt lat="45.235609" lon="10.9454306"><ele>25.0</ele><time>2026-03-29T08:31:48.19Z</time></trkpt><trkpt lat="45.235715" lon="10.945814"><ele>24.5</ele><time>2026-03-29T08:31:49.189Z</time></trkpt><trkpt lat="45.2358046" lon="10.946233"><ele>24.0</ele><time>2026-03-29T08:31:50.189Z</time></trkpt><trkpt lat="45.2358941" lon="10.9466723"><ele>24.0</ele><time>2026-03-29T08:31:51.191Z</time></trkpt><trkpt lat="45.2359846" lon="10.94709"><ele>24.0</ele><time>2026-03-29T08:31:52.189Z</time></trkpt><trkpt lat="45.2360682" lon="10.9474843"><ele>24.5</ele><time>2026-03-29T08:31:53.189Z</time></trkpt><trkpt lat="45.236146" lon="10.9478575"><ele>25.0</ele><time>2026-03-29T08:31:54.19Z</time></trkpt><trkpt lat="45.2362213" lon="10.9482025"><ele>24.5</ele><time>2026-03-29T08:31:55.191Z</time></trkpt><trkpt lat="45.2362891" lon="10.9485312"><ele>24.0</ele><time>2026-03-29T08:31:56.19Z</time></trkpt><trkpt lat="45.2363465" lon="10.9488637"><ele>23.5</ele><time>2026-03-29T08:31:57.189Z</time></trkpt><trkpt lat="45.2363885" lon="10.949221"><ele>23.0</ele><time>2026-03-29T08:31:58.189Z</time></trkpt><trkpt lat="45.2364215" lon="10.9495823"><ele>23.0</ele><time>2026-03-29T08:31:59.19Z</time></trkpt><trkpt lat="45.2364496" lon="10.9499252"><ele>23.0</ele><time>2026-03-29T08:32:00.19Z</time></trkpt><trkpt lat="45.2364734" lon="10.9502539"><ele>23.5</ele><time>2026-03-29T08:32:01.19Z</time></trkpt><trkpt lat="45.2364765" lon="10.9505881"><ele>24.0</ele><time>2026-03-29T08:32:02.192Z</time></trkpt><trkpt lat="45.2364459" lon="10.9509343"><ele>24.0</ele><time>2026-03-29T08:32:03.189Z</time></trkpt><trkpt lat="45.2363969" lon="10.9512781"><ele>24.0</ele><time>2026-03-29T08:32:04.19Z</time></trkpt><trkpt lat="45.2363626" lon="10.95162"><ele>24.5</ele><time>2026-03-29T08:32:05.191Z</time></trkpt><trkpt lat="45.2363367" lon="10.9519773"><ele>25.0</ele><time>2026-03-29T08:32:06.189Z</time></trkpt><trkpt lat="45.2363153" lon="10.9523433"><ele>24.5</ele><time>2026-03-29T08:32:07.191Z</time></trkpt><trkpt lat="45.2362991" lon="10.9526987"><ele>24.0</ele><time>2026-03-29T08:32:08.193Z</time></trkpt><trkpt lat="45.2362869" lon="10.9530459"><ele>24.0</ele><time>2026-03-29T08:32:09.189Z</time></trkpt><trkpt lat="45.2362665" lon="10.9533829"><ele>24.0</ele><time>2026-03-29T08:32:10.19Z</time></trkpt><trkpt lat="45.2362445" lon="10.9537219"><ele>24.0</ele><time>2026-03-29T08:32:11.194Z</time></trkpt><trkpt lat="45.2362257" lon="10.9540576"><ele>24.0</ele><time>2026-03-29T08:32:12.19Z</time></trkpt><trkpt lat="45.2362085" lon="10.9543973"><ele>24.0</ele><time>2026-03-29T08:32:13.19Z</time></trkpt><trkpt lat="45.2361891" lon="10.9547491"><ele>24.0</ele><time>2026-03-29T08:32:14.194Z</time></trkpt><trkpt lat="45.2361719" lon="10.9551223"><ele>24.0</ele><time>2026-03-29T08:32:15.19Z</time></trkpt><trkpt lat="45.236157" lon="10.9555141"><ele>24.0</ele><time>2026-03-29T08:32:16.191Z</time></trkpt><trkpt lat="45.2361451" lon="10.9558889"><ele>24.0</ele><time>2026-03-29T08:32:17.189Z</time></trkpt><trkpt lat="45.236131" lon="10.956209"><ele>24.0</ele><time>2026-03-29T08:32:18.189Z</time></trkpt><trkpt lat="45.2361204" lon="10.9564662"><ele>24.0</ele><time>2026-03-29T08:32:19.189Z</time></trkpt><trkpt lat="45.236118" lon="10.9566767"><ele>24.0</ele><time>2026-03-29T08:32:20.19Z</time></trkpt><trkpt lat="45.2361419" lon="10.9569022"><ele>24.0</ele><time>2026-03-29T08:32:21.19Z</time></trkpt><trkpt lat="45.2362042" lon="10.9571443"><ele>24.0</ele><time>2026-03-29T08:32:22.19Z</time></trkpt><trkpt lat="45.2363056" lon="10.9574223"><ele>23.5</ele><time>2026-03-29T08:32:23.189Z</time></trkpt><trkpt lat="45.2364283" lon="10.9577414"><ele>23.0</ele><time>2026-03-29T08:32:24.19Z</time></trkpt><trkpt lat="45.2365536" lon="10.9580842"><ele>23.5</ele><time>2026-03-29T08:32:25.19Z</time></trkpt><trkpt lat="45.2366669" lon="10.9584352"><ele>24.0</ele><time>2026-03-29T08:32:26.189Z</time></trkpt><trkpt lat="45.2367654" lon="10.9587824"><ele>24.0</ele><time>2026-03-29T08:32:27.189Z</time></trkpt><trkpt lat="45.2368563" lon="10.9591221"><ele>24.0</ele><time>2026-03-29T08:32:28.189Z</time></trkpt><trkpt lat="45.2369418" lon="10.9594454"><ele>24.0</ele><time>2026-03-29T08:32:29.191Z</time></trkpt><trkpt lat="45.2370263" lon="10.9597494"><ele>24.0</ele><time>2026-03-29T08:32:30.191Z</time></trkpt><trkpt lat="45.2371172" lon="10.9600466"><ele>24.0</ele><time>2026-03-29T08:32:31.191Z</time></trkpt><trkpt lat="45.2372206" lon="10.9603395"><ele>24.0</ele><time>2026-03-29T08:32:32.191Z</time></trkpt><trkpt lat="45.237328" lon="10.9606249"><ele>24.333333333333336</ele><time>2026-03-29T08:32:33.191Z</time></trkpt><trkpt lat="45.2374269" lon="10.9608834"><ele>24.666666666666668</ele><time>2026-03-29T08:32:34.19Z</time></trkpt><trkpt lat="45.2375143" lon="10.9611074"><ele>25.0</ele><time>2026-03-29T08:32:35.189Z</time></trkpt><trkpt lat="45.23759" lon="10.9612997"><ele>25.0</ele><time>2026-03-29T08:32:36.191Z</time></trkpt><trkpt lat="45.2376508" lon="10.9614754"><ele>25.0</ele><time>2026-03-29T08:32:37.192Z</time></trkpt><trkpt lat="45.2376921" lon="10.9616604"><ele>25.0</ele><time>2026-03-29T08:32:38.193Z</time></trkpt><trkpt lat="45.2377215" lon="10.9618783"><ele>25.0</ele><time>2026-03-29T08:32:39.19Z</time></trkpt><trkpt lat="45.2377646" lon="10.962135"><ele>25.333333333333336</ele><time>2026-03-29T08:32:40.189Z</time></trkpt><trkpt lat="45.2378212" lon="10.9624002"><ele>25.666666666666664</ele><time>2026-03-29T08:32:41.191Z</time></trkpt><trkpt lat="45.2379" lon="10.9626709"><ele>26.0</ele><time>2026-03-29T08:32:42.189Z</time></trkpt><trkpt lat="45.2379929" lon="10.9629087"><ele>26.0</ele><time>2026-03-29T08:32:43.191Z</time></trkpt><trkpt lat="45.2381023" lon="10.9631169"><ele>26.0</ele><time>2026-03-29T08:32:44.191Z</time></trkpt><trkpt lat="45.2382393" lon="10.9632961"><ele>26.0</ele><time>2026-03-29T08:32:45.189Z</time></trkpt><trkpt lat="45.2383944" lon="10.9634589"><ele>25.666666666666664</ele><time>2026-03-29T08:32:46.191Z</time></trkpt><trkpt lat="45.2385618" lon="10.9636147"><ele>25.333333333333336</ele><time>2026-03-29T08:32:47.19Z</time></trkpt><trkpt lat="45.2387326" lon="10.9637591"><ele>25.0</ele><time>2026-03-29T08:32:48.189Z</time></trkpt><trkpt lat="45.2388947" lon="10.9638784"><ele>24.333333333333336</ele><time>2026-03-29T08:32:49.189Z</time></trkpt><trkpt lat="45.2390441" lon="10.9639732"><ele>23.666666666666668</ele><time>2026-03-29T08:32:50.192Z</time></trkpt><trkpt lat="45.2391853" lon="10.9640436"><ele>23.0</ele><time>2026-03-29T08:32:51.189Z</time></trkpt><trkpt lat="45.239326" lon="10.9640911"><ele>23.0</ele><time>2026-03-29T08:32:52.19Z</time></trkpt><trkpt lat="45.2394657" lon="10.9641219"><ele>23.0</ele><time>2026-03-29T08:32:53.19Z</time></trkpt><trkpt lat="45.2396068" lon="10.9641266"><ele>23.0</ele><time>2026-03-29T08:32:54.189Z</time></trkpt><trkpt lat="45.2397413" lon="10.9641095"><ele>23.0</ele><time>2026-03-29T08:32:55.189Z</time></trkpt><trkpt lat="45.2398626" lon="10.9640867"><ele>23.2</ele><time>2026-03-29T08:32:56.189Z</time></trkpt><trkpt lat="45.2399605" lon="10.9640696"><ele>23.4</ele><time>2026-03-29T08:32:57.189Z</time></trkpt><trkpt lat="45.2400376" lon="10.9640595"><ele>23.599999999999998</ele><time>2026-03-29T08:32:58.189Z</time></trkpt><trkpt lat="45.2401043" lon="10.9640634"><ele>23.799999999999997</ele><time>2026-03-29T08:32:59.19Z</time></trkpt><trkpt lat="45.2402066" lon="10.9641209"><ele>24.0</ele><time>2026-03-29T08:33:01.189Z</time></trkpt><trkpt lat="45.2402588" lon="10.9642826"><ele>24.5</ele><time>2026-03-29T08:33:03.193Z</time></trkpt><trkpt lat="45.2402701" lon="10.9644068"><ele>25.0</ele><time>2026-03-29T08:33:04.189Z</time></trkpt><trkpt lat="45.2402661" lon="10.9645448"><ele>25.5</ele><time>2026-03-29T08:33:05.189Z</time></trkpt><trkpt lat="45.2402411" lon="10.9647236"><ele>26.0</ele><time>2026-03-29T08:33:06.189Z</time></trkpt><trkpt lat="45.2402159" lon="10.9649218"><ele>25.333333333333332</ele><time>2026-03-29T08:33:07.189Z</time></trkpt><trkpt lat="45.2401949" lon="10.9651277"><ele>24.666666666666664</ele><time>2026-03-29T08:33:08.191Z</time></trkpt><trkpt lat="45.2401733" lon="10.9653454"><ele>24.0</ele><time>2026-03-29T08:33:09.19Z</time></trkpt><trkpt lat="45.2401468" lon="10.9655981"><ele>24.0</ele><time>2026-03-29T08:33:10.189Z</time></trkpt><trkpt lat="45.2401196" lon="10.9658859"><ele>24.0</ele><time>2026-03-29T08:33:11.189Z</time></trkpt><trkpt lat="45.240098" lon="10.966151"><ele>24.0</ele><time>2026-03-29T08:33:12.188Z</time></trkpt><trkpt lat="45.2400996" lon="10.9663544"><ele>24.0</ele><time>2026-03-29T08:33:13.19Z</time></trkpt><trkpt lat="45.2401219" lon="10.9665416"><ele>24.0</ele><time>2026-03-29T08:33:14.192Z</time></trkpt><trkpt lat="45.2401612" lon="10.9667469"><ele>24.0</ele><time>2026-03-29T08:33:15.189Z</time></trkpt><trkpt lat="45.2402199" lon="10.9669888"><ele>24.666666666666664</ele><time>2026-03-29T08:33:16.191Z</time></trkpt><trkpt lat="45.2402805" lon="10.9672499"><ele>25.333333333333332</ele><time>2026-03-29T08:33:17.189Z</time></trkpt><trkpt lat="45.2403325" lon="10.967491"><ele>26.0</ele><time>2026-03-29T08:33:18.189Z</time></trkpt><trkpt lat="45.2403768" lon="10.9677094"><ele>26.200000000000003</ele><time>2026-03-29T08:33:19.189Z</time></trkpt><trkpt lat="45.2404026" lon="10.9679075"><ele>26.400000000000002</ele><time>2026-03-29T08:33:20.189Z</time></trkpt><trkpt lat="45.2404132" lon="10.9680737"><ele>26.6</ele><time>2026-03-29T08:33:21.19Z</time></trkpt><trkpt lat="45.2404133" lon="10.9681945"><ele>26.8</ele><time>2026-03-29T08:33:22.19Z</time></trkpt><trkpt lat="45.2404168" lon="10.9682875"><ele>27.0</ele><time>2026-03-29T08:33:23.189Z</time></trkpt><trkpt lat="45.2405041" lon="10.9682968"><ele>27.0</ele><time>2026-03-29T08:33:36.19Z</time></trkpt><trkpt lat="45.2405918" lon="10.9682799"><ele>27.000000000000004</ele><time>2026-03-29T08:33:37.189Z</time></trkpt><trkpt lat="45.2406909" lon="10.9682529"><ele>27.000000000000004</ele><time>2026-03-29T08:33:38.189Z</time></trkpt><trkpt lat="45.2407837" lon="10.9682236"><ele>27.0</ele><time>2026-03-29T08:33:39.189Z</time></trkpt><trkpt lat="45.2408706" lon="10.968198"><ele>27.0</ele><time>2026-03-29T08:33:40.188Z</time></trkpt><trkpt lat="45.2409584" lon="10.9681701"><ele>27.0</ele><time>2026-03-29T08:33:41.19Z</time></trkpt><trkpt lat="45.2410478" lon="10.9681337"><ele>27.000000000000004</ele><time>2026-03-29T08:33:42.191Z</time></trkpt><trkpt lat="45.2411394" lon="10.9680918"><ele>27.000000000000004</ele><time>2026-03-29T08:33:43.189Z</time></trkpt><trkpt lat="45.2412295" lon="10.9680404"><ele>27.0</ele><time>2026-03-29T08:33:44.191Z</time></trkpt><trkpt lat="45.2413209" lon="10.9679863"><ele>27.0</ele><time>2026-03-29T08:33:45.189Z</time></trkpt><trkpt lat="45.2414062" lon="10.9679313"><ele>27.0</ele><time>2026-03-29T08:33:46.189Z</time></trkpt><trkpt lat="45.2414856" lon="10.9678813"><ele>27.0</ele><time>2026-03-29T08:33:47.188Z</time></trkpt><trkpt lat="45.2415593" lon="10.9678367"><ele>27.0</ele><time>2026-03-29T08:33:48.19Z</time></trkpt><trkpt lat="45.2416267" lon="10.9677978"><ele>27.0</ele><time>2026-03-29T08:33:49.191Z</time></trkpt><trkpt lat="45.2416942" lon="10.967761"><ele>27.0</ele><time>2026-03-29T08:33:50.189Z</time></trkpt><trkpt lat="45.2417675" lon="10.9677224"><ele>27.0</ele><time>2026-03-29T08:33:51.19Z</time></trkpt><trkpt lat="45.241845" lon="10.9676786"><ele>27.0</ele><time>2026-03-29T08:33:52.19Z</time></trkpt><trkpt lat="45.2419221" lon="10.9676324"><ele>27.0</ele><time>2026-03-29T08:33:53.191Z</time></trkpt><trkpt lat="45.2420005" lon="10.9675818"><ele>27.0</ele><time>2026-03-29T08:33:54.19Z</time></trkpt><trkpt lat="45.2420723" lon="10.9675333"><ele>27.0</ele><time>2026-03-29T08:33:55.189Z</time></trkpt><trkpt lat="45.2421584" lon="10.9674764"><ele>27.0</ele><time>2026-03-29T08:33:56.19Z</time></trkpt><trkpt lat="45.2422426" lon="10.9674313"><ele>27.0</ele><time>2026-03-29T08:33:57.196Z</time></trkpt><trkpt lat="45.242317" lon="10.9673965"><ele>26.75</ele><time>2026-03-29T08:33:58.189Z</time></trkpt><trkpt lat="45.2423856" lon="10.9673819"><ele>26.5</ele><time>2026-03-29T08:33:59.191Z</time></trkpt><trkpt lat="45.2424941" lon="10.9674577"><ele>26.25</ele><time>2026-03-29T08:34:01.189Z</time></trkpt><trkpt lat="45.2425451" lon="10.9676199"><ele>26.0</ele><time>2026-03-29T08:34:02.191Z</time></trkpt><trkpt lat="45.2426126" lon="10.9678164"><ele>26.666666666666664</ele><time>2026-03-29T08:34:03.189Z</time></trkpt><trkpt lat="45.2426822" lon="10.9680429"><ele>27.333333333333336</ele><time>2026-03-29T08:34:04.189Z</time></trkpt><trkpt lat="45.2427493" lon="10.968267"><ele>28.0</ele><time>2026-03-29T08:34:05.189Z</time></trkpt><trkpt lat="45.2428133" lon="10.9684798"><ele>28.0</ele><time>2026-03-29T08:34:06.189Z</time></trkpt><trkpt lat="45.2428655" lon="10.9686785"><ele>28.0</ele><time>2026-03-29T08:34:07.189Z</time></trkpt><trkpt lat="45.2429175" lon="10.9688716"><ele>28.0</ele><time>2026-03-29T08:34:08.191Z</time></trkpt><trkpt lat="45.2429641" lon="10.9690537"><ele>28.0</ele><time>2026-03-29T08:34:09.19Z</time></trkpt><trkpt lat="45.2430029" lon="10.9692394"><ele>27.75</ele><time>2026-03-29T08:34:10.191Z</time></trkpt><trkpt lat="45.2430367" lon="10.9694267"><ele>27.5</ele><time>2026-03-29T08:34:11.19Z</time></trkpt><trkpt lat="45.2430667" lon="10.969615"><ele>27.25</ele><time>2026-03-29T08:34:12.189Z</time></trkpt><trkpt lat="45.2431" lon="10.9697883"><ele>27.0</ele><time>2026-03-29T08:34:13.191Z</time></trkpt><trkpt lat="45.24313" lon="10.9699467"><ele>27.200000000000003</ele><time>2026-03-29T08:34:14.189Z</time></trkpt><trkpt lat="45.2431483" lon="10.97006"><ele>27.400000000000002</ele><time>2026-03-29T08:34:15.188Z</time></trkpt><trkpt lat="45.2431667" lon="10.9701517"><ele>27.599999999999998</ele><time>2026-03-29T08:34:16.19Z</time></trkpt><trkpt lat="45.2431733" lon="10.9702717"><ele>27.799999999999997</ele><time>2026-03-29T08:34:18.19Z</time></trkpt><trkpt lat="45.2431967" lon="10.9703883"><ele>28.0</ele><time>2026-03-29T08:34:20.19Z</time></trkpt><trkpt lat="45.2432183" lon="10.9705967"><ele>28.0</ele><time>2026-03-29T08:34:22.189Z</time></trkpt><trkpt lat="45.2432333" lon="10.97077"><ele>28.0</ele><time>2026-03-29T08:34:23.191Z</time></trkpt><trkpt lat="45.2432633" lon="10.9709967"><ele>28.0</ele><time>2026-03-29T08:34:24.189Z</time></trkpt><trkpt lat="45.2433017" lon="10.9712267"><ele>27.333333333333336</ele><time>2026-03-29T08:34:25.189Z</time></trkpt><trkpt lat="45.2433367" lon="10.97146"><ele>26.666666666666664</ele><time>2026-03-29T08:34:26.19Z</time></trkpt><trkpt lat="45.2433717" lon="10.97171"><ele>26.0</ele><time>2026-03-29T08:34:27.19Z</time></trkpt><trkpt lat="45.2434067" lon="10.97197"><ele>26.0</ele><time>2026-03-29T08:34:28.189Z</time></trkpt><trkpt lat="45.2434467" lon="10.97223"><ele>26.0</ele><time>2026-03-29T08:34:29.191Z</time></trkpt><trkpt lat="45.2434817" lon="10.9724967"><ele>26.0</ele><time>2026-03-29T08:34:30.191Z</time></trkpt><trkpt lat="45.24353" lon="10.972765"><ele>26.0</ele><time>2026-03-29T08:34:31.191Z</time></trkpt><trkpt lat="45.24358" lon="10.9730267"><ele>26.0</ele><time>2026-03-29T08:34:32.189Z</time></trkpt><trkpt lat="45.243625" lon="10.973265"><ele>26.0</ele><time>2026-03-29T08:34:33.189Z</time></trkpt><trkpt lat="45.243665" lon="10.9734683"><ele>26.0</ele><time>2026-03-29T08:34:34.19Z</time></trkpt><trkpt lat="45.2437017" lon="10.973645"><ele>26.0</ele><time>2026-03-29T08:34:35.19Z</time></trkpt><trkpt lat="45.243735" lon="10.9737967"><ele>26.0</ele><time>2026-03-29T08:34:36.19Z</time></trkpt><trkpt lat="45.2437817" lon="10.9739233"><ele>26.0</ele><time>2026-03-29T08:34:37.19Z</time></trkpt><trkpt lat="45.243845" lon="10.97402"><ele>26.0</ele><time>2026-03-29T08:34:38.19Z</time></trkpt><trkpt lat="45.2439267" lon="10.974085"><ele>26.0</ele><time>2026-03-29T08:34:39.191Z</time></trkpt><trkpt lat="45.2440367" lon="10.9741167"><ele>26.0</ele><time>2026-03-29T08:34:40.189Z</time></trkpt><trkpt lat="45.2441783" lon="10.9741233"><ele>26.0</ele><time>2026-03-29T08:34:41.189Z</time></trkpt><trkpt lat="45.2443533" lon="10.9741233"><ele>26.0</ele><time>2026-03-29T08:34:42.19Z</time></trkpt><trkpt lat="45.2445267" lon="10.9741283"><ele>26.0</ele><time>2026-03-29T08:34:43.188Z</time></trkpt><trkpt lat="45.24469" lon="10.97415"><ele>26.0</ele><time>2026-03-29T08:34:44.192Z</time></trkpt><trkpt lat="45.24484" lon="10.9741817"><ele>26.0</ele><time>2026-03-29T08:34:45.189Z</time></trkpt><trkpt lat="45.2449817" lon="10.9742483"><ele>26.666666666666664</ele><time>2026-03-29T08:34:46.191Z</time></trkpt><trkpt lat="45.2451217" lon="10.974365"><ele>27.333333333333336</ele><time>2026-03-29T08:34:47.19Z</time></trkpt><trkpt lat="45.2452617" lon="10.9745317"><ele>28.0</ele><time>2026-03-29T08:34:48.191Z</time></trkpt><trkpt lat="45.24541" lon="10.9747117"><ele>28.0</ele><time>2026-03-29T08:34:49.19Z</time></trkpt><trkpt lat="45.2455583" lon="10.9748633"><ele>28.0</ele><time>2026-03-29T08:34:50.19Z</time></trkpt><trkpt lat="45.2457033" lon="10.9749567"><ele>28.0</ele><time>2026-03-29T08:34:51.19Z</time></trkpt><trkpt lat="45.245835" lon="10.9750133"><ele>27.799999999999997</ele><time>2026-03-29T08:34:52.19Z</time></trkpt><trkpt lat="45.2459433" lon="10.97505"><ele>27.599999999999998</ele><time>2026-03-29T08:34:53.193Z</time></trkpt><trkpt lat="45.246025" lon="10.975095"><ele>27.400000000000002</ele><time>2026-03-29T08:34:54.19Z</time></trkpt><trkpt lat="45.2460933" lon="10.9751617"><ele>27.200000000000003</ele><time>2026-03-29T08:34:55.19Z</time></trkpt><trkpt lat="45.2461567" lon="10.9752533"><ele>27.0</ele><time>2026-03-29T08:34:56.19Z</time></trkpt><trkpt lat="45.2462067" lon="10.9754233"><ele>27.0</ele><time>2026-03-29T08:34:57.19Z</time></trkpt><trkpt lat="45.24626" lon="10.97566"><ele>27.0</ele><time>2026-03-29T08:34:58.19Z</time></trkpt><trkpt lat="45.2463067" lon="10.9759167"><ele>27.0</ele><time>2026-03-29T08:34:59.189Z</time></trkpt><trkpt lat="45.2463517" lon="10.9761683"><ele>27.0</ele><time>2026-03-29T08:35:00.189Z</time></trkpt><trkpt lat="45.2464" lon="10.9764067"><ele>27.0</ele><time>2026-03-29T08:35:01.189Z</time></trkpt><trkpt lat="45.2464517" lon="10.9766483"><ele>27.0</ele><time>2026-03-29T08:35:02.191Z</time></trkpt><trkpt lat="45.2465033" lon="10.9769017"><ele>26.666666666666664</ele><time>2026-03-29T08:35:03.189Z</time></trkpt><trkpt lat="45.246555" lon="10.9771467"><ele>26.333333333333332</ele><time>2026-03-29T08:35:04.191Z</time></trkpt><trkpt lat="45.2466017" lon="10.9773617"><ele>26.0</ele><time>2026-03-29T08:35:05.189Z</time></trkpt><trkpt lat="45.2466433" lon="10.9775683"><ele>26.0</ele><time>2026-03-29T08:35:06.19Z</time></trkpt><trkpt lat="45.24669" lon="10.977785"><ele>26.0</ele><time>2026-03-29T08:35:07.19Z</time></trkpt><trkpt lat="45.2467367" lon="10.9780017"><ele>26.0</ele><time>2026-03-29T08:35:08.189Z</time></trkpt><trkpt lat="45.2467817" lon="10.9782183"><ele>25.666666666666664</ele><time>2026-03-29T08:35:09.189Z</time></trkpt><trkpt lat="45.2468283" lon="10.978435"><ele>25.333333333333336</ele><time>2026-03-29T08:35:10.19Z</time></trkpt><trkpt lat="45.24687" lon="10.9786417"><ele>25.0</ele><time>2026-03-29T08:35:11.188Z</time></trkpt><trkpt lat="45.2469117" lon="10.9788517"><ele>25.0</ele><time>2026-03-29T08:35:12.19Z</time></trkpt><trkpt lat="45.2469533" lon="10.979075"><ele>25.0</ele><time>2026-03-29T08:35:13.19Z</time></trkpt><trkpt lat="45.2469917" lon="10.9793133"><ele>25.0</ele><time>2026-03-29T08:35:14.19Z</time></trkpt><trkpt lat="45.24703" lon="10.979545"><ele>25.0</ele><time>2026-03-29T08:35:15.189Z</time></trkpt><trkpt lat="45.2470717" lon="10.9797733"><ele>25.0</ele><time>2026-03-29T08:35:16.191Z</time></trkpt><trkpt lat="45.2471117" lon="10.9799933"><ele>25.0</ele><time>2026-03-29T08:35:17.189Z</time></trkpt><trkpt lat="45.247145" lon="10.9802"><ele>25.0</ele><time>2026-03-29T08:35:18.189Z</time></trkpt><trkpt lat="45.2471767" lon="10.9803983"><ele>25.0</ele><time>2026-03-29T08:35:19.191Z</time></trkpt><trkpt lat="45.2471967" lon="10.9805733"><ele>25.0</ele><time>2026-03-29T08:35:20.189Z</time></trkpt><trkpt lat="45.2472167" lon="10.9807333"><ele>25.0</ele><time>2026-03-29T08:35:21.191Z</time></trkpt><trkpt lat="45.247245" lon="10.9808867"><ele>25.000000000000004</ele><time>2026-03-29T08:35:22.19Z</time></trkpt><trkpt lat="45.24728" lon="10.9810283"><ele>25.0</ele><time>2026-03-29T08:35:23.192Z</time></trkpt><trkpt lat="45.2473233" lon="10.9811567"><ele>25.0</ele><time>2026-03-29T08:35:24.189Z</time></trkpt><trkpt lat="45.2473633" lon="10.981265"><ele>25.0</ele><time>2026-03-29T08:35:25.19Z</time></trkpt><trkpt lat="45.247395" lon="10.981345"><ele>25.000000000000004</ele><time>2026-03-29T08:35:26.189Z</time></trkpt><trkpt lat="45.2473983" lon="10.981435"><ele>25.0</ele><time>2026-03-29T08:35:34.19Z</time></trkpt><trkpt lat="45.24732" lon="10.9815067"><ele>25.0</ele><time>2026-03-29T08:35:36.191Z</time></trkpt><trkpt lat="45.2472417" lon="10.9815433"><ele>25.0</ele><time>2026-03-29T08:35:37.188Z</time></trkpt><trkpt lat="45.247115" lon="10.9815767"><ele>25.0</ele><time>2026-03-29T08:35:38.189Z</time></trkpt><trkpt lat="45.2469667" lon="10.98161"><ele>25.0</ele><time>2026-03-29T08:35:39.189Z</time></trkpt><trkpt lat="45.2467933" lon="10.9816383"><ele>25.0</ele><time>2026-03-29T08:35:40.189Z</time></trkpt><trkpt lat="45.2466" lon="10.9816567"><ele>25.0</ele><time>2026-03-29T08:35:41.188Z</time></trkpt><trkpt lat="45.246395" lon="10.9816733"><ele>25.0</ele><time>2026-03-29T08:35:42.19Z</time></trkpt><trkpt lat="45.246185" lon="10.9816917"><ele>25.333333333333336</ele><time>2026-03-29T08:35:43.189Z</time></trkpt><trkpt lat="45.245975" lon="10.981715"><ele>25.666666666666664</ele><time>2026-03-29T08:35:44.189Z</time></trkpt><trkpt lat="45.2457783" lon="10.9817367"><ele>26.0</ele><time>2026-03-29T08:35:45.189Z</time></trkpt><trkpt lat="45.2455917" lon="10.98176"><ele>26.333333333333332</ele><time>2026-03-29T08:35:46.189Z</time></trkpt><trkpt lat="45.2454083" lon="10.9817833"><ele>26.666666666666664</ele><time>2026-03-29T08:35:47.195Z</time></trkpt><trkpt lat="45.2452183" lon="10.9818183"><ele>27.0</ele><time>2026-03-29T08:35:48.189Z</time></trkpt><trkpt lat="45.24502" lon="10.98187"><ele>27.0</ele><time>2026-03-29T08:35:49.191Z</time></trkpt><trkpt lat="45.2448133" lon="10.98194"><ele>27.0</ele><time>2026-03-29T08:35:50.191Z</time></trkpt><trkpt lat="45.2446033" lon="10.98201"><ele>27.0</ele><time>2026-03-29T08:35:51.19Z</time></trkpt><trkpt lat="45.2443933" lon="10.98208"><ele>27.0</ele><time>2026-03-29T08:35:52.19Z</time></trkpt><trkpt lat="45.2441817" lon="10.9821467"><ele>27.0</ele><time>2026-03-29T08:35:53.19Z</time></trkpt><trkpt lat="45.24397" lon="10.982215"><ele>27.0</ele><time>2026-03-29T08:35:54.191Z</time></trkpt><trkpt lat="45.2437617" lon="10.9822867"><ele>26.333333333333336</ele><time>2026-03-29T08:35:55.19Z</time></trkpt><trkpt lat="45.2435667" lon="10.9823567"><ele>25.666666666666668</ele><time>2026-03-29T08:35:56.191Z</time></trkpt><trkpt lat="45.2433817" lon="10.9824167"><ele>25.0</ele><time>2026-03-29T08:35:57.189Z</time></trkpt><trkpt lat="45.2432117" lon="10.9824667"><ele>25.0</ele><time>2026-03-29T08:35:58.189Z</time></trkpt><trkpt lat="45.2430667" lon="10.9825067"><ele>25.0</ele><time>2026-03-29T08:35:59.192Z</time></trkpt><trkpt lat="45.2429517" lon="10.9825367"><ele>25.0</ele><time>2026-03-29T08:36:00.19Z</time></trkpt><trkpt lat="45.2428617" lon="10.9825483"><ele>25.0</ele><time>2026-03-29T08:36:01.192Z</time></trkpt><trkpt lat="45.2427933" lon="10.9825433"><ele>25.0</ele><time>2026-03-29T08:36:02.19Z</time></trkpt><trkpt lat="45.2427133" lon="10.9824783"><ele>24.75</ele><time>2026-03-29T08:36:04.19Z</time></trkpt><trkpt lat="45.2426817" lon="10.9823983"><ele>24.5</ele><time>2026-03-29T08:36:05.19Z</time></trkpt><trkpt lat="45.242645" lon="10.98226"><ele>24.25</ele><time>2026-03-29T08:36:06.191Z</time></trkpt><trkpt lat="45.2426133" lon="10.982065"><ele>24.0</ele><time>2026-03-29T08:36:07.19Z</time></trkpt><trkpt lat="45.2425817" lon="10.981825"><ele>24.0</ele><time>2026-03-29T08:36:08.191Z</time></trkpt><trkpt lat="45.2425533" lon="10.9815467"><ele>24.0</ele><time>2026-03-29T08:36:09.19Z</time></trkpt><trkpt lat="45.2425383" lon="10.98124"><ele>24.0</ele><time>2026-03-29T08:36:10.19Z</time></trkpt><trkpt lat="45.2425233" lon="10.9809233"><ele>24.0</ele><time>2026-03-29T08:36:11.189Z</time></trkpt><trkpt lat="45.2425017" lon="10.9806017"><ele>24.0</ele><time>2026-03-29T08:36:12.188Z</time></trkpt><trkpt lat="45.2424717" lon="10.9802883"><ele>24.5</ele><time>2026-03-29T08:36:13.191Z</time></trkpt><trkpt lat="45.2424217" lon="10.97997"><ele>25.0</ele><time>2026-03-29T08:36:14.19Z</time></trkpt><trkpt lat="45.2423567" lon="10.9796433"><ele>24.5</ele><time>2026-03-29T08:36:15.189Z</time></trkpt><trkpt lat="45.2422833" lon="10.9792983"><ele>24.0</ele><time>2026-03-29T08:36:16.191Z</time></trkpt><trkpt lat="45.2422067" lon="10.9789383"><ele>24.0</ele><time>2026-03-29T08:36:17.19Z</time></trkpt><trkpt lat="45.2421283" lon="10.9785633"><ele>24.0</ele><time>2026-03-29T08:36:18.19Z</time></trkpt><trkpt lat="45.2420533" lon="10.9781933"><ele>23.5</ele><time>2026-03-29T08:36:19.19Z</time></trkpt><trkpt lat="45.2419817" lon="10.97785"><ele>23.0</ele><time>2026-03-29T08:36:20.19Z</time></trkpt><trkpt lat="45.24191" lon="10.9775283"><ele>23.666666666666668</ele><time>2026-03-29T08:36:21.189Z</time></trkpt><trkpt lat="45.2418483" lon="10.9772283"><ele>24.333333333333336</ele><time>2026-03-29T08:36:22.195Z</time></trkpt><trkpt lat="45.24179" lon="10.976945"><ele>25.0</ele><time>2026-03-29T08:36:23.191Z</time></trkpt><trkpt lat="45.2417333" lon="10.9766783"><ele>25.0</ele><time>2026-03-29T08:36:24.192Z</time></trkpt><trkpt lat="45.2416817" lon="10.976425"><ele>25.0</ele><time>2026-03-29T08:36:25.189Z</time></trkpt><trkpt lat="45.2416317" lon="10.9761833"><ele>25.0</ele><time>2026-03-29T08:36:26.192Z</time></trkpt><trkpt lat="45.241585" lon="10.975945"><ele>25.0</ele><time>2026-03-29T08:36:27.189Z</time></trkpt><trkpt lat="45.2415367" lon="10.9757067"><ele>25.0</ele><time>2026-03-29T08:36:28.19Z</time></trkpt><trkpt lat="45.241485" lon="10.9754633"><ele>25.0</ele><time>2026-03-29T08:36:29.19Z</time></trkpt><trkpt lat="45.2414317" lon="10.9752167"><ele>25.0</ele><time>2026-03-29T08:36:30.188Z</time></trkpt><trkpt lat="45.241375" lon="10.97497"><ele>25.0</ele><time>2026-03-29T08:36:31.192Z</time></trkpt><trkpt lat="45.24132" lon="10.9747233"><ele>25.0</ele><time>2026-03-29T08:36:32.19Z</time></trkpt><trkpt lat="45.24127" lon="10.9744817"><ele>25.0</ele><time>2026-03-29T08:36:33.19Z</time></trkpt><trkpt lat="45.2412217" lon="10.974255"><ele>25.0</ele><time>2026-03-29T08:36:34.19Z</time></trkpt><trkpt lat="45.241175" lon="10.9740417"><ele>25.0</ele><time>2026-03-29T08:36:35.19Z</time></trkpt><trkpt lat="45.2411317" lon="10.9738383"><ele>25.0</ele><time>2026-03-29T08:36:36.191Z</time></trkpt><trkpt lat="45.241085" lon="10.9736383"><ele>25.0</ele><time>2026-03-29T08:36:37.191Z</time></trkpt><trkpt lat="45.24104" lon="10.97343"><ele>25.0</ele><time>2026-03-29T08:36:38.192Z</time></trkpt><trkpt lat="45.2409933" lon="10.9732033"><ele>25.333333333333336</ele><time>2026-03-29T08:36:39.191Z</time></trkpt><trkpt lat="45.2409433" lon="10.972965"><ele>25.666666666666664</ele><time>2026-03-29T08:36:40.19Z</time></trkpt><trkpt lat="45.2408933" lon="10.9727183"><ele>26.0</ele><time>2026-03-29T08:36:41.19Z</time></trkpt><trkpt lat="45.240845" lon="10.9724733"><ele>26.333333333333332</ele><time>2026-03-29T08:36:42.191Z</time></trkpt><trkpt lat="45.2407983" lon="10.9722333"><ele>26.666666666666664</ele><time>2026-03-29T08:36:43.191Z</time></trkpt><trkpt lat="45.2407517" lon="10.972015"><ele>27.0</ele><time>2026-03-29T08:36:44.19Z</time></trkpt><trkpt lat="45.2407067" lon="10.97181"><ele>27.0</ele><time>2026-03-29T08:36:45.191Z</time></trkpt><trkpt lat="45.2406683" lon="10.97162"><ele>27.0</ele><time>2026-03-29T08:36:46.198Z</time></trkpt><trkpt lat="45.24062" lon="10.971445"><ele>27.0</ele><time>2026-03-29T08:36:47.19Z</time></trkpt><trkpt lat="45.240555" lon="10.9712717"><ele>27.0</ele><time>2026-03-29T08:36:48.19Z</time></trkpt><trkpt lat="45.2404783" lon="10.9710983"><ele>27.0</ele><time>2026-03-29T08:36:49.19Z</time></trkpt><trkpt lat="45.2404017" lon="10.970925"><ele>27.0</ele><time>2026-03-29T08:36:50.191Z</time></trkpt><trkpt lat="45.2403267" lon="10.9707617"><ele>27.0</ele><time>2026-03-29T08:36:51.19Z</time></trkpt><trkpt lat="45.2402617" lon="10.9706083"><ele>27.0</ele><time>2026-03-29T08:36:52.191Z</time></trkpt><trkpt lat="45.2401967" lon="10.9704667"><ele>27.25</ele><time>2026-03-29T08:36:53.192Z</time></trkpt><trkpt lat="45.24013" lon="10.9703217"><ele>27.5</ele><time>2026-03-29T08:36:54.19Z</time></trkpt><trkpt lat="45.2400567" lon="10.9701683"><ele>27.75</ele><time>2026-03-29T08:36:55.189Z</time></trkpt><trkpt lat="45.2399583" lon="10.9700067"><ele>28.0</ele><time>2026-03-29T08:36:56.191Z</time></trkpt><trkpt lat="45.2398533" lon="10.96984"><ele>28.0</ele><time>2026-03-29T08:36:57.191Z</time></trkpt><trkpt lat="45.239755" lon="10.9696833"><ele>28.0</ele><time>2026-03-29T08:36:58.191Z</time></trkpt><trkpt lat="45.2396683" lon="10.9695483"><ele>28.0</ele><time>2026-03-29T08:36:59.191Z</time></trkpt><trkpt lat="45.2395933" lon="10.9694117"><ele>28.0</ele><time>2026-03-29T08:37:00.191Z</time></trkpt><trkpt lat="45.23954" lon="10.9692667"><ele>27.799999999999997</ele><time>2026-03-29T08:37:01.188Z</time></trkpt><trkpt lat="45.2395067" lon="10.9691283"><ele>27.599999999999998</ele><time>2026-03-29T08:37:02.19Z</time></trkpt><trkpt lat="45.23947" lon="10.9690117"><ele>27.400000000000002</ele><time>2026-03-29T08:37:03.19Z</time></trkpt><trkpt lat="45.23944" lon="10.9689133"><ele>27.200000000000003</ele><time>2026-03-29T08:37:05.191Z</time></trkpt><trkpt lat="45.2393317" lon="10.9688817"><ele>27.0</ele><time>2026-03-29T08:37:12.189Z</time></trkpt><trkpt lat="45.2392217" lon="10.9689117"><ele>27.0</ele><time>2026-03-29T08:37:13.19Z</time></trkpt><trkpt lat="45.23909" lon="10.9689517"><ele>27.0</ele><time>2026-03-29T08:37:14.19Z</time></trkpt><trkpt lat="45.2389567" lon="10.9689917"><ele>27.0</ele><time>2026-03-29T08:37:15.19Z</time></trkpt><trkpt lat="45.2388133" lon="10.9690183"><ele>27.0</ele><time>2026-03-29T08:37:16.191Z</time></trkpt><trkpt lat="45.2386567" lon="10.96905"><ele>26.75</ele><time>2026-03-29T08:37:17.192Z</time></trkpt><trkpt lat="45.2385117" lon="10.96908"><ele>26.5</ele><time>2026-03-29T08:37:18.191Z</time></trkpt><trkpt lat="45.23837" lon="10.96911"><ele>26.25</ele><time>2026-03-29T08:37:19.19Z</time></trkpt><trkpt lat="45.2382267" lon="10.969135"><ele>26.0</ele><time>2026-03-29T08:37:20.191Z</time></trkpt><trkpt lat="45.2380767" lon="10.969155"><ele>26.0</ele><time>2026-03-29T08:37:21.19Z</time></trkpt><trkpt lat="45.2379067" lon="10.969165"><ele>26.0</ele><time>2026-03-29T08:37:22.191Z</time></trkpt><trkpt lat="45.2377133" lon="10.9691817"><ele>26.0</ele><time>2026-03-29T08:37:23.19Z</time></trkpt><trkpt lat="45.23752" lon="10.9691983"><ele>26.0</ele><time>2026-03-29T08:37:24.189Z</time></trkpt><trkpt lat="45.23733" lon="10.9692183"><ele>26.0</ele><time>2026-03-29T08:37:25.19Z</time></trkpt><trkpt lat="45.2371533" lon="10.9692383"><ele>26.0</ele><time>2026-03-29T08:37:26.191Z</time></trkpt><trkpt lat="45.2369833" lon="10.9692583"><ele>25.666666666666664</ele><time>2026-03-29T08:37:27.189Z</time></trkpt><trkpt lat="45.2368167" lon="10.9692833"><ele>25.333333333333336</ele><time>2026-03-29T08:37:28.191Z</time></trkpt><trkpt lat="45.2366583" lon="10.9693067"><ele>25.0</ele><time>2026-03-29T08:37:29.19Z</time></trkpt><trkpt lat="45.2365083" lon="10.9693317"><ele>25.25</ele><time>2026-03-29T08:37:30.188Z</time></trkpt><trkpt lat="45.2363633" lon="10.969355"><ele>25.5</ele><time>2026-03-29T08:37:31.191Z</time></trkpt><trkpt lat="45.23623" lon="10.96936"><ele>25.75</ele><time>2026-03-29T08:37:32.191Z</time></trkpt><trkpt lat="45.2360817" lon="10.9693317"><ele>26.0</ele><time>2026-03-29T08:37:33.189Z</time></trkpt><trkpt lat="45.2359133" lon="10.96928"><ele>26.0</ele><time>2026-03-29T08:37:34.189Z</time></trkpt><trkpt lat="45.2357183" lon="10.9692383"><ele>26.0</ele><time>2026-03-29T08:37:35.191Z</time></trkpt><trkpt lat="45.2355083" lon="10.969215"><ele>26.0</ele><time>2026-03-29T08:37:36.19Z</time></trkpt><trkpt lat="45.2352917" lon="10.969225"><ele>25.666666666666664</ele><time>2026-03-29T08:37:37.192Z</time></trkpt><trkpt lat="45.235075" lon="10.9692583"><ele>25.333333333333336</ele><time>2026-03-29T08:37:38.19Z</time></trkpt><trkpt lat="45.2348567" lon="10.9693083"><ele>25.0</ele><time>2026-03-29T08:37:39.191Z</time></trkpt><trkpt lat="45.2346333" lon="10.9693733"><ele>25.0</ele><time>2026-03-29T08:37:40.19Z</time></trkpt><trkpt lat="45.2343983" lon="10.96945"><ele>25.0</ele><time>2026-03-29T08:37:41.193Z</time></trkpt><trkpt lat="45.2341417" lon="10.9695383"><ele>24.5</ele><time>2026-03-29T08:37:42.189Z</time></trkpt><trkpt lat="45.23385" lon="10.96963"><ele>24.0</ele><time>2026-03-29T08:37:43.191Z</time></trkpt><trkpt lat="45.2335367" lon="10.9697283"><ele>24.0</ele><time>2026-03-29T08:37:44.191Z</time></trkpt><trkpt lat="45.233205" lon="10.9698383"><ele>24.0</ele><time>2026-03-29T08:37:45.19Z</time></trkpt><trkpt lat="45.232875" lon="10.9699617"><ele>24.0</ele><time>2026-03-29T08:37:46.189Z</time></trkpt><trkpt lat="45.2325667" lon="10.9700833"><ele>24.0</ele><time>2026-03-29T08:37:47.189Z</time></trkpt><trkpt lat="45.232275" lon="10.9702033"><ele>24.0</ele><time>2026-03-29T08:37:48.19Z</time></trkpt><trkpt lat="45.231995" lon="10.9703233"><ele>24.0</ele><time>2026-03-29T08:37:49.189Z</time></trkpt><trkpt lat="45.231725" lon="10.9704433"><ele>24.0</ele><time>2026-03-29T08:37:50.19Z</time></trkpt><trkpt lat="45.23146" lon="10.9705633"><ele>24.0</ele><time>2026-03-29T08:37:51.189Z</time></trkpt><trkpt lat="45.2312033" lon="10.9706833"><ele>24.0</ele><time>2026-03-29T08:37:52.19Z</time></trkpt><trkpt lat="45.2309517" lon="10.9708"><ele>24.0</ele><time>2026-03-29T08:37:53.191Z</time></trkpt><trkpt lat="45.23071" lon="10.97091"><ele>25.0</ele><time>2026-03-29T08:37:54.191Z</time></trkpt><trkpt lat="45.2304733" lon="10.9710217"><ele>26.0</ele><time>2026-03-29T08:37:55.192Z</time></trkpt><trkpt lat="45.2302417" lon="10.97113"><ele>26.0</ele><time>2026-03-29T08:37:56.19Z</time></trkpt><trkpt lat="45.2300117" lon="10.9712367"><ele>26.0</ele><time>2026-03-29T08:37:57.189Z</time></trkpt><trkpt lat="45.229785" lon="10.97134"><ele>26.333333333333332</ele><time>2026-03-29T08:37:58.19Z</time></trkpt><trkpt lat="45.2295683" lon="10.9714417"><ele>26.666666666666664</ele><time>2026-03-29T08:37:59.19Z</time></trkpt><trkpt lat="45.22937" lon="10.971535"><ele>27.0</ele><time>2026-03-29T08:38:00.19Z</time></trkpt><trkpt lat="45.2291983" lon="10.971615"><ele>27.0</ele><time>2026-03-29T08:38:01.189Z</time></trkpt><trkpt lat="45.2290533" lon="10.9716817"><ele>27.0</ele><time>2026-03-29T08:38:02.193Z</time></trkpt><trkpt lat="45.228925" lon="10.971735"><ele>27.0</ele><time>2026-03-29T08:38:03.19Z</time></trkpt><trkpt lat="45.2288067" lon="10.97177"><ele>27.0</ele><time>2026-03-29T08:38:04.189Z</time></trkpt><trkpt lat="45.228685" lon="10.9717767"><ele>27.0</ele><time>2026-03-29T08:38:05.189Z</time></trkpt><trkpt lat="45.22854" lon="10.97175"><ele>27.0</ele><time>2026-03-29T08:38:06.19Z</time></trkpt><trkpt lat="45.2283867" lon="10.9717033"><ele>27.0</ele><time>2026-03-29T08:38:07.191Z</time></trkpt><trkpt lat="45.228245" lon="10.97165"><ele>26.5</ele><time>2026-03-29T08:38:08.191Z</time></trkpt><trkpt lat="45.2281083" lon="10.97158"><ele>26.0</ele><time>2026-03-29T08:38:09.19Z</time></trkpt><trkpt lat="45.227985" lon="10.9714967"><ele>25.5</ele><time>2026-03-29T08:38:10.19Z</time></trkpt><trkpt lat="45.22788" lon="10.97139"><ele>25.0</ele><time>2026-03-29T08:38:11.189Z</time></trkpt><trkpt lat="45.2277933" lon="10.9712767"><ele>25.0</ele><time>2026-03-29T08:38:12.188Z</time></trkpt><trkpt lat="45.22771" lon="10.9711933"><ele>25.0</ele><time>2026-03-29T08:38:13.191Z</time></trkpt><trkpt lat="45.2276067" lon="10.9711583"><ele>25.0</ele><time>2026-03-29T08:38:14.19Z</time></trkpt><trkpt lat="45.2274867" lon="10.9711667"><ele>25.0</ele><time>2026-03-29T08:38:15.19Z</time></trkpt><trkpt lat="45.2273483" lon="10.971225"><ele>24.75</ele><time>2026-03-29T08:38:16.19Z</time></trkpt><trkpt lat="45.2272017" lon="10.9713083"><ele>24.5</ele><time>2026-03-29T08:38:17.196Z</time></trkpt><trkpt lat="45.227065" lon="10.97139"><ele>24.25</ele><time>2026-03-29T08:38:18.19Z</time></trkpt><trkpt lat="45.22695" lon="10.9714617"><ele>24.0</ele><time>2026-03-29T08:38:19.19Z</time></trkpt><trkpt lat="45.226865" lon="10.97155"><ele>24.0</ele><time>2026-03-29T08:38:20.19Z</time></trkpt><trkpt lat="45.2267917" lon="10.97167"><ele>24.0</ele><time>2026-03-29T08:38:21.19Z</time></trkpt><trkpt lat="45.2267383" lon="10.9718483"><ele>24.0</ele><time>2026-03-29T08:38:22.19Z</time></trkpt><trkpt lat="45.2267133" lon="10.9720867"><ele>24.0</ele><time>2026-03-29T08:38:23.192Z</time></trkpt><trkpt lat="45.2267133" lon="10.9723683"><ele>24.0</ele><time>2026-03-29T08:38:24.19Z</time></trkpt><trkpt lat="45.2267417" lon="10.97269"><ele>24.0</ele><time>2026-03-29T08:38:25.191Z</time></trkpt><trkpt lat="45.2267933" lon="10.973055"><ele>24.0</ele><time>2026-03-29T08:38:26.19Z</time></trkpt><trkpt lat="45.226855" lon="10.9734117"><ele>24.0</ele><time>2026-03-29T08:38:27.19Z</time></trkpt><trkpt lat="45.226915" lon="10.9737467"><ele>24.0</ele><time>2026-03-29T08:38:28.191Z</time></trkpt><trkpt lat="45.22697" lon="10.974035"><ele>24.0</ele><time>2026-03-29T08:38:29.19Z</time></trkpt><trkpt lat="45.2270133" lon="10.9742683"><ele>24.0</ele><time>2026-03-29T08:38:30.191Z</time></trkpt><trkpt lat="45.2270467" lon="10.9744433"><ele>24.0</ele><time>2026-03-29T08:38:31.19Z</time></trkpt><trkpt lat="45.2270633" lon="10.9745633"><ele>24.0</ele><time>2026-03-29T08:38:32.191Z</time></trkpt><trkpt lat="45.2270617" lon="10.97466"><ele>24.0</ele><time>2026-03-29T08:38:33.19Z</time></trkpt><trkpt lat="45.22697" lon="10.974825"><ele>24.0</ele><time>2026-03-29T08:38:35.189Z</time></trkpt><trkpt lat="45.226855" lon="10.9749233"><ele>24.0</ele><time>2026-03-29T08:38:36.189Z</time></trkpt><trkpt lat="45.2267167" lon="10.9750317"><ele>24.0</ele><time>2026-03-29T08:38:37.189Z</time></trkpt><trkpt lat="45.226575" lon="10.9751333"><ele>24.0</ele><time>2026-03-29T08:38:38.189Z</time></trkpt><trkpt lat="45.2264367" lon="10.9752367"><ele>24.0</ele><time>2026-03-29T08:38:39.19Z</time></trkpt><trkpt lat="45.2262883" lon="10.97535"><ele>24.0</ele><time>2026-03-29T08:38:40.189Z</time></trkpt><trkpt lat="45.226105" lon="10.9754683"><ele>24.0</ele><time>2026-03-29T08:38:41.19Z</time></trkpt><trkpt lat="45.225885" lon="10.9755833"><ele>24.0</ele><time>2026-03-29T08:38:42.189Z</time></trkpt><trkpt lat="45.2256617" lon="10.97569"><ele>24.0</ele><time>2026-03-29T08:38:43.192Z</time></trkpt><trkpt lat="45.225445" lon="10.9757683"><ele>24.0</ele><time>2026-03-29T08:38:44.194Z</time></trkpt><trkpt lat="45.22523" lon="10.9758333"><ele>24.0</ele><time>2026-03-29T08:38:45.191Z</time></trkpt><trkpt lat="45.225015" lon="10.9759233"><ele>24.0</ele><time>2026-03-29T08:38:46.192Z</time></trkpt><trkpt lat="45.2248017" lon="10.9760553"><ele>24.0</ele><time>2026-03-29T08:38:47.192Z</time></trkpt><trkpt lat="45.2245981" lon="10.976237"><ele>24.0</ele><time>2026-03-29T08:38:48.19Z</time></trkpt><trkpt lat="45.224396" lon="10.976448"><ele>24.0</ele><time>2026-03-29T08:38:49.191Z</time></trkpt><trkpt lat="45.2241804" lon="10.976674"><ele>24.0</ele><time>2026-03-29T08:38:50.189Z</time></trkpt><trkpt lat="45.2239443" lon="10.9769134"><ele>24.0</ele><time>2026-03-29T08:38:51.192Z</time></trkpt><trkpt lat="45.2237069" lon="10.9771559"><ele>24.0</ele><time>2026-03-29T08:38:52.19Z</time></trkpt><trkpt lat="45.2234827" lon="10.9773887"><ele>24.0</ele><time>2026-03-29T08:38:53.192Z</time></trkpt><trkpt lat="45.2232723" lon="10.9776061"><ele>23.5</ele><time>2026-03-29T08:38:54.19Z</time></trkpt><trkpt lat="45.2230796" lon="10.9778056"><ele>23.0</ele><time>2026-03-29T08:38:55.185Z</time></trkpt><trkpt lat="45.2228678" lon="10.9780094"><ele>23.0</ele><time>2026-03-29T08:38:56.191Z</time></trkpt><trkpt lat="45.2226594" lon="10.9782064"><ele>23.0</ele><time>2026-03-29T08:38:57.19Z</time></trkpt><trkpt lat="45.2224502" lon="10.9784178"><ele>22.5</ele><time>2026-03-29T08:38:58.19Z</time></trkpt><trkpt lat="45.2222429" lon="10.9786612"><ele>22.0</ele><time>2026-03-29T08:38:59.192Z</time></trkpt><trkpt lat="45.2220413" lon="10.9789187"><ele>22.0</ele><time>2026-03-29T08:39:00.189Z</time></trkpt><trkpt lat="45.221842" lon="10.9791755"><ele>22.0</ele><time>2026-03-29T08:39:01.191Z</time></trkpt><trkpt lat="45.2216467" lon="10.9794389"><ele>22.0</ele><time>2026-03-29T08:39:02.19Z</time></trkpt><trkpt lat="45.2214562" lon="10.979712"><ele>22.0</ele><time>2026-03-29T08:39:03.19Z</time></trkpt><trkpt lat="45.2212774" lon="10.979979"><ele>22.0</ele><time>2026-03-29T08:39:04.191Z</time></trkpt><trkpt lat="45.2211224" lon="10.9802167"><ele>22.0</ele><time>2026-03-29T08:39:05.191Z</time></trkpt><trkpt lat="45.2209915" lon="10.9804118"><ele>22.0</ele><time>2026-03-29T08:39:06.191Z</time></trkpt><trkpt lat="45.2208685" lon="10.9805664"><ele>22.0</ele><time>2026-03-29T08:39:07.19Z</time></trkpt><trkpt lat="45.2207221" lon="10.9806765"><ele>22.0</ele><time>2026-03-29T08:39:08.19Z</time></trkpt><trkpt lat="45.2205322" lon="10.9807542"><ele>22.0</ele><time>2026-03-29T08:39:09.189Z</time></trkpt><trkpt lat="45.2203126" lon="10.980828"><ele>22.333333333333332</ele><time>2026-03-29T08:39:10.19Z</time></trkpt><trkpt lat="45.2201005" lon="10.9808967"><ele>22.666666666666668</ele><time>2026-03-29T08:39:11.19Z</time></trkpt><trkpt lat="45.2199044" lon="10.9809599"><ele>23.0</ele><time>2026-03-29T08:39:12.189Z</time></trkpt><trkpt lat="45.2197283" lon="10.981011"><ele>22.333333333333336</ele><time>2026-03-29T08:39:13.196Z</time></trkpt><trkpt lat="45.2195696" lon="10.9810427"><ele>21.666666666666668</ele><time>2026-03-29T08:39:14.192Z</time></trkpt><trkpt lat="45.2194229" lon="10.9810641"><ele>21.0</ele><time>2026-03-29T08:39:15.19Z</time></trkpt><trkpt lat="45.219278" lon="10.9810838"><ele>21.0</ele><time>2026-03-29T08:39:16.189Z</time></trkpt><trkpt lat="45.2191302" lon="10.9811105"><ele>21.0</ele><time>2026-03-29T08:39:17.189Z</time></trkpt><trkpt lat="45.21898" lon="10.9811463"><ele>21.0</ele><time>2026-03-29T08:39:18.189Z</time></trkpt><trkpt lat="45.2188329" lon="10.9811972"><ele>21.0</ele><time>2026-03-29T08:39:19.191Z</time></trkpt><trkpt lat="45.2186912" lon="10.9812579"><ele>21.0</ele><time>2026-03-29T08:39:20.191Z</time></trkpt><trkpt lat="45.2185578" lon="10.9813216"><ele>21.0</ele><time>2026-03-29T08:39:21.192Z</time></trkpt><trkpt lat="45.2184282" lon="10.9813836"><ele>21.0</ele><time>2026-03-29T08:39:22.19Z</time></trkpt><trkpt lat="45.2182908" lon="10.9814498"><ele>21.0</ele><time>2026-03-29T08:39:23.191Z</time></trkpt><trkpt lat="45.2181531" lon="10.9815169"><ele>21.0</ele><time>2026-03-29T08:39:24.191Z</time></trkpt><trkpt lat="45.2180209" lon="10.9815826"><ele>21.0</ele><time>2026-03-29T08:39:25.19Z</time></trkpt><trkpt lat="45.2179018" lon="10.9816385"><ele>21.0</ele><time>2026-03-29T08:39:26.191Z</time></trkpt><trkpt lat="45.2178012" lon="10.9816788"><ele>21.4</ele><time>2026-03-29T08:39:27.191Z</time></trkpt><trkpt lat="45.2177232" lon="10.9817005"><ele>21.8</ele><time>2026-03-29T08:39:28.191Z</time></trkpt><trkpt lat="45.2176573" lon="10.9817173"><ele>22.2</ele><time>2026-03-29T08:39:29.189Z</time></trkpt><trkpt lat="45.2175416" lon="10.9817911"><ele>22.599999999999998</ele><time>2026-03-29T08:39:31.19Z</time></trkpt><trkpt lat="45.2174704" lon="10.9818658"><ele>23.0</ele><time>2026-03-29T08:39:32.19Z</time></trkpt><trkpt lat="45.2173659" lon="10.9819717"><ele>23.0</ele><time>2026-03-29T08:39:33.189Z</time></trkpt><trkpt lat="45.2172158" lon="10.9821299"><ele>23.0</ele><time>2026-03-29T08:39:34.19Z</time></trkpt><trkpt lat="45.2170404" lon="10.9822988"><ele>23.0</ele><time>2026-03-29T08:39:35.19Z</time></trkpt><trkpt lat="45.2168647" lon="10.9824709"><ele>22.666666666666668</ele><time>2026-03-29T08:39:36.19Z</time></trkpt><trkpt lat="45.2167004" lon="10.9826382"><ele>22.333333333333332</ele><time>2026-03-29T08:39:37.19Z</time></trkpt><trkpt lat="45.2165457" lon="10.9827925"><ele>22.0</ele><time>2026-03-29T08:39:38.19Z</time></trkpt><trkpt lat="45.2163876" lon="10.9829407"><ele>23.0</ele><time>2026-03-29T08:39:39.189Z</time></trkpt><trkpt lat="45.2162421" lon="10.9830669"><ele>24.0</ele><time>2026-03-29T08:39:40.19Z</time></trkpt><trkpt lat="45.2160917" lon="10.9831753"><ele>25.0</ele><time>2026-03-29T08:39:41.189Z</time></trkpt><trkpt lat="45.2159249" lon="10.9832681"><ele>24.333333333333336</ele><time>2026-03-29T08:39:42.19Z</time></trkpt><trkpt lat="45.2157381" lon="10.9833552"><ele>23.666666666666668</ele><time>2026-03-29T08:39:43.19Z</time></trkpt><trkpt lat="45.2155348" lon="10.9834486"><ele>23.0</ele><time>2026-03-29T08:39:44.191Z</time></trkpt><trkpt lat="45.2153196" lon="10.9835486"><ele>23.0</ele><time>2026-03-29T08:39:45.189Z</time></trkpt><trkpt lat="45.2151129" lon="10.9836457"><ele>23.0</ele><time>2026-03-29T08:39:46.19Z</time></trkpt><trkpt lat="45.214953" lon="10.9837248"><ele>23.0</ele><time>2026-03-29T08:39:47.189Z</time></trkpt><trkpt lat="45.2148426" lon="10.9837745"><ele>23.333333333333336</ele><time>2026-03-29T08:39:48.19Z</time></trkpt><trkpt lat="45.2147553" lon="10.9838081"><ele>23.666666666666668</ele><time>2026-03-29T08:39:49.189Z</time></trkpt><trkpt lat="45.2146606" lon="10.9838457"><ele>24.0</ele><time>2026-03-29T08:39:50.19Z</time></trkpt><trkpt lat="45.2145638" lon="10.9838906"><ele>24.333333333333336</ele><time>2026-03-29T08:39:51.19Z</time></trkpt><trkpt lat="45.2144878" lon="10.9839217"><ele>24.666666666666668</ele><time>2026-03-29T08:39:52.191Z</time></trkpt><trkpt lat="45.2144226" lon="10.9839424"><ele>25.0</ele><time>2026-03-29T08:39:53.191Z</time></trkpt><trkpt lat="45.2143464" lon="10.9839633"><ele>25.0</ele><time>2026-03-29T08:39:54.191Z</time></trkpt><trkpt lat="45.2142578" lon="10.9839897"><ele>25.0</ele><time>2026-03-29T08:39:55.19Z</time></trkpt><trkpt lat="45.2141623" lon="10.9840186"><ele>25.0</ele><time>2026-03-29T08:39:56.19Z</time></trkpt><trkpt lat="45.2140651" lon="10.9840482"><ele>25.0</ele><time>2026-03-29T08:39:57.19Z</time></trkpt><trkpt lat="45.2139638" lon="10.9840759"><ele>25.0</ele><time>2026-03-29T08:39:58.19Z</time></trkpt><trkpt lat="45.2138736" lon="10.9841013"><ele>24.833333333333336</ele><time>2026-03-29T08:39:59.191Z</time></trkpt><trkpt lat="45.2137921" lon="10.9841209"><ele>24.666666666666668</ele><time>2026-03-29T08:40:00.19Z</time></trkpt><trkpt lat="45.2137023" lon="10.9841283"><ele>24.5</ele><time>2026-03-29T08:40:02.19Z</time></trkpt><trkpt lat="45.2136426" lon="10.984063"><ele>24.333333333333336</ele><time>2026-03-29T08:40:05.189Z</time></trkpt><trkpt lat="45.2135715" lon="10.984012"><ele>24.166666666666668</ele><time>2026-03-29T08:40:07.189Z</time></trkpt><trkpt lat="45.2134633" lon="10.9840116"><ele>24.0</ele><time>2026-03-29T08:40:09.191Z</time></trkpt><trkpt lat="45.2133951" lon="10.9840347"><ele>24.0</ele><time>2026-03-29T08:40:10.19Z</time></trkpt><trkpt lat="45.2133196" lon="10.9840602"><ele>24.0</ele><time>2026-03-29T08:40:11.19Z</time></trkpt><trkpt lat="45.2132351" lon="10.9840821"><ele>24.0</ele><time>2026-03-29T08:40:12.189Z</time></trkpt><trkpt lat="45.2131477" lon="10.9841029"><ele>24.0</ele><time>2026-03-29T08:40:13.189Z</time></trkpt><trkpt lat="45.21306" lon="10.9841258"><ele>24.0</ele><time>2026-03-29T08:40:14.192Z</time></trkpt><trkpt lat="45.2129702" lon="10.9841492"><ele>24.0</ele><time>2026-03-29T08:40:15.192Z</time></trkpt><trkpt lat="45.2128868" lon="10.9841714"><ele>24.166666666666668</ele><time>2026-03-29T08:40:16.189Z</time></trkpt><trkpt lat="45.212813" lon="10.9841904"><ele>24.333333333333336</ele><time>2026-03-29T08:40:17.189Z</time></trkpt><trkpt lat="45.2127419" lon="10.9842054"><ele>24.5</ele><time>2026-03-29T08:40:18.189Z</time></trkpt><trkpt lat="45.2126738" lon="10.9842221"><ele>24.666666666666668</ele><time>2026-03-29T08:40:19.19Z</time></trkpt><trkpt lat="45.2126024" lon="10.9842427"><ele>24.833333333333336</ele><time>2026-03-29T08:40:20.192Z</time></trkpt><trkpt lat="45.2125348" lon="10.9842647"><ele>25.0</ele><time>2026-03-29T08:40:21.19Z</time></trkpt><trkpt lat="45.2124313" lon="10.9842859"><ele>25.0</ele><time>2026-03-29T08:40:23.191Z</time></trkpt><trkpt lat="45.2123617" lon="10.98423"><ele>25.0</ele><time>2026-03-29T08:40:26.191Z</time></trkpt><trkpt lat="45.2123417" lon="10.984125"><ele>25.0</ele><time>2026-03-29T08:40:28.189Z</time></trkpt><trkpt lat="45.2123183" lon="10.9839267"><ele>25.0</ele><time>2026-03-29T08:40:30.192Z</time></trkpt><trkpt lat="45.2123017" lon="10.9838"><ele>25.0</ele><time>2026-03-29T08:40:31.19Z</time></trkpt><trkpt lat="45.2122833" lon="10.9836667"><ele>24.6</ele><time>2026-03-29T08:40:32.19Z</time></trkpt><trkpt lat="45.212265" lon="10.98352"><ele>24.2</ele><time>2026-03-29T08:40:33.189Z</time></trkpt><trkpt lat="45.212245" lon="10.98337"><ele>23.799999999999997</ele><time>2026-03-29T08:40:34.19Z</time></trkpt><trkpt lat="45.2122183" lon="10.9832183"><ele>23.4</ele><time>2026-03-29T08:40:35.189Z</time></trkpt><trkpt lat="45.21219" lon="10.983065"><ele>23.0</ele><time>2026-03-29T08:40:36.19Z</time></trkpt><trkpt lat="45.2121667" lon="10.9829133"><ele>23.0</ele><time>2026-03-29T08:40:37.19Z</time></trkpt><trkpt lat="45.212145" lon="10.98277"><ele>23.0</ele><time>2026-03-29T08:40:38.191Z</time></trkpt><trkpt lat="45.212125" lon="10.9826383"><ele>23.0</ele><time>2026-03-29T08:40:39.19Z</time></trkpt><trkpt lat="45.21211" lon="10.9825233"><ele>23.0</ele><time>2026-03-29T08:40:40.189Z</time></trkpt><trkpt lat="45.2121017" lon="10.9824317"><ele>23.0</ele><time>2026-03-29T08:40:41.19Z</time></trkpt><trkpt lat="45.21209" lon="10.9823117"><ele>23.0</ele><time>2026-03-29T08:40:43.19Z</time></trkpt><trkpt lat="45.2120767" lon="10.982205"><ele>23.0</ele><time>2026-03-29T08:40:46.19Z</time></trkpt><trkpt lat="45.2120217" lon="10.9821217"><ele>23.0</ele><time>2026-03-29T08:40:50.191Z</time></trkpt><trkpt lat="45.2118033" lon="10.9821133"><ele>23.0</ele><time>2026-03-29T08:40:53.189Z</time></trkpt><trkpt lat="45.21167" lon="10.9821517"><ele>23.0</ele><time>2026-03-29T08:40:54.191Z</time></trkpt><trkpt lat="45.211515" lon="10.9821883"><ele>22.333333333333336</ele><time>2026-03-29T08:40:55.191Z</time></trkpt><trkpt lat="45.21132" lon="10.982225"><ele>21.666666666666668</ele><time>2026-03-29T08:40:56.19Z</time></trkpt><trkpt lat="45.2110967" lon="10.982255"><ele>21.0</ele><time>2026-03-29T08:40:57.189Z</time></trkpt><trkpt lat="45.210865" lon="10.98228"><ele>20.5</ele><time>2026-03-29T08:40:58.19Z</time></trkpt><trkpt lat="45.2106233" lon="10.98231"><ele>20.0</ele><time>2026-03-29T08:40:59.19Z</time></trkpt><trkpt lat="45.2103783" lon="10.98235"><ele>20.0</ele><time>2026-03-29T08:41:00.192Z</time></trkpt><trkpt lat="45.21013" lon="10.9823933"><ele>20.0</ele><time>2026-03-29T08:41:01.191Z</time></trkpt><trkpt lat="45.209875" lon="10.9824367"><ele>20.5</ele><time>2026-03-29T08:41:02.191Z</time></trkpt><trkpt lat="45.2096217" lon="10.98248"><ele>21.0</ele><time>2026-03-29T08:41:03.19Z</time></trkpt><trkpt lat="45.2093783" lon="10.9825217"><ele>21.333333333333332</ele><time>2026-03-29T08:41:04.189Z</time></trkpt><trkpt lat="45.2091533" lon="10.9825633"><ele>21.666666666666664</ele><time>2026-03-29T08:41:05.19Z</time></trkpt><trkpt lat="45.208945" lon="10.9826183"><ele>22.0</ele><time>2026-03-29T08:41:06.191Z</time></trkpt><trkpt lat="45.2087333" lon="10.9827217"><ele>22.5</ele><time>2026-03-29T08:41:07.19Z</time></trkpt><trkpt lat="45.20851" lon="10.9828783"><ele>23.0</ele><time>2026-03-29T08:41:08.19Z</time></trkpt><trkpt lat="45.20827" lon="10.9830733"><ele>22.0</ele><time>2026-03-29T08:41:09.189Z</time></trkpt><trkpt lat="45.2080083" lon="10.9832883"><ele>21.0</ele><time>2026-03-29T08:41:10.191Z</time></trkpt><trkpt lat="45.2077467" lon="10.9835017"><ele>20.5</ele><time>2026-03-29T08:41:11.19Z</time></trkpt><trkpt lat="45.207495" lon="10.9837033"><ele>20.0</ele><time>2026-03-29T08:41:12.19Z</time></trkpt><trkpt lat="45.2072383" lon="10.9838933"><ele>20.0</ele><time>2026-03-29T08:41:13.196Z</time></trkpt><trkpt lat="45.20697" lon="10.9840767"><ele>20.0</ele><time>2026-03-29T08:41:14.19Z</time></trkpt><trkpt lat="45.206695" lon="10.98426"><ele>20.5</ele><time>2026-03-29T08:41:15.19Z</time></trkpt><trkpt lat="45.2064283" lon="10.9844367"><ele>21.0</ele><time>2026-03-29T08:41:16.19Z</time></trkpt><trkpt lat="45.2061717" lon="10.9846033"><ele>21.0</ele><time>2026-03-29T08:41:17.19Z</time></trkpt><trkpt lat="45.20592" lon="10.9847633"><ele>21.0</ele><time>2026-03-29T08:41:18.19Z</time></trkpt><trkpt lat="45.205665" lon="10.9849133"><ele>21.5</ele><time>2026-03-29T08:41:19.19Z</time></trkpt><trkpt lat="45.2053933" lon="10.985055"><ele>22.0</ele><time>2026-03-29T08:41:20.191Z</time></trkpt><trkpt lat="45.205115" lon="10.9851867"><ele>22.0</ele><time>2026-03-29T08:41:21.189Z</time></trkpt><trkpt lat="45.2048417" lon="10.9853117"><ele>22.0</ele><time>2026-03-29T08:41:22.191Z</time></trkpt><trkpt lat="45.2045817" lon="10.985435"><ele>22.0</ele><time>2026-03-29T08:41:23.189Z</time></trkpt><trkpt lat="45.2043333" lon="10.9855533"><ele>22.0</ele><time>2026-03-29T08:41:24.191Z</time></trkpt><trkpt lat="45.20409" lon="10.9856733"><ele>21.5</ele><time>2026-03-29T08:41:25.191Z</time></trkpt><trkpt lat="45.2038567" lon="10.985795"><ele>21.0</ele><time>2026-03-29T08:41:26.19Z</time></trkpt><trkpt lat="45.203625" lon="10.985915"><ele>21.0</ele><time>2026-03-29T08:41:27.19Z</time></trkpt><trkpt lat="45.2033933" lon="10.9860317"><ele>21.0</ele><time>2026-03-29T08:41:28.189Z</time></trkpt><trkpt lat="45.20316" lon="10.98615"><ele>21.0</ele><time>2026-03-29T08:41:29.19Z</time></trkpt><trkpt lat="45.20293" lon="10.986265"><ele>21.0</ele><time>2026-03-29T08:41:30.189Z</time></trkpt><trkpt lat="45.2027083" lon="10.98638"><ele>21.0</ele><time>2026-03-29T08:41:31.189Z</time></trkpt><trkpt lat="45.2024933" lon="10.9864933"><ele>21.0</ele><time>2026-03-29T08:41:32.19Z</time></trkpt><trkpt lat="45.2022967" lon="10.9866"><ele>21.0</ele><time>2026-03-29T08:41:33.189Z</time></trkpt><trkpt lat="45.20212" lon="10.9866933"><ele>21.0</ele><time>2026-03-29T08:41:34.188Z</time></trkpt><trkpt lat="45.201955" lon="10.9867733"><ele>21.0</ele><time>2026-03-29T08:41:35.19Z</time></trkpt><trkpt lat="45.2018067" lon="10.986845"><ele>21.0</ele><time>2026-03-29T08:41:36.193Z</time></trkpt><trkpt lat="45.20167" lon="10.9869133"><ele>21.0</ele><time>2026-03-29T08:41:37.189Z</time></trkpt><trkpt lat="45.20155" lon="10.9869733"><ele>21.0</ele><time>2026-03-29T08:41:38.191Z</time></trkpt><trkpt lat="45.201445" lon="10.987025"><ele>21.0</ele><time>2026-03-29T08:41:39.19Z</time></trkpt><trkpt lat="45.2013683" lon="10.9870717"><ele>21.0</ele><time>2026-03-29T08:41:40.189Z</time></trkpt><trkpt lat="45.2013033" lon="10.98711"><ele>21.0</ele><time>2026-03-29T08:41:41.189Z</time></trkpt><trkpt lat="45.201235" lon="10.9871617"><ele>21.0</ele><time>2026-03-29T08:41:42.189Z</time></trkpt><trkpt lat="45.20115" lon="10.9872267"><ele>21.0</ele><time>2026-03-29T08:41:43.189Z</time></trkpt><trkpt lat="45.201045" lon="10.9873033"><ele>21.0</ele><time>2026-03-29T08:41:44.189Z</time></trkpt><trkpt lat="45.2009317" lon="10.9873967"><ele>21.0</ele><time>2026-03-29T08:41:45.19Z</time></trkpt><trkpt lat="45.2008033" lon="10.987525"><ele>21.0</ele><time>2026-03-29T08:41:46.192Z</time></trkpt><trkpt lat="45.2006667" lon="10.9876967"><ele>21.0</ele><time>2026-03-29T08:41:47.189Z</time></trkpt><trkpt lat="45.2005267" lon="10.9879183"><ele>21.0</ele><time>2026-03-29T08:41:48.191Z</time></trkpt><trkpt lat="45.200385" lon="10.9881717"><ele>21.0</ele><time>2026-03-29T08:41:49.19Z</time></trkpt><trkpt lat="45.2002517" lon="10.9884333"><ele>21.0</ele><time>2026-03-29T08:41:50.191Z</time></trkpt><trkpt lat="45.2001267" lon="10.9886817"><ele>21.0</ele><time>2026-03-29T08:41:51.191Z</time></trkpt><trkpt lat="45.2000183" lon="10.988905"><ele>21.0</ele><time>2026-03-29T08:41:52.19Z</time></trkpt><trkpt lat="45.19993" lon="10.9891033"><ele>21.0</ele><time>2026-03-29T08:41:53.19Z</time></trkpt><trkpt lat="45.1998633" lon="10.9892833"><ele>21.0</ele><time>2026-03-29T08:41:54.189Z</time></trkpt><trkpt lat="45.1998333" lon="10.9894883"><ele>21.0</ele><time>2026-03-29T08:41:55.188Z</time></trkpt><trkpt lat="45.1998517" lon="10.98974"><ele>21.0</ele><time>2026-03-29T08:41:56.189Z</time></trkpt><trkpt lat="45.1998883" lon="10.9900167"><ele>21.0</ele><time>2026-03-29T08:41:57.19Z</time></trkpt><trkpt lat="45.1999233" lon="10.9902817"><ele>21.0</ele><time>2026-03-29T08:41:58.19Z</time></trkpt><trkpt lat="45.1999567" lon="10.9904933"><ele>21.0</ele><time>2026-03-29T08:41:59.19Z</time></trkpt><trkpt lat="45.1999667" lon="10.990665"><ele>21.0</ele><time>2026-03-29T08:42:00.189Z</time></trkpt><trkpt lat="45.19994" lon="10.990815"><ele>21.0</ele><time>2026-03-29T08:42:01.189Z</time></trkpt><trkpt lat="45.19987" lon="10.990945"><ele>20.666666666666668</ele><time>2026-03-29T08:42:02.19Z</time></trkpt><trkpt lat="45.1997567" lon="10.9910633"><ele>20.333333333333336</ele><time>2026-03-29T08:42:03.19Z</time></trkpt><trkpt lat="45.1995767" lon="10.9911567"><ele>20.0</ele><time>2026-03-29T08:42:04.189Z</time></trkpt><trkpt lat="45.199345" lon="10.9912517"><ele>20.0</ele><time>2026-03-29T08:42:05.19Z</time></trkpt><trkpt lat="45.199085" lon="10.9913517"><ele>20.0</ele><time>2026-03-29T08:42:06.189Z</time></trkpt><trkpt lat="45.1988417" lon="10.99146"><ele>20.0</ele><time>2026-03-29T08:42:07.191Z</time></trkpt><trkpt lat="45.19862" lon="10.9915517"><ele>20.0</ele><time>2026-03-29T08:42:08.193Z</time></trkpt><trkpt lat="45.198415" lon="10.99166"><ele>20.5</ele><time>2026-03-29T08:42:09.19Z</time></trkpt><trkpt lat="45.1982083" lon="10.99181"><ele>21.0</ele><time>2026-03-29T08:42:10.19Z</time></trkpt><trkpt lat="45.1979933" lon="10.9920017"><ele>21.0</ele><time>2026-03-29T08:42:11.189Z</time></trkpt><trkpt lat="45.1977817" lon="10.9921917"><ele>21.0</ele><time>2026-03-29T08:42:12.189Z</time></trkpt><trkpt lat="45.1975633" lon="10.992345"><ele>21.0</ele><time>2026-03-29T08:42:13.19Z</time></trkpt><trkpt lat="45.1973433" lon="10.9924833"><ele>21.0</ele><time>2026-03-29T08:42:14.189Z</time></trkpt><trkpt lat="45.1971267" lon="10.9926467"><ele>20.5</ele><time>2026-03-29T08:42:15.191Z</time></trkpt><trkpt lat="45.1969117" lon="10.9928383"><ele>20.0</ele><time>2026-03-29T08:42:16.19Z</time></trkpt><trkpt lat="45.1966933" lon="10.9930283"><ele>20.0</ele><time>2026-03-29T08:42:17.189Z</time></trkpt><trkpt lat="45.196455" lon="10.993185"><ele>20.0</ele><time>2026-03-29T08:42:18.189Z</time></trkpt><trkpt lat="45.1962017" lon="10.99332"><ele>20.0</ele><time>2026-03-29T08:42:19.19Z</time></trkpt><trkpt lat="45.19596" lon="10.993425"><ele>20.0</ele><time>2026-03-29T08:42:20.19Z</time></trkpt><trkpt lat="45.1957667" lon="10.9935167"><ele>19.333333333333336</ele><time>2026-03-29T08:42:21.189Z</time></trkpt><trkpt lat="45.1956033" lon="10.9936267"><ele>18.666666666666668</ele><time>2026-03-29T08:42:22.19Z</time></trkpt><trkpt lat="45.1954483" lon="10.9938067"><ele>18.0</ele><time>2026-03-29T08:42:23.189Z</time></trkpt><trkpt lat="45.1952967" lon="10.9940567"><ele>18.5</ele><time>2026-03-29T08:42:24.189Z</time></trkpt><trkpt lat="45.195135" lon="10.99436"><ele>19.0</ele><time>2026-03-29T08:42:25.19Z</time></trkpt><trkpt lat="45.1949517" lon="10.9946917"><ele>20.0</ele><time>2026-03-29T08:42:26.19Z</time></trkpt><trkpt lat="45.1947533" lon="10.995025"><ele>21.0</ele><time>2026-03-29T08:42:27.191Z</time></trkpt><trkpt lat="45.1945483" lon="10.99534"><ele>21.0</ele><time>2026-03-29T08:42:28.19Z</time></trkpt><trkpt lat="45.1943467" lon="10.9956367"><ele>21.0</ele><time>2026-03-29T08:42:29.19Z</time></trkpt><trkpt lat="45.1941533" lon="10.995925"><ele>21.0</ele><time>2026-03-29T08:42:30.191Z</time></trkpt><trkpt lat="45.1939633" lon="10.9961983"><ele>21.0</ele><time>2026-03-29T08:42:31.191Z</time></trkpt><trkpt lat="45.1937717" lon="10.996455"><ele>21.0</ele><time>2026-03-29T08:42:32.189Z</time></trkpt><trkpt lat="45.1935817" lon="10.996705"><ele>21.0</ele><time>2026-03-29T08:42:33.189Z</time></trkpt><trkpt lat="45.1933917" lon="10.9969433"><ele>21.0</ele><time>2026-03-29T08:42:34.191Z</time></trkpt><trkpt lat="45.1932" lon="10.9971683"><ele>21.0</ele><time>2026-03-29T08:42:35.19Z</time></trkpt><trkpt lat="45.19302" lon="10.99737"><ele>21.0</ele><time>2026-03-29T08:42:36.189Z</time></trkpt><trkpt lat="45.1928617" lon="10.9975483"><ele>21.0</ele><time>2026-03-29T08:42:37.189Z</time></trkpt><trkpt lat="45.19272" lon="10.9977233"><ele>21.0</ele><time>2026-03-29T08:42:38.191Z</time></trkpt><trkpt lat="45.19258" lon="10.9979133"><ele>21.0</ele><time>2026-03-29T08:42:39.188Z</time></trkpt><trkpt lat="45.1924417" lon="10.9981467"><ele>21.0</ele><time>2026-03-29T08:42:40.19Z</time></trkpt><trkpt lat="45.192305" lon="10.9984183"><ele>20.5</ele><time>2026-03-29T08:42:41.189Z</time></trkpt><trkpt lat="45.1921683" lon="10.9986933"><ele>20.0</ele><time>2026-03-29T08:42:42.189Z</time></trkpt><trkpt lat="45.1920383" lon="10.9989533"><ele>20.0</ele><time>2026-03-29T08:42:43.189Z</time></trkpt><trkpt lat="45.191915" lon="10.9991967"><ele>20.0</ele><time>2026-03-29T08:42:44.19Z</time></trkpt><trkpt lat="45.1917867" lon="10.9994317"><ele>20.0</ele><time>2026-03-29T08:42:45.189Z</time></trkpt><trkpt lat="45.1916583" lon="10.9996533"><ele>20.0</ele><time>2026-03-29T08:42:46.191Z</time></trkpt><trkpt lat="45.1915283" lon="10.9998517"><ele>20.0</ele><time>2026-03-29T08:42:47.191Z</time></trkpt><trkpt lat="45.191395" lon="11.0000233"><ele>20.0</ele><time>2026-03-29T08:42:48.19Z</time></trkpt><trkpt lat="45.1912683" lon="11.00018"><ele>20.25</ele><time>2026-03-29T08:42:49.191Z</time></trkpt><trkpt lat="45.19115" lon="11.0003267"><ele>20.5</ele><time>2026-03-29T08:42:50.19Z</time></trkpt><trkpt lat="45.191045" lon="11.0004683"><ele>20.75</ele><time>2026-03-29T08:42:51.189Z</time></trkpt><trkpt lat="45.190945" lon="11.00061"><ele>21.0</ele><time>2026-03-29T08:42:52.189Z</time></trkpt><trkpt lat="45.1908533" lon="11.0007617"><ele>21.0</ele><time>2026-03-29T08:42:53.19Z</time></trkpt><trkpt lat="45.190775" lon="11.00091"><ele>21.0</ele><time>2026-03-29T08:42:54.19Z</time></trkpt><trkpt lat="45.190695" lon="11.0010583"><ele>21.0</ele><time>2026-03-29T08:42:55.189Z</time></trkpt><trkpt lat="45.190615" lon="11.0012067"><ele>21.0</ele><time>2026-03-29T08:42:56.19Z</time></trkpt><trkpt lat="45.1905383" lon="11.001355"><ele>21.0</ele><time>2026-03-29T08:42:57.188Z</time></trkpt><trkpt lat="45.19046" lon="11.0015033"><ele>21.0</ele><time>2026-03-29T08:42:58.188Z</time></trkpt><trkpt lat="45.1903883" lon="11.0016467"><ele>21.0</ele><time>2026-03-29T08:42:59.189Z</time></trkpt><trkpt lat="45.1903217" lon="11.0017883"><ele>21.0</ele><time>2026-03-29T08:43:00.188Z</time></trkpt><trkpt lat="45.19025" lon="11.0019233"><ele>21.0</ele><time>2026-03-29T08:43:01.189Z</time></trkpt><trkpt lat="45.1901833" lon="11.0020433"><ele>21.0</ele><time>2026-03-29T08:43:02.189Z</time></trkpt><trkpt lat="45.1901267" lon="11.002145"><ele>21.0</ele><time>2026-03-29T08:43:03.188Z</time></trkpt><trkpt lat="45.190075" lon="11.0022483"><ele>21.0</ele><time>2026-03-29T08:43:04.189Z</time></trkpt><trkpt lat="45.1900267" lon="11.0023483"><ele>21.0</ele><time>2026-03-29T08:43:05.189Z</time></trkpt><trkpt lat="45.1899867" lon="11.00244"><ele>21.0</ele><time>2026-03-29T08:43:06.19Z</time></trkpt><trkpt lat="45.1899533" lon="11.0025267"><ele>21.0</ele><time>2026-03-29T08:43:07.19Z</time></trkpt><trkpt lat="45.1899167" lon="11.0026217"><ele>21.0</ele><time>2026-03-29T08:43:08.19Z</time></trkpt><trkpt lat="45.1898817" lon="11.0027317"><ele>21.0</ele><time>2026-03-29T08:43:09.19Z</time></trkpt><trkpt lat="45.1898467" lon="11.0028633"><ele>21.0</ele><time>2026-03-29T08:43:10.189Z</time></trkpt><trkpt lat="45.18981" lon="11.003015"><ele>21.0</ele><time>2026-03-29T08:43:11.189Z</time></trkpt><trkpt lat="45.1897783" lon="11.003175"><ele>21.0</ele><time>2026-03-29T08:43:12.189Z</time></trkpt><trkpt lat="45.1897483" lon="11.0033467"><ele>21.0</ele><time>2026-03-29T08:43:13.189Z</time></trkpt><trkpt lat="45.1897267" lon="11.0035333"><ele>21.0</ele><time>2026-03-29T08:43:14.19Z</time></trkpt><trkpt lat="45.189715" lon="11.003735"><ele>21.0</ele><time>2026-03-29T08:43:15.191Z</time></trkpt><trkpt lat="45.189715" lon="11.0039333"><ele>21.0</ele><time>2026-03-29T08:43:16.189Z</time></trkpt><trkpt lat="45.1897167" lon="11.0041233"><ele>21.0</ele><time>2026-03-29T08:43:17.19Z</time></trkpt><trkpt lat="45.1897233" lon="11.004305"><ele>21.0</ele><time>2026-03-29T08:43:18.191Z</time></trkpt><trkpt lat="45.189735" lon="11.0044667"><ele>21.0</ele><time>2026-03-29T08:43:19.191Z</time></trkpt><trkpt lat="45.189745" lon="11.0046067"><ele>21.0</ele><time>2026-03-29T08:43:20.189Z</time></trkpt><trkpt lat="45.189755" lon="11.004725"><ele>21.0</ele><time>2026-03-29T08:43:21.19Z</time></trkpt><trkpt lat="45.1897633" lon="11.004825"><ele>21.0</ele><time>2026-03-29T08:43:22.191Z</time></trkpt><trkpt lat="45.1897633" lon="11.004965"><ele>21.0</ele><time>2026-03-29T08:43:24.19Z</time></trkpt><trkpt lat="45.1897683" lon="11.0050583"><ele>21.0</ele><time>2026-03-29T08:43:26.19Z</time></trkpt><trkpt lat="45.1898367" lon="11.0050283"><ele>21.0</ele><time>2026-03-29T08:43:31.191Z</time></trkpt><trkpt lat="45.1898233" lon="11.0049217"><ele>21.0</ele><time>2026-03-29T08:43:32.191Z</time></trkpt><trkpt lat="45.1898017" lon="11.0047733"><ele>21.0</ele><time>2026-03-29T08:43:33.19Z</time></trkpt><trkpt lat="45.189785" lon="11.0045917"><ele>21.0</ele><time>2026-03-29T08:43:34.19Z</time></trkpt><trkpt lat="45.1897683" lon="11.0044133"><ele>21.0</ele><time>2026-03-29T08:43:35.193Z</time></trkpt><trkpt lat="45.1897567" lon="11.0042367"><ele>21.0</ele><time>2026-03-29T08:43:36.189Z</time></trkpt><trkpt lat="45.1897533" lon="11.0040633"><ele>21.0</ele><time>2026-03-29T08:43:37.189Z</time></trkpt><trkpt lat="45.1897583" lon="11.0038883"><ele>21.0</ele><time>2026-03-29T08:43:38.189Z</time></trkpt><trkpt lat="45.1897733" lon="11.0037033"><ele>21.0</ele><time>2026-03-29T08:43:39.189Z</time></trkpt><trkpt lat="45.18979" lon="11.0035083"><ele>21.0</ele><time>2026-03-29T08:43:40.191Z</time></trkpt><trkpt lat="45.189835" lon="11.0031267"><ele>21.0</ele><time>2026-03-29T08:43:42.189Z</time></trkpt><trkpt lat="45.1898617" lon="11.002965"><ele>21.0</ele><time>2026-03-29T08:43:43.19Z</time></trkpt><trkpt lat="45.1898883" lon="11.0028333"><ele>21.0</ele><time>2026-03-29T08:43:44.191Z</time></trkpt><trkpt lat="45.189915" lon="11.0027217"><ele>21.0</ele><time>2026-03-29T08:43:45.191Z</time></trkpt><trkpt lat="45.1899417" lon="11.0026383"><ele>21.0</ele><time>2026-03-29T08:43:46.19Z</time></trkpt><trkpt lat="45.1899717" lon="11.0025133"><ele>21.0</ele><time>2026-03-29T08:43:48.189Z</time></trkpt><trkpt lat="45.1899067" lon="11.0024217"><ele>21.0</ele><time>2026-03-29T08:43:51.188Z</time></trkpt><trkpt lat="45.189795" lon="11.0024583"><ele>21.0</ele><time>2026-03-29T08:43:53.19Z</time></trkpt><trkpt lat="45.1896983" lon="11.0025567"><ele>21.0</ele><time>2026-03-29T08:43:54.189Z</time></trkpt><trkpt lat="45.18959" lon="11.0026617"><ele>21.0</ele><time>2026-03-29T08:43:55.191Z</time></trkpt><trkpt lat="45.189465" lon="11.0027633"><ele>21.0</ele><time>2026-03-29T08:43:56.189Z</time></trkpt><trkpt lat="45.1893417" lon="11.0028617"><ele>21.0</ele><time>2026-03-29T08:43:57.189Z</time></trkpt><trkpt lat="45.18922" lon="11.0029583"><ele>21.0</ele><time>2026-03-29T08:43:58.189Z</time></trkpt><trkpt lat="45.1890867" lon="11.0030517"><ele>21.0</ele><time>2026-03-29T08:43:59.19Z</time></trkpt><trkpt lat="45.1889417" lon="11.003135"><ele>21.0</ele><time>2026-03-29T08:44:00.19Z</time></trkpt><trkpt lat="45.1887767" lon="11.0032067"><ele>20.666666666666668</ele><time>2026-03-29T08:44:01.19Z</time></trkpt><trkpt lat="45.1885933" lon="11.0032917"><ele>20.333333333333336</ele><time>2026-03-29T08:44:02.19Z</time></trkpt><trkpt lat="45.1883967" lon="11.0033983"><ele>20.0</ele><time>2026-03-29T08:44:03.189Z</time></trkpt><trkpt lat="45.18819" lon="11.0035167"><ele>20.333333333333336</ele><time>2026-03-29T08:44:04.189Z</time></trkpt><trkpt lat="45.1879933" lon="11.00363"><ele>20.666666666666668</ele><time>2026-03-29T08:44:05.189Z</time></trkpt><trkpt lat="45.1878117" lon="11.0037417"><ele>21.0</ele><time>2026-03-29T08:44:06.199Z</time></trkpt><trkpt lat="45.1876533" lon="11.0038433"><ele>21.0</ele><time>2026-03-29T08:44:07.189Z</time></trkpt><trkpt lat="45.187525" lon="11.00395"><ele>21.0</ele><time>2026-03-29T08:44:08.189Z</time></trkpt><trkpt lat="45.1874233" lon="11.00408"><ele>21.0</ele><time>2026-03-29T08:44:09.19Z</time></trkpt><trkpt lat="45.187325" lon="11.004235"><ele>21.0</ele><time>2026-03-29T08:44:10.189Z</time></trkpt><trkpt lat="45.1872267" lon="11.004375"><ele>21.5</ele><time>2026-03-29T08:44:11.189Z</time></trkpt><trkpt lat="45.18712" lon="11.00448"><ele>22.0</ele><time>2026-03-29T08:44:12.19Z</time></trkpt><trkpt lat="45.1869967" lon="11.004555"><ele>22.5</ele><time>2026-03-29T08:44:13.189Z</time></trkpt><trkpt lat="45.18685" lon="11.0046083"><ele>23.0</ele><time>2026-03-29T08:44:14.19Z</time></trkpt><trkpt lat="45.1866883" lon="11.0046567"><ele>23.0</ele><time>2026-03-29T08:44:15.19Z</time></trkpt><trkpt lat="45.18653" lon="11.004725"><ele>23.0</ele><time>2026-03-29T08:44:16.19Z</time></trkpt><trkpt lat="45.1863733" lon="11.0048217"><ele>23.0</ele><time>2026-03-29T08:44:17.191Z</time></trkpt><trkpt lat="45.18623" lon="11.00495"><ele>22.666666666666668</ele><time>2026-03-29T08:44:18.188Z</time></trkpt><trkpt lat="45.18609" lon="11.0050933"><ele>22.333333333333332</ele><time>2026-03-29T08:44:19.19Z</time></trkpt><trkpt lat="45.185965" lon="11.0052383"><ele>22.0</ele><time>2026-03-29T08:44:20.189Z</time></trkpt><trkpt lat="45.18585" lon="11.00538"><ele>22.0</ele><time>2026-03-29T08:44:21.189Z</time></trkpt><trkpt lat="45.185755" lon="11.00553"><ele>22.0</ele><time>2026-03-29T08:44:22.192Z</time></trkpt><trkpt lat="45.185675" lon="11.00569"><ele>22.0</ele><time>2026-03-29T08:44:23.19Z</time></trkpt><trkpt lat="45.18561" lon="11.00586"><ele>22.0</ele><time>2026-03-29T08:44:24.188Z</time></trkpt><trkpt lat="45.18555" lon="11.006015"><ele>21.6</ele><time>2026-03-29T08:44:25.19Z</time></trkpt><trkpt lat="45.1854883" lon="11.00615"><ele>21.200000000000003</ele><time>2026-03-29T08:44:26.19Z</time></trkpt><trkpt lat="45.185425" lon="11.0062617"><ele>20.8</ele><time>2026-03-29T08:44:27.192Z</time></trkpt><trkpt lat="45.18536" lon="11.0063567"><ele>20.4</ele><time>2026-03-29T08:44:28.189Z</time></trkpt><trkpt lat="45.1852967" lon="11.00644"><ele>20.0</ele><time>2026-03-29T08:44:29.189Z</time></trkpt><trkpt lat="45.1852267" lon="11.0065283"><ele>20.0</ele><time>2026-03-29T08:44:30.189Z</time></trkpt><trkpt lat="45.1851533" lon="11.006625"><ele>20.0</ele><time>2026-03-29T08:44:31.19Z</time></trkpt><trkpt lat="45.1850783" lon="11.0067333"><ele>20.0</ele><time>2026-03-29T08:44:32.19Z</time></trkpt><trkpt lat="45.1849967" lon="11.0068533"><ele>20.0</ele><time>2026-03-29T08:44:33.19Z</time></trkpt><trkpt lat="45.1849167" lon="11.00698"><ele>20.0</ele><time>2026-03-29T08:44:34.19Z</time></trkpt><trkpt lat="45.1848417" lon="11.0071033"><ele>20.2</ele><time>2026-03-29T08:44:35.191Z</time></trkpt><trkpt lat="45.1847667" lon="11.0072183"><ele>20.4</ele><time>2026-03-29T08:44:36.191Z</time></trkpt><trkpt lat="45.184695" lon="11.0073217"><ele>20.6</ele><time>2026-03-29T08:44:37.191Z</time></trkpt><trkpt lat="45.1846317" lon="11.007415"><ele>20.8</ele><time>2026-03-29T08:44:38.191Z</time></trkpt><trkpt lat="45.1845783" lon="11.0074867"><ele>21.0</ele><time>2026-03-29T08:44:39.191Z</time></trkpt><trkpt lat="45.1845117" lon="11.00757"><ele>21.0</ele><time>2026-03-29T08:44:41.191Z</time></trkpt><trkpt lat="45.1844833" lon="11.007715"><ele>21.0</ele><time>2026-03-29T08:44:47.189Z</time></trkpt><trkpt lat="45.1845" lon="11.00788"><ele>21.0</ele><time>2026-03-29T08:44:48.189Z</time></trkpt><trkpt lat="45.184535" lon="11.0080567"><ele>21.0</ele><time>2026-03-29T08:44:49.19Z</time></trkpt><trkpt lat="45.1845817" lon="11.00824"><ele>21.25</ele><time>2026-03-29T08:44:50.189Z</time></trkpt><trkpt lat="45.184625" lon="11.0084183"><ele>21.5</ele><time>2026-03-29T08:44:51.188Z</time></trkpt><trkpt lat="45.184675" lon="11.008595"><ele>21.75</ele><time>2026-03-29T08:44:52.189Z</time></trkpt><trkpt lat="45.184725" lon="11.0087683"><ele>22.0</ele><time>2026-03-29T08:44:53.19Z</time></trkpt><trkpt lat="45.18478" lon="11.008945"><ele>22.0</ele><time>2026-03-29T08:44:54.189Z</time></trkpt><trkpt lat="45.1848317" lon="11.0091183"><ele>22.0</ele><time>2026-03-29T08:44:55.189Z</time></trkpt><trkpt lat="45.184875" lon="11.00928"><ele>22.0</ele><time>2026-03-29T08:44:56.189Z</time></trkpt><trkpt lat="45.1849167" lon="11.0094417"><ele>22.0</ele><time>2026-03-29T08:44:57.189Z</time></trkpt><trkpt lat="45.18495" lon="11.00961"><ele>21.75</ele><time>2026-03-29T08:44:58.19Z</time></trkpt><trkpt lat="45.184975" lon="11.009795"><ele>21.5</ele><time>2026-03-29T08:44:59.189Z</time></trkpt><trkpt lat="45.1849833" lon="11.009995"><ele>21.25</ele><time>2026-03-29T08:45:00.189Z</time></trkpt><trkpt lat="45.1849767" lon="11.0102083"><ele>21.0</ele><time>2026-03-29T08:45:01.188Z</time></trkpt><trkpt lat="45.184955" lon="11.0104283"><ele>21.0</ele><time>2026-03-29T08:45:02.189Z</time></trkpt><trkpt lat="45.1849283" lon="11.0106433"><ele>21.0</ele><time>2026-03-29T08:45:03.191Z</time></trkpt><trkpt lat="45.1848933" lon="11.0108467"><ele>21.0</ele><time>2026-03-29T08:45:04.189Z</time></trkpt><trkpt lat="45.1848617" lon="11.011045"><ele>21.0</ele><time>2026-03-29T08:45:05.189Z</time></trkpt><trkpt lat="45.1848317" lon="11.0112283"><ele>20.75</ele><time>2026-03-29T08:45:06.188Z</time></trkpt><trkpt lat="45.1848017" lon="11.0114067"><ele>20.5</ele><time>2026-03-29T08:45:07.189Z</time></trkpt><trkpt lat="45.184775" lon="11.0115783"><ele>20.25</ele><time>2026-03-29T08:45:08.189Z</time></trkpt><trkpt lat="45.1847467" lon="11.011755"><ele>20.0</ele><time>2026-03-29T08:45:09.189Z</time></trkpt><trkpt lat="45.1847133" lon="11.0119467"><ele>20.0</ele><time>2026-03-29T08:45:10.189Z</time></trkpt><trkpt lat="45.184675" lon="11.0121583"><ele>20.0</ele><time>2026-03-29T08:45:11.191Z</time></trkpt><trkpt lat="45.1846367" lon="11.0123883"><ele>20.0</ele><time>2026-03-29T08:45:12.189Z</time></trkpt><trkpt lat="45.1846033" lon="11.01261"><ele>20.0</ele><time>2026-03-29T08:45:13.189Z</time></trkpt><trkpt lat="45.1845683" lon="11.0128283"><ele>20.0</ele><time>2026-03-29T08:45:14.189Z</time></trkpt><trkpt lat="45.1845317" lon="11.013045"><ele>20.0</ele><time>2026-03-29T08:45:15.189Z</time></trkpt><trkpt lat="45.1844967" lon="11.0132583"><ele>20.666666666666668</ele><time>2026-03-29T08:45:16.19Z</time></trkpt><trkpt lat="45.18446" lon="11.0134767"><ele>21.333333333333332</ele><time>2026-03-29T08:45:17.189Z</time></trkpt><trkpt lat="45.1844267" lon="11.0137083"><ele>22.0</ele><time>2026-03-29T08:45:18.189Z</time></trkpt><trkpt lat="45.18439" lon="11.0139733"><ele>21.0</ele><time>2026-03-29T08:45:19.189Z</time></trkpt><trkpt lat="45.1843433" lon="11.0142867"><ele>20.0</ele><time>2026-03-29T08:45:20.19Z</time></trkpt><trkpt lat="45.1842833" lon="11.014645"><ele>19.0</ele><time>2026-03-29T08:45:21.189Z</time></trkpt><trkpt lat="45.1842183" lon="11.015015"><ele>18.0</ele><time>2026-03-29T08:45:22.19Z</time></trkpt><trkpt lat="45.1841583" lon="11.015365"><ele>18.0</ele><time>2026-03-29T08:45:23.192Z</time></trkpt><trkpt lat="45.1841017" lon="11.0156883"><ele>18.0</ele><time>2026-03-29T08:45:24.189Z</time></trkpt><trkpt lat="45.1840533" lon="11.015995"><ele>18.0</ele><time>2026-03-29T08:45:25.189Z</time></trkpt><trkpt lat="45.1840067" lon="11.0162967"><ele>18.0</ele><time>2026-03-29T08:45:26.19Z</time></trkpt><trkpt lat="45.18396" lon="11.0166017"><ele>18.0</ele><time>2026-03-29T08:45:27.188Z</time></trkpt><trkpt lat="45.1839133" lon="11.0168917"><ele>18.0</ele><time>2026-03-29T08:45:28.189Z</time></trkpt><trkpt lat="45.1838683" lon="11.0171617"><ele>18.0</ele><time>2026-03-29T08:45:29.189Z</time></trkpt><trkpt lat="45.183825" lon="11.017405"><ele>18.0</ele><time>2026-03-29T08:45:30.19Z</time></trkpt><trkpt lat="45.1837917" lon="11.0176133"><ele>18.0</ele><time>2026-03-29T08:45:31.189Z</time></trkpt><trkpt lat="45.183765" lon="11.0177833"><ele>18.0</ele><time>2026-03-29T08:45:32.197Z</time></trkpt><trkpt lat="45.1837383" lon="11.0179167"><ele>18.0</ele><time>2026-03-29T08:45:33.191Z</time></trkpt><trkpt lat="45.1836917" lon="11.01804"><ele>18.0</ele><time>2026-03-29T08:45:34.189Z</time></trkpt><trkpt lat="45.1836133" lon="11.018165"><ele>18.0</ele><time>2026-03-29T08:45:35.189Z</time></trkpt><trkpt lat="45.1835333" lon="11.0182817"><ele>17.8</ele><time>2026-03-29T08:45:36.191Z</time></trkpt><trkpt lat="45.1834833" lon="11.01841"><ele>17.6</ele><time>2026-03-29T08:45:37.189Z</time></trkpt><trkpt lat="45.1834683" lon="11.0185583"><ele>17.4</ele><time>2026-03-29T08:45:38.189Z</time></trkpt><trkpt lat="45.1834933" lon="11.0186917"><ele>17.2</ele><time>2026-03-29T08:45:39.19Z</time></trkpt><trkpt lat="45.18356" lon="11.0187983"><ele>17.0</ele><time>2026-03-29T08:45:40.19Z</time></trkpt><trkpt lat="45.18365" lon="11.0188567"><ele>17.0</ele><time>2026-03-29T08:45:41.191Z</time></trkpt><trkpt lat="45.1837383" lon="11.0188667"><ele>17.0</ele><time>2026-03-29T08:45:42.19Z</time></trkpt><trkpt lat="45.18382" lon="11.018845"><ele>17.0</ele><time>2026-03-29T08:45:43.189Z</time></trkpt><trkpt lat="45.1838967" lon="11.0187833"><ele>17.0</ele><time>2026-03-29T08:45:44.19Z</time></trkpt><trkpt lat="45.18395" lon="11.01869"><ele>17.0</ele><time>2026-03-29T08:45:45.19Z</time></trkpt><trkpt lat="45.1839933" lon="11.0185967"><ele>17.0</ele><time>2026-03-29T08:45:46.19Z</time></trkpt><trkpt lat="45.1840083" lon="11.018495"><ele>17.0</ele><time>2026-03-29T08:45:47.189Z</time></trkpt><trkpt lat="45.18401" lon="11.0183933"><ele>17.0</ele><time>2026-03-29T08:45:48.189Z</time></trkpt><trkpt lat="45.18393" lon="11.0182833"><ele>17.0</ele><time>2026-03-29T08:45:49.189Z</time></trkpt><trkpt lat="45.1838467" lon="11.0182017"><ele>17.0</ele><time>2026-03-29T08:45:50.19Z</time></trkpt><trkpt lat="45.18377" lon="11.0181517"><ele>17.0</ele><time>2026-03-29T08:45:51.188Z</time></trkpt><trkpt lat="45.18368" lon="11.018135"><ele>17.0</ele><time>2026-03-29T08:45:52.189Z</time></trkpt><trkpt lat="45.1835867" lon="11.018205"><ele>17.0</ele><time>2026-03-29T08:45:53.19Z</time></trkpt><trkpt lat="45.18351" lon="11.018275"><ele>17.0</ele><time>2026-03-29T08:45:54.189Z</time></trkpt><trkpt lat="45.1834517" lon="11.0183683"><ele>17.0</ele><time>2026-03-29T08:45:55.19Z</time></trkpt><trkpt lat="45.1834233" lon="11.0185067"><ele>17.0</ele><time>2026-03-29T08:45:56.189Z</time></trkpt><trkpt lat="45.1834383" lon="11.018685"><ele>17.0</ele><time>2026-03-29T08:45:57.19Z</time></trkpt><trkpt lat="45.1834833" lon="11.0188667"><ele>17.0</ele><time>2026-03-29T08:45:58.188Z</time></trkpt><trkpt lat="45.1835117" lon="11.01903"><ele>17.0</ele><time>2026-03-29T08:45:59.191Z</time></trkpt><trkpt lat="45.1835167" lon="11.0192133"><ele>17.0</ele><time>2026-03-29T08:46:00.19Z</time></trkpt><trkpt lat="45.1834967" lon="11.019425"><ele>17.0</ele><time>2026-03-29T08:46:01.19Z</time></trkpt><trkpt lat="45.1834617" lon="11.0196633"><ele>17.0</ele><time>2026-03-29T08:46:02.19Z</time></trkpt><trkpt lat="45.1834183" lon="11.01993"><ele>17.0</ele><time>2026-03-29T08:46:03.189Z</time></trkpt><trkpt lat="45.183375" lon="11.0202217"><ele>17.0</ele><time>2026-03-29T08:46:04.189Z</time></trkpt><trkpt lat="45.1833267" lon="11.0205333"><ele>17.0</ele><time>2026-03-29T08:46:05.19Z</time></trkpt><trkpt lat="45.1832783" lon="11.02086"><ele>17.0</ele><time>2026-03-29T08:46:06.189Z</time></trkpt><trkpt lat="45.183225" lon="11.0211867"><ele>17.0</ele><time>2026-03-29T08:46:07.192Z</time></trkpt><trkpt lat="45.1831733" lon="11.0215183"><ele>18.0</ele><time>2026-03-29T08:46:08.191Z</time></trkpt><trkpt lat="45.18312" lon="11.021855"><ele>19.0</ele><time>2026-03-29T08:46:09.19Z</time></trkpt><trkpt lat="45.18307" lon="11.0221983"><ele>17.5</ele><time>2026-03-29T08:46:10.19Z</time></trkpt><trkpt lat="45.1830167" lon="11.0225433"><ele>16.0</ele><time>2026-03-29T08:46:11.19Z</time></trkpt><trkpt lat="45.1829617" lon="11.02289"><ele>16.0</ele><time>2026-03-29T08:46:12.19Z</time></trkpt><trkpt lat="45.182905" lon="11.02324"><ele>16.0</ele><time>2026-03-29T08:46:13.19Z</time></trkpt><trkpt lat="45.1828483" lon="11.0235967"><ele>16.0</ele><time>2026-03-29T08:46:14.191Z</time></trkpt><trkpt lat="45.1827917" lon="11.0239583"><ele>16.0</ele><time>2026-03-29T08:46:15.191Z</time></trkpt><trkpt lat="45.1827367" lon="11.024315"><ele>16.0</ele><time>2026-03-29T08:46:16.191Z</time></trkpt><trkpt lat="45.1826783" lon="11.024665"><ele>16.0</ele><time>2026-03-29T08:46:17.191Z</time></trkpt><trkpt lat="45.182625" lon="11.02501"><ele>16.0</ele><time>2026-03-29T08:46:18.192Z</time></trkpt><trkpt lat="45.1825683" lon="11.0253517"><ele>16.0</ele><time>2026-03-29T08:46:19.19Z</time></trkpt><trkpt lat="45.1825133" lon="11.025685"><ele>17.0</ele><time>2026-03-29T08:46:20.19Z</time></trkpt><trkpt lat="45.1824583" lon="11.0260133"><ele>18.0</ele><time>2026-03-29T08:46:21.189Z</time></trkpt><trkpt lat="45.1824033" lon="11.0263433"><ele>18.0</ele><time>2026-03-29T08:46:22.191Z</time></trkpt><trkpt lat="45.1823517" lon="11.026675"><ele>18.0</ele><time>2026-03-29T08:46:23.192Z</time></trkpt><trkpt lat="45.1823017" lon="11.0269983"><ele>17.666666666666668</ele><time>2026-03-29T08:46:24.19Z</time></trkpt><trkpt lat="45.1822533" lon="11.0273017"><ele>17.333333333333336</ele><time>2026-03-29T08:46:25.189Z</time></trkpt><trkpt lat="45.1822067" lon="11.027585"><ele>17.0</ele><time>2026-03-29T08:46:26.191Z</time></trkpt><trkpt lat="45.182165" lon="11.0278517"><ele>16.333333333333336</ele><time>2026-03-29T08:46:27.191Z</time></trkpt><trkpt lat="45.1821267" lon="11.0281"><ele>15.666666666666668</ele><time>2026-03-29T08:46:28.19Z</time></trkpt><trkpt lat="45.1820883" lon="11.0283433"><ele>15.0</ele><time>2026-03-29T08:46:29.19Z</time></trkpt><trkpt lat="45.18205" lon="11.0285867"><ele>15.0</ele><time>2026-03-29T08:46:30.19Z</time></trkpt><trkpt lat="45.1820117" lon="11.0288333"><ele>15.0</ele><time>2026-03-29T08:46:31.19Z</time></trkpt><trkpt lat="45.1819717" lon="11.02907"><ele>15.0</ele><time>2026-03-29T08:46:32.19Z</time></trkpt><trkpt lat="45.1819367" lon="11.0292967"><ele>15.333333333333332</ele><time>2026-03-29T08:46:33.19Z</time></trkpt><trkpt lat="45.1819" lon="11.0295167"><ele>15.666666666666666</ele><time>2026-03-29T08:46:34.19Z</time></trkpt><trkpt lat="45.181865" lon="11.0297417"><ele>16.0</ele><time>2026-03-29T08:46:35.189Z</time></trkpt><trkpt lat="45.1818283" lon="11.029975"><ele>16.0</ele><time>2026-03-29T08:46:36.191Z</time></trkpt><trkpt lat="45.1817917" lon="11.0302"><ele>16.0</ele><time>2026-03-29T08:46:37.19Z</time></trkpt><trkpt lat="45.1817583" lon="11.03041"><ele>16.0</ele><time>2026-03-29T08:46:38.191Z</time></trkpt><trkpt lat="45.18173" lon="11.030605"><ele>16.0</ele><time>2026-03-29T08:46:39.19Z</time></trkpt><trkpt lat="45.1817017" lon="11.0307983"><ele>16.0</ele><time>2026-03-29T08:46:40.191Z</time></trkpt><trkpt lat="45.1816717" lon="11.0309933"><ele>16.0</ele><time>2026-03-29T08:46:41.19Z</time></trkpt><trkpt lat="45.1816433" lon="11.03119"><ele>16.0</ele><time>2026-03-29T08:46:42.189Z</time></trkpt><trkpt lat="45.1816133" lon="11.0313867"><ele>16.0</ele><time>2026-03-29T08:46:43.19Z</time></trkpt><trkpt lat="45.18158" lon="11.031585"><ele>16.0</ele><time>2026-03-29T08:46:44.19Z</time></trkpt><trkpt lat="45.1815467" lon="11.031795"><ele>16.0</ele><time>2026-03-29T08:46:45.19Z</time></trkpt><trkpt lat="45.1815117" lon="11.0320233"><ele>15.666666666666666</ele><time>2026-03-29T08:46:46.19Z</time></trkpt><trkpt lat="45.181475" lon="11.0322733"><ele>15.333333333333332</ele><time>2026-03-29T08:46:47.191Z</time></trkpt><trkpt lat="45.181435" lon="11.0325317"><ele>15.0</ele><time>2026-03-29T08:46:48.191Z</time></trkpt><trkpt lat="45.1813983" lon="11.0327867"><ele>15.333333333333332</ele><time>2026-03-29T08:46:49.192Z</time></trkpt><trkpt lat="45.18136" lon="11.0330417"><ele>15.666666666666666</ele><time>2026-03-29T08:46:50.191Z</time></trkpt><trkpt lat="45.18132" lon="11.033315"><ele>16.0</ele><time>2026-03-29T08:46:51.192Z</time></trkpt><trkpt lat="45.1812683" lon="11.0336283"><ele>16.0</ele><time>2026-03-29T08:46:52.191Z</time></trkpt><trkpt lat="45.1812117" lon="11.0339833"><ele>16.0</ele><time>2026-03-29T08:46:53.191Z</time></trkpt><trkpt lat="45.181155" lon="11.0343733"><ele>16.5</ele><time>2026-03-29T08:46:54.19Z</time></trkpt><trkpt lat="45.1810833" lon="11.0347817"><ele>17.0</ele><time>2026-03-29T08:46:55.191Z</time></trkpt><trkpt lat="45.1810083" lon="11.0351983"><ele>17.0</ele><time>2026-03-29T08:46:56.192Z</time></trkpt><trkpt lat="45.1809383" lon="11.0356067"><ele>17.0</ele><time>2026-03-29T08:46:57.191Z</time></trkpt><trkpt lat="45.1808767" lon="11.036015"><ele>17.0</ele><time>2026-03-29T08:46:58.192Z</time></trkpt><trkpt lat="45.18081" lon="11.036415"><ele>17.0</ele><time>2026-03-29T08:46:59.19Z</time></trkpt><trkpt lat="45.1807483" lon="11.0368117"><ele>18.0</ele><time>2026-03-29T08:47:00.19Z</time></trkpt><trkpt lat="45.180685" lon="11.0372067"><ele>19.0</ele><time>2026-03-29T08:47:01.189Z</time></trkpt><trkpt lat="45.1806217" lon="11.0376033"><ele>19.0</ele><time>2026-03-29T08:47:02.19Z</time></trkpt><trkpt lat="45.1805583" lon="11.0380017"><ele>19.0</ele><time>2026-03-29T08:47:03.191Z</time></trkpt><trkpt lat="45.180495" lon="11.0383983"><ele>19.0</ele><time>2026-03-29T08:47:04.19Z</time></trkpt><trkpt lat="45.18043" lon="11.0387933"><ele>19.0</ele><time>2026-03-29T08:47:05.191Z</time></trkpt><trkpt lat="45.1803667" lon="11.0391917"><ele>19.0</ele><time>2026-03-29T08:47:06.191Z</time></trkpt><trkpt lat="45.1803033" lon="11.0395883"><ele>19.0</ele><time>2026-03-29T08:47:07.192Z</time></trkpt><trkpt lat="45.18024" lon="11.0399883"><ele>19.0</ele><time>2026-03-29T08:47:08.192Z</time></trkpt><trkpt lat="45.1801767" lon="11.0403883"><ele>19.0</ele><time>2026-03-29T08:47:09.191Z</time></trkpt><trkpt lat="45.1801117" lon="11.0407883"><ele>19.0</ele><time>2026-03-29T08:47:10.19Z</time></trkpt><trkpt lat="45.180045" lon="11.0411883"><ele>19.0</ele><time>2026-03-29T08:47:11.192Z</time></trkpt><trkpt lat="45.17998" lon="11.0415933"><ele>19.5</ele><time>2026-03-29T08:47:12.191Z</time></trkpt><trkpt lat="45.179915" lon="11.0419983"><ele>20.0</ele><time>2026-03-29T08:47:13.191Z</time></trkpt><trkpt lat="45.1798517" lon="11.0424"><ele>19.0</ele><time>2026-03-29T08:47:14.192Z</time></trkpt><trkpt lat="45.17979" lon="11.0428017"><ele>18.0</ele><time>2026-03-29T08:47:15.195Z</time></trkpt><trkpt lat="45.1797283" lon="11.0432033"><ele>18.0</ele><time>2026-03-29T08:47:16.19Z</time></trkpt><trkpt lat="45.179665" lon="11.0436017"><ele>18.0</ele><time>2026-03-29T08:47:17.191Z</time></trkpt><trkpt lat="45.1796017" lon="11.0439883"><ele>17.5</ele><time>2026-03-29T08:47:18.19Z</time></trkpt><trkpt lat="45.1795433" lon="11.0443567"><ele>17.0</ele><time>2026-03-29T08:47:19.191Z</time></trkpt><trkpt lat="45.1794833" lon="11.0447167"><ele>17.5</ele><time>2026-03-29T08:47:20.191Z</time></trkpt><trkpt lat="45.179425" lon="11.0450733"><ele>18.0</ele><time>2026-03-29T08:47:21.191Z</time></trkpt><trkpt lat="45.1793683" lon="11.04543"><ele>18.0</ele><time>2026-03-29T08:47:22.19Z</time></trkpt><trkpt lat="45.17931" lon="11.0457883"><ele>18.0</ele><time>2026-03-29T08:47:23.191Z</time></trkpt><trkpt lat="45.1792533" lon="11.0461483"><ele>18.5</ele><time>2026-03-29T08:47:24.19Z</time></trkpt><trkpt lat="45.1791967" lon="11.0465067"><ele>19.0</ele><time>2026-03-29T08:47:25.189Z</time></trkpt><trkpt lat="45.1791383" lon="11.046865"><ele>19.0</ele><time>2026-03-29T08:47:26.19Z</time></trkpt><trkpt lat="45.1790817" lon="11.0472167"><ele>19.0</ele><time>2026-03-29T08:47:27.189Z</time></trkpt><trkpt lat="45.17903" lon="11.0475533"><ele>18.666666666666664</ele><time>2026-03-29T08:47:28.19Z</time></trkpt><trkpt lat="45.1789817" lon="11.0478717"><ele>18.333333333333332</ele><time>2026-03-29T08:47:29.19Z</time></trkpt><trkpt lat="45.1789367" lon="11.0481683"><ele>18.0</ele><time>2026-03-29T08:47:30.189Z</time></trkpt><trkpt lat="45.178895" lon="11.0484417"><ele>18.0</ele><time>2026-03-29T08:47:31.191Z</time></trkpt><trkpt lat="45.17885" lon="11.0486983"><ele>18.0</ele><time>2026-03-29T08:47:32.19Z</time></trkpt><trkpt lat="45.1788117" lon="11.0489383"><ele>18.0</ele><time>2026-03-29T08:47:33.189Z</time></trkpt><trkpt lat="45.1787717" lon="11.04917"><ele>18.333333333333332</ele><time>2026-03-29T08:47:34.189Z</time></trkpt><trkpt lat="45.1787367" lon="11.049405"><ele>18.666666666666664</ele><time>2026-03-29T08:47:35.189Z</time></trkpt><trkpt lat="45.1787017" lon="11.04964"><ele>19.0</ele><time>2026-03-29T08:47:36.189Z</time></trkpt><trkpt lat="45.178665" lon="11.04988"><ele>18.333333333333332</ele><time>2026-03-29T08:47:37.191Z</time></trkpt><trkpt lat="45.1786283" lon="11.05011"><ele>17.666666666666668</ele><time>2026-03-29T08:47:38.19Z</time></trkpt><trkpt lat="45.1785933" lon="11.0503333"><ele>17.0</ele><time>2026-03-29T08:47:39.19Z</time></trkpt><trkpt lat="45.1785583" lon="11.0505783"><ele>17.666666666666668</ele><time>2026-03-29T08:47:40.189Z</time></trkpt><trkpt lat="45.17852" lon="11.0508567"><ele>18.333333333333332</ele><time>2026-03-29T08:47:41.19Z</time></trkpt><trkpt lat="45.1784733" lon="11.0511567"><ele>19.0</ele><time>2026-03-29T08:47:42.19Z</time></trkpt><trkpt lat="45.1784217" lon="11.0514417"><ele>19.0</ele><time>2026-03-29T08:47:43.189Z</time></trkpt><trkpt lat="45.178375" lon="11.0517067"><ele>19.0</ele><time>2026-03-29T08:47:44.19Z</time></trkpt><trkpt lat="45.1783333" lon="11.0519467"><ele>19.0</ele><time>2026-03-29T08:47:45.19Z</time></trkpt><trkpt lat="45.1782983" lon="11.05216"><ele>19.0</ele><time>2026-03-29T08:47:46.19Z</time></trkpt><trkpt lat="45.1782667" lon="11.0523433"><ele>19.0</ele><time>2026-03-29T08:47:47.19Z</time></trkpt><trkpt lat="45.178235" lon="11.052505"><ele>19.0</ele><time>2026-03-29T08:47:48.193Z</time></trkpt><trkpt lat="45.1782083" lon="11.0526483"><ele>19.0</ele><time>2026-03-29T08:47:49.192Z</time></trkpt><trkpt lat="45.1781733" lon="11.05277"><ele>19.0</ele><time>2026-03-29T08:47:50.191Z</time></trkpt><trkpt lat="45.1781217" lon="11.0528817"><ele>19.0</ele><time>2026-03-29T08:47:51.191Z</time></trkpt><trkpt lat="45.1780633" lon="11.0529867"><ele>19.0</ele><time>2026-03-29T08:47:52.191Z</time></trkpt><trkpt lat="45.178015" lon="11.0530817"><ele>19.0</ele><time>2026-03-29T08:47:53.191Z</time></trkpt><trkpt lat="45.1779833" lon="11.0531683"><ele>19.0</ele><time>2026-03-29T08:47:54.19Z</time></trkpt><trkpt lat="45.1779783" lon="11.05326"><ele>19.0</ele><time>2026-03-29T08:47:55.189Z</time></trkpt><trkpt lat="45.1780233" lon="11.0533783"><ele>19.0</ele><time>2026-03-29T08:47:56.19Z</time></trkpt><trkpt lat="45.1780917" lon="11.0535133"><ele>19.0</ele><time>2026-03-29T08:47:57.189Z</time></trkpt><trkpt lat="45.1781433" lon="11.053655"><ele>19.0</ele><time>2026-03-29T08:47:58.19Z</time></trkpt><trkpt lat="45.1781683" lon="11.0537917"><ele>19.0</ele><time>2026-03-29T08:47:59.189Z</time></trkpt><trkpt lat="45.1781917" lon="11.0539383"><ele>19.0</ele><time>2026-03-29T08:48:00.189Z</time></trkpt><trkpt lat="45.1782033" lon="11.05409"><ele>19.0</ele><time>2026-03-29T08:48:01.19Z</time></trkpt><trkpt lat="45.1782067" lon="11.0542567"><ele>18.75</ele><time>2026-03-29T08:48:02.19Z</time></trkpt><trkpt lat="45.1782033" lon="11.0544267"><ele>18.5</ele><time>2026-03-29T08:48:03.19Z</time></trkpt><trkpt lat="45.1781817" lon="11.0546117"><ele>18.25</ele><time>2026-03-29T08:48:04.19Z</time></trkpt><trkpt lat="45.1781483" lon="11.0548333"><ele>18.0</ele><time>2026-03-29T08:48:05.191Z</time></trkpt><trkpt lat="45.1781033" lon="11.05507"><ele>18.0</ele><time>2026-03-29T08:48:06.19Z</time></trkpt><trkpt lat="45.17806" lon="11.0552917"><ele>18.0</ele><time>2026-03-29T08:48:07.191Z</time></trkpt><trkpt lat="45.178025" lon="11.055485"><ele>18.0</ele><time>2026-03-29T08:48:08.189Z</time></trkpt><trkpt lat="45.178" lon="11.055665"><ele>18.0</ele><time>2026-03-29T08:48:09.192Z</time></trkpt><trkpt lat="45.17798" lon="11.0558383"><ele>17.75</ele><time>2026-03-29T08:48:10.19Z</time></trkpt><trkpt lat="45.1779667" lon="11.0560083"><ele>17.5</ele><time>2026-03-29T08:48:11.189Z</time></trkpt><trkpt lat="45.1779633" lon="11.056185"><ele>17.25</ele><time>2026-03-29T08:48:12.19Z</time></trkpt><trkpt lat="45.1779633" lon="11.05636"><ele>17.0</ele><time>2026-03-29T08:48:13.19Z</time></trkpt><trkpt lat="45.1779683" lon="11.0565283"><ele>16.25</ele><time>2026-03-29T08:48:14.191Z</time></trkpt><trkpt lat="45.1779783" lon="11.0566883"><ele>15.5</ele><time>2026-03-29T08:48:15.19Z</time></trkpt><trkpt lat="45.1779967" lon="11.0568433"><ele>14.75</ele><time>2026-03-29T08:48:16.19Z</time></trkpt><trkpt lat="45.17803" lon="11.0570067"><ele>14.0</ele><time>2026-03-29T08:48:17.19Z</time></trkpt><trkpt lat="45.1780733" lon="11.0571683"><ele>14.0</ele><time>2026-03-29T08:48:18.19Z</time></trkpt><trkpt lat="45.1781217" lon="11.0573233"><ele>14.0</ele><time>2026-03-29T08:48:19.191Z</time></trkpt><trkpt lat="45.1781733" lon="11.0574767"><ele>14.0</ele><time>2026-03-29T08:48:20.19Z</time></trkpt><trkpt lat="45.178225" lon="11.0576217"><ele>14.0</ele><time>2026-03-29T08:48:21.19Z</time></trkpt><trkpt lat="45.17828" lon="11.05778"><ele>14.0</ele><time>2026-03-29T08:48:22.191Z</time></trkpt><trkpt lat="45.178335" lon="11.0579383"><ele>14.0</ele><time>2026-03-29T08:48:23.19Z</time></trkpt><trkpt lat="45.178385" lon="11.058095"><ele>14.0</ele><time>2026-03-29T08:48:24.19Z</time></trkpt><trkpt lat="45.1784317" lon="11.0582433"><ele>14.0</ele><time>2026-03-29T08:48:25.19Z</time></trkpt><trkpt lat="45.1784733" lon="11.0583867"><ele>14.399999999999999</ele><time>2026-03-29T08:48:26.191Z</time></trkpt><trkpt lat="45.17851" lon="11.0585333"><ele>14.799999999999999</ele><time>2026-03-29T08:48:27.19Z</time></trkpt><trkpt lat="45.1785383" lon="11.0586833"><ele>15.200000000000001</ele><time>2026-03-29T08:48:28.19Z</time></trkpt><trkpt lat="45.178565" lon="11.0588367"><ele>15.600000000000001</ele><time>2026-03-29T08:48:29.19Z</time></trkpt><trkpt lat="45.1785767" lon="11.0590033"><ele>16.0</ele><time>2026-03-29T08:48:30.19Z</time></trkpt><trkpt lat="45.1785617" lon="11.05918"><ele>16.25</ele><time>2026-03-29T08:48:31.19Z</time></trkpt><trkpt lat="45.1785417" lon="11.0593567"><ele>16.5</ele><time>2026-03-29T08:48:32.191Z</time></trkpt><trkpt lat="45.178515" lon="11.05952"><ele>16.75</ele><time>2026-03-29T08:48:33.189Z</time></trkpt><trkpt lat="45.1784883" lon="11.0596733"><ele>17.0</ele><time>2026-03-29T08:48:34.19Z</time></trkpt><trkpt lat="45.17847" lon="11.0598133"><ele>17.2</ele><time>2026-03-29T08:48:35.19Z</time></trkpt><trkpt lat="45.1784583" lon="11.0599517"><ele>17.4</ele><time>2026-03-29T08:48:36.191Z</time></trkpt><trkpt lat="45.1784517" lon="11.0600767"><ele>17.6</ele><time>2026-03-29T08:48:37.19Z</time></trkpt><trkpt lat="45.17846" lon="11.0602067"><ele>17.8</ele><time>2026-03-29T08:48:38.189Z</time></trkpt><trkpt lat="45.1784783" lon="11.0603367"><ele>18.0</ele><time>2026-03-29T08:48:39.19Z</time></trkpt><trkpt lat="45.1785067" lon="11.06047"><ele>18.0</ele><time>2026-03-29T08:48:40.191Z</time></trkpt><trkpt lat="45.1785367" lon="11.0605983"><ele>18.0</ele><time>2026-03-29T08:48:41.19Z</time></trkpt><trkpt lat="45.1785717" lon="11.0607317"><ele>18.0</ele><time>2026-03-29T08:48:42.19Z</time></trkpt><trkpt lat="45.1786083" lon="11.0608717"><ele>18.0</ele><time>2026-03-29T08:48:43.19Z</time></trkpt><trkpt lat="45.1786417" lon="11.06101"><ele>18.0</ele><time>2026-03-29T08:48:44.191Z</time></trkpt><trkpt lat="45.178675" lon="11.0611483"><ele>18.0</ele><time>2026-03-29T08:48:45.19Z</time></trkpt><trkpt lat="45.1787017" lon="11.061285"><ele>18.0</ele><time>2026-03-29T08:48:46.191Z</time></trkpt><trkpt lat="45.178725" lon="11.061425"><ele>18.0</ele><time>2026-03-29T08:48:47.19Z</time></trkpt><trkpt lat="45.1787433" lon="11.06157"><ele>18.0</ele><time>2026-03-29T08:48:48.189Z</time></trkpt><trkpt lat="45.178755" lon="11.0617217"><ele>18.0</ele><time>2026-03-29T08:48:49.19Z</time></trkpt><trkpt lat="45.1787683" lon="11.0618767"><ele>18.25</ele><time>2026-03-29T08:48:50.19Z</time></trkpt><trkpt lat="45.178785" lon="11.0620367"><ele>18.5</ele><time>2026-03-29T08:48:51.19Z</time></trkpt><trkpt lat="45.1787967" lon="11.0622033"><ele>18.75</ele><time>2026-03-29T08:48:52.19Z</time></trkpt><trkpt lat="45.1788017" lon="11.0623667"><ele>19.0</ele><time>2026-03-29T08:48:53.191Z</time></trkpt><trkpt lat="45.17882" lon="11.0625283"><ele>19.0</ele><time>2026-03-29T08:48:54.191Z</time></trkpt><trkpt lat="45.178835" lon="11.0626917"><ele>19.0</ele><time>2026-03-29T08:48:55.19Z</time></trkpt><trkpt lat="45.1788483" lon="11.062845"><ele>19.0</ele><time>2026-03-29T08:48:56.189Z</time></trkpt><trkpt lat="45.17887" lon="11.0629833"><ele>19.0</ele><time>2026-03-29T08:48:57.191Z</time></trkpt><trkpt lat="45.1788783" lon="11.0631"><ele>19.0</ele><time>2026-03-29T08:48:58.19Z</time></trkpt><trkpt lat="45.1788817" lon="11.0631933"><ele>18.8</ele><time>2026-03-29T08:48:59.189Z</time></trkpt><trkpt lat="45.1788783" lon="11.06329"><ele>18.599999999999998</ele><time>2026-03-29T08:49:01.189Z</time></trkpt><trkpt lat="45.17885" lon="11.0634233"><ele>18.4</ele><time>2026-03-29T08:49:04.19Z</time></trkpt><trkpt lat="45.1787983" lon="11.0635783"><ele>18.2</ele><time>2026-03-29T08:49:06.191Z</time></trkpt><trkpt lat="45.1787617" lon="11.0636767"><ele>18.0</ele><time>2026-03-29T08:49:07.19Z</time></trkpt><trkpt lat="45.1787017" lon="11.063795"><ele>18.0</ele><time>2026-03-29T08:49:08.191Z</time></trkpt><trkpt lat="45.1786117" lon="11.0639083"><ele>18.0</ele><time>2026-03-29T08:49:09.189Z</time></trkpt><trkpt lat="45.1785" lon="11.0640133"><ele>18.0</ele><time>2026-03-29T08:49:10.189Z</time></trkpt><trkpt lat="45.178365" lon="11.0641183"><ele>18.0</ele><time>2026-03-29T08:49:11.189Z</time></trkpt><trkpt lat="45.1782333" lon="11.0642333"><ele>18.25</ele><time>2026-03-29T08:49:12.19Z</time></trkpt><trkpt lat="45.1781133" lon="11.064345"><ele>18.5</ele><time>2026-03-29T08:49:13.191Z</time></trkpt><trkpt lat="45.1780017" lon="11.0644517"><ele>18.75</ele><time>2026-03-29T08:49:14.192Z</time></trkpt><trkpt lat="45.1779" lon="11.0645517"><ele>19.0</ele><time>2026-03-29T08:49:15.189Z</time></trkpt><trkpt lat="45.1778" lon="11.064655"><ele>19.0</ele><time>2026-03-29T08:49:16.19Z</time></trkpt><trkpt lat="45.1776967" lon="11.0647583"><ele>19.0</ele><time>2026-03-29T08:49:17.19Z</time></trkpt><trkpt lat="45.1776" lon="11.06486"><ele>19.0</ele><time>2026-03-29T08:49:18.194Z</time></trkpt><trkpt lat="45.1775017" lon="11.06496"><ele>19.0</ele><time>2026-03-29T08:49:19.191Z</time></trkpt><trkpt lat="45.1774033" lon="11.0650617"><ele>18.75</ele><time>2026-03-29T08:49:20.19Z</time></trkpt><trkpt lat="45.177305" lon="11.06516"><ele>18.5</ele><time>2026-03-29T08:49:21.19Z</time></trkpt><trkpt lat="45.1772117" lon="11.0652567"><ele>18.25</ele><time>2026-03-29T08:49:22.19Z</time></trkpt><trkpt lat="45.1771167" lon="11.065355"><ele>18.0</ele><time>2026-03-29T08:49:23.192Z</time></trkpt><trkpt lat="45.1770267" lon="11.0654483"><ele>18.0</ele><time>2026-03-29T08:49:24.191Z</time></trkpt><trkpt lat="45.17693" lon="11.0655433"><ele>18.0</ele><time>2026-03-29T08:49:25.189Z</time></trkpt><trkpt lat="45.1768283" lon="11.0656433"><ele>18.0</ele><time>2026-03-29T08:49:26.191Z</time></trkpt><trkpt lat="45.1767267" lon="11.0657433"><ele>18.0</ele><time>2026-03-29T08:49:27.189Z</time></trkpt><trkpt lat="45.1766233" lon="11.06584"><ele>18.0</ele><time>2026-03-29T08:49:28.19Z</time></trkpt><trkpt lat="45.1765183" lon="11.0659417"><ele>18.0</ele><time>2026-03-29T08:49:29.19Z</time></trkpt><trkpt lat="45.1764233" lon="11.066045"><ele>18.0</ele><time>2026-03-29T08:49:30.19Z</time></trkpt><trkpt lat="45.1763283" lon="11.0661367"><ele>18.0</ele><time>2026-03-29T08:49:31.194Z</time></trkpt><trkpt lat="45.17624" lon="11.0662217"><ele>18.0</ele><time>2026-03-29T08:49:32.191Z</time></trkpt><trkpt lat="45.1761467" lon="11.0663167"><ele>18.0</ele><time>2026-03-29T08:49:33.19Z</time></trkpt><trkpt lat="45.1760467" lon="11.0664133"><ele>18.0</ele><time>2026-03-29T08:49:34.19Z</time></trkpt><trkpt lat="45.1759533" lon="11.0665017"><ele>18.0</ele><time>2026-03-29T08:49:35.189Z</time></trkpt><trkpt lat="45.175885" lon="11.0665683"><ele>18.0</ele><time>2026-03-29T08:49:36.189Z</time></trkpt><trkpt lat="45.17582" lon="11.0666717"><ele>18.333333333333332</ele><time>2026-03-29T08:49:38.189Z</time></trkpt><trkpt lat="45.17587" lon="11.066905"><ele>18.666666666666664</ele><time>2026-03-29T08:49:40.189Z</time></trkpt><trkpt lat="45.1759133" lon="11.0670967"><ele>19.0</ele><time>2026-03-29T08:49:41.189Z</time></trkpt><trkpt lat="45.17595" lon="11.0673217"><ele>19.0</ele><time>2026-03-29T08:49:42.189Z</time></trkpt><trkpt lat="45.17599" lon="11.06758"><ele>19.0</ele><time>2026-03-29T08:49:43.19Z</time></trkpt><trkpt lat="45.1760267" lon="11.0678433"><ele>19.0</ele><time>2026-03-29T08:49:44.191Z</time></trkpt><trkpt lat="45.1760667" lon="11.0681117"><ele>18.666666666666664</ele><time>2026-03-29T08:49:45.189Z</time></trkpt><trkpt lat="45.1761067" lon="11.0683767"><ele>18.333333333333332</ele><time>2026-03-29T08:49:46.191Z</time></trkpt><trkpt lat="45.176145" lon="11.0686333"><ele>18.0</ele><time>2026-03-29T08:49:47.19Z</time></trkpt><trkpt lat="45.176185" lon="11.06888"><ele>18.0</ele><time>2026-03-29T08:49:48.189Z</time></trkpt><trkpt lat="45.17622" lon="11.06911"><ele>18.0</ele><time>2026-03-29T08:49:49.19Z</time></trkpt><trkpt lat="45.17625" lon="11.06931"><ele>18.0</ele><time>2026-03-29T08:49:50.19Z</time></trkpt><trkpt lat="45.1762767" lon="11.0694783"><ele>18.0</ele><time>2026-03-29T08:49:51.191Z</time></trkpt><trkpt lat="45.176295" lon="11.0696167"><ele>18.0</ele><time>2026-03-29T08:49:52.189Z</time></trkpt><trkpt lat="45.17631" lon="11.0697467"><ele>18.0</ele><time>2026-03-29T08:49:53.19Z</time></trkpt><trkpt lat="45.1763133" lon="11.0699017"><ele>18.0</ele><time>2026-03-29T08:49:54.189Z</time></trkpt><trkpt lat="45.1762967" lon="11.0700967"><ele>18.0</ele><time>2026-03-29T08:49:55.19Z</time></trkpt><trkpt lat="45.1762633" lon="11.0703133"><ele>17.75</ele><time>2026-03-29T08:49:56.189Z</time></trkpt><trkpt lat="45.1762283" lon="11.070515"><ele>17.5</ele><time>2026-03-29T08:49:57.189Z</time></trkpt><trkpt lat="45.1761967" lon="11.0706917"><ele>17.25</ele><time>2026-03-29T08:49:58.189Z</time></trkpt><trkpt lat="45.1761633" lon="11.0708683"><ele>17.0</ele><time>2026-03-29T08:49:59.191Z</time></trkpt><trkpt lat="45.17612" lon="11.0710717"><ele>17.0</ele><time>2026-03-29T08:50:00.19Z</time></trkpt><trkpt lat="45.1760667" lon="11.071305"><ele>17.0</ele><time>2026-03-29T08:50:01.19Z</time></trkpt><trkpt lat="45.1760117" lon="11.0715483"><ele>17.0</ele><time>2026-03-29T08:50:02.19Z</time></trkpt><trkpt lat="45.1759017" lon="11.0720417"><ele>16.666666666666668</ele><time>2026-03-29T08:50:04.189Z</time></trkpt><trkpt lat="45.1758433" lon="11.0723017"><ele>16.333333333333332</ele><time>2026-03-29T08:50:05.189Z</time></trkpt><trkpt lat="45.175785" lon="11.0725667"><ele>16.0</ele><time>2026-03-29T08:50:06.191Z</time></trkpt><trkpt lat="45.1757317" lon="11.07282"><ele>16.0</ele><time>2026-03-29T08:50:07.189Z</time></trkpt><trkpt lat="45.1756817" lon="11.0730717"><ele>16.0</ele><time>2026-03-29T08:50:08.189Z</time></trkpt><trkpt lat="45.175625" lon="11.0733317"><ele>16.0</ele><time>2026-03-29T08:50:09.189Z</time></trkpt><trkpt lat="45.175565" lon="11.073615"><ele>16.0</ele><time>2026-03-29T08:50:10.19Z</time></trkpt><trkpt lat="45.1754967" lon="11.0739317"><ele>16.0</ele><time>2026-03-29T08:50:11.191Z</time></trkpt><trkpt lat="45.1754267" lon="11.074255"><ele>16.333333333333332</ele><time>2026-03-29T08:50:12.191Z</time></trkpt><trkpt lat="45.1753617" lon="11.0745567"><ele>16.666666666666668</ele><time>2026-03-29T08:50:13.191Z</time></trkpt><trkpt lat="45.1753017" lon="11.074835"><ele>17.0</ele><time>2026-03-29T08:50:14.19Z</time></trkpt><trkpt lat="45.1752383" lon="11.0751167"><ele>17.0</ele><time>2026-03-29T08:50:15.196Z</time></trkpt><trkpt lat="45.1751717" lon="11.075405"><ele>17.0</ele><time>2026-03-29T08:50:16.19Z</time></trkpt><trkpt lat="45.17511" lon="11.075675"><ele>17.0</ele><time>2026-03-29T08:50:17.19Z</time></trkpt><trkpt lat="45.1750633" lon="11.0759183"><ele>16.666666666666668</ele><time>2026-03-29T08:50:18.189Z</time></trkpt><trkpt lat="45.1750283" lon="11.0761467"><ele>16.333333333333332</ele><time>2026-03-29T08:50:19.192Z</time></trkpt><trkpt lat="45.1750067" lon="11.0763683"><ele>16.0</ele><time>2026-03-29T08:50:20.19Z</time></trkpt><trkpt lat="45.175015" lon="11.0766033"><ele>15.666666666666666</ele><time>2026-03-29T08:50:21.19Z</time></trkpt><trkpt lat="45.17505" lon="11.0768417"><ele>15.333333333333332</ele><time>2026-03-29T08:50:22.189Z</time></trkpt><trkpt lat="45.1751117" lon="11.0770667"><ele>15.0</ele><time>2026-03-29T08:50:23.189Z</time></trkpt><trkpt lat="45.1752" lon="11.0772817"><ele>15.0</ele><time>2026-03-29T08:50:24.189Z</time></trkpt><trkpt lat="45.1752983" lon="11.077475"><ele>15.0</ele><time>2026-03-29T08:50:25.189Z</time></trkpt><trkpt lat="45.1753933" lon="11.0776467"><ele>15.0</ele><time>2026-03-29T08:50:26.191Z</time></trkpt><trkpt lat="45.175475" lon="11.0778"><ele>15.0</ele><time>2026-03-29T08:50:27.19Z</time></trkpt><trkpt lat="45.1755417" lon="11.0779267"><ele>15.0</ele><time>2026-03-29T08:50:28.189Z</time></trkpt><trkpt lat="45.1755867" lon="11.0780383"><ele>15.0</ele><time>2026-03-29T08:50:29.19Z</time></trkpt><trkpt lat="45.1756067" lon="11.0781417"><ele>15.0</ele><time>2026-03-29T08:50:30.189Z</time></trkpt><trkpt lat="45.1756033" lon="11.0782333"><ele>15.0</ele><time>2026-03-29T08:50:31.189Z</time></trkpt><trkpt lat="45.1755317" lon="11.078375"><ele>15.2</ele><time>2026-03-29T08:50:33.189Z</time></trkpt><trkpt lat="45.175475" lon="11.078425"><ele>15.4</ele><time>2026-03-29T08:50:34.19Z</time></trkpt><trkpt lat="45.1753983" lon="11.0784583"><ele>15.600000000000001</ele><time>2026-03-29T08:50:35.191Z</time></trkpt><trkpt lat="45.1753" lon="11.07848"><ele>15.8</ele><time>2026-03-29T08:50:36.189Z</time></trkpt><trkpt lat="45.1751467" lon="11.0785083"><ele>16.0</ele><time>2026-03-29T08:50:37.19Z</time></trkpt><trkpt lat="45.17497" lon="11.0785617"><ele>16.0</ele><time>2026-03-29T08:50:38.191Z</time></trkpt><trkpt lat="45.1747933" lon="11.0786333"><ele>16.0</ele><time>2026-03-29T08:50:39.189Z</time></trkpt><trkpt lat="45.1746233" lon="11.0787183"><ele>16.0</ele><time>2026-03-29T08:50:40.189Z</time></trkpt><trkpt lat="45.17446" lon="11.0788183"><ele>16.0</ele><time>2026-03-29T08:50:41.19Z</time></trkpt><trkpt lat="45.1743017" lon="11.07893"><ele>16.0</ele><time>2026-03-29T08:50:42.189Z</time></trkpt><trkpt lat="45.174145" lon="11.0790567"><ele>16.0</ele><time>2026-03-29T08:50:43.189Z</time></trkpt><trkpt lat="45.1739933" lon="11.0792033"><ele>15.333333333333332</ele><time>2026-03-29T08:50:44.19Z</time></trkpt><trkpt lat="45.1738417" lon="11.0793767"><ele>14.666666666666668</ele><time>2026-03-29T08:50:45.189Z</time></trkpt><trkpt lat="45.1736833" lon="11.079565"><ele>14.0</ele><time>2026-03-29T08:50:46.19Z</time></trkpt><trkpt lat="45.1735217" lon="11.07975"><ele>14.0</ele><time>2026-03-29T08:50:47.195Z</time></trkpt><trkpt lat="45.1733633" lon="11.07993"><ele>14.0</ele><time>2026-03-29T08:50:48.189Z</time></trkpt><trkpt lat="45.1732017" lon="11.0801133"><ele>14.0</ele><time>2026-03-29T08:50:49.189Z</time></trkpt><trkpt lat="45.1730383" lon="11.0803"><ele>14.333333333333334</ele><time>2026-03-29T08:50:50.19Z</time></trkpt><trkpt lat="45.1728733" lon="11.0804867"><ele>14.666666666666668</ele><time>2026-03-29T08:50:51.19Z</time></trkpt><trkpt lat="45.1727117" lon="11.0806717"><ele>15.0</ele><time>2026-03-29T08:50:52.19Z</time></trkpt><trkpt lat="45.1725583" lon="11.0808483"><ele>15.0</ele><time>2026-03-29T08:50:53.19Z</time></trkpt><trkpt lat="45.1724083" lon="11.0810267"><ele>15.0</ele><time>2026-03-29T08:50:54.19Z</time></trkpt><trkpt lat="45.17226" lon="11.0811967"><ele>15.0</ele><time>2026-03-29T08:50:55.19Z</time></trkpt><trkpt lat="45.1721167" lon="11.0813583"><ele>15.0</ele><time>2026-03-29T08:50:56.19Z</time></trkpt><trkpt lat="45.17198" lon="11.0815017"><ele>15.0</ele><time>2026-03-29T08:50:57.189Z</time></trkpt><trkpt lat="45.1718483" lon="11.08163"><ele>15.0</ele><time>2026-03-29T08:50:58.19Z</time></trkpt><trkpt lat="45.1717267" lon="11.08174"><ele>15.0</ele><time>2026-03-29T08:50:59.19Z</time></trkpt><trkpt lat="45.171605" lon="11.0818283"><ele>15.0</ele><time>2026-03-29T08:51:00.189Z</time></trkpt><trkpt lat="45.1714833" lon="11.0818983"><ele>15.0</ele><time>2026-03-29T08:51:01.191Z</time></trkpt><trkpt lat="45.171345" lon="11.081955"><ele>15.0</ele><time>2026-03-29T08:51:02.191Z</time></trkpt><trkpt lat="45.17118" lon="11.0820067"><ele>15.333333333333332</ele><time>2026-03-29T08:51:03.19Z</time></trkpt><trkpt lat="45.17099" lon="11.0820583"><ele>15.666666666666666</ele><time>2026-03-29T08:51:04.191Z</time></trkpt><trkpt lat="45.170795" lon="11.0821167"><ele>16.0</ele><time>2026-03-29T08:51:05.189Z</time></trkpt><trkpt lat="45.1706067" lon="11.0821767"><ele>16.0</ele><time>2026-03-29T08:51:06.19Z</time></trkpt><trkpt lat="45.1704233" lon="11.082245"><ele>16.0</ele><time>2026-03-29T08:51:07.19Z</time></trkpt><trkpt lat="45.170245" lon="11.0823233"><ele>16.0</ele><time>2026-03-29T08:51:08.191Z</time></trkpt><trkpt lat="45.17007" lon="11.082415"><ele>16.333333333333332</ele><time>2026-03-29T08:51:09.191Z</time></trkpt><trkpt lat="45.1699017" lon="11.08252"><ele>16.666666666666668</ele><time>2026-03-29T08:51:10.189Z</time></trkpt><trkpt lat="45.1697433" lon="11.0826333"><ele>17.0</ele><time>2026-03-29T08:51:11.189Z</time></trkpt><trkpt lat="45.1695917" lon="11.0827517"><ele>16.333333333333336</ele><time>2026-03-29T08:51:12.189Z</time></trkpt><trkpt lat="45.16944" lon="11.0828633"><ele>15.666666666666668</ele><time>2026-03-29T08:51:13.19Z</time></trkpt><trkpt lat="45.1692933" lon="11.0829767"><ele>15.0</ele><time>2026-03-29T08:51:14.19Z</time></trkpt><trkpt lat="45.1691483" lon="11.08309"><ele>15.0</ele><time>2026-03-29T08:51:15.19Z</time></trkpt><trkpt lat="45.1690167" lon="11.0831917"><ele>15.0</ele><time>2026-03-29T08:51:16.189Z</time></trkpt><trkpt lat="45.1689" lon="11.0832833"><ele>15.0</ele><time>2026-03-29T08:51:17.189Z</time></trkpt><trkpt lat="45.1687883" lon="11.0833667"><ele>15.0</ele><time>2026-03-29T08:51:18.19Z</time></trkpt><trkpt lat="45.168685" lon="11.08344"><ele>15.0</ele><time>2026-03-29T08:51:19.196Z</time></trkpt><trkpt lat="45.16859" lon="11.0835083"><ele>15.0</ele><time>2026-03-29T08:51:20.19Z</time></trkpt><trkpt lat="45.1685033" lon="11.0835717"><ele>15.0</ele><time>2026-03-29T08:51:21.189Z</time></trkpt><trkpt lat="45.168435" lon="11.0836217"><ele>15.0</ele><time>2026-03-29T08:51:22.19Z</time></trkpt><trkpt lat="45.168345" lon="11.08371"><ele>15.0</ele><time>2026-03-29T08:51:24.19Z</time></trkpt><trkpt lat="45.168335" lon="11.0838267"><ele>15.0</ele><time>2026-03-29T08:51:26.19Z</time></trkpt><trkpt lat="45.1683567" lon="11.0839167"><ele>15.0</ele><time>2026-03-29T08:51:27.19Z</time></trkpt><trkpt lat="45.168395" lon="11.0840767"><ele>15.0</ele><time>2026-03-29T08:51:28.189Z</time></trkpt><trkpt lat="45.1684183" lon="11.08425"><ele>15.0</ele><time>2026-03-29T08:51:29.19Z</time></trkpt><trkpt lat="45.16843" lon="11.0844767"><ele>15.0</ele><time>2026-03-29T08:51:30.191Z</time></trkpt><trkpt lat="45.1684283" lon="11.0847233"><ele>15.0</ele><time>2026-03-29T08:51:31.19Z</time></trkpt><trkpt lat="45.1684217" lon="11.08498"><ele>15.0</ele><time>2026-03-29T08:51:32.189Z</time></trkpt><trkpt lat="45.1684183" lon="11.085245"><ele>15.0</ele><time>2026-03-29T08:51:33.19Z</time></trkpt><trkpt lat="45.1684167" lon="11.08551"><ele>15.0</ele><time>2026-03-29T08:51:34.189Z</time></trkpt><trkpt lat="45.168415" lon="11.0857717"><ele>15.0</ele><time>2026-03-29T08:51:35.189Z</time></trkpt><trkpt lat="45.1684117" lon="11.0860183"><ele>15.0</ele><time>2026-03-29T08:51:36.19Z</time></trkpt><trkpt lat="45.16841" lon="11.0862533"><ele>15.0</ele><time>2026-03-29T08:51:37.189Z</time></trkpt><trkpt lat="45.168405" lon="11.08645"><ele>15.0</ele><time>2026-03-29T08:51:38.19Z</time></trkpt><trkpt lat="45.1684033" lon="11.086595"><ele>15.0</ele><time>2026-03-29T08:51:39.19Z</time></trkpt><trkpt lat="45.1684" lon="11.086695"><ele>15.0</ele><time>2026-03-29T08:51:40.189Z</time></trkpt><trkpt lat="45.1683933" lon="11.0867917"><ele>15.0</ele><time>2026-03-29T08:51:41.189Z</time></trkpt><trkpt lat="45.1683917" lon="11.086915"><ele>15.0</ele><time>2026-03-29T08:51:42.19Z</time></trkpt><trkpt lat="45.168385" lon="11.087105"><ele>15.0</ele><time>2026-03-29T08:51:43.189Z</time></trkpt><trkpt lat="45.1683683" lon="11.0873483"><ele>15.0</ele><time>2026-03-29T08:51:44.192Z</time></trkpt><trkpt lat="45.16834" lon="11.087605"><ele>15.0</ele><time>2026-03-29T08:51:45.189Z</time></trkpt><trkpt lat="45.16829" lon="11.0878617"><ele>15.0</ele><time>2026-03-29T08:51:46.19Z</time></trkpt><trkpt lat="45.168225" lon="11.08811"><ele>14.333333333333332</ele><time>2026-03-29T08:51:47.191Z</time></trkpt><trkpt lat="45.1681583" lon="11.088355"><ele>13.666666666666666</ele><time>2026-03-29T08:51:48.19Z</time></trkpt><trkpt lat="45.1680917" lon="11.088595"><ele>13.0</ele><time>2026-03-29T08:51:49.196Z</time></trkpt><trkpt lat="45.1680233" lon="11.0888317"><ele>13.0</ele><time>2026-03-29T08:51:50.191Z</time></trkpt><trkpt lat="45.1679533" lon="11.0890633"><ele>13.0</ele><time>2026-03-29T08:51:51.19Z</time></trkpt><trkpt lat="45.16789" lon="11.089295"><ele>13.0</ele><time>2026-03-29T08:51:52.19Z</time></trkpt><trkpt lat="45.1678317" lon="11.0895267"><ele>13.666666666666666</ele><time>2026-03-29T08:51:53.191Z</time></trkpt><trkpt lat="45.167775" lon="11.0897533"><ele>14.333333333333332</ele><time>2026-03-29T08:51:54.281Z</time></trkpt><trkpt lat="45.1677183" lon="11.0899683"><ele>15.0</ele><time>2026-03-29T08:51:55.19Z</time></trkpt><trkpt lat="45.16766" lon="11.0901767"><ele>15.0</ele><time>2026-03-29T08:51:56.19Z</time></trkpt><trkpt lat="45.1675883" lon="11.0903717"><ele>15.0</ele><time>2026-03-29T08:51:57.191Z</time></trkpt><trkpt lat="45.1674917" lon="11.0905483"><ele>15.0</ele><time>2026-03-29T08:51:58.19Z</time></trkpt><trkpt lat="45.1673667" lon="11.0907067"><ele>15.0</ele><time>2026-03-29T08:51:59.191Z</time></trkpt><trkpt lat="45.16722" lon="11.0908533"><ele>15.0</ele><time>2026-03-29T08:52:00.19Z</time></trkpt><trkpt lat="45.1670667" lon="11.0910017"><ele>15.0</ele><time>2026-03-29T08:52:01.19Z</time></trkpt><trkpt lat="45.1669083" lon="11.0911517"><ele>15.0</ele><time>2026-03-29T08:52:02.19Z</time></trkpt><trkpt lat="45.16675" lon="11.0913067"><ele>15.0</ele><time>2026-03-29T08:52:03.191Z</time></trkpt><trkpt lat="45.1665983" lon="11.09146"><ele>15.0</ele><time>2026-03-29T08:52:04.189Z</time></trkpt><trkpt lat="45.1664533" lon="11.0916067"><ele>15.0</ele><time>2026-03-29T08:52:05.19Z</time></trkpt><trkpt lat="45.1663167" lon="11.0917433"><ele>15.0</ele><time>2026-03-29T08:52:06.192Z</time></trkpt><trkpt lat="45.1661883" lon="11.0918717"><ele>15.0</ele><time>2026-03-29T08:52:07.189Z</time></trkpt><trkpt lat="45.1660683" lon="11.09199"><ele>15.0</ele><time>2026-03-29T08:52:08.193Z</time></trkpt><trkpt lat="45.16596" lon="11.0921"><ele>15.0</ele><time>2026-03-29T08:52:09.189Z</time></trkpt><trkpt lat="45.1658683" lon="11.0921967"><ele>15.0</ele><time>2026-03-29T08:52:10.189Z</time></trkpt><trkpt lat="45.1657933" lon="11.0922817"><ele>15.0</ele><time>2026-03-29T08:52:11.19Z</time></trkpt><trkpt lat="45.1657283" lon="11.09236"><ele>15.0</ele><time>2026-03-29T08:52:12.189Z</time></trkpt><trkpt lat="45.16569" lon="11.0924533"><ele>15.0</ele><time>2026-03-29T08:52:13.19Z</time></trkpt><trkpt lat="45.1656767" lon="11.092555"><ele>15.0</ele><time>2026-03-29T08:52:14.19Z</time></trkpt><trkpt lat="45.1656917" lon="11.0926633"><ele>15.0</ele><time>2026-03-29T08:52:15.189Z</time></trkpt><trkpt lat="45.1657283" lon="11.09279"><ele>15.0</ele><time>2026-03-29T08:52:16.19Z</time></trkpt><trkpt lat="45.1657917" lon="11.0929517"><ele>15.0</ele><time>2026-03-29T08:52:17.191Z</time></trkpt><trkpt lat="45.1658717" lon="11.0931517"><ele>14.666666666666668</ele><time>2026-03-29T08:52:18.195Z</time></trkpt><trkpt lat="45.1659667" lon="11.093375"><ele>14.333333333333334</ele><time>2026-03-29T08:52:19.191Z</time></trkpt><trkpt lat="45.166085" lon="11.0936217"><ele>14.0</ele><time>2026-03-29T08:52:20.191Z</time></trkpt><trkpt lat="45.1662167" lon="11.0938917"><ele>13.0</ele><time>2026-03-29T08:52:21.19Z</time></trkpt><trkpt lat="45.16636" lon="11.0941817"><ele>12.0</ele><time>2026-03-29T08:52:22.19Z</time></trkpt><trkpt lat="45.1665017" lon="11.0944717"><ele>12.0</ele><time>2026-03-29T08:52:23.19Z</time></trkpt><trkpt lat="45.166635" lon="11.0947433"><ele>12.0</ele><time>2026-03-29T08:52:24.19Z</time></trkpt><trkpt lat="45.1667633" lon="11.0949983"><ele>12.0</ele><time>2026-03-29T08:52:25.191Z</time></trkpt><trkpt lat="45.1668767" lon="11.095235"><ele>12.0</ele><time>2026-03-29T08:52:26.192Z</time></trkpt><trkpt lat="45.1669767" lon="11.0954433"><ele>12.0</ele><time>2026-03-29T08:52:27.19Z</time></trkpt><trkpt lat="45.1670567" lon="11.0956117"><ele>12.0</ele><time>2026-03-29T08:52:28.19Z</time></trkpt><trkpt lat="45.1671233" lon="11.0957533"><ele>12.0</ele><time>2026-03-29T08:52:29.19Z</time></trkpt><trkpt lat="45.167175" lon="11.095865"><ele>12.0</ele><time>2026-03-29T08:52:30.191Z</time></trkpt><trkpt lat="45.1672" lon="11.0959533"><ele>12.0</ele><time>2026-03-29T08:52:31.191Z</time></trkpt><trkpt lat="45.16717" lon="11.0960867"><ele>12.0</ele><time>2026-03-29T08:52:33.188Z</time></trkpt><trkpt lat="45.1671183" lon="11.09614"><ele>12.0</ele><time>2026-03-29T08:52:34.189Z</time></trkpt><trkpt lat="45.1670383" lon="11.09618"><ele>12.666666666666668</ele><time>2026-03-29T08:52:35.191Z</time></trkpt><trkpt lat="45.166895" lon="11.0962433"><ele>13.333333333333334</ele><time>2026-03-29T08:52:36.19Z</time></trkpt><trkpt lat="45.1667183" lon="11.096345"><ele>14.0</ele><time>2026-03-29T08:52:37.19Z</time></trkpt><trkpt lat="45.16653" lon="11.096465"><ele>13.0</ele><time>2026-03-29T08:52:38.19Z</time></trkpt><trkpt lat="45.1663233" lon="11.0966"><ele>12.0</ele><time>2026-03-29T08:52:39.189Z</time></trkpt><trkpt lat="45.16611" lon="11.0967417"><ele>12.0</ele><time>2026-03-29T08:52:40.189Z</time></trkpt><trkpt lat="45.1658933" lon="11.09689"><ele>12.0</ele><time>2026-03-29T08:52:41.19Z</time></trkpt><trkpt lat="45.165675" lon="11.097045"><ele>11.5</ele><time>2026-03-29T08:52:42.189Z</time></trkpt><trkpt lat="45.1654567" lon="11.0972267"><ele>11.0</ele><time>2026-03-29T08:52:43.19Z</time></trkpt><trkpt lat="45.16524" lon="11.0974267"><ele>11.0</ele><time>2026-03-29T08:52:44.189Z</time></trkpt><trkpt lat="45.1650367" lon="11.09764"><ele>11.0</ele><time>2026-03-29T08:52:45.189Z</time></trkpt><trkpt lat="45.1648433" lon="11.0978517"><ele>10.5</ele><time>2026-03-29T08:52:46.192Z</time></trkpt><trkpt lat="45.16466" lon="11.098055"><ele>10.0</ele><time>2026-03-29T08:52:47.19Z</time></trkpt><trkpt lat="45.1644833" lon="11.0982567"><ele>10.333333333333334</ele><time>2026-03-29T08:52:48.19Z</time></trkpt><trkpt lat="45.16431" lon="11.098455"><ele>10.666666666666666</ele><time>2026-03-29T08:52:49.19Z</time></trkpt><trkpt lat="45.1641433" lon="11.09865"><ele>11.0</ele><time>2026-03-29T08:52:50.191Z</time></trkpt><trkpt lat="45.1639833" lon="11.098835"><ele>11.0</ele><time>2026-03-29T08:52:51.19Z</time></trkpt><trkpt lat="45.16383" lon="11.0990083"><ele>11.0</ele><time>2026-03-29T08:52:52.19Z</time></trkpt><trkpt lat="45.1636767" lon="11.0991667"><ele>11.0</ele><time>2026-03-29T08:52:53.19Z</time></trkpt><trkpt lat="45.1635133" lon="11.0993117"><ele>11.0</ele><time>2026-03-29T08:52:54.19Z</time></trkpt><trkpt lat="45.16333" lon="11.0994383"><ele>11.0</ele><time>2026-03-29T08:52:55.19Z</time></trkpt><trkpt lat="45.1631333" lon="11.0995483"><ele>11.0</ele><time>2026-03-29T08:52:56.19Z</time></trkpt><trkpt lat="45.1629233" lon="11.09963"><ele>11.333333333333332</ele><time>2026-03-29T08:52:57.19Z</time></trkpt><trkpt lat="45.162705" lon="11.0996867"><ele>11.666666666666666</ele><time>2026-03-29T08:52:58.19Z</time></trkpt><trkpt lat="45.1624817" lon="11.09974"><ele>12.0</ele><time>2026-03-29T08:52:59.189Z</time></trkpt><trkpt lat="45.1622617" lon="11.0998083"><ele>12.0</ele><time>2026-03-29T08:53:00.19Z</time></trkpt><trkpt lat="45.16204" lon="11.0999"><ele>12.0</ele><time>2026-03-29T08:53:01.189Z</time></trkpt><trkpt lat="45.1618217" lon="11.0999967"><ele>12.5</ele><time>2026-03-29T08:53:02.19Z</time></trkpt><trkpt lat="45.161605" lon="11.1000967"><ele>13.0</ele><time>2026-03-29T08:53:03.191Z</time></trkpt><trkpt lat="45.1613867" lon="11.100205"><ele>13.0</ele><time>2026-03-29T08:53:04.189Z</time></trkpt><trkpt lat="45.1611717" lon="11.100325"><ele>13.0</ele><time>2026-03-29T08:53:05.19Z</time></trkpt><trkpt lat="45.160965" lon="11.1004667"><ele>13.0</ele><time>2026-03-29T08:53:06.191Z</time></trkpt><trkpt lat="45.1607567" lon="11.1006233"><ele>13.0</ele><time>2026-03-29T08:53:07.189Z</time></trkpt><trkpt lat="45.1605533" lon="11.1007867"><ele>13.0</ele><time>2026-03-29T08:53:08.19Z</time></trkpt><trkpt lat="45.1603633" lon="11.1009517"><ele>13.0</ele><time>2026-03-29T08:53:09.19Z</time></trkpt><trkpt lat="45.1601783" lon="11.1011417"><ele>13.0</ele><time>2026-03-29T08:53:10.192Z</time></trkpt><trkpt lat="45.1599933" lon="11.101355"><ele>13.0</ele><time>2026-03-29T08:53:11.189Z</time></trkpt><trkpt lat="45.15981" lon="11.1015917"><ele>11.5</ele><time>2026-03-29T08:53:12.191Z</time></trkpt><trkpt lat="45.1596167" lon="11.1018417"><ele>10.0</ele><time>2026-03-29T08:53:13.19Z</time></trkpt><trkpt lat="45.1594133" lon="11.1020933"><ele>10.0</ele><time>2026-03-29T08:53:14.19Z</time></trkpt><trkpt lat="45.1592167" lon="11.1023267"><ele>10.0</ele><time>2026-03-29T08:53:15.191Z</time></trkpt><trkpt lat="45.1590283" lon="11.10254"><ele>10.5</ele><time>2026-03-29T08:53:16.19Z</time></trkpt><trkpt lat="45.1588483" lon="11.10275"><ele>11.0</ele><time>2026-03-29T08:53:17.189Z</time></trkpt><trkpt lat="45.1586717" lon="11.1029533"><ele>11.0</ele><time>2026-03-29T08:53:18.189Z</time></trkpt><trkpt lat="45.1584967" lon="11.10315"><ele>11.0</ele><time>2026-03-29T08:53:19.191Z</time></trkpt><trkpt lat="45.1583183" lon="11.1033417"><ele>11.0</ele><time>2026-03-29T08:53:20.19Z</time></trkpt><trkpt lat="45.158135" lon="11.103525"><ele>12.5</ele><time>2026-03-29T08:53:21.191Z</time></trkpt><trkpt lat="45.1579433" lon="11.1037"><ele>14.0</ele><time>2026-03-29T08:53:22.191Z</time></trkpt><trkpt lat="45.1577417" lon="11.1038633"><ele>14.0</ele><time>2026-03-29T08:53:23.19Z</time></trkpt><trkpt lat="45.15754" lon="11.10401"><ele>14.0</ele><time>2026-03-29T08:53:24.19Z</time></trkpt><trkpt lat="45.15735" lon="11.1041383"><ele>14.0</ele><time>2026-03-29T08:53:25.19Z</time></trkpt><trkpt lat="45.1571717" lon="11.1042583"><ele>13.666666666666668</ele><time>2026-03-29T08:53:26.189Z</time></trkpt><trkpt lat="45.1570033" lon="11.104395"><ele>13.333333333333332</ele><time>2026-03-29T08:53:27.189Z</time></trkpt><trkpt lat="45.15685" lon="11.1045583"><ele>13.0</ele><time>2026-03-29T08:53:28.188Z</time></trkpt><trkpt lat="45.1567033" lon="11.1047517"><ele>12.333333333333332</ele><time>2026-03-29T08:53:29.19Z</time></trkpt><trkpt lat="45.1565533" lon="11.104965"><ele>11.666666666666666</ele><time>2026-03-29T08:53:30.189Z</time></trkpt><trkpt lat="45.156405" lon="11.10518"><ele>11.0</ele><time>2026-03-29T08:53:31.191Z</time></trkpt><trkpt lat="45.1562717" lon="11.1053867"><ele>11.0</ele><time>2026-03-29T08:53:32.19Z</time></trkpt><trkpt lat="45.1561467" lon="11.1055733"><ele>11.0</ele><time>2026-03-29T08:53:33.189Z</time></trkpt><trkpt lat="45.15603" lon="11.1057433"><ele>11.0</ele><time>2026-03-29T08:53:34.189Z</time></trkpt><trkpt lat="45.1559233" lon="11.105895"><ele>11.25</ele><time>2026-03-29T08:53:35.189Z</time></trkpt><trkpt lat="45.1558217" lon="11.106025"><ele>11.5</ele><time>2026-03-29T08:53:36.189Z</time></trkpt><trkpt lat="45.1557067" lon="11.1061217"><ele>11.75</ele><time>2026-03-29T08:53:37.192Z</time></trkpt><trkpt lat="45.1555733" lon="11.1061733"><ele>12.0</ele><time>2026-03-29T08:53:38.191Z</time></trkpt><trkpt lat="45.155415" lon="11.1061667"><ele>12.0</ele><time>2026-03-29T08:53:39.19Z</time></trkpt><trkpt lat="45.15523" lon="11.1061233"><ele>12.0</ele><time>2026-03-29T08:53:40.19Z</time></trkpt><trkpt lat="45.155045" lon="11.1060883"><ele>12.0</ele><time>2026-03-29T08:53:41.189Z</time></trkpt><trkpt lat="45.154865" lon="11.1060867"><ele>12.0</ele><time>2026-03-29T08:53:42.189Z</time></trkpt><trkpt lat="45.1547033" lon="11.10612"><ele>12.0</ele><time>2026-03-29T08:53:43.191Z</time></trkpt><trkpt lat="45.15455" lon="11.1061967"><ele>12.0</ele><time>2026-03-29T08:53:44.191Z</time></trkpt><trkpt lat="45.154405" lon="11.1063317"><ele>12.0</ele><time>2026-03-29T08:53:45.189Z</time></trkpt><trkpt lat="45.154255" lon="11.106525"><ele>12.0</ele><time>2026-03-29T08:53:46.189Z</time></trkpt><trkpt lat="45.1541117" lon="11.106745"><ele>12.0</ele><time>2026-03-29T08:53:47.189Z</time></trkpt><trkpt lat="45.1539733" lon="11.1069733"><ele>12.0</ele><time>2026-03-29T08:53:48.191Z</time></trkpt><trkpt lat="45.1538467" lon="11.1072217"><ele>12.0</ele><time>2026-03-29T08:53:49.191Z</time></trkpt><trkpt lat="45.1537167" lon="11.1074867"><ele>12.0</ele><time>2026-03-29T08:53:50.191Z</time></trkpt><trkpt lat="45.15358" lon="11.1077567"><ele>12.0</ele><time>2026-03-29T08:53:51.19Z</time></trkpt><trkpt lat="45.15343" lon="11.10801"><ele>12.0</ele><time>2026-03-29T08:53:52.19Z</time></trkpt><trkpt lat="45.1532633" lon="11.10824"><ele>11.5</ele><time>2026-03-29T08:53:53.19Z</time></trkpt><trkpt lat="45.153075" lon="11.1084567"><ele>11.0</ele><time>2026-03-29T08:53:54.189Z</time></trkpt><trkpt lat="45.1528733" lon="11.1086617"><ele>11.0</ele><time>2026-03-29T08:53:55.189Z</time></trkpt><trkpt lat="45.1526633" lon="11.1088567"><ele>11.0</ele><time>2026-03-29T08:53:56.19Z</time></trkpt><trkpt lat="45.1524467" lon="11.109025"><ele>10.5</ele><time>2026-03-29T08:53:57.189Z</time></trkpt><trkpt lat="45.15223" lon="11.1091817"><ele>10.0</ele><time>2026-03-29T08:53:58.189Z</time></trkpt><trkpt lat="45.1520133" lon="11.1093333"><ele>10.0</ele><time>2026-03-29T08:53:59.189Z</time></trkpt><trkpt lat="45.1518033" lon="11.1094833"><ele>10.0</ele><time>2026-03-29T08:54:00.19Z</time></trkpt><trkpt lat="45.1516067" lon="11.10963"><ele>10.333333333333334</ele><time>2026-03-29T08:54:01.19Z</time></trkpt><trkpt lat="45.1514283" lon="11.1097867"><ele>10.666666666666666</ele><time>2026-03-29T08:54:02.19Z</time></trkpt><trkpt lat="45.1512617" lon="11.1099683"><ele>11.0</ele><time>2026-03-29T08:54:03.19Z</time></trkpt><trkpt lat="45.1510967" lon="11.1101633"><ele>11.333333333333332</ele><time>2026-03-29T08:54:04.19Z</time></trkpt><trkpt lat="45.15094" lon="11.1103667"><ele>11.666666666666666</ele><time>2026-03-29T08:54:05.189Z</time></trkpt><trkpt lat="45.1507967" lon="11.1105783"><ele>12.0</ele><time>2026-03-29T08:54:06.19Z</time></trkpt><trkpt lat="45.1506617" lon="11.110805"><ele>12.0</ele><time>2026-03-29T08:54:07.19Z</time></trkpt><trkpt lat="45.1505417" lon="11.1110433"><ele>12.0</ele><time>2026-03-29T08:54:08.19Z</time></trkpt><trkpt lat="45.15044" lon="11.111265"><ele>12.0</ele><time>2026-03-29T08:54:09.188Z</time></trkpt><trkpt lat="45.15037" lon="11.1114483"><ele>11.8</ele><time>2026-03-29T08:54:10.189Z</time></trkpt><trkpt lat="45.1503183" lon="11.1116033"><ele>11.6</ele><time>2026-03-29T08:54:11.191Z</time></trkpt><trkpt lat="45.1502767" lon="11.1117383"><ele>11.4</ele><time>2026-03-29T08:54:12.189Z</time></trkpt><trkpt lat="45.1502433" lon="11.111855"><ele>11.200000000000001</ele><time>2026-03-29T08:54:13.19Z</time></trkpt><trkpt lat="45.1502133" lon="11.1119517"><ele>11.0</ele><time>2026-03-29T08:54:14.191Z</time></trkpt><trkpt lat="45.1501883" lon="11.112035"><ele>11.0</ele><time>2026-03-29T08:54:15.189Z</time></trkpt><trkpt lat="45.1501633" lon="11.1121883"><ele>11.0</ele><time>2026-03-29T08:54:43.191Z</time></trkpt><trkpt lat="45.150145" lon="11.11235"><ele>11.0</ele><time>2026-03-29T08:54:44.191Z</time></trkpt><trkpt lat="45.15014" lon="11.1125317"><ele>11.0</ele><time>2026-03-29T08:54:45.191Z</time></trkpt><trkpt lat="45.1501483" lon="11.11272"><ele>11.25</ele><time>2026-03-29T08:54:46.191Z</time></trkpt><trkpt lat="45.1501717" lon="11.1129117"><ele>11.5</ele><time>2026-03-29T08:54:47.19Z</time></trkpt><trkpt lat="45.1502017" lon="11.1131033"><ele>11.75</ele><time>2026-03-29T08:54:48.19Z</time></trkpt><trkpt lat="45.15024" lon="11.1132917"><ele>12.0</ele><time>2026-03-29T08:54:49.19Z</time></trkpt><trkpt lat="45.1502783" lon="11.1134783"><ele>12.2</ele><time>2026-03-29T08:54:50.189Z</time></trkpt><trkpt lat="45.1503083" lon="11.1136517"><ele>12.399999999999999</ele><time>2026-03-29T08:54:51.189Z</time></trkpt><trkpt lat="45.150335" lon="11.1138083"><ele>12.600000000000001</ele><time>2026-03-29T08:54:52.189Z</time></trkpt><trkpt lat="45.15035" lon="11.11394"><ele>12.8</ele><time>2026-03-29T08:54:53.189Z</time></trkpt><trkpt lat="45.1503533" lon="11.114055"><ele>13.0</ele><time>2026-03-29T08:54:54.189Z</time></trkpt><trkpt lat="45.150335" lon="11.114165"><ele>13.2</ele><time>2026-03-29T08:54:55.189Z</time></trkpt><trkpt lat="45.15029" lon="11.1142717"><ele>13.4</ele><time>2026-03-29T08:54:56.19Z</time></trkpt><trkpt lat="45.1502083" lon="11.1143567"><ele>13.599999999999998</ele><time>2026-03-29T08:54:57.19Z</time></trkpt><trkpt lat="45.1501033" lon="11.11443"><ele>13.799999999999999</ele><time>2026-03-29T08:54:58.19Z</time></trkpt><trkpt lat="45.1499767" lon="11.1144983"><ele>14.0</ele><time>2026-03-29T08:54:59.192Z</time></trkpt><trkpt lat="45.1498417" lon="11.11457"><ele>14.0</ele><time>2026-03-29T08:55:00.189Z</time></trkpt><trkpt lat="45.1497133" lon="11.11464"><ele>13.999999999999998</ele><time>2026-03-29T08:55:01.189Z</time></trkpt><trkpt lat="45.14961" lon="11.1146983"><ele>13.999999999999998</ele><time>2026-03-29T08:55:02.189Z</time></trkpt><trkpt lat="45.14954" lon="11.1147433"><ele>14.0</ele><time>2026-03-29T08:55:03.19Z</time></trkpt><trkpt lat="45.14948" lon="11.114795"><ele>14.0</ele><time>2026-03-29T08:55:05.189Z</time></trkpt><trkpt lat="45.1493833" lon="11.1148683"><ele>14.25</ele><time>2026-03-29T08:55:08.189Z</time></trkpt><trkpt lat="45.149305" lon="11.114935"><ele>14.5</ele><time>2026-03-29T08:55:09.189Z</time></trkpt><trkpt lat="45.1491867" lon="11.1150167"><ele>14.75</ele><time>2026-03-29T08:55:10.189Z</time></trkpt><trkpt lat="45.1490583" lon="11.1150983"><ele>15.0</ele><time>2026-03-29T08:55:11.19Z</time></trkpt><trkpt lat="45.1489217" lon="11.1151817"><ele>15.0</ele><time>2026-03-29T08:55:12.19Z</time></trkpt><trkpt lat="45.148775" lon="11.1152717"><ele>15.0</ele><time>2026-03-29T08:55:13.189Z</time></trkpt><trkpt lat="45.14864" lon="11.11535"><ele>15.0</ele><time>2026-03-29T08:55:14.19Z</time></trkpt><trkpt lat="45.148535" lon="11.1153967"><ele>15.0</ele><time>2026-03-29T08:55:15.189Z</time></trkpt><trkpt lat="45.14845" lon="11.1154333"><ele>15.0</ele><time>2026-03-29T08:55:16.19Z</time></trkpt><trkpt lat="45.1483533" lon="11.1154817"><ele>15.0</ele><time>2026-03-29T08:55:17.188Z</time></trkpt><trkpt lat="45.14823" lon="11.1155633"><ele>15.0</ele><time>2026-03-29T08:55:18.19Z</time></trkpt><trkpt lat="45.148075" lon="11.1156533"><ele>15.0</ele><time>2026-03-29T08:55:19.19Z</time></trkpt><trkpt lat="45.1478817" lon="11.1157433"><ele>15.0</ele><time>2026-03-29T08:55:20.19Z</time></trkpt><trkpt lat="45.14768" lon="11.1158267"><ele>15.0</ele><time>2026-03-29T08:55:21.189Z</time></trkpt><trkpt lat="45.1474967" lon="11.11591"><ele>15.0</ele><time>2026-03-29T08:55:22.189Z</time></trkpt><trkpt lat="45.1473333" lon="11.1159817"><ele>15.0</ele><time>2026-03-29T08:55:23.189Z</time></trkpt><trkpt lat="45.1471867" lon="11.1160617"><ele>15.0</ele><time>2026-03-29T08:55:24.19Z</time></trkpt><trkpt lat="45.1470567" lon="11.1161467"><ele>15.0</ele><time>2026-03-29T08:55:25.19Z</time></trkpt><trkpt lat="45.1469533" lon="11.1162267"><ele>15.0</ele><time>2026-03-29T08:55:26.189Z</time></trkpt><trkpt lat="45.1468733" lon="11.1162883"><ele>15.0</ele><time>2026-03-29T08:55:27.189Z</time></trkpt><trkpt lat="45.1468133" lon="11.1163433"><ele>15.0</ele><time>2026-03-29T08:55:28.189Z</time></trkpt><trkpt lat="45.1467683" lon="11.1164733"><ele>15.0</ele><time>2026-03-29T08:55:30.189Z</time></trkpt><trkpt lat="45.1468167" lon="11.1166233"><ele>15.0</ele><time>2026-03-29T08:55:31.189Z</time></trkpt><trkpt lat="45.14686" lon="11.11677"><ele>15.0</ele><time>2026-03-29T08:55:32.19Z</time></trkpt><trkpt lat="45.1468883" lon="11.1169067"><ele>15.0</ele><time>2026-03-29T08:55:33.191Z</time></trkpt><trkpt lat="45.1468783" lon="11.1170267"><ele>15.0</ele><time>2026-03-29T08:55:34.19Z</time></trkpt><trkpt lat="45.1468217" lon="11.1171467"><ele>15.0</ele><time>2026-03-29T08:55:35.19Z</time></trkpt><trkpt lat="45.1467133" lon="11.1172833"><ele>15.0</ele><time>2026-03-29T08:55:36.194Z</time></trkpt><trkpt lat="45.146595" lon="11.1174083"><ele>14.0</ele><time>2026-03-29T08:55:37.292Z</time></trkpt><trkpt lat="45.1464083" lon="11.117685"><ele>13.0</ele><time>2026-03-29T08:55:39.19Z</time></trkpt><trkpt lat="45.14634" lon="11.1178883"><ele>12.0</ele><time>2026-03-29T08:55:40.191Z</time></trkpt><trkpt lat="45.1462817" lon="11.1181317"><ele>11.666666666666666</ele><time>2026-03-29T08:55:41.189Z</time></trkpt><trkpt lat="45.1462083" lon="11.118395"><ele>11.333333333333332</ele><time>2026-03-29T08:55:42.189Z</time></trkpt><trkpt lat="45.14612" lon="11.1186567"><ele>11.0</ele><time>2026-03-29T08:55:43.189Z</time></trkpt><trkpt lat="45.1460233" lon="11.1189117"><ele>11.0</ele><time>2026-03-29T08:55:44.19Z</time></trkpt><trkpt lat="45.1459233" lon="11.119145"><ele>11.0</ele><time>2026-03-29T08:55:45.189Z</time></trkpt><trkpt lat="45.1458233" lon="11.1193567"><ele>11.0</ele><time>2026-03-29T08:55:46.189Z</time></trkpt><trkpt lat="45.1457033" lon="11.1195467"><ele>10.666666666666666</ele><time>2026-03-29T08:55:47.189Z</time></trkpt><trkpt lat="45.1455567" lon="11.11972"><ele>10.333333333333334</ele><time>2026-03-29T08:55:48.189Z</time></trkpt><trkpt lat="45.1453817" lon="11.1198983"><ele>10.0</ele><time>2026-03-29T08:55:49.189Z</time></trkpt><trkpt lat="45.14518" lon="11.1200967"><ele>10.0</ele><time>2026-03-29T08:55:50.189Z</time></trkpt><trkpt lat="45.1449567" lon="11.120315"><ele>10.0</ele><time>2026-03-29T08:55:51.189Z</time></trkpt><trkpt lat="45.1447267" lon="11.1205467"><ele>10.5</ele><time>2026-03-29T08:55:52.189Z</time></trkpt><trkpt lat="45.1445017" lon="11.1207717"><ele>11.0</ele><time>2026-03-29T08:55:53.189Z</time></trkpt><trkpt lat="45.1442967" lon="11.1209817"><ele>11.0</ele><time>2026-03-29T08:55:54.189Z</time></trkpt><trkpt lat="45.14409" lon="11.12119"><ele>11.0</ele><time>2026-03-29T08:55:55.189Z</time></trkpt><trkpt lat="45.1438717" lon="11.1213833"><ele>10.0</ele><time>2026-03-29T08:55:56.191Z</time></trkpt><trkpt lat="45.143635" lon="11.1215617"><ele>9.0</ele><time>2026-03-29T08:55:57.189Z</time></trkpt><trkpt lat="45.1433767" lon="11.12173"><ele>8.5</ele><time>2026-03-29T08:55:58.19Z</time></trkpt><trkpt lat="45.1430983" lon="11.1219"><ele>8.0</ele><time>2026-03-29T08:55:59.188Z</time></trkpt><trkpt lat="45.1428183" lon="11.1220733"><ele>8.0</ele><time>2026-03-29T08:56:00.188Z</time></trkpt><trkpt lat="45.1425567" lon="11.12224"><ele>8.0</ele><time>2026-03-29T08:56:01.189Z</time></trkpt><trkpt lat="45.14231" lon="11.1223983"><ele>9.5</ele><time>2026-03-29T08:56:02.19Z</time></trkpt><trkpt lat="45.142075" lon="11.1225567"><ele>11.0</ele><time>2026-03-29T08:56:03.189Z</time></trkpt><trkpt lat="45.14184" lon="11.1227183"><ele>11.0</ele><time>2026-03-29T08:56:04.189Z</time></trkpt><trkpt lat="45.1416067" lon="11.122895"><ele>11.0</ele><time>2026-03-29T08:56:05.19Z</time></trkpt><trkpt lat="45.1413767" lon="11.1230783"><ele>10.0</ele><time>2026-03-29T08:56:06.19Z</time></trkpt><trkpt lat="45.14115" lon="11.12327"><ele>9.0</ele><time>2026-03-29T08:56:07.189Z</time></trkpt><trkpt lat="45.1409267" lon="11.1234667"><ele>9.5</ele><time>2026-03-29T08:56:08.192Z</time></trkpt><trkpt lat="45.1407133" lon="11.12366"><ele>10.0</ele><time>2026-03-29T08:56:09.19Z</time></trkpt><trkpt lat="45.1405117" lon="11.1238483"><ele>10.0</ele><time>2026-03-29T08:56:10.19Z</time></trkpt><trkpt lat="45.14032" lon="11.1240317"><ele>10.0</ele><time>2026-03-29T08:56:11.19Z</time></trkpt><trkpt lat="45.1401383" lon="11.1242167"><ele>10.0</ele><time>2026-03-29T08:56:12.188Z</time></trkpt><trkpt lat="45.1399667" lon="11.1244033"><ele>10.0</ele><time>2026-03-29T08:56:13.192Z</time></trkpt><trkpt lat="45.1398067" lon="11.124585"><ele>10.0</ele><time>2026-03-29T08:56:14.191Z</time></trkpt><trkpt lat="45.139665" lon="11.1247633"><ele>10.333333333333334</ele><time>2026-03-29T08:56:15.189Z</time></trkpt><trkpt lat="45.1395417" lon="11.1249283"><ele>10.666666666666666</ele><time>2026-03-29T08:56:16.191Z</time></trkpt><trkpt lat="45.1394283" lon="11.125095"><ele>11.0</ele><time>2026-03-29T08:56:17.188Z</time></trkpt><trkpt lat="45.1393267" lon="11.1252667"><ele>11.0</ele><time>2026-03-29T08:56:18.189Z</time></trkpt><trkpt lat="45.139225" lon="11.125465"><ele>11.0</ele><time>2026-03-29T08:56:19.188Z</time></trkpt><trkpt lat="45.1391317" lon="11.1256717"><ele>11.0</ele><time>2026-03-29T08:56:20.189Z</time></trkpt><trkpt lat="45.1390517" lon="11.1258667"><ele>11.0</ele><time>2026-03-29T08:56:21.189Z</time></trkpt><trkpt lat="45.13898" lon="11.1260483"><ele>11.0</ele><time>2026-03-29T08:56:22.189Z</time></trkpt><trkpt lat="45.138915" lon="11.12621"><ele>11.0</ele><time>2026-03-29T08:56:23.19Z</time></trkpt><trkpt lat="45.1388667" lon="11.1263333"><ele>11.0</ele><time>2026-03-29T08:56:24.189Z</time></trkpt><trkpt lat="45.13883" lon="11.126425"><ele>11.0</ele><time>2026-03-29T08:56:25.189Z</time></trkpt><trkpt lat="45.13877" lon="11.12655"><ele>11.0</ele><time>2026-03-29T08:56:27.188Z</time></trkpt><trkpt lat="45.1386533" lon="11.1266433"><ele>11.0</ele><time>2026-03-29T08:56:29.19Z</time></trkpt><trkpt lat="45.1385467" lon="11.1266767"><ele>11.0</ele><time>2026-03-29T08:56:30.189Z</time></trkpt><trkpt lat="45.1384017" lon="11.1267017"><ele>11.0</ele><time>2026-03-29T08:56:31.189Z</time></trkpt><trkpt lat="45.1382283" lon="11.12672"><ele>11.0</ele><time>2026-03-29T08:56:32.195Z</time></trkpt><trkpt lat="45.1380383" lon="11.12674"><ele>11.0</ele><time>2026-03-29T08:56:33.189Z</time></trkpt><trkpt lat="45.137835" lon="11.1267567"><ele>12.0</ele><time>2026-03-29T08:56:34.19Z</time></trkpt><trkpt lat="45.1376133" lon="11.1267783"><ele>13.0</ele><time>2026-03-29T08:56:35.189Z</time></trkpt><trkpt lat="45.13738" lon="11.1268017"><ele>13.0</ele><time>2026-03-29T08:56:36.189Z</time></trkpt><trkpt lat="45.1371333" lon="11.126835"><ele>13.0</ele><time>2026-03-29T08:56:37.191Z</time></trkpt><trkpt lat="45.1368817" lon="11.1268733"><ele>13.0</ele><time>2026-03-29T08:56:38.19Z</time></trkpt><trkpt lat="45.13663" lon="11.126925"><ele>13.0</ele><time>2026-03-29T08:56:39.192Z</time></trkpt><trkpt lat="45.13638" lon="11.126985"><ele>12.5</ele><time>2026-03-29T08:56:40.19Z</time></trkpt><trkpt lat="45.1361267" lon="11.1270583"><ele>12.0</ele><time>2026-03-29T08:56:41.189Z</time></trkpt><trkpt lat="45.135875" lon="11.127145"><ele>12.0</ele><time>2026-03-29T08:56:42.189Z</time></trkpt><trkpt lat="45.1356283" lon="11.127255"><ele>12.0</ele><time>2026-03-29T08:56:43.189Z</time></trkpt><trkpt lat="45.135385" lon="11.1273817"><ele>12.0</ele><time>2026-03-29T08:56:44.19Z</time></trkpt><trkpt lat="45.135135" lon="11.1275233"><ele>12.0</ele><time>2026-03-29T08:56:45.189Z</time></trkpt><trkpt lat="45.1348833" lon="11.1276767"><ele>12.0</ele><time>2026-03-29T08:56:46.19Z</time></trkpt><trkpt lat="45.1346317" lon="11.1278367"><ele>12.0</ele><time>2026-03-29T08:56:47.189Z</time></trkpt><trkpt lat="45.1343817" lon="11.1279917"><ele>12.0</ele><time>2026-03-29T08:56:48.189Z</time></trkpt><trkpt lat="45.1341383" lon="11.1281517"><ele>12.0</ele><time>2026-03-29T08:56:49.189Z</time></trkpt><trkpt lat="45.133895" lon="11.12831"><ele>12.5</ele><time>2026-03-29T08:56:50.19Z</time></trkpt><trkpt lat="45.1336567" lon="11.128465"><ele>13.0</ele><time>2026-03-29T08:56:51.189Z</time></trkpt><trkpt lat="45.133425" lon="11.1286233"><ele>12.5</ele><time>2026-03-29T08:56:52.189Z</time></trkpt><trkpt lat="45.1332017" lon="11.12877"><ele>12.0</ele><time>2026-03-29T08:56:53.189Z</time></trkpt><trkpt lat="45.1329783" lon="11.1289133"><ele>12.0</ele><time>2026-03-29T08:56:54.189Z</time></trkpt><trkpt lat="45.1327633" lon="11.1290533"><ele>12.0</ele><time>2026-03-29T08:56:55.189Z</time></trkpt><trkpt lat="45.13256" lon="11.1291867"><ele>12.0</ele><time>2026-03-29T08:56:56.191Z</time></trkpt><trkpt lat="45.13237" lon="11.12931"><ele>12.0</ele><time>2026-03-29T08:56:57.191Z</time></trkpt><trkpt lat="45.1321883" lon="11.1294233"><ele>12.0</ele><time>2026-03-29T08:56:58.19Z</time></trkpt><trkpt lat="45.1320133" lon="11.12954"><ele>12.0</ele><time>2026-03-29T08:56:59.19Z</time></trkpt><trkpt lat="45.1318467" lon="11.1296517"><ele>12.0</ele><time>2026-03-29T08:57:00.19Z</time></trkpt><trkpt lat="45.13169" lon="11.1297617"><ele>12.0</ele><time>2026-03-29T08:57:01.19Z</time></trkpt><trkpt lat="45.1315483" lon="11.129865"><ele>11.5</ele><time>2026-03-29T08:57:02.195Z</time></trkpt><trkpt lat="45.1314133" lon="11.12996"><ele>11.0</ele><time>2026-03-29T08:57:03.189Z</time></trkpt><trkpt lat="45.1312933" lon="11.1300533"><ele>10.5</ele><time>2026-03-29T08:57:04.19Z</time></trkpt><trkpt lat="45.1311817" lon="11.1301433"><ele>10.0</ele><time>2026-03-29T08:57:05.192Z</time></trkpt><trkpt lat="45.1310783" lon="11.1302283"><ele>10.0</ele><time>2026-03-29T08:57:06.189Z</time></trkpt><trkpt lat="45.1309767" lon="11.13031"><ele>10.0</ele><time>2026-03-29T08:57:07.19Z</time></trkpt><trkpt lat="45.130875" lon="11.13039"><ele>10.0</ele><time>2026-03-29T08:57:08.191Z</time></trkpt><trkpt lat="45.1307783" lon="11.1304683"><ele>10.0</ele><time>2026-03-29T08:57:09.19Z</time></trkpt><trkpt lat="45.130685" lon="11.130545"><ele>10.0</ele><time>2026-03-29T08:57:10.189Z</time></trkpt><trkpt lat="45.13059" lon="11.130625"><ele>10.0</ele><time>2026-03-29T08:57:11.19Z</time></trkpt><trkpt lat="45.1304983" lon="11.1307033"><ele>10.0</ele><time>2026-03-29T08:57:12.19Z</time></trkpt><trkpt lat="45.1304117" lon="11.1307783"><ele>10.0</ele><time>2026-03-29T08:57:13.191Z</time></trkpt><trkpt lat="45.13033" lon="11.130855"><ele>10.0</ele><time>2026-03-29T08:57:14.19Z</time></trkpt><trkpt lat="45.1302433" lon="11.13093"><ele>10.0</ele><time>2026-03-29T08:57:15.188Z</time></trkpt><trkpt lat="45.1301583" lon="11.1310067"><ele>10.0</ele><time>2026-03-29T08:57:16.188Z</time></trkpt><trkpt lat="45.13008" lon="11.1310833"><ele>10.0</ele><time>2026-03-29T08:57:17.189Z</time></trkpt><trkpt lat="45.1300083" lon="11.1311517"><ele>10.0</ele><time>2026-03-29T08:57:18.19Z</time></trkpt><trkpt lat="45.129945" lon="11.1312117"><ele>10.0</ele><time>2026-03-29T08:57:19.19Z</time></trkpt><trkpt lat="45.1298833" lon="11.131255"><ele>10.0</ele><time>2026-03-29T08:57:20.189Z</time></trkpt><trkpt lat="45.1297733" lon="11.1313"><ele>10.0</ele><time>2026-03-29T08:57:22.189Z</time></trkpt><trkpt lat="45.1297033" lon="11.13136"><ele>10.0</ele><time>2026-03-29T08:57:24.188Z</time></trkpt><trkpt lat="45.1296683" lon="11.13146"><ele>10.0</ele><time>2026-03-29T08:57:26.189Z</time></trkpt><trkpt lat="45.12967" lon="11.1315983"><ele>10.0</ele><time>2026-03-29T08:57:28.189Z</time></trkpt><trkpt lat="45.1296767" lon="11.1317467"><ele>10.0</ele><time>2026-03-29T08:57:30.19Z</time></trkpt><trkpt lat="45.129695" lon="11.1318533"><ele>10.0</ele><time>2026-03-29T08:57:31.189Z</time></trkpt><trkpt lat="45.12972" lon="11.1319817"><ele>10.0</ele><time>2026-03-29T08:57:32.19Z</time></trkpt><trkpt lat="45.1297433" lon="11.1321183"><ele>10.0</ele><time>2026-03-29T08:57:33.19Z</time></trkpt><trkpt lat="45.1297667" lon="11.1322533"><ele>10.0</ele><time>2026-03-29T08:57:34.189Z</time></trkpt><trkpt lat="45.1297917" lon="11.1323833"><ele>10.0</ele><time>2026-03-29T08:57:35.189Z</time></trkpt><trkpt lat="45.1298283" lon="11.1325083"><ele>10.0</ele><time>2026-03-29T08:57:36.189Z</time></trkpt><trkpt lat="45.1298617" lon="11.1326283"><ele>9.833333333333334</ele><time>2026-03-29T08:57:37.19Z</time></trkpt><trkpt lat="45.1298967" lon="11.13274"><ele>9.666666666666668</ele><time>2026-03-29T08:57:38.189Z</time></trkpt><trkpt lat="45.1299267" lon="11.13284"><ele>9.5</ele><time>2026-03-29T08:57:39.189Z</time></trkpt><trkpt lat="45.1299533" lon="11.1329467"><ele>9.333333333333334</ele><time>2026-03-29T08:57:40.189Z</time></trkpt><trkpt lat="45.12998" lon="11.1330683"><ele>9.166666666666666</ele><time>2026-03-29T08:57:41.189Z</time></trkpt><trkpt lat="45.1300117" lon="11.1331933"><ele>9.0</ele><time>2026-03-29T08:57:42.189Z</time></trkpt><trkpt lat="45.130055" lon="11.1333283"><ele>8.75</ele><time>2026-03-29T08:57:43.19Z</time></trkpt><trkpt lat="45.1301017" lon="11.133485"><ele>8.5</ele><time>2026-03-29T08:57:44.189Z</time></trkpt><trkpt lat="45.1301467" lon="11.1336517"><ele>8.25</ele><time>2026-03-29T08:57:45.189Z</time></trkpt><trkpt lat="45.1301883" lon="11.1338133"><ele>8.0</ele><time>2026-03-29T08:57:46.188Z</time></trkpt><trkpt lat="45.1302317" lon="11.133975"><ele>8.0</ele><time>2026-03-29T08:57:47.191Z</time></trkpt><trkpt lat="45.130275" lon="11.1341267"><ele>8.0</ele><time>2026-03-29T08:57:48.189Z</time></trkpt><trkpt lat="45.13031" lon="11.13426"><ele>8.0</ele><time>2026-03-29T08:57:49.189Z</time></trkpt><trkpt lat="45.130345" lon="11.1343917"><ele>8.0</ele><time>2026-03-29T08:57:50.191Z</time></trkpt><trkpt lat="45.130375" lon="11.1345133"><ele>8.0</ele><time>2026-03-29T08:57:51.189Z</time></trkpt><trkpt lat="45.1304033" lon="11.1346167"><ele>7.999999999999999</ele><time>2026-03-29T08:57:52.19Z</time></trkpt><trkpt lat="45.130435" lon="11.13476"><ele>8.0</ele><time>2026-03-29T08:57:54.189Z</time></trkpt><trkpt lat="45.1304433" lon="11.1348567"><ele>8.0</ele><time>2026-03-29T08:57:57.189Z</time></trkpt><trkpt lat="45.1304967" lon="11.1349633"><ele>8.0</ele><time>2026-03-29T08:58:00.19Z</time></trkpt><trkpt lat="45.1305467" lon="11.13502"><ele>7.999999999999999</ele><time>2026-03-29T08:58:01.19Z</time></trkpt><trkpt lat="45.13061" lon="11.1350833"><ele>8.0</ele><time>2026-03-29T08:58:02.19Z</time></trkpt><trkpt lat="45.13068" lon="11.1351467"><ele>8.4</ele><time>2026-03-29T08:58:03.19Z</time></trkpt><trkpt lat="45.1307517" lon="11.1352117"><ele>8.8</ele><time>2026-03-29T08:58:04.191Z</time></trkpt><trkpt lat="45.1308267" lon="11.1352883"><ele>9.2</ele><time>2026-03-29T08:58:05.19Z</time></trkpt><trkpt lat="45.1309133" lon="11.13538"><ele>9.6</ele><time>2026-03-29T08:58:06.19Z</time></trkpt><trkpt lat="45.131" lon="11.1354767"><ele>10.0</ele><time>2026-03-29T08:58:07.19Z</time></trkpt><trkpt lat="45.1310817" lon="11.1355717"><ele>10.0</ele><time>2026-03-29T08:58:08.19Z</time></trkpt><trkpt lat="45.1311567" lon="11.1356633"><ele>10.0</ele><time>2026-03-29T08:58:09.19Z</time></trkpt><trkpt lat="45.1312317" lon="11.1357483"><ele>10.0</ele><time>2026-03-29T08:58:10.19Z</time></trkpt><trkpt lat="45.1313067" lon="11.1358333"><ele>10.0</ele><time>2026-03-29T08:58:11.19Z</time></trkpt><trkpt lat="45.1313867" lon="11.13592"><ele>10.0</ele><time>2026-03-29T08:58:12.19Z</time></trkpt><trkpt lat="45.1314633" lon="11.1359983"><ele>9.8</ele><time>2026-03-29T08:58:13.19Z</time></trkpt><trkpt lat="45.1315383" lon="11.1360867"><ele>9.6</ele><time>2026-03-29T08:58:14.19Z</time></trkpt><trkpt lat="45.1316083" lon="11.1361633"><ele>9.4</ele><time>2026-03-29T08:58:15.19Z</time></trkpt><trkpt lat="45.131695" lon="11.1362567"><ele>9.2</ele><time>2026-03-29T08:58:16.19Z</time></trkpt><trkpt lat="45.1317883" lon="11.1363583"><ele>9.0</ele><time>2026-03-29T08:58:17.19Z</time></trkpt><trkpt lat="45.131865" lon="11.1364467"><ele>9.0</ele><time>2026-03-29T08:58:18.188Z</time></trkpt><trkpt lat="45.1319317" lon="11.1365283"><ele>9.0</ele><time>2026-03-29T08:58:19.192Z</time></trkpt><trkpt lat="45.1319967" lon="11.1366033"><ele>9.0</ele><time>2026-03-29T08:58:20.189Z</time></trkpt><trkpt lat="45.132055" lon="11.1366733"><ele>9.0</ele><time>2026-03-29T08:58:21.191Z</time></trkpt><trkpt lat="45.1321083" lon="11.13674"><ele>9.0</ele><time>2026-03-29T08:58:22.189Z</time></trkpt><trkpt lat="45.1321633" lon="11.1368083"><ele>9.0</ele><time>2026-03-29T08:58:23.19Z</time></trkpt><trkpt lat="45.1322133" lon="11.1368717"><ele>9.0</ele><time>2026-03-29T08:58:24.194Z</time></trkpt><trkpt lat="45.1322767" lon="11.136955"><ele>9.0</ele><time>2026-03-29T08:58:26.19Z</time></trkpt><trkpt lat="45.13234" lon="11.13703"><ele>9.0</ele><time>2026-03-29T08:58:29.19Z</time></trkpt><trkpt lat="45.1323167" lon="11.137125"><ele>9.0</ele><time>2026-03-29T08:58:32.189Z</time></trkpt><trkpt lat="45.13226" lon="11.1371933"><ele>9.0</ele><time>2026-03-29T08:58:34.188Z</time></trkpt><trkpt lat="45.1322067" lon="11.1372683"><ele>9.0</ele><time>2026-03-29T08:58:42.189Z</time></trkpt><trkpt lat="45.13223" lon="11.1374033"><ele>9.0</ele><time>2026-03-29T08:58:46.19Z</time></trkpt><trkpt lat="45.1322817" lon="11.1374933"><ele>9.0</ele><time>2026-03-29T08:58:48.189Z</time></trkpt><trkpt lat="45.1323617" lon="11.13757"><ele>9.0</ele><time>2026-03-29T08:58:50.191Z</time></trkpt><trkpt lat="45.1324467" lon="11.1376417"><ele>9.0</ele><time>2026-03-29T08:58:52.19Z</time></trkpt><trkpt lat="45.1325417" lon="11.1377"><ele>9.0</ele><time>2026-03-29T08:58:54.19Z</time></trkpt><trkpt lat="45.1326567" lon="11.1377833"><ele>9.0</ele><time>2026-03-29T08:58:56.191Z</time></trkpt><trkpt lat="45.1327217" lon="11.1378383"><ele>9.0</ele><time>2026-03-29T08:58:57.194Z</time></trkpt><trkpt lat="45.1327867" lon="11.1379"><ele>9.0</ele><time>2026-03-29T08:58:58.195Z</time></trkpt><trkpt lat="45.1328517" lon="11.1379633"><ele>9.0</ele><time>2026-03-29T08:58:59.192Z</time></trkpt><trkpt lat="45.13291" lon="11.1380217"><ele>9.0</ele><time>2026-03-29T08:59:00.191Z</time></trkpt><trkpt lat="45.132965" lon="11.1380883"><ele>9.0</ele><time>2026-03-29T08:59:01.193Z</time></trkpt><trkpt lat="45.1330283" lon="11.13816"><ele>9.000000000000002</ele><time>2026-03-29T08:59:02.191Z</time></trkpt><trkpt lat="45.133095" lon="11.1382267"><ele>9.0</ele><time>2026-03-29T08:59:03.19Z</time></trkpt><trkpt lat="45.133155" lon="11.1382717"><ele>9.0</ele><time>2026-03-29T08:59:04.191Z</time></trkpt><trkpt lat="45.133215" lon="11.13831"><ele>9.0</ele><time>2026-03-29T08:59:05.191Z</time></trkpt><trkpt lat="45.1332833" lon="11.13835"><ele>9.0</ele><time>2026-03-29T08:59:06.19Z</time></trkpt><trkpt lat="45.1333517" lon="11.1383867"><ele>9.000000000000002</ele><time>2026-03-29T08:59:07.191Z</time></trkpt><trkpt lat="45.1334217" lon="11.1384317"><ele>9.0</ele><time>2026-03-29T08:59:08.19Z</time></trkpt><trkpt lat="45.1334867" lon="11.13848"><ele>9.000000000000002</ele><time>2026-03-29T08:59:09.19Z</time></trkpt><trkpt lat="45.133545" lon="11.1385317"><ele>9.0</ele><time>2026-03-29T08:59:10.19Z</time></trkpt><trkpt lat="45.1336" lon="11.13858"><ele>9.0</ele><time>2026-03-29T08:59:11.192Z</time></trkpt><trkpt lat="45.1336517" lon="11.1386317"><ele>9.0</ele><time>2026-03-29T08:59:12.191Z</time></trkpt><trkpt lat="45.1337083" lon="11.1386983"><ele>9.0</ele><time>2026-03-29T08:59:13.191Z</time></trkpt><trkpt lat="45.1337683" lon="11.138765"><ele>9.000000000000002</ele><time>2026-03-29T08:59:14.192Z</time></trkpt><trkpt lat="45.1338233" lon="11.138825"><ele>9.0</ele><time>2026-03-29T08:59:15.19Z</time></trkpt><trkpt lat="45.1338817" lon="11.1388733"><ele>9.000000000000002</ele><time>2026-03-29T08:59:16.189Z</time></trkpt><trkpt lat="45.133945" lon="11.1389117"><ele>9.0</ele><time>2026-03-29T08:59:17.19Z</time></trkpt><trkpt lat="45.13401" lon="11.1389367"><ele>9.0</ele><time>2026-03-29T08:59:18.191Z</time></trkpt><trkpt lat="45.13408" lon="11.1389583"><ele>9.0</ele><time>2026-03-29T08:59:19.192Z</time></trkpt><trkpt lat="45.1341533" lon="11.1389817"><ele>9.0</ele><time>2026-03-29T08:59:20.191Z</time></trkpt><trkpt lat="45.1342283" lon="11.139"><ele>9.000000000000002</ele><time>2026-03-29T08:59:21.191Z</time></trkpt><trkpt lat="45.1342983" lon="11.1390083"><ele>9.0</ele><time>2026-03-29T08:59:22.191Z</time></trkpt><trkpt lat="45.134415" lon="11.1389983"><ele>9.2</ele><time>2026-03-29T08:59:24.19Z</time></trkpt><trkpt lat="45.134525" lon="11.138945"><ele>9.4</ele><time>2026-03-29T08:59:26.199Z</time></trkpt><trkpt lat="45.13463" lon="11.1388433"><ele>9.6</ele><time>2026-03-29T08:59:28.19Z</time></trkpt><trkpt lat="45.13468" lon="11.13878"><ele>9.8</ele><time>2026-03-29T08:59:29.191Z</time></trkpt><trkpt lat="45.1347783" lon="11.1386967"><ele>10.0</ele><time>2026-03-29T08:59:31.19Z</time></trkpt><trkpt lat="45.1348983" lon="11.1386667"><ele>10.0</ele><time>2026-03-29T08:59:33.19Z</time></trkpt><trkpt lat="45.135" lon="11.1386783"><ele>10.0</ele><time>2026-03-29T08:59:35.19Z</time></trkpt><trkpt lat="45.1350783" lon="11.1387583"><ele>10.0</ele><time>2026-03-29T08:59:37.192Z</time></trkpt><trkpt lat="45.1351317" lon="11.13893"><ele>10.0</ele><time>2026-03-29T08:59:39.189Z</time></trkpt><trkpt lat="45.1351533" lon="11.1390533"><ele>10.0</ele><time>2026-03-29T08:59:40.19Z</time></trkpt><trkpt lat="45.1351783" lon="11.1391983"><ele>10.0</ele><time>2026-03-29T08:59:41.19Z</time></trkpt><trkpt lat="45.135205" lon="11.13935"><ele>10.0</ele><time>2026-03-29T08:59:42.19Z</time></trkpt><trkpt lat="45.13523" lon="11.1395033"><ele>10.0</ele><time>2026-03-29T08:59:43.19Z</time></trkpt><trkpt lat="45.135255" lon="11.1396633"><ele>10.0</ele><time>2026-03-29T08:59:44.192Z</time></trkpt><trkpt lat="45.1352833" lon="11.1398233"><ele>10.0</ele><time>2026-03-29T08:59:45.19Z</time></trkpt><trkpt lat="45.1353117" lon="11.13998"><ele>10.0</ele><time>2026-03-29T08:59:46.189Z</time></trkpt><trkpt lat="45.1353417" lon="11.1401367"><ele>10.0</ele><time>2026-03-29T08:59:47.19Z</time></trkpt><trkpt lat="45.1353717" lon="11.1402883"><ele>10.0</ele><time>2026-03-29T08:59:48.191Z</time></trkpt><trkpt lat="45.1354033" lon="11.1404417"><ele>10.0</ele><time>2026-03-29T08:59:49.191Z</time></trkpt><trkpt lat="45.1354367" lon="11.140595"><ele>10.0</ele><time>2026-03-29T08:59:50.191Z</time></trkpt><trkpt lat="45.1354683" lon="11.1407417"><ele>10.0</ele><time>2026-03-29T08:59:51.19Z</time></trkpt><trkpt lat="45.1355" lon="11.1408833"><ele>10.0</ele><time>2026-03-29T08:59:52.191Z</time></trkpt><trkpt lat="45.1355267" lon="11.1410117"><ele>10.0</ele><time>2026-03-29T08:59:53.191Z</time></trkpt><trkpt lat="45.1355517" lon="11.1411267"><ele>9.833333333333334</ele><time>2026-03-29T08:59:54.19Z</time></trkpt><trkpt lat="45.13557" lon="11.1412233"><ele>9.666666666666668</ele><time>2026-03-29T08:59:55.19Z</time></trkpt><trkpt lat="45.135585" lon="11.1413133"><ele>9.5</ele><time>2026-03-29T08:59:56.19Z</time></trkpt><trkpt lat="45.1355983" lon="11.1414283"><ele>9.333333333333334</ele><time>2026-03-29T08:59:58.191Z</time></trkpt><trkpt lat="45.1355633" lon="11.14152"><ele>9.166666666666666</ele><time>2026-03-29T09:00:01.19Z</time></trkpt><trkpt lat="45.13546" lon="11.1415767"><ele>9.0</ele><time>2026-03-29T09:00:03.19Z</time></trkpt><trkpt lat="45.1353617" lon="11.1416067"><ele>9.0</ele><time>2026-03-29T09:00:04.191Z</time></trkpt><trkpt lat="45.135225" lon="11.14164"><ele>9.0</ele><time>2026-03-29T09:00:05.19Z</time></trkpt><trkpt lat="45.1350983" lon="11.14168"><ele>9.0</ele><time>2026-03-29T09:00:06.189Z</time></trkpt><trkpt lat="45.1348333" lon="11.1417567"><ele>9.0</ele><time>2026-03-29T09:00:08.191Z</time></trkpt><trkpt lat="45.1346967" lon="11.1417933"><ele>9.0</ele><time>2026-03-29T09:00:09.191Z</time></trkpt><trkpt lat="45.1345717" lon="11.1418283"><ele>9.0</ele><time>2026-03-29T09:00:10.189Z</time></trkpt><trkpt lat="45.13446" lon="11.1418583"><ele>9.0</ele><time>2026-03-29T09:00:11.191Z</time></trkpt><trkpt lat="45.1343633" lon="11.1418833"><ele>9.0</ele><time>2026-03-29T09:00:12.191Z</time></trkpt><trkpt lat="45.1342867" lon="11.1419083"><ele>9.0</ele><time>2026-03-29T09:00:13.19Z</time></trkpt><trkpt lat="45.1342233" lon="11.1419317"><ele>9.0</ele><time>2026-03-29T09:00:14.19Z</time></trkpt><trkpt lat="45.1341617" lon="11.141995"><ele>9.0</ele><time>2026-03-29T09:00:16.191Z</time></trkpt><trkpt lat="45.1341667" lon="11.1421067"><ele>9.0</ele><time>2026-03-29T09:00:18.19Z</time></trkpt><trkpt lat="45.1342183" lon="11.142285"><ele>9.0</ele><time>2026-03-29T09:00:20.19Z</time></trkpt><trkpt lat="45.1342533" lon="11.1424033"><ele>9.2</ele><time>2026-03-29T09:00:21.19Z</time></trkpt><trkpt lat="45.134295" lon="11.1425333"><ele>9.4</ele><time>2026-03-29T09:00:22.189Z</time></trkpt><trkpt lat="45.1343383" lon="11.1426683"><ele>9.6</ele><time>2026-03-29T09:00:23.191Z</time></trkpt><trkpt lat="45.1343833" lon="11.1428033"><ele>9.8</ele><time>2026-03-29T09:00:24.19Z</time></trkpt><trkpt lat="45.134425" lon="11.142935"><ele>10.0</ele><time>2026-03-29T09:00:25.191Z</time></trkpt><trkpt lat="45.1344667" lon="11.1430617"><ele>10.0</ele><time>2026-03-29T09:00:26.192Z</time></trkpt><trkpt lat="45.134505" lon="11.1431683"><ele>10.0</ele><time>2026-03-29T09:00:27.19Z</time></trkpt><trkpt lat="45.13454" lon="11.1432583"><ele>10.0</ele><time>2026-03-29T09:00:28.19Z</time></trkpt><trkpt lat="45.134605" lon="11.1433683"><ele>10.0</ele><time>2026-03-29T09:00:30.19Z</time></trkpt><trkpt lat="45.1346833" lon="11.1433867"><ele>10.0</ele><time>2026-03-29T09:00:32.191Z</time></trkpt><trkpt lat="45.13477" lon="11.1433733"><ele>10.0</ele><time>2026-03-29T09:00:34.19Z</time></trkpt><trkpt lat="45.1348383" lon="11.14341"><ele>10.25</ele><time>2026-03-29T09:00:37.19Z</time></trkpt><trkpt lat="45.134885" lon="11.14351"><ele>10.5</ele><time>2026-03-29T09:00:39.19Z</time></trkpt><trkpt lat="45.1349783" lon="11.1437067"><ele>10.75</ele><time>2026-03-29T09:00:41.192Z</time></trkpt><trkpt lat="45.135035" lon="11.1438283"><ele>11.0</ele><time>2026-03-29T09:00:42.19Z</time></trkpt><trkpt lat="45.1350883" lon="11.1439417"><ele>11.0</ele><time>2026-03-29T09:00:43.193Z</time></trkpt><trkpt lat="45.13514" lon="11.144045"><ele>11.0</ele><time>2026-03-29T09:00:44.19Z</time></trkpt><trkpt lat="45.135195" lon="11.1441633"><ele>11.0</ele><time>2026-03-29T09:00:45.189Z</time></trkpt><trkpt lat="45.1352583" lon="11.1442983"><ele>11.0</ele><time>2026-03-29T09:00:46.19Z</time></trkpt><trkpt lat="45.1353333" lon="11.14445"><ele>11.0</ele><time>2026-03-29T09:00:47.191Z</time></trkpt><trkpt lat="45.13541" lon="11.1446267"><ele>11.0</ele><time>2026-03-29T09:00:48.19Z</time></trkpt><trkpt lat="45.13549" lon="11.1448267"><ele>11.0</ele><time>2026-03-29T09:00:49.193Z</time></trkpt><trkpt lat="45.1355683" lon="11.1450367"><ele>11.0</ele><time>2026-03-29T09:00:50.192Z</time></trkpt><trkpt lat="45.135645" lon="11.1452483"><ele>11.0</ele><time>2026-03-29T09:00:51.19Z</time></trkpt><trkpt lat="45.1357167" lon="11.1454583"><ele>11.0</ele><time>2026-03-29T09:00:52.194Z</time></trkpt><trkpt lat="45.13579" lon="11.1456617"><ele>11.0</ele><time>2026-03-29T09:00:53.191Z</time></trkpt><trkpt lat="45.1358633" lon="11.1458567"><ele>10.75</ele><time>2026-03-29T09:00:54.194Z</time></trkpt><trkpt lat="45.135935" lon="11.1460383"><ele>10.5</ele><time>2026-03-29T09:00:55.199Z</time></trkpt><trkpt lat="45.1360033" lon="11.14621"><ele>10.25</ele><time>2026-03-29T09:00:56.191Z</time></trkpt><trkpt lat="45.13606" lon="11.1463567"><ele>10.0</ele><time>2026-03-29T09:00:57.189Z</time></trkpt><trkpt lat="45.1361233" lon="11.1464783"><ele>10.2</ele><time>2026-03-29T09:00:58.19Z</time></trkpt><trkpt lat="45.136205" lon="11.1465683"><ele>10.4</ele><time>2026-03-29T09:00:59.192Z</time></trkpt><trkpt lat="45.13631" lon="11.1466183"><ele>10.600000000000001</ele><time>2026-03-29T09:01:00.191Z</time></trkpt><trkpt lat="45.1364217" lon="11.1466483"><ele>10.8</ele><time>2026-03-29T09:01:01.189Z</time></trkpt><trkpt lat="45.13652" lon="11.1467033"><ele>11.0</ele><time>2026-03-29T09:01:02.192Z</time></trkpt><trkpt lat="45.1366083" lon="11.1468117"><ele>11.25</ele><time>2026-03-29T09:01:03.19Z</time></trkpt><trkpt lat="45.13671" lon="11.1469667"><ele>11.5</ele><time>2026-03-29T09:01:04.19Z</time></trkpt><trkpt lat="45.1368067" lon="11.1471333"><ele>11.75</ele><time>2026-03-29T09:01:05.191Z</time></trkpt><trkpt lat="45.1368917" lon="11.1472917"><ele>12.0</ele><time>2026-03-29T09:01:06.19Z</time></trkpt><trkpt lat="45.1369617" lon="11.1474317"><ele>12.166666666666666</ele><time>2026-03-29T09:01:07.19Z</time></trkpt><trkpt lat="45.13701" lon="11.1475567"><ele>12.333333333333332</ele><time>2026-03-29T09:01:08.191Z</time></trkpt><trkpt lat="45.1370433" lon="11.1476633"><ele>12.5</ele><time>2026-03-29T09:01:09.19Z</time></trkpt><trkpt lat="45.1370867" lon="11.147785"><ele>12.666666666666666</ele><time>2026-03-29T09:01:11.191Z</time></trkpt><trkpt lat="45.1371583" lon="11.1478"><ele>12.833333333333332</ele><time>2026-03-29T09:01:14.192Z</time></trkpt><trkpt lat="45.1372433" lon="11.14782"><ele>13.0</ele><time>2026-03-29T09:01:16.191Z</time></trkpt><trkpt lat="45.13734" lon="11.1479717"><ele>13.0</ele><time>2026-03-29T09:01:18.191Z</time></trkpt><trkpt lat="45.13742" lon="11.1481633"><ele>13.0</ele><time>2026-03-29T09:01:19.192Z</time></trkpt><trkpt lat="45.1375233" lon="11.1483967"><ele>13.0</ele><time>2026-03-29T09:01:20.192Z</time></trkpt><trkpt lat="45.137635" lon="11.14863"><ele>12.666666666666666</ele><time>2026-03-29T09:01:21.189Z</time></trkpt><trkpt lat="45.1377583" lon="11.1488767"><ele>12.333333333333332</ele><time>2026-03-29T09:01:22.192Z</time></trkpt><trkpt lat="45.1378767" lon="11.149125"><ele>12.0</ele><time>2026-03-29T09:01:23.191Z</time></trkpt><trkpt lat="45.13799" lon="11.149365"><ele>12.0</ele><time>2026-03-29T09:01:24.19Z</time></trkpt><trkpt lat="45.1380883" lon="11.1495883"><ele>12.0</ele><time>2026-03-29T09:01:25.192Z</time></trkpt><trkpt lat="45.1381733" lon="11.1497817"><ele>12.0</ele><time>2026-03-29T09:01:26.191Z</time></trkpt><trkpt lat="45.138245" lon="11.1499633"><ele>12.0</ele><time>2026-03-29T09:01:27.19Z</time></trkpt><trkpt lat="45.1382983" lon="11.1501633"><ele>12.0</ele><time>2026-03-29T09:01:28.192Z</time></trkpt><trkpt lat="45.1383467" lon="11.150405"><ele>12.0</ele><time>2026-03-29T09:01:29.192Z</time></trkpt><trkpt lat="45.1383983" lon="11.1506933"><ele>11.5</ele><time>2026-03-29T09:01:30.19Z</time></trkpt><trkpt lat="45.1384583" lon="11.15102"><ele>11.0</ele><time>2026-03-29T09:01:31.191Z</time></trkpt><trkpt lat="45.1385217" lon="11.151375"><ele>11.0</ele><time>2026-03-29T09:01:32.192Z</time></trkpt><trkpt lat="45.1385833" lon="11.1517383"><ele>11.0</ele><time>2026-03-29T09:01:33.191Z</time></trkpt><trkpt lat="45.1386417" lon="11.1520883"><ele>11.0</ele><time>2026-03-29T09:01:34.19Z</time></trkpt><trkpt lat="45.1386983" lon="11.1524333"><ele>11.0</ele><time>2026-03-29T09:01:35.192Z</time></trkpt><trkpt lat="45.1387533" lon="11.1527767"><ele>11.0</ele><time>2026-03-29T09:01:36.19Z</time></trkpt><trkpt lat="45.1388017" lon="11.1531"><ele>11.0</ele><time>2026-03-29T09:01:37.191Z</time></trkpt><trkpt lat="45.1388433" lon="11.1534117"><ele>11.0</ele><time>2026-03-29T09:01:38.192Z</time></trkpt><trkpt lat="45.1388833" lon="11.1537"><ele>11.0</ele><time>2026-03-29T09:01:39.191Z</time></trkpt><trkpt lat="45.13892" lon="11.153965"><ele>11.0</ele><time>2026-03-29T09:01:40.191Z</time></trkpt><trkpt lat="45.1389483" lon="11.154185"><ele>11.0</ele><time>2026-03-29T09:01:41.189Z</time></trkpt><trkpt lat="45.13897" lon="11.15437"><ele>11.0</ele><time>2026-03-29T09:01:42.19Z</time></trkpt><trkpt lat="45.1389883" lon="11.1545333"><ele>11.0</ele><time>2026-03-29T09:01:43.191Z</time></trkpt><trkpt lat="45.1390067" lon="11.154685"><ele>11.0</ele><time>2026-03-29T09:01:44.191Z</time></trkpt><trkpt lat="45.1390233" lon="11.1548267"><ele>11.0</ele><time>2026-03-29T09:01:45.189Z</time></trkpt><trkpt lat="45.1390417" lon="11.1549583"><ele>11.0</ele><time>2026-03-29T09:01:46.19Z</time></trkpt><trkpt lat="45.1390583" lon="11.1550867"><ele>11.0</ele><time>2026-03-29T09:01:47.192Z</time></trkpt><trkpt lat="45.1390767" lon="11.1552183"><ele>11.0</ele><time>2026-03-29T09:01:48.19Z</time></trkpt><trkpt lat="45.1390983" lon="11.1553633"><ele>11.0</ele><time>2026-03-29T09:01:49.19Z</time></trkpt><trkpt lat="45.13912" lon="11.155515"><ele>11.0</ele><time>2026-03-29T09:01:50.19Z</time></trkpt><trkpt lat="45.1391433" lon="11.1556683"><ele>11.0</ele><time>2026-03-29T09:01:51.189Z</time></trkpt><trkpt lat="45.139165" lon="11.1558083"><ele>11.0</ele><time>2026-03-29T09:01:52.19Z</time></trkpt><trkpt lat="45.13919" lon="11.1559333"><ele>11.0</ele><time>2026-03-29T09:01:53.189Z</time></trkpt><trkpt lat="45.1392133" lon="11.15605"><ele>11.0</ele><time>2026-03-29T09:01:54.189Z</time></trkpt><trkpt lat="45.1392417" lon="11.1561633"><ele>11.0</ele><time>2026-03-29T09:01:55.19Z</time></trkpt><trkpt lat="45.1392733" lon="11.1562833"><ele>11.0</ele><time>2026-03-29T09:01:56.19Z</time></trkpt><trkpt lat="45.13931" lon="11.156395"><ele>11.0</ele><time>2026-03-29T09:01:57.191Z</time></trkpt><trkpt lat="45.1393433" lon="11.1564917"><ele>11.0</ele><time>2026-03-29T09:01:58.191Z</time></trkpt><trkpt lat="45.1393817" lon="11.1566217"><ele>11.0</ele><time>2026-03-29T09:02:00.189Z</time></trkpt><trkpt lat="45.139415" lon="11.156735"><ele>11.0</ele><time>2026-03-29T09:02:02.19Z</time></trkpt><trkpt lat="45.1394367" lon="11.1568733"><ele>11.0</ele><time>2026-03-29T09:02:04.19Z</time></trkpt><trkpt lat="45.1394033" lon="11.15698"><ele>11.0</ele><time>2026-03-29T09:02:06.19Z</time></trkpt><trkpt lat="45.1392983" lon="11.1570683"><ele>11.0</ele><time>2026-03-29T09:02:08.19Z</time></trkpt><trkpt lat="45.139175" lon="11.1571567"><ele>11.0</ele><time>2026-03-29T09:02:10.189Z</time></trkpt><trkpt lat="45.1390867" lon="11.1572183"><ele>11.0</ele><time>2026-03-29T09:02:11.191Z</time></trkpt><trkpt lat="45.1389583" lon="11.1573017"><ele>11.0</ele><time>2026-03-29T09:02:12.19Z</time></trkpt><trkpt lat="45.1388083" lon="11.1573983"><ele>11.0</ele><time>2026-03-29T09:02:13.19Z</time></trkpt><trkpt lat="45.1386383" lon="11.157505"><ele>11.0</ele><time>2026-03-29T09:02:14.191Z</time></trkpt><trkpt lat="45.138455" lon="11.157625"><ele>11.0</ele><time>2026-03-29T09:02:15.191Z</time></trkpt><trkpt lat="45.13827" lon="11.1577467"><ele>11.0</ele><time>2026-03-29T09:02:16.19Z</time></trkpt><trkpt lat="45.1380767" lon="11.157875"><ele>11.0</ele><time>2026-03-29T09:02:17.19Z</time></trkpt><trkpt lat="45.1378817" lon="11.1580033"><ele>11.5</ele><time>2026-03-29T09:02:18.189Z</time></trkpt><trkpt lat="45.13768" lon="11.1581333"><ele>12.0</ele><time>2026-03-29T09:02:19.19Z</time></trkpt><trkpt lat="45.1374633" lon="11.1582717"><ele>11.5</ele><time>2026-03-29T09:02:20.192Z</time></trkpt><trkpt lat="45.1372317" lon="11.15842"><ele>11.0</ele><time>2026-03-29T09:02:21.189Z</time></trkpt><trkpt lat="45.1369933" lon="11.1585733"><ele>11.0</ele><time>2026-03-29T09:02:22.196Z</time></trkpt><trkpt lat="45.1367683" lon="11.1587233"><ele>11.0</ele><time>2026-03-29T09:02:23.19Z</time></trkpt><trkpt lat="45.1365633" lon="11.158855"><ele>10.666666666666666</ele><time>2026-03-29T09:02:24.189Z</time></trkpt><trkpt lat="45.1363767" lon="11.1589767"><ele>10.333333333333334</ele><time>2026-03-29T09:02:25.193Z</time></trkpt><trkpt lat="45.136205" lon="11.1590883"><ele>10.0</ele><time>2026-03-29T09:02:26.19Z</time></trkpt><trkpt lat="45.13605" lon="11.15919"><ele>9.75</ele><time>2026-03-29T09:02:27.193Z</time></trkpt><trkpt lat="45.135915" lon="11.1592767"><ele>9.5</ele><time>2026-03-29T09:02:28.19Z</time></trkpt><trkpt lat="45.1358" lon="11.1593533"><ele>9.25</ele><time>2026-03-29T09:02:29.193Z</time></trkpt><trkpt lat="45.1357067" lon="11.1594167"><ele>9.0</ele><time>2026-03-29T09:02:30.189Z</time></trkpt><trkpt lat="45.13564" lon="11.159485"><ele>9.0</ele><time>2026-03-29T09:02:31.19Z</time></trkpt><trkpt lat="45.13559" lon="11.1595617"><ele>9.0</ele><time>2026-03-29T09:02:32.191Z</time></trkpt><trkpt lat="45.135555" lon="11.159655"><ele>9.0</ele><time>2026-03-29T09:02:33.189Z</time></trkpt><trkpt lat="45.1355533" lon="11.1597867"><ele>9.0</ele><time>2026-03-29T09:02:34.191Z</time></trkpt><trkpt lat="45.1355783" lon="11.1599533"><ele>9.0</ele><time>2026-03-29T09:02:35.192Z</time></trkpt><trkpt lat="45.1356117" lon="11.1601217"><ele>9.333333333333334</ele><time>2026-03-29T09:02:36.191Z</time></trkpt><trkpt lat="45.1356333" lon="11.1602583"><ele>9.666666666666666</ele><time>2026-03-29T09:02:37.191Z</time></trkpt><trkpt lat="45.1356417" lon="11.1603733"><ele>10.0</ele><time>2026-03-29T09:02:38.191Z</time></trkpt><trkpt lat="45.1356333" lon="11.16048"><ele>10.333333333333332</ele><time>2026-03-29T09:02:39.19Z</time></trkpt><trkpt lat="45.13559" lon="11.160565"><ele>10.666666666666666</ele><time>2026-03-29T09:02:40.189Z</time></trkpt><trkpt lat="45.1354983" lon="11.160615"><ele>11.0</ele><time>2026-03-29T09:02:41.192Z</time></trkpt><trkpt lat="45.1353667" lon="11.1606733"><ele>10.666666666666666</ele><time>2026-03-29T09:02:42.189Z</time></trkpt><trkpt lat="45.1352117" lon="11.1607467"><ele>10.333333333333334</ele><time>2026-03-29T09:02:43.19Z</time></trkpt><trkpt lat="45.13503" lon="11.1608333"><ele>10.0</ele><time>2026-03-29T09:02:44.189Z</time></trkpt><trkpt lat="45.1348317" lon="11.1609233"><ele>10.0</ele><time>2026-03-29T09:02:45.191Z</time></trkpt><trkpt lat="45.1346233" lon="11.1610133"><ele>10.0</ele><time>2026-03-29T09:02:46.19Z</time></trkpt><trkpt lat="45.1344133" lon="11.1611033"><ele>10.0</ele><time>2026-03-29T09:02:47.19Z</time></trkpt><trkpt lat="45.1342" lon="11.1611883"><ele>10.0</ele><time>2026-03-29T09:02:48.19Z</time></trkpt><trkpt lat="45.133985" lon="11.16127"><ele>10.0</ele><time>2026-03-29T09:02:49.189Z</time></trkpt><trkpt lat="45.133765" lon="11.161355"><ele>10.0</ele><time>2026-03-29T09:02:50.191Z</time></trkpt><trkpt lat="45.1335417" lon="11.16144"><ele>10.0</ele><time>2026-03-29T09:02:51.189Z</time></trkpt><trkpt lat="45.133315" lon="11.16153"><ele>10.333333333333334</ele><time>2026-03-29T09:02:52.19Z</time></trkpt><trkpt lat="45.1330983" lon="11.1616183"><ele>10.666666666666666</ele><time>2026-03-29T09:02:53.189Z</time></trkpt><trkpt lat="45.1328917" lon="11.1617"><ele>11.0</ele><time>2026-03-29T09:02:54.189Z</time></trkpt><trkpt lat="45.132685" lon="11.16178"><ele>11.0</ele><time>2026-03-29T09:02:55.189Z</time></trkpt><trkpt lat="45.1324767" lon="11.1618583"><ele>11.0</ele><time>2026-03-29T09:02:56.189Z</time></trkpt><trkpt lat="45.1322683" lon="11.1619367"><ele>11.0</ele><time>2026-03-29T09:02:57.19Z</time></trkpt><trkpt lat="45.13206" lon="11.162015"><ele>10.666666666666666</ele><time>2026-03-29T09:02:58.191Z</time></trkpt><trkpt lat="45.13185" lon="11.1620967"><ele>10.333333333333334</ele><time>2026-03-29T09:02:59.192Z</time></trkpt><trkpt lat="45.13164" lon="11.162175"><ele>10.0</ele><time>2026-03-29T09:03:00.189Z</time></trkpt><trkpt lat="45.13144" lon="11.16225"><ele>10.0</ele><time>2026-03-29T09:03:01.19Z</time></trkpt><trkpt lat="45.1312567" lon="11.1623183"><ele>10.0</ele><time>2026-03-29T09:03:02.19Z</time></trkpt><trkpt lat="45.1310833" lon="11.1623817"><ele>10.0</ele><time>2026-03-29T09:03:03.19Z</time></trkpt><trkpt lat="45.1309167" lon="11.1624467"><ele>10.0</ele><time>2026-03-29T09:03:04.19Z</time></trkpt><trkpt lat="45.1307517" lon="11.16251"><ele>10.0</ele><time>2026-03-29T09:03:05.191Z</time></trkpt><trkpt lat="45.1305917" lon="11.1625717"><ele>10.0</ele><time>2026-03-29T09:03:06.19Z</time></trkpt><trkpt lat="45.1304467" lon="11.1626317"><ele>10.0</ele><time>2026-03-29T09:03:07.192Z</time></trkpt><trkpt lat="45.1303083" lon="11.162685"><ele>10.0</ele><time>2026-03-29T09:03:08.191Z</time></trkpt><trkpt lat="45.130175" lon="11.162735"><ele>10.0</ele><time>2026-03-29T09:03:09.189Z</time></trkpt><trkpt lat="45.1300533" lon="11.1627833"><ele>10.0</ele><time>2026-03-29T09:03:10.19Z</time></trkpt><trkpt lat="45.129945" lon="11.1628267"><ele>9.8</ele><time>2026-03-29T09:03:11.191Z</time></trkpt><trkpt lat="45.1298383" lon="11.1628683"><ele>9.6</ele><time>2026-03-29T09:03:12.189Z</time></trkpt><trkpt lat="45.1297417" lon="11.1629083"><ele>9.4</ele><time>2026-03-29T09:03:13.193Z</time></trkpt><trkpt lat="45.1296467" lon="11.1629483"><ele>9.2</ele><time>2026-03-29T09:03:14.19Z</time></trkpt><trkpt lat="45.1295433" lon="11.16299"><ele>9.0</ele><time>2026-03-29T09:03:15.19Z</time></trkpt><trkpt lat="45.1294233" lon="11.1630333"><ele>9.0</ele><time>2026-03-29T09:03:16.189Z</time></trkpt><trkpt lat="45.1293017" lon="11.1630783"><ele>9.0</ele><time>2026-03-29T09:03:17.189Z</time></trkpt><trkpt lat="45.1291867" lon="11.1631217"><ele>9.0</ele><time>2026-03-29T09:03:18.189Z</time></trkpt><trkpt lat="45.129085" lon="11.1631617"><ele>9.0</ele><time>2026-03-29T09:03:19.191Z</time></trkpt><trkpt lat="45.1289833" lon="11.1632033"><ele>9.2</ele><time>2026-03-29T09:03:20.191Z</time></trkpt><trkpt lat="45.1288833" lon="11.1632433"><ele>9.4</ele><time>2026-03-29T09:03:21.19Z</time></trkpt><trkpt lat="45.1287917" lon="11.16328"><ele>9.6</ele><time>2026-03-29T09:03:22.189Z</time></trkpt><trkpt lat="45.1287033" lon="11.1633183"><ele>9.8</ele><time>2026-03-29T09:03:23.191Z</time></trkpt><trkpt lat="45.1286117" lon="11.1633533"><ele>10.0</ele><time>2026-03-29T09:03:24.19Z</time></trkpt><trkpt lat="45.12851" lon="11.1633967"><ele>10.0</ele><time>2026-03-29T09:03:25.19Z</time></trkpt><trkpt lat="45.1284033" lon="11.1634433"><ele>10.0</ele><time>2026-03-29T09:03:26.189Z</time></trkpt><trkpt lat="45.1283" lon="11.1634883"><ele>10.0</ele><time>2026-03-29T09:03:27.19Z</time></trkpt><trkpt lat="45.1281933" lon="11.1635317"><ele>10.0</ele><time>2026-03-29T09:03:28.19Z</time></trkpt><trkpt lat="45.1280717" lon="11.163585"><ele>9.5</ele><time>2026-03-29T09:03:29.19Z</time></trkpt><trkpt lat="45.1279367" lon="11.163645"><ele>9.0</ele><time>2026-03-29T09:03:30.19Z</time></trkpt><trkpt lat="45.1278033" lon="11.1637"><ele>8.5</ele><time>2026-03-29T09:03:31.192Z</time></trkpt><trkpt lat="45.1276783" lon="11.16375"><ele>8.0</ele><time>2026-03-29T09:03:32.191Z</time></trkpt><trkpt lat="45.1275633" lon="11.1637983"><ele>8.0</ele><time>2026-03-29T09:03:33.191Z</time></trkpt><trkpt lat="45.127445" lon="11.1638467"><ele>8.0</ele><time>2026-03-29T09:03:34.189Z</time></trkpt><trkpt lat="45.1273267" lon="11.1638933"><ele>8.0</ele><time>2026-03-29T09:03:35.191Z</time></trkpt><trkpt lat="45.127205" lon="11.1639417"><ele>8.0</ele><time>2026-03-29T09:03:36.191Z</time></trkpt><trkpt lat="45.1270883" lon="11.16399"><ele>8.25</ele><time>2026-03-29T09:03:37.19Z</time></trkpt><trkpt lat="45.12698" lon="11.164035"><ele>8.5</ele><time>2026-03-29T09:03:38.192Z</time></trkpt><trkpt lat="45.126875" lon="11.1640783"><ele>8.75</ele><time>2026-03-29T09:03:39.189Z</time></trkpt><trkpt lat="45.1267667" lon="11.164125"><ele>9.0</ele><time>2026-03-29T09:03:40.189Z</time></trkpt><trkpt lat="45.126655" lon="11.1641717"><ele>9.0</ele><time>2026-03-29T09:03:41.192Z</time></trkpt><trkpt lat="45.1265417" lon="11.1642167"><ele>9.0</ele><time>2026-03-29T09:03:42.189Z</time></trkpt><trkpt lat="45.12643" lon="11.1642633"><ele>9.0</ele><time>2026-03-29T09:03:43.192Z</time></trkpt><trkpt lat="45.12632" lon="11.1643083"><ele>9.0</ele><time>2026-03-29T09:03:44.191Z</time></trkpt><trkpt lat="45.1262133" lon="11.164355"><ele>9.0</ele><time>2026-03-29T09:03:45.189Z</time></trkpt><trkpt lat="45.1261083" lon="11.1644017"><ele>9.0</ele><time>2026-03-29T09:03:46.189Z</time></trkpt><trkpt lat="45.126005" lon="11.1644417"><ele>9.0</ele><time>2026-03-29T09:03:47.19Z</time></trkpt><trkpt lat="45.1259017" lon="11.1644783"><ele>9.0</ele><time>2026-03-29T09:03:48.189Z</time></trkpt><trkpt lat="45.1258017" lon="11.16452"><ele>9.0</ele><time>2026-03-29T09:03:49.191Z</time></trkpt><trkpt lat="45.1257" lon="11.164565"><ele>9.25</ele><time>2026-03-29T09:03:50.191Z</time></trkpt><trkpt lat="45.1256017" lon="11.1646117"><ele>9.5</ele><time>2026-03-29T09:03:51.19Z</time></trkpt><trkpt lat="45.12549" lon="11.16466"><ele>9.75</ele><time>2026-03-29T09:03:52.19Z</time></trkpt><trkpt lat="45.125375" lon="11.16471"><ele>10.0</ele><time>2026-03-29T09:03:53.192Z</time></trkpt><trkpt lat="45.1252633" lon="11.164755"><ele>10.0</ele><time>2026-03-29T09:03:54.19Z</time></trkpt><trkpt lat="45.1251567" lon="11.1647983"><ele>10.0</ele><time>2026-03-29T09:03:55.191Z</time></trkpt><trkpt lat="45.1250583" lon="11.16484"><ele>10.0</ele><time>2026-03-29T09:03:56.19Z</time></trkpt><trkpt lat="45.124975" lon="11.1648783"><ele>10.0</ele><time>2026-03-29T09:03:57.19Z</time></trkpt><trkpt lat="45.1249033" lon="11.16491"><ele>10.0</ele><time>2026-03-29T09:03:58.191Z</time></trkpt><trkpt lat="45.12484" lon="11.1649417"><ele>10.0</ele><time>2026-03-29T09:03:59.19Z</time></trkpt><trkpt lat="45.1247533" lon="11.1650217"><ele>9.8</ele><time>2026-03-29T09:04:01.192Z</time></trkpt><trkpt lat="45.1246817" lon="11.1651333"><ele>9.6</ele><time>2026-03-29T09:04:03.189Z</time></trkpt><trkpt lat="45.1246233" lon="11.1652783"><ele>9.4</ele><time>2026-03-29T09:04:05.192Z</time></trkpt><trkpt lat="45.1245933" lon="11.16537"><ele>9.2</ele><time>2026-03-29T09:04:06.19Z</time></trkpt><trkpt lat="45.1245533" lon="11.1654783"><ele>9.0</ele><time>2026-03-29T09:04:07.191Z</time></trkpt><trkpt lat="45.1245067" lon="11.1656117"><ele>9.0</ele><time>2026-03-29T09:04:08.189Z</time></trkpt><trkpt lat="45.124455" lon="11.1657567"><ele>9.0</ele><time>2026-03-29T09:04:09.189Z</time></trkpt><trkpt lat="45.1244017" lon="11.1659067"><ele>9.0</ele><time>2026-03-29T09:04:10.191Z</time></trkpt><trkpt lat="45.1243483" lon="11.1660517"><ele>9.0</ele><time>2026-03-29T09:04:11.191Z</time></trkpt><trkpt lat="45.1242983" lon="11.1661933"><ele>9.0</ele><time>2026-03-29T09:04:12.19Z</time></trkpt><trkpt lat="45.1242467" lon="11.166335"><ele>9.0</ele><time>2026-03-29T09:04:13.191Z</time></trkpt><trkpt lat="45.12419" lon="11.166485"><ele>9.0</ele><time>2026-03-29T09:04:14.191Z</time></trkpt><trkpt lat="45.124135" lon="11.1666517"><ele>9.0</ele><time>2026-03-29T09:04:15.19Z</time></trkpt><trkpt lat="45.1240733" lon="11.166825"><ele>9.0</ele><time>2026-03-29T09:04:16.19Z</time></trkpt><trkpt lat="45.1240083" lon="11.1670083"><ele>9.0</ele><time>2026-03-29T09:04:17.189Z</time></trkpt><trkpt lat="45.123945" lon="11.167195"><ele>9.0</ele><time>2026-03-29T09:04:18.195Z</time></trkpt><trkpt lat="45.12388" lon="11.1673817"><ele>9.0</ele><time>2026-03-29T09:04:19.195Z</time></trkpt><trkpt lat="45.1238183" lon="11.167565"><ele>9.0</ele><time>2026-03-29T09:04:20.19Z</time></trkpt><trkpt lat="45.1237617" lon="11.1677417"><ele>9.0</ele><time>2026-03-29T09:04:21.191Z</time></trkpt><trkpt lat="45.1237067" lon="11.1679117"><ele>9.0</ele><time>2026-03-29T09:04:22.193Z</time></trkpt><trkpt lat="45.1236517" lon="11.1680783"><ele>9.0</ele><time>2026-03-29T09:04:23.193Z</time></trkpt><trkpt lat="45.123595" lon="11.1682417"><ele>9.0</ele><time>2026-03-29T09:04:24.191Z</time></trkpt><trkpt lat="45.1235383" lon="11.1683917"><ele>9.0</ele><time>2026-03-29T09:04:25.189Z</time></trkpt><trkpt lat="45.1234833" lon="11.1685417"><ele>9.0</ele><time>2026-03-29T09:04:26.191Z</time></trkpt><trkpt lat="45.1234267" lon="11.1686917"><ele>9.0</ele><time>2026-03-29T09:04:27.191Z</time></trkpt><trkpt lat="45.1233733" lon="11.1688467"><ele>9.0</ele><time>2026-03-29T09:04:28.19Z</time></trkpt><trkpt lat="45.1233183" lon="11.169015"><ele>9.0</ele><time>2026-03-29T09:04:29.189Z</time></trkpt><trkpt lat="45.12326" lon="11.169195"><ele>9.0</ele><time>2026-03-29T09:04:30.189Z</time></trkpt><trkpt lat="45.1231983" lon="11.1693733"><ele>9.0</ele><time>2026-03-29T09:04:31.192Z</time></trkpt><trkpt lat="45.123135" lon="11.16955"><ele>9.25</ele><time>2026-03-29T09:04:32.191Z</time></trkpt><trkpt lat="45.1230667" lon="11.1697267"><ele>9.5</ele><time>2026-03-29T09:04:33.189Z</time></trkpt><trkpt lat="45.123" lon="11.1699067"><ele>9.75</ele><time>2026-03-29T09:04:34.19Z</time></trkpt><trkpt lat="45.1229317" lon="11.170095"><ele>10.0</ele><time>2026-03-29T09:04:35.193Z</time></trkpt><trkpt lat="45.12286" lon="11.1702967"><ele>10.0</ele><time>2026-03-29T09:04:36.19Z</time></trkpt><trkpt lat="45.122785" lon="11.17051"><ele>10.0</ele><time>2026-03-29T09:04:37.191Z</time></trkpt><trkpt lat="45.12271" lon="11.170725"><ele>10.0</ele><time>2026-03-29T09:04:38.19Z</time></trkpt><trkpt lat="45.1226383" lon="11.1709317"><ele>10.333333333333334</ele><time>2026-03-29T09:04:39.191Z</time></trkpt><trkpt lat="45.122565" lon="11.1711417"><ele>10.666666666666666</ele><time>2026-03-29T09:04:40.189Z</time></trkpt><trkpt lat="45.12249" lon="11.1713567"><ele>11.0</ele><time>2026-03-29T09:04:41.192Z</time></trkpt><trkpt lat="45.122415" lon="11.1715683"><ele>10.333333333333332</ele><time>2026-03-29T09:04:42.19Z</time></trkpt><trkpt lat="45.1223417" lon="11.17178"><ele>9.666666666666666</ele><time>2026-03-29T09:04:43.191Z</time></trkpt><trkpt lat="45.1222633" lon="11.1719967"><ele>9.0</ele><time>2026-03-29T09:04:44.191Z</time></trkpt><trkpt lat="45.1221883" lon="11.1722067"><ele>9.25</ele><time>2026-03-29T09:04:45.194Z</time></trkpt><trkpt lat="45.12212" lon="11.1724033"><ele>9.5</ele><time>2026-03-29T09:04:46.191Z</time></trkpt><trkpt lat="45.1220533" lon="11.172595"><ele>9.75</ele><time>2026-03-29T09:04:47.191Z</time></trkpt><trkpt lat="45.1219917" lon="11.1727717"><ele>10.0</ele><time>2026-03-29T09:04:48.191Z</time></trkpt><trkpt lat="45.12194" lon="11.172925"><ele>10.0</ele><time>2026-03-29T09:04:49.192Z</time></trkpt><trkpt lat="45.121895" lon="11.1730467"><ele>10.0</ele><time>2026-03-29T09:04:50.19Z</time></trkpt><trkpt lat="45.1218583" lon="11.173135"><ele>10.0</ele><time>2026-03-29T09:04:51.191Z</time></trkpt><trkpt lat="45.121815" lon="11.173245"><ele>10.0</ele><time>2026-03-29T09:04:53.192Z</time></trkpt><trkpt lat="45.1217867" lon="11.1733383"><ele>10.0</ele><time>2026-03-29T09:04:55.191Z</time></trkpt><trkpt lat="45.1217433" lon="11.1734633"><ele>10.0</ele><time>2026-03-29T09:04:57.189Z</time></trkpt><trkpt lat="45.1216967" lon="11.1735983"><ele>9.8</ele><time>2026-03-29T09:04:59.192Z</time></trkpt><trkpt lat="45.1216667" lon="11.1736967"><ele>9.6</ele><time>2026-03-29T09:05:00.19Z</time></trkpt><trkpt lat="45.1216317" lon="11.1738133"><ele>9.4</ele><time>2026-03-29T09:05:01.189Z</time></trkpt><trkpt lat="45.1215917" lon="11.1739467"><ele>9.2</ele><time>2026-03-29T09:05:02.19Z</time></trkpt><trkpt lat="45.1215417" lon="11.17409"><ele>9.0</ele><time>2026-03-29T09:05:03.192Z</time></trkpt><trkpt lat="45.12149" lon="11.1742233"><ele>9.0</ele><time>2026-03-29T09:05:04.191Z</time></trkpt><trkpt lat="45.1214467" lon="11.1743333"><ele>9.0</ele><time>2026-03-29T09:05:05.193Z</time></trkpt><trkpt lat="45.1214133" lon="11.174425"><ele>9.0</ele><time>2026-03-29T09:05:06.19Z</time></trkpt><trkpt lat="45.1213733" lon="11.1745517"><ele>9.0</ele><time>2026-03-29T09:05:08.191Z</time></trkpt><trkpt lat="45.121335" lon="11.1746683"><ele>9.0</ele><time>2026-03-29T09:05:10.19Z</time></trkpt><trkpt lat="45.1213" lon="11.1747783"><ele>9.0</ele><time>2026-03-29T09:05:12.192Z</time></trkpt><trkpt lat="45.1212733" lon="11.1748783"><ele>9.4</ele><time>2026-03-29T09:05:14.192Z</time></trkpt><trkpt lat="45.1212383" lon="11.174995"><ele>9.8</ele><time>2026-03-29T09:05:17.19Z</time></trkpt><trkpt lat="45.12119" lon="11.1751117"><ele>10.200000000000001</ele><time>2026-03-29T09:05:19.191Z</time></trkpt><trkpt lat="45.1211383" lon="11.1752583"><ele>10.600000000000001</ele><time>2026-03-29T09:05:21.189Z</time></trkpt><trkpt lat="45.121105" lon="11.1753567"><ele>11.0</ele><time>2026-03-29T09:05:22.19Z</time></trkpt><trkpt lat="45.1210683" lon="11.1754717"><ele>11.0</ele><time>2026-03-29T09:05:23.19Z</time></trkpt><trkpt lat="45.1210267" lon="11.1756"><ele>11.0</ele><time>2026-03-29T09:05:24.19Z</time></trkpt><trkpt lat="45.1209767" lon="11.1757417"><ele>11.0</ele><time>2026-03-29T09:05:25.19Z</time></trkpt><trkpt lat="45.120925" lon="11.1758833"><ele>11.0</ele><time>2026-03-29T09:05:26.192Z</time></trkpt><trkpt lat="45.1208783" lon="11.17602"><ele>11.0</ele><time>2026-03-29T09:05:27.191Z</time></trkpt><trkpt lat="45.1208333" lon="11.1761517"><ele>10.600000000000001</ele><time>2026-03-29T09:05:28.19Z</time></trkpt><trkpt lat="45.1207917" lon="11.1762717"><ele>10.200000000000001</ele><time>2026-03-29T09:05:29.191Z</time></trkpt><trkpt lat="45.12075" lon="11.1763833"><ele>9.8</ele><time>2026-03-29T09:05:30.191Z</time></trkpt><trkpt lat="45.1207083" lon="11.1764967"><ele>9.4</ele><time>2026-03-29T09:05:31.191Z</time></trkpt><trkpt lat="45.1206667" lon="11.17662"><ele>9.0</ele><time>2026-03-29T09:05:32.191Z</time></trkpt><trkpt lat="45.120625" lon="11.176745"><ele>9.0</ele><time>2026-03-29T09:05:33.189Z</time></trkpt><trkpt lat="45.120585" lon="11.1768633"><ele>9.0</ele><time>2026-03-29T09:05:34.189Z</time></trkpt><trkpt lat="45.120545" lon="11.17698"><ele>9.0</ele><time>2026-03-29T09:05:35.191Z</time></trkpt><trkpt lat="45.1205" lon="11.1771"><ele>9.0</ele><time>2026-03-29T09:05:36.189Z</time></trkpt><trkpt lat="45.1204517" lon="11.177235"><ele>9.0</ele><time>2026-03-29T09:05:37.191Z</time></trkpt><trkpt lat="45.1203983" lon="11.17739"><ele>9.25</ele><time>2026-03-29T09:05:38.191Z</time></trkpt><trkpt lat="45.1203433" lon="11.1775517"><ele>9.5</ele><time>2026-03-29T09:05:39.19Z</time></trkpt><trkpt lat="45.1202917" lon="11.1777017"><ele>9.75</ele><time>2026-03-29T09:05:40.19Z</time></trkpt><trkpt lat="45.1202417" lon="11.177845"><ele>10.0</ele><time>2026-03-29T09:05:41.192Z</time></trkpt><trkpt lat="45.1201933" lon="11.1779867"><ele>10.0</ele><time>2026-03-29T09:05:42.189Z</time></trkpt><trkpt lat="45.1201533" lon="11.1781"><ele>10.0</ele><time>2026-03-29T09:05:43.192Z</time></trkpt><trkpt lat="45.12012" lon="11.1781883"><ele>10.0</ele><time>2026-03-29T09:05:44.19Z</time></trkpt><trkpt lat="45.1200617" lon="11.1783317"><ele>10.0</ele><time>2026-03-29T09:05:46.189Z</time></trkpt><trkpt lat="45.12003" lon="11.17843"><ele>10.0</ele><time>2026-03-29T09:05:47.191Z</time></trkpt><trkpt lat="45.1199917" lon="11.1785483"><ele>10.0</ele><time>2026-03-29T09:05:48.189Z</time></trkpt><trkpt lat="45.1199433" lon="11.178685"><ele>9.8</ele><time>2026-03-29T09:05:49.191Z</time></trkpt><trkpt lat="45.1198967" lon="11.178815"><ele>9.6</ele><time>2026-03-29T09:05:50.191Z</time></trkpt><trkpt lat="45.1198483" lon="11.178945"><ele>9.4</ele><time>2026-03-29T09:05:51.19Z</time></trkpt><trkpt lat="45.1197967" lon="11.1790833"><ele>9.2</ele><time>2026-03-29T09:05:52.19Z</time></trkpt><trkpt lat="45.119745" lon="11.1792267"><ele>9.0</ele><time>2026-03-29T09:05:53.19Z</time></trkpt><trkpt lat="45.1197017" lon="11.1793567"><ele>9.0</ele><time>2026-03-29T09:05:54.19Z</time></trkpt><trkpt lat="45.1196617" lon="11.1794717"><ele>9.0</ele><time>2026-03-29T09:05:55.19Z</time></trkpt><trkpt lat="45.1196333" lon="11.1795633"><ele>9.0</ele><time>2026-03-29T09:05:56.19Z</time></trkpt><trkpt lat="45.1195983" lon="11.179675"><ele>9.0</ele><time>2026-03-29T09:05:58.19Z</time></trkpt><trkpt lat="45.11955" lon="11.1798317"><ele>9.0</ele><time>2026-03-29T09:06:00.189Z</time></trkpt><trkpt lat="45.119515" lon="11.179935"><ele>9.0</ele><time>2026-03-29T09:06:01.189Z</time></trkpt><trkpt lat="45.119475" lon="11.1800433"><ele>9.0</ele><time>2026-03-29T09:06:02.191Z</time></trkpt><trkpt lat="45.11943" lon="11.18016"><ele>9.0</ele><time>2026-03-29T09:06:03.189Z</time></trkpt><trkpt lat="45.1193783" lon="11.18029"><ele>9.0</ele><time>2026-03-29T09:06:04.189Z</time></trkpt><trkpt lat="45.11932" lon="11.1804467"><ele>9.0</ele><time>2026-03-29T09:06:05.19Z</time></trkpt><trkpt lat="45.1192617" lon="11.1806083"><ele>8.75</ele><time>2026-03-29T09:06:06.189Z</time></trkpt><trkpt lat="45.1192067" lon="11.18076"><ele>8.5</ele><time>2026-03-29T09:06:07.192Z</time></trkpt><trkpt lat="45.1191583" lon="11.1809033"><ele>8.25</ele><time>2026-03-29T09:06:08.19Z</time></trkpt><trkpt lat="45.11911" lon="11.1810483"><ele>8.0</ele><time>2026-03-29T09:06:09.19Z</time></trkpt><trkpt lat="45.119065" lon="11.1811817"><ele>8.0</ele><time>2026-03-29T09:06:10.191Z</time></trkpt><trkpt lat="45.1190233" lon="11.1813"><ele>8.0</ele><time>2026-03-29T09:06:11.19Z</time></trkpt><trkpt lat="45.1189767" lon="11.181425"><ele>8.0</ele><time>2026-03-29T09:06:12.189Z</time></trkpt><trkpt lat="45.11893" lon="11.1815567"><ele>8.0</ele><time>2026-03-29T09:06:13.189Z</time></trkpt><trkpt lat="45.1188783" lon="11.1816967"><ele>8.0</ele><time>2026-03-29T09:06:14.195Z</time></trkpt><trkpt lat="45.1188217" lon="11.18185"><ele>8.0</ele><time>2026-03-29T09:06:15.19Z</time></trkpt><trkpt lat="45.1187633" lon="11.1820117"><ele>8.0</ele><time>2026-03-29T09:06:16.19Z</time></trkpt><trkpt lat="45.1187033" lon="11.182185"><ele>8.0</ele><time>2026-03-29T09:06:17.19Z</time></trkpt><trkpt lat="45.118645" lon="11.182355"><ele>8.0</ele><time>2026-03-29T09:06:18.189Z</time></trkpt><trkpt lat="45.1185883" lon="11.1825217"><ele>8.0</ele><time>2026-03-29T09:06:19.189Z</time></trkpt><trkpt lat="45.1185267" lon="11.1827033"><ele>8.0</ele><time>2026-03-29T09:06:20.189Z</time></trkpt><trkpt lat="45.1184633" lon="11.18289"><ele>8.0</ele><time>2026-03-29T09:06:21.189Z</time></trkpt><trkpt lat="45.118405" lon="11.1830633"><ele>8.0</ele><time>2026-03-29T09:06:22.19Z</time></trkpt><trkpt lat="45.1183567" lon="11.18321"><ele>7.999999999999999</ele><time>2026-03-29T09:06:23.19Z</time></trkpt><trkpt lat="45.1183167" lon="11.1833267"><ele>8.0</ele><time>2026-03-29T09:06:24.189Z</time></trkpt><trkpt lat="45.118285" lon="11.183415"><ele>8.0</ele><time>2026-03-29T09:06:25.19Z</time></trkpt><trkpt lat="45.1182467" lon="11.1835167"><ele>8.0</ele><time>2026-03-29T09:06:27.189Z</time></trkpt><trkpt lat="45.118215" lon="11.183655"><ele>7.999999999999999</ele><time>2026-03-29T09:07:49.19Z</time></trkpt><trkpt lat="45.11818" lon="11.183765"><ele>8.0</ele><time>2026-03-29T09:07:50.19Z</time></trkpt><trkpt lat="45.1181333" lon="11.1838967"><ele>8.0</ele><time>2026-03-29T09:07:51.189Z</time></trkpt><trkpt lat="45.11808" lon="11.1840417"><ele>8.0</ele><time>2026-03-29T09:07:52.189Z</time></trkpt><trkpt lat="45.1180267" lon="11.1841833"><ele>8.0</ele><time>2026-03-29T09:07:53.19Z</time></trkpt><trkpt lat="45.1179683" lon="11.1843333"><ele>8.0</ele><time>2026-03-29T09:07:54.189Z</time></trkpt><trkpt lat="45.117905" lon="11.1844967"><ele>8.0</ele><time>2026-03-29T09:07:55.19Z</time></trkpt><trkpt lat="45.1178483" lon="11.1846533"><ele>8.0</ele><time>2026-03-29T09:07:56.19Z</time></trkpt><trkpt lat="45.1177967" lon="11.1847967"><ele>8.0</ele><time>2026-03-29T09:07:57.189Z</time></trkpt><trkpt lat="45.11775" lon="11.18493"><ele>8.0</ele><time>2026-03-29T09:07:58.189Z</time></trkpt><trkpt lat="45.1177017" lon="11.1850567"><ele>8.0</ele><time>2026-03-29T09:07:59.191Z</time></trkpt><trkpt lat="45.11765" lon="11.1851917"><ele>7.800000000000001</ele><time>2026-03-29T09:08:00.19Z</time></trkpt><trkpt lat="45.1175967" lon="11.1853333"><ele>7.6000000000000005</ele><time>2026-03-29T09:08:01.19Z</time></trkpt><trkpt lat="45.117545" lon="11.1854683"><ele>7.3999999999999995</ele><time>2026-03-29T09:08:02.191Z</time></trkpt><trkpt lat="45.1174983" lon="11.1855917"><ele>7.199999999999999</ele><time>2026-03-29T09:08:03.189Z</time></trkpt><trkpt lat="45.11746" lon="11.1857017"><ele>7.0</ele><time>2026-03-29T09:08:04.189Z</time></trkpt><trkpt lat="45.1174267" lon="11.185795"><ele>7.166666666666667</ele><time>2026-03-29T09:08:05.189Z</time></trkpt><trkpt lat="45.117395" lon="11.18588"><ele>7.333333333333334</ele><time>2026-03-29T09:08:06.19Z</time></trkpt><trkpt lat="45.11736" lon="11.1859717"><ele>7.5</ele><time>2026-03-29T09:08:07.189Z</time></trkpt><trkpt lat="45.1173167" lon="11.1860867"><ele>7.666666666666666</ele><time>2026-03-29T09:08:08.189Z</time></trkpt><trkpt lat="45.1172733" lon="11.18622"><ele>7.833333333333333</ele><time>2026-03-29T09:08:09.189Z</time></trkpt><trkpt lat="45.1172333" lon="11.1863533"><ele>8.0</ele><time>2026-03-29T09:08:10.189Z</time></trkpt><trkpt lat="45.1171933" lon="11.1864767"><ele>8.166666666666666</ele><time>2026-03-29T09:08:11.191Z</time></trkpt><trkpt lat="45.1171533" lon="11.1865883"><ele>8.333333333333332</ele><time>2026-03-29T09:08:12.189Z</time></trkpt><trkpt lat="45.117105" lon="11.186695"><ele>8.5</ele><time>2026-03-29T09:08:13.191Z</time></trkpt><trkpt lat="45.1170533" lon="11.1867983"><ele>8.666666666666666</ele><time>2026-03-29T09:08:14.19Z</time></trkpt><trkpt lat="45.117005" lon="11.186885"><ele>8.833333333333334</ele><time>2026-03-29T09:08:15.189Z</time></trkpt><trkpt lat="45.1169617" lon="11.1869533"><ele>9.0</ele><time>2026-03-29T09:08:16.19Z</time></trkpt><trkpt lat="45.1169117" lon="11.18703"><ele>9.0</ele><time>2026-03-29T09:08:18.19Z</time></trkpt></trkseg></trk></gpx>